<?xml version="1.0" encoding="UTF-8" standalone="no" ?>
<gpx xmlns="http://www.topografix.com/GPX/1/1" xmlns:xsi="http://www.w3.org/2001/XMLSchema-instance" xsi:schemaLocation="http://www.topografix.com/GPX/1/1 http://www.topografix.com/GPX/1/1/gpx.xsd" version="1.1" creator="VisuGPX - https://www.visugpx.com">
  <metadata>
    <name>Sortie Etueffont </name>
    <desc><![CDATA[Bourbach-Le-Haut, col du Schirm descente sur Bourbach-Le-Bas passage au parcours sportif, puis Sentheim au-dessus des jardins, Lac de la Seigneurie par triangle jaune, Leval par la Buse, Rougemont-Le-Chateau par le tour du village, direction Étueffont et monter vers La Madelaine Val Des Anges, demi-tour car perte GPS. (pas retrouvé) retour par Etueffont centre puis direct Leval , rond rouge puis route vers Lauw et piste cyclable vers Masevaux, route forestière vers Vorderschirm , gros chêne, col du Schirm, jardin partagé, B-L-H.]]></desc>
  </metadata>
  <trk>
    <name><![CDATA[Sortie avec Anne et Daniel]]></name>
    <trkseg>
      <trkpt lat="47.79435" lon="7.03013">
        <ele>535.2</ele>
        <time>2022-10-10T11:28:50Z</time>
      </trkpt>
      <trkpt lat="47.79431" lon="7.03012">
        <ele>535.2</ele>
        <time>2022-10-10T11:28:51Z</time>
      </trkpt>
      <trkpt lat="47.79425" lon="7.03014">
        <ele>535.2</ele>
        <time>2022-10-10T11:28:58Z</time>
      </trkpt>
      <trkpt lat="47.79425" lon="7.03017">
        <ele>535.4</ele>
        <time>2022-10-10T11:29:00Z</time>
      </trkpt>
      <trkpt lat="47.79424" lon="7.03033">
        <ele>536.3</ele>
        <time>2022-10-10T11:29:07Z</time>
      </trkpt>
      <trkpt lat="47.79432" lon="7.03049">
        <ele>537.5</ele>
        <time>2022-10-10T11:29:13Z</time>
      </trkpt>
      <trkpt lat="47.79441" lon="7.03071">
        <ele>539</ele>
        <time>2022-10-10T11:29:21Z</time>
      </trkpt>
      <trkpt lat="47.79449" lon="7.0309">
        <ele>540.4</ele>
        <time>2022-10-10T11:29:28Z</time>
      </trkpt>
      <trkpt lat="47.79459" lon="7.03111">
        <ele>542.2</ele>
        <time>2022-10-10T11:29:36Z</time>
      </trkpt>
      <trkpt lat="47.7947" lon="7.03125">
        <ele>543.4</ele>
        <time>2022-10-10T11:29:43Z</time>
      </trkpt>
      <trkpt lat="47.7948" lon="7.03124">
        <ele>544.3</ele>
        <time>2022-10-10T11:29:48Z</time>
      </trkpt>
      <trkpt lat="47.79491" lon="7.03108">
        <ele>546.1</ele>
        <time>2022-10-10T11:29:54Z</time>
      </trkpt>
      <trkpt lat="47.79502" lon="7.03072">
        <ele>548.6</ele>
        <time>2022-10-10T11:30:03Z</time>
      </trkpt>
      <trkpt lat="47.79507" lon="7.03043">
        <ele>550.7</ele>
        <time>2022-10-10T11:30:11Z</time>
      </trkpt>
      <trkpt lat="47.79514" lon="7.03014">
        <ele>553</ele>
        <time>2022-10-10T11:30:19Z</time>
      </trkpt>
      <trkpt lat="47.79519" lon="7.02991">
        <ele>554.7</ele>
        <time>2022-10-10T11:30:25Z</time>
      </trkpt>
      <trkpt lat="47.79513" lon="7.02968">
        <ele>554.9</ele>
        <time>2022-10-10T11:30:30Z</time>
      </trkpt>
      <trkpt lat="47.795" lon="7.02939">
        <ele>554.8</ele>
        <time>2022-10-10T11:30:36Z</time>
      </trkpt>
      <trkpt lat="47.79483" lon="7.02908">
        <ele>554.8</ele>
        <time>2022-10-10T11:30:43Z</time>
      </trkpt>
      <trkpt lat="47.7946" lon="7.02875">
        <ele>554.7</ele>
        <time>2022-10-10T11:30:51Z</time>
      </trkpt>
      <trkpt lat="47.79455" lon="7.02865">
        <ele>554.7</ele>
        <time>2022-10-10T11:30:53Z</time>
      </trkpt>
      <trkpt lat="47.79452" lon="7.02851">
        <ele>554.6</ele>
        <time>2022-10-10T11:30:55Z</time>
      </trkpt>
      <trkpt lat="47.79453" lon="7.02831">
        <ele>554.6</ele>
        <time>2022-10-10T11:30:58Z</time>
      </trkpt>
      <trkpt lat="47.79454" lon="7.02825">
        <ele>554.7</ele>
        <time>2022-10-10T11:30:59Z</time>
      </trkpt>
      <trkpt lat="47.79457" lon="7.0282">
        <ele>554.7</ele>
        <time>2022-10-10T11:31:00Z</time>
      </trkpt>
      <trkpt lat="47.79466" lon="7.02807">
        <ele>554.8</ele>
        <time>2022-10-10T11:31:03Z</time>
      </trkpt>
      <trkpt lat="47.79469" lon="7.02803">
        <ele>554.8</ele>
        <time>2022-10-10T11:31:04Z</time>
      </trkpt>
      <trkpt lat="47.79488" lon="7.02784">
        <ele>554.9</ele>
        <time>2022-10-10T11:31:09Z</time>
      </trkpt>
      <trkpt lat="47.79494" lon="7.02774">
        <ele>555</ele>
        <time>2022-10-10T11:31:11Z</time>
      </trkpt>
      <trkpt lat="47.795" lon="7.02759">
        <ele>555.2</ele>
        <time>2022-10-10T11:31:14Z</time>
      </trkpt>
      <trkpt lat="47.79503" lon="7.02729">
        <ele>555.7</ele>
        <time>2022-10-10T11:31:19Z</time>
      </trkpt>
      <trkpt lat="47.79502" lon="7.02687">
        <ele>556.7</ele>
        <time>2022-10-10T11:31:26Z</time>
      </trkpt>
      <trkpt lat="47.79497" lon="7.02657">
        <ele>557.9</ele>
        <time>2022-10-10T11:31:32Z</time>
      </trkpt>
      <trkpt lat="47.79489" lon="7.02631">
        <ele>559.5</ele>
        <time>2022-10-10T11:31:38Z</time>
      </trkpt>
      <trkpt lat="47.79472" lon="7.02619">
        <ele>561.2</ele>
        <time>2022-10-10T11:31:44Z</time>
      </trkpt>
      <trkpt lat="47.79463" lon="7.0262">
        <ele>562</ele>
        <time>2022-10-10T11:31:48Z</time>
      </trkpt>
      <trkpt lat="47.79455" lon="7.02634">
        <ele>563</ele>
        <time>2022-10-10T11:31:52Z</time>
      </trkpt>
      <trkpt lat="47.79444" lon="7.02662">
        <ele>563.8</ele>
        <time>2022-10-10T11:31:58Z</time>
      </trkpt>
      <trkpt lat="47.79428" lon="7.02705">
        <ele>564.9</ele>
        <time>2022-10-10T11:32:07Z</time>
      </trkpt>
      <trkpt lat="47.79422" lon="7.02724">
        <ele>566</ele>
        <time>2022-10-10T11:32:12Z</time>
      </trkpt>
      <trkpt lat="47.79415" lon="7.02739">
        <ele>567.2</ele>
        <time>2022-10-10T11:32:18Z</time>
      </trkpt>
      <trkpt lat="47.79402" lon="7.02745">
        <ele>568.6</ele>
        <time>2022-10-10T11:32:22Z</time>
      </trkpt>
      <trkpt lat="47.79385" lon="7.02744">
        <ele>570.2</ele>
        <time>2022-10-10T11:32:28Z</time>
      </trkpt>
      <trkpt lat="47.79367" lon="7.02738">
        <ele>571.6</ele>
        <time>2022-10-10T11:32:34Z</time>
      </trkpt>
      <trkpt lat="47.7935" lon="7.02735">
        <ele>572.7</ele>
        <time>2022-10-10T11:32:39Z</time>
      </trkpt>
      <trkpt lat="47.7933" lon="7.02725">
        <ele>574.1</ele>
        <time>2022-10-10T11:32:45Z</time>
      </trkpt>
      <trkpt lat="47.79316" lon="7.02705">
        <ele>575.3</ele>
        <time>2022-10-10T11:32:51Z</time>
      </trkpt>
      <trkpt lat="47.79307" lon="7.02692">
        <ele>576</ele>
        <time>2022-10-10T11:32:55Z</time>
      </trkpt>
      <trkpt lat="47.79286" lon="7.02675">
        <ele>577.2</ele>
        <time>2022-10-10T11:33:01Z</time>
      </trkpt>
      <trkpt lat="47.79269" lon="7.02659">
        <ele>578.3</ele>
        <time>2022-10-10T11:33:07Z</time>
      </trkpt>
      <trkpt lat="47.79253" lon="7.02642">
        <ele>579.4</ele>
        <time>2022-10-10T11:33:13Z</time>
      </trkpt>
      <trkpt lat="47.79236" lon="7.02636">
        <ele>580.6</ele>
        <time>2022-10-10T11:33:18Z</time>
      </trkpt>
      <trkpt lat="47.79219" lon="7.02638">
        <ele>581.7</ele>
        <time>2022-10-10T11:33:23Z</time>
      </trkpt>
      <trkpt lat="47.792" lon="7.02638">
        <ele>582.7</ele>
        <time>2022-10-10T11:33:28Z</time>
      </trkpt>
      <trkpt lat="47.79177" lon="7.02631">
        <ele>583.8</ele>
        <time>2022-10-10T11:33:34Z</time>
      </trkpt>
      <trkpt lat="47.79157" lon="7.0262">
        <ele>584.6</ele>
        <time>2022-10-10T11:33:40Z</time>
      </trkpt>
      <trkpt lat="47.79134" lon="7.02605">
        <ele>585.3</ele>
        <time>2022-10-10T11:33:46Z</time>
      </trkpt>
      <trkpt lat="47.79107" lon="7.02593">
        <ele>586.4</ele>
        <time>2022-10-10T11:33:52Z</time>
      </trkpt>
      <trkpt lat="47.79079" lon="7.0258">
        <ele>587.4</ele>
        <time>2022-10-10T11:33:58Z</time>
      </trkpt>
      <trkpt lat="47.79057" lon="7.02572">
        <ele>588.5</ele>
        <time>2022-10-10T11:34:03Z</time>
      </trkpt>
      <trkpt lat="47.79052" lon="7.0257">
        <ele>588.8</ele>
        <time>2022-10-10T11:34:04Z</time>
      </trkpt>
      <trkpt lat="47.79034" lon="7.02566">
        <ele>589.8</ele>
        <time>2022-10-10T11:34:08Z</time>
      </trkpt>
      <trkpt lat="47.7903" lon="7.02563">
        <ele>590.1</ele>
        <time>2022-10-10T11:34:09Z</time>
      </trkpt>
      <trkpt lat="47.79025" lon="7.0256">
        <ele>590.4</ele>
        <time>2022-10-10T11:34:10Z</time>
      </trkpt>
      <trkpt lat="47.79018" lon="7.0255">
        <ele>590.9</ele>
        <time>2022-10-10T11:34:12Z</time>
      </trkpt>
      <trkpt lat="47.79015" lon="7.02545">
        <ele>591.1</ele>
        <time>2022-10-10T11:34:13Z</time>
      </trkpt>
      <trkpt lat="47.78998" lon="7.02516">
        <ele>592.2</ele>
        <time>2022-10-10T11:34:19Z</time>
      </trkpt>
      <trkpt lat="47.7898" lon="7.02497">
        <ele>593.4</ele>
        <time>2022-10-10T11:34:24Z</time>
      </trkpt>
      <trkpt lat="47.78963" lon="7.02482">
        <ele>594.7</ele>
        <time>2022-10-10T11:34:28Z</time>
      </trkpt>
      <trkpt lat="47.78954" lon="7.02477">
        <ele>595.4</ele>
        <time>2022-10-10T11:34:30Z</time>
      </trkpt>
      <trkpt lat="47.78941" lon="7.02477">
        <ele>596.3</ele>
        <time>2022-10-10T11:34:34Z</time>
      </trkpt>
      <trkpt lat="47.78935" lon="7.02485">
        <ele>596.9</ele>
        <time>2022-10-10T11:34:37Z</time>
      </trkpt>
      <trkpt lat="47.78934" lon="7.02489">
        <ele>597.1</ele>
        <time>2022-10-10T11:34:38Z</time>
      </trkpt>
      <trkpt lat="47.78921" lon="7.02522">
        <ele>598.1</ele>
        <time>2022-10-10T11:34:44Z</time>
      </trkpt>
      <trkpt lat="47.78905" lon="7.02532">
        <ele>598.8</ele>
        <time>2022-10-10T11:34:47Z</time>
      </trkpt>
      <trkpt lat="47.78899" lon="7.02532">
        <ele>599</ele>
        <time>2022-10-10T11:34:48Z</time>
      </trkpt>
      <trkpt lat="47.78853" lon="7.02528">
        <ele>601.2</ele>
        <time>2022-10-10T11:34:57Z</time>
      </trkpt>
      <trkpt lat="47.78822" lon="7.02515">
        <ele>602.3</ele>
        <time>2022-10-10T11:35:04Z</time>
      </trkpt>
      <trkpt lat="47.78794" lon="7.02489">
        <ele>603.2</ele>
        <time>2022-10-10T11:35:11Z</time>
      </trkpt>
      <trkpt lat="47.78782" lon="7.02486">
        <ele>603.4</ele>
        <time>2022-10-10T11:35:15Z</time>
      </trkpt>
      <trkpt lat="47.78768" lon="7.02498">
        <ele>603.6</ele>
        <time>2022-10-10T11:35:19Z</time>
      </trkpt>
      <trkpt lat="47.78765" lon="7.02502">
        <ele>603.7</ele>
        <time>2022-10-10T11:35:20Z</time>
      </trkpt>
      <trkpt lat="47.78757" lon="7.02511">
        <ele>604</ele>
        <time>2022-10-10T11:35:22Z</time>
      </trkpt>
      <trkpt lat="47.78751" lon="7.02518">
        <ele>604.4</ele>
        <time>2022-10-10T11:35:24Z</time>
      </trkpt>
      <trkpt lat="47.78742" lon="7.02538">
        <ele>605.7</ele>
        <time>2022-10-10T11:35:29Z</time>
      </trkpt>
      <trkpt lat="47.78737" lon="7.02564">
        <ele>606.7</ele>
        <time>2022-10-10T11:35:34Z</time>
      </trkpt>
      <trkpt lat="47.7873" lon="7.02593">
        <ele>607.9</ele>
        <time>2022-10-10T11:35:40Z</time>
      </trkpt>
      <trkpt lat="47.78723" lon="7.02619">
        <ele>610</ele>
        <time>2022-10-10T11:35:48Z</time>
      </trkpt>
      <trkpt lat="47.78719" lon="7.02635">
        <ele>611.5</ele>
        <time>2022-10-10T11:35:53Z</time>
      </trkpt>
      <trkpt lat="47.78713" lon="7.02654">
        <ele>612.2</ele>
        <time>2022-10-10T11:35:59Z</time>
      </trkpt>
      <trkpt lat="47.78712" lon="7.02658">
        <ele>612.1</ele>
        <time>2022-10-10T11:36:01Z</time>
      </trkpt>
      <trkpt lat="47.78707" lon="7.02662">
        <ele>611.8</ele>
        <time>2022-10-10T11:36:04Z</time>
      </trkpt>
      <trkpt lat="47.78692" lon="7.02678">
        <ele>610.8</ele>
        <time>2022-10-10T11:36:10Z</time>
      </trkpt>
      <trkpt lat="47.78669" lon="7.02697">
        <ele>609.4</ele>
        <time>2022-10-10T11:36:16Z</time>
      </trkpt>
      <trkpt lat="47.78665" lon="7.02702">
        <ele>608.9</ele>
        <time>2022-10-10T11:36:17Z</time>
      </trkpt>
      <trkpt lat="47.78659" lon="7.02715">
        <ele>607.7</ele>
        <time>2022-10-10T11:36:19Z</time>
      </trkpt>
      <trkpt lat="47.78657" lon="7.02723">
        <ele>607</ele>
        <time>2022-10-10T11:36:20Z</time>
      </trkpt>
      <trkpt lat="47.78655" lon="7.02732">
        <ele>606.2</ele>
        <time>2022-10-10T11:36:21Z</time>
      </trkpt>
      <trkpt lat="47.78653" lon="7.02751">
        <ele>604.8</ele>
        <time>2022-10-10T11:36:23Z</time>
      </trkpt>
      <trkpt lat="47.78653" lon="7.02791">
        <ele>601.4</ele>
        <time>2022-10-10T11:36:28Z</time>
      </trkpt>
      <trkpt lat="47.78654" lon="7.02822">
        <ele>598.3</ele>
        <time>2022-10-10T11:36:33Z</time>
      </trkpt>
      <trkpt lat="47.78657" lon="7.0285">
        <ele>595.4</ele>
        <time>2022-10-10T11:36:37Z</time>
      </trkpt>
      <trkpt lat="47.78656" lon="7.02858">
        <ele>594.6</ele>
        <time>2022-10-10T11:36:38Z</time>
      </trkpt>
      <trkpt lat="47.78651" lon="7.02903">
        <ele>590.6</ele>
        <time>2022-10-10T11:36:44Z</time>
      </trkpt>
      <trkpt lat="47.7865" lon="7.0291">
        <ele>590.1</ele>
        <time>2022-10-10T11:36:45Z</time>
      </trkpt>
      <trkpt lat="47.78645" lon="7.02932">
        <ele>588.5</ele>
        <time>2022-10-10T11:36:48Z</time>
      </trkpt>
      <trkpt lat="47.78643" lon="7.02938">
        <ele>588.1</ele>
        <time>2022-10-10T11:36:49Z</time>
      </trkpt>
      <trkpt lat="47.78635" lon="7.02973">
        <ele>585.4</ele>
        <time>2022-10-10T11:36:54Z</time>
      </trkpt>
      <trkpt lat="47.78626" lon="7.02999">
        <ele>583.1</ele>
        <time>2022-10-10T11:36:58Z</time>
      </trkpt>
      <trkpt lat="47.78624" lon="7.03006">
        <ele>582.5</ele>
        <time>2022-10-10T11:36:59Z</time>
      </trkpt>
      <trkpt lat="47.78622" lon="7.03014">
        <ele>581.9</ele>
        <time>2022-10-10T11:37:00Z</time>
      </trkpt>
      <trkpt lat="47.7861" lon="7.03043">
        <ele>579.4</ele>
        <time>2022-10-10T11:37:04Z</time>
      </trkpt>
      <trkpt lat="47.78598" lon="7.03062">
        <ele>577.8</ele>
        <time>2022-10-10T11:37:07Z</time>
      </trkpt>
      <trkpt lat="47.78586" lon="7.03071">
        <ele>576.8</ele>
        <time>2022-10-10T11:37:09Z</time>
      </trkpt>
      <trkpt lat="47.78576" lon="7.03073">
        <ele>576.2</ele>
        <time>2022-10-10T11:37:11Z</time>
      </trkpt>
      <trkpt lat="47.78565" lon="7.03072">
        <ele>575.6</ele>
        <time>2022-10-10T11:37:13Z</time>
      </trkpt>
      <trkpt lat="47.7856" lon="7.03071">
        <ele>575.3</ele>
        <time>2022-10-10T11:37:14Z</time>
      </trkpt>
      <trkpt lat="47.78544" lon="7.03068">
        <ele>574.4</ele>
        <time>2022-10-10T11:37:17Z</time>
      </trkpt>
      <trkpt lat="47.78535" lon="7.03072">
        <ele>574</ele>
        <time>2022-10-10T11:37:19Z</time>
      </trkpt>
      <trkpt lat="47.78531" lon="7.03077">
        <ele>573.8</ele>
        <time>2022-10-10T11:37:20Z</time>
      </trkpt>
      <trkpt lat="47.78528" lon="7.03082">
        <ele>573.7</ele>
        <time>2022-10-10T11:37:21Z</time>
      </trkpt>
      <trkpt lat="47.78523" lon="7.03094">
        <ele>573.5</ele>
        <time>2022-10-10T11:37:23Z</time>
      </trkpt>
      <trkpt lat="47.7852" lon="7.03101">
        <ele>573.4</ele>
        <time>2022-10-10T11:37:24Z</time>
      </trkpt>
      <trkpt lat="47.78508" lon="7.03127">
        <ele>573.1</ele>
        <time>2022-10-10T11:37:28Z</time>
      </trkpt>
      <trkpt lat="47.78504" lon="7.03141">
        <ele>573</ele>
        <time>2022-10-10T11:37:30Z</time>
      </trkpt>
      <trkpt lat="47.78491" lon="7.03187">
        <ele>572</ele>
        <time>2022-10-10T11:37:36Z</time>
      </trkpt>
      <trkpt lat="47.78475" lon="7.03248">
        <ele>569.6</ele>
        <time>2022-10-10T11:37:43Z</time>
      </trkpt>
      <trkpt lat="47.78465" lon="7.03299">
        <ele>567</ele>
        <time>2022-10-10T11:37:48Z</time>
      </trkpt>
      <trkpt lat="47.78456" lon="7.03337">
        <ele>564.7</ele>
        <time>2022-10-10T11:37:52Z</time>
      </trkpt>
      <trkpt lat="47.78445" lon="7.03369">
        <ele>562.6</ele>
        <time>2022-10-10T11:37:56Z</time>
      </trkpt>
      <trkpt lat="47.78435" lon="7.0338">
        <ele>561.6</ele>
        <time>2022-10-10T11:37:58Z</time>
      </trkpt>
      <trkpt lat="47.7843" lon="7.03383">
        <ele>561.3</ele>
        <time>2022-10-10T11:37:59Z</time>
      </trkpt>
      <trkpt lat="47.78419" lon="7.03386">
        <ele>560.9</ele>
        <time>2022-10-10T11:38:01Z</time>
      </trkpt>
      <trkpt lat="47.78407" lon="7.03385">
        <ele>560.6</ele>
        <time>2022-10-10T11:38:03Z</time>
      </trkpt>
      <trkpt lat="47.78401" lon="7.03383">
        <ele>560.5</ele>
        <time>2022-10-10T11:38:04Z</time>
      </trkpt>
      <trkpt lat="47.7839" lon="7.03379">
        <ele>560.3</ele>
        <time>2022-10-10T11:38:06Z</time>
      </trkpt>
      <trkpt lat="47.78374" lon="7.0337">
        <ele>560.1</ele>
        <time>2022-10-10T11:38:09Z</time>
      </trkpt>
      <trkpt lat="47.78369" lon="7.03367">
        <ele>560</ele>
        <time>2022-10-10T11:38:10Z</time>
      </trkpt>
      <trkpt lat="47.78353" lon="7.03363">
        <ele>559.7</ele>
        <time>2022-10-10T11:38:13Z</time>
      </trkpt>
      <trkpt lat="47.78348" lon="7.03362">
        <ele>559.6</ele>
        <time>2022-10-10T11:38:14Z</time>
      </trkpt>
      <trkpt lat="47.78343" lon="7.03361">
        <ele>559.5</ele>
        <time>2022-10-10T11:38:15Z</time>
      </trkpt>
      <trkpt lat="47.78331" lon="7.03361">
        <ele>559.4</ele>
        <time>2022-10-10T11:38:18Z</time>
      </trkpt>
      <trkpt lat="47.78311" lon="7.03366">
        <ele>559.2</ele>
        <time>2022-10-10T11:38:24Z</time>
      </trkpt>
      <trkpt lat="47.7829" lon="7.0338">
        <ele>559</ele>
        <time>2022-10-10T11:38:30Z</time>
      </trkpt>
      <trkpt lat="47.78273" lon="7.03394">
        <ele>558.8</ele>
        <time>2022-10-10T11:38:35Z</time>
      </trkpt>
      <trkpt lat="47.78259" lon="7.03408">
        <ele>558.5</ele>
        <time>2022-10-10T11:38:39Z</time>
      </trkpt>
      <trkpt lat="47.78237" lon="7.03428">
        <ele>558.1</ele>
        <time>2022-10-10T11:38:45Z</time>
      </trkpt>
      <trkpt lat="47.78218" lon="7.03435">
        <ele>557.5</ele>
        <time>2022-10-10T11:38:49Z</time>
      </trkpt>
      <trkpt lat="47.7819" lon="7.0345">
        <ele>554.7</ele>
        <time>2022-10-10T11:38:53Z</time>
      </trkpt>
      <trkpt lat="47.78173" lon="7.03466">
        <ele>552.9</ele>
        <time>2022-10-10T11:38:56Z</time>
      </trkpt>
      <trkpt lat="47.78163" lon="7.03473">
        <ele>552.5</ele>
        <time>2022-10-10T11:38:58Z</time>
      </trkpt>
      <trkpt lat="47.78134" lon="7.03498">
        <ele>551.7</ele>
        <time>2022-10-10T11:39:04Z</time>
      </trkpt>
      <trkpt lat="47.78119" lon="7.03513">
        <ele>550.9</ele>
        <time>2022-10-10T11:39:07Z</time>
      </trkpt>
      <trkpt lat="47.78108" lon="7.03522">
        <ele>549.9</ele>
        <time>2022-10-10T11:39:09Z</time>
      </trkpt>
      <trkpt lat="47.78102" lon="7.03525">
        <ele>549.2</ele>
        <time>2022-10-10T11:39:10Z</time>
      </trkpt>
      <trkpt lat="47.7808" lon="7.03536">
        <ele>546.5</ele>
        <time>2022-10-10T11:39:14Z</time>
      </trkpt>
      <trkpt lat="47.78068" lon="7.03533">
        <ele>544.6</ele>
        <time>2022-10-10T11:39:17Z</time>
      </trkpt>
      <trkpt lat="47.7806" lon="7.03527">
        <ele>543.2</ele>
        <time>2022-10-10T11:39:19Z</time>
      </trkpt>
      <trkpt lat="47.7805" lon="7.03513">
        <ele>541.1</ele>
        <time>2022-10-10T11:39:22Z</time>
      </trkpt>
      <trkpt lat="47.78037" lon="7.03495">
        <ele>540.1</ele>
        <time>2022-10-10T11:39:25Z</time>
      </trkpt>
      <trkpt lat="47.78028" lon="7.03485">
        <ele>539.3</ele>
        <time>2022-10-10T11:39:27Z</time>
      </trkpt>
      <trkpt lat="47.78015" lon="7.03466">
        <ele>537.8</ele>
        <time>2022-10-10T11:39:30Z</time>
      </trkpt>
      <trkpt lat="47.78011" lon="7.03459">
        <ele>537.3</ele>
        <time>2022-10-10T11:39:31Z</time>
      </trkpt>
      <trkpt lat="47.77999" lon="7.03442">
        <ele>536.4</ele>
        <time>2022-10-10T11:39:34Z</time>
      </trkpt>
      <trkpt lat="47.77994" lon="7.03438">
        <ele>536.2</ele>
        <time>2022-10-10T11:39:35Z</time>
      </trkpt>
      <trkpt lat="47.77988" lon="7.03434">
        <ele>536</ele>
        <time>2022-10-10T11:39:36Z</time>
      </trkpt>
      <trkpt lat="47.77979" lon="7.03431">
        <ele>535.9</ele>
        <time>2022-10-10T11:39:38Z</time>
      </trkpt>
      <trkpt lat="47.77968" lon="7.03439">
        <ele>536.2</ele>
        <time>2022-10-10T11:39:42Z</time>
      </trkpt>
      <trkpt lat="47.77956" lon="7.03455">
        <ele>536.9</ele>
        <time>2022-10-10T11:39:47Z</time>
      </trkpt>
      <trkpt lat="47.77954" lon="7.03457">
        <ele>537.1</ele>
        <time>2022-10-10T11:39:49Z</time>
      </trkpt>
      <trkpt lat="47.77951" lon="7.03462">
        <ele>537.3</ele>
        <time>2022-10-10T11:40:14Z</time>
      </trkpt>
      <trkpt lat="47.7795" lon="7.03465">
        <ele>537.5</ele>
        <time>2022-10-10T11:40:15Z</time>
      </trkpt>
      <trkpt lat="47.77944" lon="7.03477">
        <ele>538.2</ele>
        <time>2022-10-10T11:40:20Z</time>
      </trkpt>
      <trkpt lat="47.77943" lon="7.03492">
        <ele>539</ele>
        <time>2022-10-10T11:40:26Z</time>
      </trkpt>
      <trkpt lat="47.77943" lon="7.03494">
        <ele>539.1</ele>
        <time>2022-10-10T11:40:27Z</time>
      </trkpt>
      <trkpt lat="47.77948" lon="7.03509">
        <ele>538.4</ele>
        <time>2022-10-10T11:40:33Z</time>
      </trkpt>
      <trkpt lat="47.77955" lon="7.0352">
        <ele>537.1</ele>
        <time>2022-10-10T11:40:36Z</time>
      </trkpt>
      <trkpt lat="47.7796" lon="7.03531">
        <ele>535.8</ele>
        <time>2022-10-10T11:40:38Z</time>
      </trkpt>
      <trkpt lat="47.77965" lon="7.03543">
        <ele>534.9</ele>
        <time>2022-10-10T11:40:40Z</time>
      </trkpt>
      <trkpt lat="47.77966" lon="7.0355">
        <ele>534.6</ele>
        <time>2022-10-10T11:40:41Z</time>
      </trkpt>
      <trkpt lat="47.77967" lon="7.03566">
        <ele>534.1</ele>
        <time>2022-10-10T11:40:43Z</time>
      </trkpt>
      <trkpt lat="47.77968" lon="7.03572">
        <ele>533.9</ele>
        <time>2022-10-10T11:40:44Z</time>
      </trkpt>
      <trkpt lat="47.77969" lon="7.03609">
        <ele>533.4</ele>
        <time>2022-10-10T11:40:50Z</time>
      </trkpt>
      <trkpt lat="47.77968" lon="7.03621">
        <ele>533</ele>
        <time>2022-10-10T11:40:52Z</time>
      </trkpt>
      <trkpt lat="47.77968" lon="7.03637">
        <ele>532.3</ele>
        <time>2022-10-10T11:40:54Z</time>
      </trkpt>
      <trkpt lat="47.77967" lon="7.0366">
        <ele>531</ele>
        <time>2022-10-10T11:40:57Z</time>
      </trkpt>
      <trkpt lat="47.77966" lon="7.03683">
        <ele>529</ele>
        <time>2022-10-10T11:41:00Z</time>
      </trkpt>
      <trkpt lat="47.77969" lon="7.03723">
        <ele>524.8</ele>
        <time>2022-10-10T11:41:05Z</time>
      </trkpt>
      <trkpt lat="47.7797" lon="7.03738">
        <ele>523.4</ele>
        <time>2022-10-10T11:41:07Z</time>
      </trkpt>
      <trkpt lat="47.7797" lon="7.03757">
        <ele>521.7</ele>
        <time>2022-10-10T11:41:10Z</time>
      </trkpt>
      <trkpt lat="47.77972" lon="7.03785">
        <ele>519.4</ele>
        <time>2022-10-10T11:41:15Z</time>
      </trkpt>
      <trkpt lat="47.7797" lon="7.03818">
        <ele>516.8</ele>
        <time>2022-10-10T11:41:20Z</time>
      </trkpt>
      <trkpt lat="47.77964" lon="7.03837">
        <ele>515.3</ele>
        <time>2022-10-10T11:41:24Z</time>
      </trkpt>
      <trkpt lat="47.77955" lon="7.03854">
        <ele>513.6</ele>
        <time>2022-10-10T11:41:28Z</time>
      </trkpt>
      <trkpt lat="47.77947" lon="7.03877">
        <ele>511.5</ele>
        <time>2022-10-10T11:41:33Z</time>
      </trkpt>
      <trkpt lat="47.77939" lon="7.03907">
        <ele>509.1</ele>
        <time>2022-10-10T11:41:37Z</time>
      </trkpt>
      <trkpt lat="47.77928" lon="7.03954">
        <ele>507.4</ele>
        <time>2022-10-10T11:41:43Z</time>
      </trkpt>
      <trkpt lat="47.77915" lon="7.03982">
        <ele>507</ele>
        <time>2022-10-10T11:41:48Z</time>
      </trkpt>
      <trkpt lat="47.77906" lon="7.04008">
        <ele>505.9</ele>
        <time>2022-10-10T11:41:54Z</time>
      </trkpt>
      <trkpt lat="47.77906" lon="7.04035">
        <ele>503.2</ele>
        <time>2022-10-10T11:42:01Z</time>
      </trkpt>
      <trkpt lat="47.77907" lon="7.04062">
        <ele>499.5</ele>
        <time>2022-10-10T11:42:07Z</time>
      </trkpt>
      <trkpt lat="47.77903" lon="7.0408">
        <ele>497.1</ele>
        <time>2022-10-10T11:42:11Z</time>
      </trkpt>
      <trkpt lat="47.77894" lon="7.04098">
        <ele>495.8</ele>
        <time>2022-10-10T11:42:16Z</time>
      </trkpt>
      <trkpt lat="47.77887" lon="7.04113">
        <ele>493.9</ele>
        <time>2022-10-10T11:42:21Z</time>
      </trkpt>
      <trkpt lat="47.77874" lon="7.04128">
        <ele>491.6</ele>
        <time>2022-10-10T11:42:26Z</time>
      </trkpt>
      <trkpt lat="47.77866" lon="7.04136">
        <ele>490.2</ele>
        <time>2022-10-10T11:42:29Z</time>
      </trkpt>
      <trkpt lat="47.77859" lon="7.04143">
        <ele>489.1</ele>
        <time>2022-10-10T11:42:31Z</time>
      </trkpt>
      <trkpt lat="47.77834" lon="7.04157">
        <ele>486.5</ele>
        <time>2022-10-10T11:42:36Z</time>
      </trkpt>
      <trkpt lat="47.77806" lon="7.04174">
        <ele>484.4</ele>
        <time>2022-10-10T11:42:42Z</time>
      </trkpt>
      <trkpt lat="47.77801" lon="7.04178">
        <ele>484.1</ele>
        <time>2022-10-10T11:42:43Z</time>
      </trkpt>
      <trkpt lat="47.77788" lon="7.04192">
        <ele>483.1</ele>
        <time>2022-10-10T11:42:46Z</time>
      </trkpt>
      <trkpt lat="47.77779" lon="7.04203">
        <ele>482.3</ele>
        <time>2022-10-10T11:42:48Z</time>
      </trkpt>
      <trkpt lat="47.77764" lon="7.04223">
        <ele>481.2</ele>
        <time>2022-10-10T11:42:51Z</time>
      </trkpt>
      <trkpt lat="47.77742" lon="7.0425">
        <ele>479.9</ele>
        <time>2022-10-10T11:42:56Z</time>
      </trkpt>
      <trkpt lat="47.77719" lon="7.04276">
        <ele>478.4</ele>
        <time>2022-10-10T11:43:01Z</time>
      </trkpt>
      <trkpt lat="47.77698" lon="7.04305">
        <ele>476.6</ele>
        <time>2022-10-10T11:43:06Z</time>
      </trkpt>
      <trkpt lat="47.77686" lon="7.0432">
        <ele>475.8</ele>
        <time>2022-10-10T11:43:10Z</time>
      </trkpt>
      <trkpt lat="47.77665" lon="7.04352">
        <ele>474</ele>
        <time>2022-10-10T11:43:16Z</time>
      </trkpt>
      <trkpt lat="47.77639" lon="7.04382">
        <ele>472.2</ele>
        <time>2022-10-10T11:43:21Z</time>
      </trkpt>
      <trkpt lat="47.77608" lon="7.04427">
        <ele>470.2</ele>
        <time>2022-10-10T11:43:27Z</time>
      </trkpt>
      <trkpt lat="47.77599" lon="7.04444">
        <ele>469.9</ele>
        <time>2022-10-10T11:43:29Z</time>
      </trkpt>
      <trkpt lat="47.77589" lon="7.04469">
        <ele>469.6</ele>
        <time>2022-10-10T11:43:33Z</time>
      </trkpt>
      <trkpt lat="47.77582" lon="7.04493">
        <ele>469.5</ele>
        <time>2022-10-10T11:43:39Z</time>
      </trkpt>
      <trkpt lat="47.77573" lon="7.04538">
        <ele>469.2</ele>
        <time>2022-10-10T11:43:46Z</time>
      </trkpt>
      <trkpt lat="47.77572" lon="7.04544">
        <ele>469.2</ele>
        <time>2022-10-10T11:43:47Z</time>
      </trkpt>
      <trkpt lat="47.77566" lon="7.04573">
        <ele>469.1</ele>
        <time>2022-10-10T11:43:52Z</time>
      </trkpt>
      <trkpt lat="47.77559" lon="7.04605">
        <ele>468.3</ele>
        <time>2022-10-10T11:43:58Z</time>
      </trkpt>
      <trkpt lat="47.77552" lon="7.04642">
        <ele>466.7</ele>
        <time>2022-10-10T11:44:03Z</time>
      </trkpt>
      <trkpt lat="47.77541" lon="7.04695">
        <ele>464.8</ele>
        <time>2022-10-10T11:44:10Z</time>
      </trkpt>
      <trkpt lat="47.77533" lon="7.04733">
        <ele>463.6</ele>
        <time>2022-10-10T11:44:16Z</time>
      </trkpt>
      <trkpt lat="47.77529" lon="7.04742">
        <ele>463.3</ele>
        <time>2022-10-10T11:44:18Z</time>
      </trkpt>
      <trkpt lat="47.77522" lon="7.04747">
        <ele>463</ele>
        <time>2022-10-10T11:44:20Z</time>
      </trkpt>
      <trkpt lat="47.77514" lon="7.04752">
        <ele>462.9</ele>
        <time>2022-10-10T11:44:22Z</time>
      </trkpt>
      <trkpt lat="47.77507" lon="7.04763">
        <ele>462.6</ele>
        <time>2022-10-10T11:44:24Z</time>
      </trkpt>
      <trkpt lat="47.77493" lon="7.04799">
        <ele>461.6</ele>
        <time>2022-10-10T11:44:29Z</time>
      </trkpt>
      <trkpt lat="47.77471" lon="7.04855">
        <ele>460.2</ele>
        <time>2022-10-10T11:44:37Z</time>
      </trkpt>
      <trkpt lat="47.7745" lon="7.04906">
        <ele>458.9</ele>
        <time>2022-10-10T11:44:44Z</time>
      </trkpt>
      <trkpt lat="47.77429" lon="7.04959">
        <ele>457.7</ele>
        <time>2022-10-10T11:44:51Z</time>
      </trkpt>
      <trkpt lat="47.77401" lon="7.05025">
        <ele>456.6</ele>
        <time>2022-10-10T11:45:00Z</time>
      </trkpt>
      <trkpt lat="47.77377" lon="7.05092">
        <ele>455.6</ele>
        <time>2022-10-10T11:45:09Z</time>
      </trkpt>
      <trkpt lat="47.77372" lon="7.05105">
        <ele>455.4</ele>
        <time>2022-10-10T11:45:11Z</time>
      </trkpt>
      <trkpt lat="47.77366" lon="7.05122">
        <ele>455.1</ele>
        <time>2022-10-10T11:45:14Z</time>
      </trkpt>
      <trkpt lat="47.7736" lon="7.05134">
        <ele>454.8</ele>
        <time>2022-10-10T11:45:16Z</time>
      </trkpt>
      <trkpt lat="47.77349" lon="7.05149">
        <ele>454.4</ele>
        <time>2022-10-10T11:45:19Z</time>
      </trkpt>
      <trkpt lat="47.77345" lon="7.05154">
        <ele>454.3</ele>
        <time>2022-10-10T11:45:20Z</time>
      </trkpt>
      <trkpt lat="47.77327" lon="7.0517">
        <ele>453.8</ele>
        <time>2022-10-10T11:45:24Z</time>
      </trkpt>
      <trkpt lat="47.77314" lon="7.05178">
        <ele>453.4</ele>
        <time>2022-10-10T11:45:27Z</time>
      </trkpt>
      <trkpt lat="47.77309" lon="7.05181">
        <ele>453.3</ele>
        <time>2022-10-10T11:45:28Z</time>
      </trkpt>
      <trkpt lat="47.77296" lon="7.05189">
        <ele>452.9</ele>
        <time>2022-10-10T11:45:31Z</time>
      </trkpt>
      <trkpt lat="47.77283" lon="7.05202">
        <ele>452.7</ele>
        <time>2022-10-10T11:45:34Z</time>
      </trkpt>
      <trkpt lat="47.77267" lon="7.05232">
        <ele>452.3</ele>
        <time>2022-10-10T11:45:39Z</time>
      </trkpt>
      <trkpt lat="47.77256" lon="7.05248">
        <ele>451.8</ele>
        <time>2022-10-10T11:45:43Z</time>
      </trkpt>
      <trkpt lat="47.77252" lon="7.0525">
        <ele>451.7</ele>
        <time>2022-10-10T11:45:44Z</time>
      </trkpt>
      <trkpt lat="47.77246" lon="7.05247">
        <ele>451.4</ele>
        <time>2022-10-10T11:45:46Z</time>
      </trkpt>
      <trkpt lat="47.77237" lon="7.05238">
        <ele>451.2</ele>
        <time>2022-10-10T11:45:49Z</time>
      </trkpt>
      <trkpt lat="47.77227" lon="7.05226">
        <ele>451</ele>
        <time>2022-10-10T11:45:52Z</time>
      </trkpt>
      <trkpt lat="47.77215" lon="7.05206">
        <ele>450.6</ele>
        <time>2022-10-10T11:45:57Z</time>
      </trkpt>
      <trkpt lat="47.77203" lon="7.05194">
        <ele>450.3</ele>
        <time>2022-10-10T11:46:02Z</time>
      </trkpt>
      <trkpt lat="47.7719" lon="7.05192">
        <ele>450</ele>
        <time>2022-10-10T11:46:05Z</time>
      </trkpt>
      <trkpt lat="47.7718" lon="7.05192">
        <ele>449.7</ele>
        <time>2022-10-10T11:46:07Z</time>
      </trkpt>
      <trkpt lat="47.77156" lon="7.05192">
        <ele>449.3</ele>
        <time>2022-10-10T11:46:12Z</time>
      </trkpt>
      <trkpt lat="47.77152" lon="7.05191">
        <ele>449.2</ele>
        <time>2022-10-10T11:46:13Z</time>
      </trkpt>
      <trkpt lat="47.77147" lon="7.0519">
        <ele>449.1</ele>
        <time>2022-10-10T11:46:14Z</time>
      </trkpt>
      <trkpt lat="47.77127" lon="7.05191">
        <ele>448.7</ele>
        <time>2022-10-10T11:46:18Z</time>
      </trkpt>
      <trkpt lat="47.77097" lon="7.05197">
        <ele>447.9</ele>
        <time>2022-10-10T11:46:24Z</time>
      </trkpt>
      <trkpt lat="47.77078" lon="7.05203">
        <ele>447.2</ele>
        <time>2022-10-10T11:46:29Z</time>
      </trkpt>
      <trkpt lat="47.77068" lon="7.05204">
        <ele>446.8</ele>
        <time>2022-10-10T11:46:31Z</time>
      </trkpt>
      <trkpt lat="47.77057" lon="7.05204">
        <ele>446.3</ele>
        <time>2022-10-10T11:46:33Z</time>
      </trkpt>
      <trkpt lat="47.77022" lon="7.05211">
        <ele>444.8</ele>
        <time>2022-10-10T11:46:39Z</time>
      </trkpt>
      <trkpt lat="47.77011" lon="7.05211">
        <ele>444.3</ele>
        <time>2022-10-10T11:46:41Z</time>
      </trkpt>
      <trkpt lat="47.76983" lon="7.05208">
        <ele>442.9</ele>
        <time>2022-10-10T11:46:46Z</time>
      </trkpt>
      <trkpt lat="47.76978" lon="7.05206">
        <ele>442.6</ele>
        <time>2022-10-10T11:46:47Z</time>
      </trkpt>
      <trkpt lat="47.76969" lon="7.05202">
        <ele>442.1</ele>
        <time>2022-10-10T11:46:49Z</time>
      </trkpt>
      <trkpt lat="47.7696" lon="7.05196">
        <ele>441.6</ele>
        <time>2022-10-10T11:46:51Z</time>
      </trkpt>
      <trkpt lat="47.76956" lon="7.05192">
        <ele>441.4</ele>
        <time>2022-10-10T11:46:52Z</time>
      </trkpt>
      <trkpt lat="47.76944" lon="7.05182">
        <ele>440.6</ele>
        <time>2022-10-10T11:46:55Z</time>
      </trkpt>
      <trkpt lat="47.76935" lon="7.05176">
        <ele>440.2</ele>
        <time>2022-10-10T11:46:57Z</time>
      </trkpt>
      <trkpt lat="47.76911" lon="7.05156">
        <ele>439.1</ele>
        <time>2022-10-10T11:47:02Z</time>
      </trkpt>
      <trkpt lat="47.7689" lon="7.05144">
        <ele>438.5</ele>
        <time>2022-10-10T11:47:06Z</time>
      </trkpt>
      <trkpt lat="47.76885" lon="7.05143">
        <ele>438.4</ele>
        <time>2022-10-10T11:47:07Z</time>
      </trkpt>
      <trkpt lat="47.76858" lon="7.05136">
        <ele>437.8</ele>
        <time>2022-10-10T11:47:12Z</time>
      </trkpt>
      <trkpt lat="47.76852" lon="7.05134">
        <ele>437.7</ele>
        <time>2022-10-10T11:47:13Z</time>
      </trkpt>
      <trkpt lat="47.76842" lon="7.05131">
        <ele>437.5</ele>
        <time>2022-10-10T11:47:15Z</time>
      </trkpt>
      <trkpt lat="47.76832" lon="7.05129">
        <ele>437.3</ele>
        <time>2022-10-10T11:47:17Z</time>
      </trkpt>
      <trkpt lat="47.76823" lon="7.05128">
        <ele>437</ele>
        <time>2022-10-10T11:47:19Z</time>
      </trkpt>
      <trkpt lat="47.76807" lon="7.05125">
        <ele>436.6</ele>
        <time>2022-10-10T11:47:22Z</time>
      </trkpt>
      <trkpt lat="47.76785" lon="7.05122">
        <ele>435.9</ele>
        <time>2022-10-10T11:47:27Z</time>
      </trkpt>
      <trkpt lat="47.76781" lon="7.05119">
        <ele>435.7</ele>
        <time>2022-10-10T11:47:28Z</time>
      </trkpt>
      <trkpt lat="47.76776" lon="7.05115">
        <ele>435.5</ele>
        <time>2022-10-10T11:47:29Z</time>
      </trkpt>
      <trkpt lat="47.76764" lon="7.05099">
        <ele>434.8</ele>
        <time>2022-10-10T11:47:32Z</time>
      </trkpt>
      <trkpt lat="47.7675" lon="7.05084">
        <ele>433.9</ele>
        <time>2022-10-10T11:47:35Z</time>
      </trkpt>
      <trkpt lat="47.76741" lon="7.05074">
        <ele>433.4</ele>
        <time>2022-10-10T11:47:37Z</time>
      </trkpt>
      <trkpt lat="47.76723" lon="7.05056">
        <ele>432.4</ele>
        <time>2022-10-10T11:47:41Z</time>
      </trkpt>
      <trkpt lat="47.76718" lon="7.05054">
        <ele>432.2</ele>
        <time>2022-10-10T11:47:42Z</time>
      </trkpt>
      <trkpt lat="47.76702" lon="7.05045">
        <ele>431.7</ele>
        <time>2022-10-10T11:47:45Z</time>
      </trkpt>
      <trkpt lat="47.76686" lon="7.05033">
        <ele>431.3</ele>
        <time>2022-10-10T11:47:48Z</time>
      </trkpt>
      <trkpt lat="47.76676" lon="7.05024">
        <ele>431</ele>
        <time>2022-10-10T11:47:50Z</time>
      </trkpt>
      <trkpt lat="47.76669" lon="7.0502">
        <ele>430.8</ele>
        <time>2022-10-10T11:47:52Z</time>
      </trkpt>
      <trkpt lat="47.76654" lon="7.05013">
        <ele>431.1</ele>
        <time>2022-10-10T11:47:57Z</time>
      </trkpt>
      <trkpt lat="47.76637" lon="7.04999">
        <ele>431.4</ele>
        <time>2022-10-10T11:48:02Z</time>
      </trkpt>
      <trkpt lat="47.76604" lon="7.04965">
        <ele>432</ele>
        <time>2022-10-10T11:48:10Z</time>
      </trkpt>
      <trkpt lat="47.766" lon="7.04961">
        <ele>432.1</ele>
        <time>2022-10-10T11:48:11Z</time>
      </trkpt>
      <trkpt lat="47.7658" lon="7.0494">
        <ele>432.5</ele>
        <time>2022-10-10T11:48:16Z</time>
      </trkpt>
      <trkpt lat="47.76557" lon="7.0491">
        <ele>433.3</ele>
        <time>2022-10-10T11:48:22Z</time>
      </trkpt>
      <trkpt lat="47.76529" lon="7.04886">
        <ele>433.6</ele>
        <time>2022-10-10T11:48:29Z</time>
      </trkpt>
      <trkpt lat="47.76507" lon="7.04867">
        <ele>434</ele>
        <time>2022-10-10T11:48:36Z</time>
      </trkpt>
      <trkpt lat="47.7649" lon="7.04852">
        <ele>434.3</ele>
        <time>2022-10-10T11:48:41Z</time>
      </trkpt>
      <trkpt lat="47.76475" lon="7.04837">
        <ele>434.4</ele>
        <time>2022-10-10T11:48:46Z</time>
      </trkpt>
      <trkpt lat="47.7646" lon="7.04816">
        <ele>434.5</ele>
        <time>2022-10-10T11:48:51Z</time>
      </trkpt>
      <trkpt lat="47.76448" lon="7.04802">
        <ele>434.6</ele>
        <time>2022-10-10T11:48:55Z</time>
      </trkpt>
      <trkpt lat="47.76446" lon="7.04797">
        <ele>434.6</ele>
        <time>2022-10-10T11:48:56Z</time>
      </trkpt>
      <trkpt lat="47.76444" lon="7.0479">
        <ele>434.6</ele>
        <time>2022-10-10T11:48:57Z</time>
      </trkpt>
      <trkpt lat="47.76442" lon="7.0477">
        <ele>434.7</ele>
        <time>2022-10-10T11:49:00Z</time>
      </trkpt>
      <trkpt lat="47.76441" lon="7.04749">
        <ele>434.4</ele>
        <time>2022-10-10T11:49:04Z</time>
      </trkpt>
      <trkpt lat="47.76442" lon="7.04735">
        <ele>434.1</ele>
        <time>2022-10-10T11:49:08Z</time>
      </trkpt>
      <trkpt lat="47.76442" lon="7.04731">
        <ele>434</ele>
        <time>2022-10-10T11:49:09Z</time>
      </trkpt>
      <trkpt lat="47.76441" lon="7.04705">
        <ele>433.3</ele>
        <time>2022-10-10T11:49:14Z</time>
      </trkpt>
      <trkpt lat="47.76436" lon="7.0469">
        <ele>432.8</ele>
        <time>2022-10-10T11:49:18Z</time>
      </trkpt>
      <trkpt lat="47.76432" lon="7.04667">
        <ele>432.1</ele>
        <time>2022-10-10T11:49:23Z</time>
      </trkpt>
      <trkpt lat="47.7643" lon="7.0465">
        <ele>431.4</ele>
        <time>2022-10-10T11:49:27Z</time>
      </trkpt>
      <trkpt lat="47.76418" lon="7.04636">
        <ele>430.5</ele>
        <time>2022-10-10T11:49:32Z</time>
      </trkpt>
      <trkpt lat="47.76411" lon="7.04625">
        <ele>429.8</ele>
        <time>2022-10-10T11:49:36Z</time>
      </trkpt>
      <trkpt lat="47.76399" lon="7.04616">
        <ele>428.9</ele>
        <time>2022-10-10T11:49:40Z</time>
      </trkpt>
      <trkpt lat="47.76397" lon="7.04613">
        <ele>428.7</ele>
        <time>2022-10-10T11:49:41Z</time>
      </trkpt>
      <trkpt lat="47.76392" lon="7.04603">
        <ele>428.2</ele>
        <time>2022-10-10T11:49:44Z</time>
      </trkpt>
      <trkpt lat="47.76389" lon="7.046">
        <ele>428</ele>
        <time>2022-10-10T11:49:45Z</time>
      </trkpt>
      <trkpt lat="47.76382" lon="7.04598">
        <ele>427.6</ele>
        <time>2022-10-10T11:49:47Z</time>
      </trkpt>
      <trkpt lat="47.76367" lon="7.04592">
        <ele>426.7</ele>
        <time>2022-10-10T11:49:51Z</time>
      </trkpt>
      <trkpt lat="47.7635" lon="7.04577">
        <ele>425.5</ele>
        <time>2022-10-10T11:49:56Z</time>
      </trkpt>
      <trkpt lat="47.76335" lon="7.04563">
        <ele>424.7</ele>
        <time>2022-10-10T11:50:00Z</time>
      </trkpt>
      <trkpt lat="47.7633" lon="7.04559">
        <ele>424.4</ele>
        <time>2022-10-10T11:50:01Z</time>
      </trkpt>
      <trkpt lat="47.76326" lon="7.04556">
        <ele>424.2</ele>
        <time>2022-10-10T11:50:02Z</time>
      </trkpt>
      <trkpt lat="47.76312" lon="7.04546">
        <ele>423.6</ele>
        <time>2022-10-10T11:50:05Z</time>
      </trkpt>
      <trkpt lat="47.76308" lon="7.04543">
        <ele>423.4</ele>
        <time>2022-10-10T11:50:06Z</time>
      </trkpt>
      <trkpt lat="47.76296" lon="7.04533">
        <ele>422.9</ele>
        <time>2022-10-10T11:50:09Z</time>
      </trkpt>
      <trkpt lat="47.7628" lon="7.04517">
        <ele>422</ele>
        <time>2022-10-10T11:50:14Z</time>
      </trkpt>
      <trkpt lat="47.7626" lon="7.04495">
        <ele>420.5</ele>
        <time>2022-10-10T11:50:20Z</time>
      </trkpt>
      <trkpt lat="47.7624" lon="7.04477">
        <ele>419.1</ele>
        <time>2022-10-10T11:50:26Z</time>
      </trkpt>
      <trkpt lat="47.76229" lon="7.04459">
        <ele>417.6</ele>
        <time>2022-10-10T11:50:30Z</time>
      </trkpt>
      <trkpt lat="47.76219" lon="7.0444">
        <ele>415.9</ele>
        <time>2022-10-10T11:50:35Z</time>
      </trkpt>
      <trkpt lat="47.76213" lon="7.0443">
        <ele>414.7</ele>
        <time>2022-10-10T11:50:38Z</time>
      </trkpt>
      <trkpt lat="47.76209" lon="7.04431">
        <ele>414.2</ele>
        <time>2022-10-10T11:50:39Z</time>
      </trkpt>
      <trkpt lat="47.76206" lon="7.0443">
        <ele>413.8</ele>
        <time>2022-10-10T11:50:58Z</time>
      </trkpt>
      <trkpt lat="47.76203" lon="7.04429">
        <ele>413.3</ele>
        <time>2022-10-10T11:50:59Z</time>
      </trkpt>
      <trkpt lat="47.76186" lon="7.04427">
        <ele>411.3</ele>
        <time>2022-10-10T11:51:04Z</time>
      </trkpt>
      <trkpt lat="47.76176" lon="7.04434">
        <ele>409.8</ele>
        <time>2022-10-10T11:51:08Z</time>
      </trkpt>
      <trkpt lat="47.7617" lon="7.04439">
        <ele>408.7</ele>
        <time>2022-10-10T11:51:12Z</time>
      </trkpt>
      <trkpt lat="47.76168" lon="7.04443">
        <ele>408.2</ele>
        <time>2022-10-10T11:51:15Z</time>
      </trkpt>
      <trkpt lat="47.76165" lon="7.0445">
        <ele>407.1</ele>
        <time>2022-10-10T11:51:18Z</time>
      </trkpt>
      <trkpt lat="47.7616" lon="7.04458">
        <ele>405.7</ele>
        <time>2022-10-10T11:51:22Z</time>
      </trkpt>
      <trkpt lat="47.76158" lon="7.04462">
        <ele>405.1</ele>
        <time>2022-10-10T11:51:24Z</time>
      </trkpt>
      <trkpt lat="47.76157" lon="7.04465">
        <ele>404.6</ele>
        <time>2022-10-10T11:51:26Z</time>
      </trkpt>
      <trkpt lat="47.76156" lon="7.04467">
        <ele>404.3</ele>
        <time>2022-10-10T11:51:28Z</time>
      </trkpt>
      <trkpt lat="47.76152" lon="7.04478">
        <ele>402.7</ele>
        <time>2022-10-10T11:51:34Z</time>
      </trkpt>
      <trkpt lat="47.76147" lon="7.04486">
        <ele>401.1</ele>
        <time>2022-10-10T11:51:39Z</time>
      </trkpt>
      <trkpt lat="47.76146" lon="7.04493">
        <ele>400.2</ele>
        <time>2022-10-10T11:51:42Z</time>
      </trkpt>
      <trkpt lat="47.76146" lon="7.04495">
        <ele>399.9</ele>
        <time>2022-10-10T11:51:43Z</time>
      </trkpt>
      <trkpt lat="47.76145" lon="7.04507">
        <ele>398.6</ele>
        <time>2022-10-10T11:51:47Z</time>
      </trkpt>
      <trkpt lat="47.76139" lon="7.04526">
        <ele>396.6</ele>
        <time>2022-10-10T11:51:53Z</time>
      </trkpt>
      <trkpt lat="47.76137" lon="7.04535">
        <ele>395.8</ele>
        <time>2022-10-10T11:51:56Z</time>
      </trkpt>
      <trkpt lat="47.76135" lon="7.04541">
        <ele>395.2</ele>
        <time>2022-10-10T11:51:58Z</time>
      </trkpt>
      <trkpt lat="47.76133" lon="7.04545">
        <ele>394.7</ele>
        <time>2022-10-10T11:52:00Z</time>
      </trkpt>
      <trkpt lat="47.7613" lon="7.04552">
        <ele>393.9</ele>
        <time>2022-10-10T11:52:02Z</time>
      </trkpt>
      <trkpt lat="47.76128" lon="7.04571">
        <ele>392.2</ele>
        <time>2022-10-10T11:52:06Z</time>
      </trkpt>
      <trkpt lat="47.76128" lon="7.04595">
        <ele>390.3</ele>
        <time>2022-10-10T11:52:10Z</time>
      </trkpt>
      <trkpt lat="47.76127" lon="7.04617">
        <ele>389.1</ele>
        <time>2022-10-10T11:52:14Z</time>
      </trkpt>
      <trkpt lat="47.76124" lon="7.04642">
        <ele>388</ele>
        <time>2022-10-10T11:52:18Z</time>
      </trkpt>
      <trkpt lat="47.76123" lon="7.04648">
        <ele>387.8</ele>
        <time>2022-10-10T11:52:19Z</time>
      </trkpt>
      <trkpt lat="47.76121" lon="7.04662">
        <ele>387.3</ele>
        <time>2022-10-10T11:52:21Z</time>
      </trkpt>
      <trkpt lat="47.76118" lon="7.04674">
        <ele>386.9</ele>
        <time>2022-10-10T11:52:23Z</time>
      </trkpt>
      <trkpt lat="47.76116" lon="7.0468">
        <ele>386.6</ele>
        <time>2022-10-10T11:52:24Z</time>
      </trkpt>
      <trkpt lat="47.76111" lon="7.04708">
        <ele>385.3</ele>
        <time>2022-10-10T11:52:28Z</time>
      </trkpt>
      <trkpt lat="47.7611" lon="7.04721">
        <ele>384.5</ele>
        <time>2022-10-10T11:52:30Z</time>
      </trkpt>
      <trkpt lat="47.76107" lon="7.04748">
        <ele>382.8</ele>
        <time>2022-10-10T11:52:34Z</time>
      </trkpt>
      <trkpt lat="47.76105" lon="7.04764">
        <ele>382.1</ele>
        <time>2022-10-10T11:52:36Z</time>
      </trkpt>
      <trkpt lat="47.76101" lon="7.04777">
        <ele>381.4</ele>
        <time>2022-10-10T11:52:38Z</time>
      </trkpt>
      <trkpt lat="47.76093" lon="7.04798">
        <ele>380.4</ele>
        <time>2022-10-10T11:52:43Z</time>
      </trkpt>
      <trkpt lat="47.7609" lon="7.0481">
        <ele>379.9</ele>
        <time>2022-10-10T11:52:47Z</time>
      </trkpt>
      <trkpt lat="47.7609" lon="7.0481">
        <ele>379.9</ele>
        <time>2022-10-10T11:52:48Z</time>
      </trkpt>
      <trkpt lat="47.76089" lon="7.0482">
        <ele>379.6</ele>
        <time>2022-10-10T11:53:24Z</time>
      </trkpt>
      <trkpt lat="47.76088" lon="7.04828">
        <ele>379.2</ele>
        <time>2022-10-10T11:53:26Z</time>
      </trkpt>
      <trkpt lat="47.76083" lon="7.04863">
        <ele>377.5</ele>
        <time>2022-10-10T11:53:33Z</time>
      </trkpt>
      <trkpt lat="47.7608" lon="7.04881">
        <ele>376.4</ele>
        <time>2022-10-10T11:53:36Z</time>
      </trkpt>
      <trkpt lat="47.76076" lon="7.04891">
        <ele>375.5</ele>
        <time>2022-10-10T11:53:38Z</time>
      </trkpt>
      <trkpt lat="47.76072" lon="7.0491">
        <ele>373.7</ele>
        <time>2022-10-10T11:53:41Z</time>
      </trkpt>
      <trkpt lat="47.7607" lon="7.04918">
        <ele>373</ele>
        <time>2022-10-10T11:53:42Z</time>
      </trkpt>
      <trkpt lat="47.76063" lon="7.04958">
        <ele>368.8</ele>
        <time>2022-10-10T11:53:47Z</time>
      </trkpt>
      <trkpt lat="47.76057" lon="7.04984">
        <ele>366.6</ele>
        <time>2022-10-10T11:53:51Z</time>
      </trkpt>
      <trkpt lat="47.76044" lon="7.0499">
        <ele>364.8</ele>
        <time>2022-10-10T11:53:55Z</time>
      </trkpt>
      <trkpt lat="47.76036" lon="7.0499">
        <ele>363.7</ele>
        <time>2022-10-10T11:53:57Z</time>
      </trkpt>
      <trkpt lat="47.76026" lon="7.04988">
        <ele>362.5</ele>
        <time>2022-10-10T11:53:59Z</time>
      </trkpt>
      <trkpt lat="47.76001" lon="7.04991">
        <ele>360.8</ele>
        <time>2022-10-10T11:54:03Z</time>
      </trkpt>
      <trkpt lat="47.75957" lon="7.04998">
        <ele>359.5</ele>
        <time>2022-10-10T11:54:09Z</time>
      </trkpt>
      <trkpt lat="47.75923" lon="7.05003">
        <ele>359.2</ele>
        <time>2022-10-10T11:54:14Z</time>
      </trkpt>
      <trkpt lat="47.75917" lon="7.05004">
        <ele>359.2</ele>
        <time>2022-10-10T11:54:15Z</time>
      </trkpt>
      <trkpt lat="47.75903" lon="7.05005">
        <ele>359.1</ele>
        <time>2022-10-10T11:54:19Z</time>
      </trkpt>
      <trkpt lat="47.75886" lon="7.05008">
        <ele>358.9</ele>
        <time>2022-10-10T11:54:24Z</time>
      </trkpt>
      <trkpt lat="47.75871" lon="7.05011">
        <ele>358.6</ele>
        <time>2022-10-10T11:54:28Z</time>
      </trkpt>
      <trkpt lat="47.75867" lon="7.05012">
        <ele>358.5</ele>
        <time>2022-10-10T11:54:29Z</time>
      </trkpt>
      <trkpt lat="47.75831" lon="7.05024">
        <ele>357.7</ele>
        <time>2022-10-10T11:54:37Z</time>
      </trkpt>
      <trkpt lat="47.75804" lon="7.05035">
        <ele>357.2</ele>
        <time>2022-10-10T11:54:43Z</time>
      </trkpt>
      <trkpt lat="47.75799" lon="7.05037">
        <ele>357.1</ele>
        <time>2022-10-10T11:54:44Z</time>
      </trkpt>
      <trkpt lat="47.75766" lon="7.05041">
        <ele>356.9</ele>
        <time>2022-10-10T11:54:51Z</time>
      </trkpt>
      <trkpt lat="47.75758" lon="7.05041">
        <ele>356.9</ele>
        <time>2022-10-10T11:54:53Z</time>
      </trkpt>
      <trkpt lat="47.7575" lon="7.05039">
        <ele>356.8</ele>
        <time>2022-10-10T11:54:55Z</time>
      </trkpt>
      <trkpt lat="47.75742" lon="7.05035">
        <ele>356.8</ele>
        <time>2022-10-10T11:54:57Z</time>
      </trkpt>
      <trkpt lat="47.75722" lon="7.05019">
        <ele>356.9</ele>
        <time>2022-10-10T11:55:03Z</time>
      </trkpt>
      <trkpt lat="47.75701" lon="7.05004">
        <ele>357.4</ele>
        <time>2022-10-10T11:55:09Z</time>
      </trkpt>
      <trkpt lat="47.75679" lon="7.04984">
        <ele>357.9</ele>
        <time>2022-10-10T11:55:16Z</time>
      </trkpt>
      <trkpt lat="47.75659" lon="7.04956">
        <ele>358.4</ele>
        <time>2022-10-10T11:55:24Z</time>
      </trkpt>
      <trkpt lat="47.75645" lon="7.04942">
        <ele>358.8</ele>
        <time>2022-10-10T11:55:30Z</time>
      </trkpt>
      <trkpt lat="47.75642" lon="7.04941">
        <ele>358.9</ele>
        <time>2022-10-10T11:55:34Z</time>
      </trkpt>
      <trkpt lat="47.7564" lon="7.04942">
        <ele>358.9</ele>
        <time>2022-10-10T11:55:37Z</time>
      </trkpt>
      <trkpt lat="47.75637" lon="7.04943">
        <ele>359</ele>
        <time>2022-10-10T11:55:41Z</time>
      </trkpt>
      <trkpt lat="47.75636" lon="7.04943">
        <ele>359</ele>
        <time>2022-10-10T11:55:42Z</time>
      </trkpt>
      <trkpt lat="47.75631" lon="7.04958">
        <ele>359</ele>
        <time>2022-10-10T11:55:46Z</time>
      </trkpt>
      <trkpt lat="47.75626" lon="7.04977">
        <ele>359</ele>
        <time>2022-10-10T11:55:49Z</time>
      </trkpt>
      <trkpt lat="47.75623" lon="7.0499">
        <ele>359</ele>
        <time>2022-10-10T11:55:51Z</time>
      </trkpt>
      <trkpt lat="47.75617" lon="7.05007">
        <ele>359</ele>
        <time>2022-10-10T11:55:54Z</time>
      </trkpt>
      <trkpt lat="47.75613" lon="7.05009">
        <ele>358.9</ele>
        <time>2022-10-10T11:55:55Z</time>
      </trkpt>
      <trkpt lat="47.75608" lon="7.05009">
        <ele>358.8</ele>
        <time>2022-10-10T11:55:56Z</time>
      </trkpt>
      <trkpt lat="47.75594" lon="7.05005">
        <ele>358.6</ele>
        <time>2022-10-10T11:55:59Z</time>
      </trkpt>
      <trkpt lat="47.75563" lon="7.04997">
        <ele>358.9</ele>
        <time>2022-10-10T11:56:06Z</time>
      </trkpt>
      <trkpt lat="47.75524" lon="7.04992">
        <ele>359.8</ele>
        <time>2022-10-10T11:56:15Z</time>
      </trkpt>
      <trkpt lat="47.75493" lon="7.04992">
        <ele>361.1</ele>
        <time>2022-10-10T11:56:23Z</time>
      </trkpt>
      <trkpt lat="47.75477" lon="7.04986">
        <ele>361.9</ele>
        <time>2022-10-10T11:56:28Z</time>
      </trkpt>
      <trkpt lat="47.75472" lon="7.04967">
        <ele>362.1</ele>
        <time>2022-10-10T11:56:32Z</time>
      </trkpt>
      <trkpt lat="47.75463" lon="7.04922">
        <ele>363.3</ele>
        <time>2022-10-10T11:56:42Z</time>
      </trkpt>
      <trkpt lat="47.75451" lon="7.04891">
        <ele>364.5</ele>
        <time>2022-10-10T11:56:50Z</time>
      </trkpt>
      <trkpt lat="47.75444" lon="7.04866">
        <ele>365.3</ele>
        <time>2022-10-10T11:56:56Z</time>
      </trkpt>
      <trkpt lat="47.75449" lon="7.04839">
        <ele>365.8</ele>
        <time>2022-10-10T11:57:01Z</time>
      </trkpt>
      <trkpt lat="47.75468" lon="7.04792">
        <ele>366.1</ele>
        <time>2022-10-10T11:57:10Z</time>
      </trkpt>
      <trkpt lat="47.7547" lon="7.04781">
        <ele>366.2</ele>
        <time>2022-10-10T11:57:12Z</time>
      </trkpt>
      <trkpt lat="47.75472" lon="7.04763">
        <ele>366.2</ele>
        <time>2022-10-10T11:57:15Z</time>
      </trkpt>
      <trkpt lat="47.75467" lon="7.04741">
        <ele>366.6</ele>
        <time>2022-10-10T11:57:19Z</time>
      </trkpt>
      <trkpt lat="47.75454" lon="7.04712">
        <ele>367.7</ele>
        <time>2022-10-10T11:57:26Z</time>
      </trkpt>
      <trkpt lat="47.75441" lon="7.04694">
        <ele>368.7</ele>
        <time>2022-10-10T11:57:32Z</time>
      </trkpt>
      <trkpt lat="47.75418" lon="7.0468">
        <ele>369.3</ele>
        <time>2022-10-10T11:57:39Z</time>
      </trkpt>
      <trkpt lat="47.75394" lon="7.04662">
        <ele>369.6</ele>
        <time>2022-10-10T11:57:46Z</time>
      </trkpt>
      <trkpt lat="47.75364" lon="7.04643">
        <ele>370</ele>
        <time>2022-10-10T11:57:54Z</time>
      </trkpt>
      <trkpt lat="47.75352" lon="7.04636">
        <ele>370.2</ele>
        <time>2022-10-10T11:57:57Z</time>
      </trkpt>
      <trkpt lat="47.75345" lon="7.0463">
        <ele>370.3</ele>
        <time>2022-10-10T11:57:59Z</time>
      </trkpt>
      <trkpt lat="47.75321" lon="7.04606">
        <ele>370.4</ele>
        <time>2022-10-10T11:58:06Z</time>
      </trkpt>
      <trkpt lat="47.75302" lon="7.0459">
        <ele>370.3</ele>
        <time>2022-10-10T11:58:11Z</time>
      </trkpt>
      <trkpt lat="47.75294" lon="7.04584">
        <ele>370.2</ele>
        <time>2022-10-10T11:58:13Z</time>
      </trkpt>
      <trkpt lat="47.75261" lon="7.04557">
        <ele>370</ele>
        <time>2022-10-10T11:58:21Z</time>
      </trkpt>
      <trkpt lat="47.75235" lon="7.04547">
        <ele>370</ele>
        <time>2022-10-10T11:58:27Z</time>
      </trkpt>
      <trkpt lat="47.75202" lon="7.04543">
        <ele>370.2</ele>
        <time>2022-10-10T11:58:35Z</time>
      </trkpt>
      <trkpt lat="47.75186" lon="7.04542">
        <ele>370.3</ele>
        <time>2022-10-10T11:58:39Z</time>
      </trkpt>
      <trkpt lat="47.75183" lon="7.04538">
        <ele>370.3</ele>
        <time>2022-10-10T11:58:40Z</time>
      </trkpt>
      <trkpt lat="47.7518" lon="7.04535">
        <ele>370.3</ele>
        <time>2022-10-10T11:58:41Z</time>
      </trkpt>
      <trkpt lat="47.7517" lon="7.04515">
        <ele>370.4</ele>
        <time>2022-10-10T11:58:45Z</time>
      </trkpt>
      <trkpt lat="47.75149" lon="7.04475">
        <ele>370.6</ele>
        <time>2022-10-10T11:58:54Z</time>
      </trkpt>
      <trkpt lat="47.75135" lon="7.0445">
        <ele>371</ele>
        <time>2022-10-10T11:59:00Z</time>
      </trkpt>
      <trkpt lat="47.75124" lon="7.04431">
        <ele>371.4</ele>
        <time>2022-10-10T11:59:05Z</time>
      </trkpt>
      <trkpt lat="47.7511" lon="7.04404">
        <ele>372</ele>
        <time>2022-10-10T11:59:11Z</time>
      </trkpt>
      <trkpt lat="47.75098" lon="7.04382">
        <ele>372.6</ele>
        <time>2022-10-10T11:59:16Z</time>
      </trkpt>
      <trkpt lat="47.75082" lon="7.04351">
        <ele>373.4</ele>
        <time>2022-10-10T11:59:23Z</time>
      </trkpt>
      <trkpt lat="47.75073" lon="7.04334">
        <ele>373.8</ele>
        <time>2022-10-10T11:59:27Z</time>
      </trkpt>
      <trkpt lat="47.7506" lon="7.04306">
        <ele>374.4</ele>
        <time>2022-10-10T11:59:33Z</time>
      </trkpt>
      <trkpt lat="47.75048" lon="7.04284">
        <ele>374.9</ele>
        <time>2022-10-10T11:59:38Z</time>
      </trkpt>
      <trkpt lat="47.75037" lon="7.04262">
        <ele>375.4</ele>
        <time>2022-10-10T11:59:43Z</time>
      </trkpt>
      <trkpt lat="47.75023" lon="7.04235">
        <ele>376.1</ele>
        <time>2022-10-10T11:59:49Z</time>
      </trkpt>
      <trkpt lat="47.75011" lon="7.04218">
        <ele>376.5</ele>
        <time>2022-10-10T11:59:53Z</time>
      </trkpt>
      <trkpt lat="47.74999" lon="7.04202">
        <ele>377</ele>
        <time>2022-10-10T11:59:58Z</time>
      </trkpt>
      <trkpt lat="47.74986" lon="7.04182">
        <ele>377.7</ele>
        <time>2022-10-10T12:00:04Z</time>
      </trkpt>
      <trkpt lat="47.74973" lon="7.04164">
        <ele>378.4</ele>
        <time>2022-10-10T12:00:10Z</time>
      </trkpt>
      <trkpt lat="47.7496" lon="7.04143">
        <ele>379.2</ele>
        <time>2022-10-10T12:00:16Z</time>
      </trkpt>
      <trkpt lat="47.74951" lon="7.04126">
        <ele>379.7</ele>
        <time>2022-10-10T12:00:21Z</time>
      </trkpt>
      <trkpt lat="47.74942" lon="7.04108">
        <ele>380.3</ele>
        <time>2022-10-10T12:00:26Z</time>
      </trkpt>
      <trkpt lat="47.7493" lon="7.04088">
        <ele>381</ele>
        <time>2022-10-10T12:00:32Z</time>
      </trkpt>
      <trkpt lat="47.74915" lon="7.04068">
        <ele>381.9</ele>
        <time>2022-10-10T12:00:38Z</time>
      </trkpt>
      <trkpt lat="47.74897" lon="7.04059">
        <ele>383</ele>
        <time>2022-10-10T12:00:44Z</time>
      </trkpt>
      <trkpt lat="47.74872" lon="7.04059">
        <ele>384.2</ele>
        <time>2022-10-10T12:00:50Z</time>
      </trkpt>
      <trkpt lat="47.74855" lon="7.04064">
        <ele>385</ele>
        <time>2022-10-10T12:00:55Z</time>
      </trkpt>
      <trkpt lat="47.74838" lon="7.04065">
        <ele>385.8</ele>
        <time>2022-10-10T12:01:00Z</time>
      </trkpt>
      <trkpt lat="47.74814" lon="7.04067">
        <ele>387</ele>
        <time>2022-10-10T12:01:07Z</time>
      </trkpt>
      <trkpt lat="47.74812" lon="7.04068">
        <ele>387.1</ele>
        <time>2022-10-10T12:01:08Z</time>
      </trkpt>
      <trkpt lat="47.74803" lon="7.04069">
        <ele>387.6</ele>
        <time>2022-10-10T12:01:11Z</time>
      </trkpt>
      <trkpt lat="47.74788" lon="7.0407">
        <ele>388.3</ele>
        <time>2022-10-10T12:01:16Z</time>
      </trkpt>
      <trkpt lat="47.74768" lon="7.04071">
        <ele>389.3</ele>
        <time>2022-10-10T12:01:21Z</time>
      </trkpt>
      <trkpt lat="47.7475" lon="7.04068">
        <ele>390.2</ele>
        <time>2022-10-10T12:01:26Z</time>
      </trkpt>
      <trkpt lat="47.74726" lon="7.04057">
        <ele>391.3</ele>
        <time>2022-10-10T12:01:33Z</time>
      </trkpt>
      <trkpt lat="47.74708" lon="7.04056">
        <ele>392.2</ele>
        <time>2022-10-10T12:01:38Z</time>
      </trkpt>
      <trkpt lat="47.74688" lon="7.04061">
        <ele>393.2</ele>
        <time>2022-10-10T12:01:43Z</time>
      </trkpt>
      <trkpt lat="47.74671" lon="7.04063">
        <ele>394.1</ele>
        <time>2022-10-10T12:01:48Z</time>
      </trkpt>
      <trkpt lat="47.74658" lon="7.04056">
        <ele>394.8</ele>
        <time>2022-10-10T12:01:53Z</time>
      </trkpt>
      <trkpt lat="47.74655" lon="7.04053">
        <ele>395</ele>
        <time>2022-10-10T12:01:55Z</time>
      </trkpt>
      <trkpt lat="47.7465" lon="7.04051">
        <ele>395.2</ele>
        <time>2022-10-10T12:01:57Z</time>
      </trkpt>
      <trkpt lat="47.74645" lon="7.04051">
        <ele>395.5</ele>
        <time>2022-10-10T12:01:59Z</time>
      </trkpt>
      <trkpt lat="47.74641" lon="7.04047">
        <ele>395.6</ele>
        <time>2022-10-10T12:02:01Z</time>
      </trkpt>
      <trkpt lat="47.74635" lon="7.04035">
        <ele>396.2</ele>
        <time>2022-10-10T12:02:06Z</time>
      </trkpt>
      <trkpt lat="47.74634" lon="7.04032">
        <ele>396.3</ele>
        <time>2022-10-10T12:02:07Z</time>
      </trkpt>
      <trkpt lat="47.74628" lon="7.04021">
        <ele>396.6</ele>
        <time>2022-10-10T12:02:11Z</time>
      </trkpt>
      <trkpt lat="47.74624" lon="7.04004">
        <ele>396.9</ele>
        <time>2022-10-10T12:02:16Z</time>
      </trkpt>
      <trkpt lat="47.74622" lon="7.03989">
        <ele>397.3</ele>
        <time>2022-10-10T12:02:20Z</time>
      </trkpt>
      <trkpt lat="47.74623" lon="7.0397">
        <ele>397.8</ele>
        <time>2022-10-10T12:02:24Z</time>
      </trkpt>
      <trkpt lat="47.74623" lon="7.03957">
        <ele>398.1</ele>
        <time>2022-10-10T12:02:27Z</time>
      </trkpt>
      <trkpt lat="47.74625" lon="7.03948">
        <ele>398.3</ele>
        <time>2022-10-10T12:02:29Z</time>
      </trkpt>
      <trkpt lat="47.74631" lon="7.03935">
        <ele>398.6</ele>
        <time>2022-10-10T12:02:33Z</time>
      </trkpt>
      <trkpt lat="47.74632" lon="7.03931">
        <ele>398.7</ele>
        <time>2022-10-10T12:02:34Z</time>
      </trkpt>
      <trkpt lat="47.74643" lon="7.03912">
        <ele>399.3</ele>
        <time>2022-10-10T12:02:39Z</time>
      </trkpt>
      <trkpt lat="47.74652" lon="7.03897">
        <ele>399.7</ele>
        <time>2022-10-10T12:02:43Z</time>
      </trkpt>
      <trkpt lat="47.74666" lon="7.03873">
        <ele>400.4</ele>
        <time>2022-10-10T12:02:49Z</time>
      </trkpt>
      <trkpt lat="47.74676" lon="7.03851">
        <ele>401</ele>
        <time>2022-10-10T12:02:54Z</time>
      </trkpt>
      <trkpt lat="47.74678" lon="7.03848">
        <ele>401.1</ele>
        <time>2022-10-10T12:02:55Z</time>
      </trkpt>
      <trkpt lat="47.74682" lon="7.03836">
        <ele>401.4</ele>
        <time>2022-10-10T12:02:58Z</time>
      </trkpt>
      <trkpt lat="47.74691" lon="7.03813">
        <ele>401.9</ele>
        <time>2022-10-10T12:03:03Z</time>
      </trkpt>
      <trkpt lat="47.74699" lon="7.03796">
        <ele>402.4</ele>
        <time>2022-10-10T12:03:07Z</time>
      </trkpt>
      <trkpt lat="47.74709" lon="7.03777">
        <ele>403</ele>
        <time>2022-10-10T12:03:12Z</time>
      </trkpt>
      <trkpt lat="47.74715" lon="7.03765">
        <ele>403.3</ele>
        <time>2022-10-10T12:03:15Z</time>
      </trkpt>
      <trkpt lat="47.74718" lon="7.03756">
        <ele>403.6</ele>
        <time>2022-10-10T12:03:17Z</time>
      </trkpt>
      <trkpt lat="47.74728" lon="7.03736">
        <ele>404.3</ele>
        <time>2022-10-10T12:03:22Z</time>
      </trkpt>
      <trkpt lat="47.74735" lon="7.03714">
        <ele>405.2</ele>
        <time>2022-10-10T12:03:27Z</time>
      </trkpt>
      <trkpt lat="47.7474" lon="7.03695">
        <ele>405.9</ele>
        <time>2022-10-10T12:03:31Z</time>
      </trkpt>
      <trkpt lat="47.74743" lon="7.03674">
        <ele>406.5</ele>
        <time>2022-10-10T12:03:36Z</time>
      </trkpt>
      <trkpt lat="47.74744" lon="7.03666">
        <ele>406.7</ele>
        <time>2022-10-10T12:03:38Z</time>
      </trkpt>
      <trkpt lat="47.74745" lon="7.03656">
        <ele>407</ele>
        <time>2022-10-10T12:03:40Z</time>
      </trkpt>
      <trkpt lat="47.74746" lon="7.03633">
        <ele>407.6</ele>
        <time>2022-10-10T12:03:45Z</time>
      </trkpt>
      <trkpt lat="47.74746" lon="7.03613">
        <ele>408.1</ele>
        <time>2022-10-10T12:03:49Z</time>
      </trkpt>
      <trkpt lat="47.74747" lon="7.03608">
        <ele>408.3</ele>
        <time>2022-10-10T12:03:50Z</time>
      </trkpt>
      <trkpt lat="47.74749" lon="7.036">
        <ele>408.5</ele>
        <time>2022-10-10T12:03:52Z</time>
      </trkpt>
      <trkpt lat="47.74755" lon="7.03574">
        <ele>409.2</ele>
        <time>2022-10-10T12:03:57Z</time>
      </trkpt>
      <trkpt lat="47.74761" lon="7.03553">
        <ele>409.7</ele>
        <time>2022-10-10T12:04:01Z</time>
      </trkpt>
      <trkpt lat="47.74774" lon="7.03527">
        <ele>410.6</ele>
        <time>2022-10-10T12:04:08Z</time>
      </trkpt>
      <trkpt lat="47.74781" lon="7.03522">
        <ele>410.9</ele>
        <time>2022-10-10T12:04:11Z</time>
      </trkpt>
      <trkpt lat="47.74783" lon="7.0352">
        <ele>411</ele>
        <time>2022-10-10T12:04:12Z</time>
      </trkpt>
      <trkpt lat="47.74785" lon="7.03517">
        <ele>411.1</ele>
        <time>2022-10-10T12:04:13Z</time>
      </trkpt>
      <trkpt lat="47.74791" lon="7.03509">
        <ele>411.5</ele>
        <time>2022-10-10T12:04:16Z</time>
      </trkpt>
      <trkpt lat="47.74801" lon="7.03495">
        <ele>412.1</ele>
        <time>2022-10-10T12:04:21Z</time>
      </trkpt>
      <trkpt lat="47.74813" lon="7.03479">
        <ele>412.7</ele>
        <time>2022-10-10T12:04:26Z</time>
      </trkpt>
      <trkpt lat="47.74823" lon="7.03461">
        <ele>413.3</ele>
        <time>2022-10-10T12:04:31Z</time>
      </trkpt>
      <trkpt lat="47.74832" lon="7.03441">
        <ele>413.6</ele>
        <time>2022-10-10T12:04:36Z</time>
      </trkpt>
      <trkpt lat="47.74838" lon="7.03415">
        <ele>413.9</ele>
        <time>2022-10-10T12:04:41Z</time>
      </trkpt>
      <trkpt lat="47.74844" lon="7.03395">
        <ele>414</ele>
        <time>2022-10-10T12:04:45Z</time>
      </trkpt>
      <trkpt lat="47.74844" lon="7.0339">
        <ele>414</ele>
        <time>2022-10-10T12:04:46Z</time>
      </trkpt>
      <trkpt lat="47.74849" lon="7.03362">
        <ele>414.2</ele>
        <time>2022-10-10T12:04:51Z</time>
      </trkpt>
      <trkpt lat="47.74856" lon="7.03337">
        <ele>414.3</ele>
        <time>2022-10-10T12:04:56Z</time>
      </trkpt>
      <trkpt lat="47.74856" lon="7.03334">
        <ele>414.3</ele>
        <time>2022-10-10T12:04:57Z</time>
      </trkpt>
      <trkpt lat="47.74857" lon="7.03322">
        <ele>414.4</ele>
        <time>2022-10-10T12:05:00Z</time>
      </trkpt>
      <trkpt lat="47.7486" lon="7.03304">
        <ele>414.4</ele>
        <time>2022-10-10T12:05:04Z</time>
      </trkpt>
      <trkpt lat="47.74865" lon="7.03279">
        <ele>414.6</ele>
        <time>2022-10-10T12:05:09Z</time>
      </trkpt>
      <trkpt lat="47.74864" lon="7.03265">
        <ele>414.8</ele>
        <time>2022-10-10T12:05:12Z</time>
      </trkpt>
      <trkpt lat="47.74865" lon="7.03259">
        <ele>414.8</ele>
        <time>2022-10-10T12:05:14Z</time>
      </trkpt>
      <trkpt lat="47.74866" lon="7.03257">
        <ele>414.8</ele>
        <time>2022-10-10T12:05:16Z</time>
      </trkpt>
      <trkpt lat="47.74864" lon="7.03246">
        <ele>414.9</ele>
        <time>2022-10-10T12:05:53Z</time>
      </trkpt>
      <trkpt lat="47.74863" lon="7.03243">
        <ele>415</ele>
        <time>2022-10-10T12:05:54Z</time>
      </trkpt>
      <trkpt lat="47.74863" lon="7.03241">
        <ele>415.1</ele>
        <time>2022-10-10T12:05:55Z</time>
      </trkpt>
      <trkpt lat="47.74863" lon="7.03237">
        <ele>415.2</ele>
        <time>2022-10-10T12:05:58Z</time>
      </trkpt>
      <trkpt lat="47.74863" lon="7.03233">
        <ele>415.2</ele>
        <time>2022-10-10T12:06:11Z</time>
      </trkpt>
      <trkpt lat="47.74861" lon="7.03227">
        <ele>415.3</ele>
        <time>2022-10-10T12:06:13Z</time>
      </trkpt>
      <trkpt lat="47.7486" lon="7.03223">
        <ele>415.3</ele>
        <time>2022-10-10T12:06:14Z</time>
      </trkpt>
      <trkpt lat="47.74858" lon="7.03215">
        <ele>415.4</ele>
        <time>2022-10-10T12:06:16Z</time>
      </trkpt>
      <trkpt lat="47.74848" lon="7.03192">
        <ele>415.5</ele>
        <time>2022-10-10T12:06:22Z</time>
      </trkpt>
      <trkpt lat="47.74847" lon="7.03187">
        <ele>415.5</ele>
        <time>2022-10-10T12:06:23Z</time>
      </trkpt>
      <trkpt lat="47.74844" lon="7.03179">
        <ele>415.5</ele>
        <time>2022-10-10T12:06:25Z</time>
      </trkpt>
      <trkpt lat="47.74839" lon="7.03174">
        <ele>415.4</ele>
        <time>2022-10-10T12:06:27Z</time>
      </trkpt>
      <trkpt lat="47.74834" lon="7.0317">
        <ele>415.4</ele>
        <time>2022-10-10T12:06:29Z</time>
      </trkpt>
      <trkpt lat="47.74823" lon="7.03167">
        <ele>415.4</ele>
        <time>2022-10-10T12:06:32Z</time>
      </trkpt>
      <trkpt lat="47.74821" lon="7.03167">
        <ele>415.4</ele>
        <time>2022-10-10T12:06:33Z</time>
      </trkpt>
      <trkpt lat="47.74813" lon="7.03165">
        <ele>415.4</ele>
        <time>2022-10-10T12:06:36Z</time>
      </trkpt>
      <trkpt lat="47.74811" lon="7.03164">
        <ele>415.4</ele>
        <time>2022-10-10T12:06:37Z</time>
      </trkpt>
      <trkpt lat="47.74808" lon="7.03162">
        <ele>415.4</ele>
        <time>2022-10-10T12:06:39Z</time>
      </trkpt>
      <trkpt lat="47.74804" lon="7.03158">
        <ele>415.4</ele>
        <time>2022-10-10T12:06:41Z</time>
      </trkpt>
      <trkpt lat="47.74791" lon="7.0315">
        <ele>415.3</ele>
        <time>2022-10-10T12:06:45Z</time>
      </trkpt>
      <trkpt lat="47.74783" lon="7.03141">
        <ele>415</ele>
        <time>2022-10-10T12:06:49Z</time>
      </trkpt>
      <trkpt lat="47.7477" lon="7.03134">
        <ele>414.6</ele>
        <time>2022-10-10T12:06:53Z</time>
      </trkpt>
      <trkpt lat="47.74767" lon="7.03132">
        <ele>414.4</ele>
        <time>2022-10-10T12:06:54Z</time>
      </trkpt>
      <trkpt lat="47.74758" lon="7.03126">
        <ele>414.1</ele>
        <time>2022-10-10T12:06:56Z</time>
      </trkpt>
      <trkpt lat="47.74744" lon="7.03118">
        <ele>413.7</ele>
        <time>2022-10-10T12:07:00Z</time>
      </trkpt>
      <trkpt lat="47.74729" lon="7.03105">
        <ele>413.5</ele>
        <time>2022-10-10T12:07:04Z</time>
      </trkpt>
      <trkpt lat="47.74712" lon="7.03094">
        <ele>413.4</ele>
        <time>2022-10-10T12:07:08Z</time>
      </trkpt>
      <trkpt lat="47.74697" lon="7.03081">
        <ele>413.5</ele>
        <time>2022-10-10T12:07:12Z</time>
      </trkpt>
      <trkpt lat="47.74694" lon="7.03077">
        <ele>413.6</ele>
        <time>2022-10-10T12:07:13Z</time>
      </trkpt>
      <trkpt lat="47.74688" lon="7.03062">
        <ele>413.7</ele>
        <time>2022-10-10T12:07:17Z</time>
      </trkpt>
      <trkpt lat="47.74679" lon="7.03042">
        <ele>414.1</ele>
        <time>2022-10-10T12:07:21Z</time>
      </trkpt>
      <trkpt lat="47.74678" lon="7.03037">
        <ele>414.2</ele>
        <time>2022-10-10T12:07:22Z</time>
      </trkpt>
      <trkpt lat="47.7467" lon="7.03009">
        <ele>414.5</ele>
        <time>2022-10-10T12:07:27Z</time>
      </trkpt>
      <trkpt lat="47.74665" lon="7.02998">
        <ele>414.5</ele>
        <time>2022-10-10T12:07:29Z</time>
      </trkpt>
      <trkpt lat="47.74657" lon="7.02987">
        <ele>414.5</ele>
        <time>2022-10-10T12:07:31Z</time>
      </trkpt>
      <trkpt lat="47.74651" lon="7.02975">
        <ele>414.4</ele>
        <time>2022-10-10T12:07:33Z</time>
      </trkpt>
      <trkpt lat="47.74642" lon="7.02965">
        <ele>414.3</ele>
        <time>2022-10-10T12:07:35Z</time>
      </trkpt>
      <trkpt lat="47.74632" lon="7.02955">
        <ele>413.6</ele>
        <time>2022-10-10T12:07:37Z</time>
      </trkpt>
      <trkpt lat="47.74622" lon="7.02944">
        <ele>413</ele>
        <time>2022-10-10T12:07:39Z</time>
      </trkpt>
      <trkpt lat="47.74617" lon="7.02938">
        <ele>412.6</ele>
        <time>2022-10-10T12:07:40Z</time>
      </trkpt>
      <trkpt lat="47.74601" lon="7.02921">
        <ele>411.7</ele>
        <time>2022-10-10T12:07:43Z</time>
      </trkpt>
      <trkpt lat="47.74596" lon="7.02919">
        <ele>411.5</ele>
        <time>2022-10-10T12:07:44Z</time>
      </trkpt>
      <trkpt lat="47.74592" lon="7.02918">
        <ele>411.4</ele>
        <time>2022-10-10T12:07:45Z</time>
      </trkpt>
      <trkpt lat="47.74586" lon="7.02918">
        <ele>411.1</ele>
        <time>2022-10-10T12:07:47Z</time>
      </trkpt>
      <trkpt lat="47.74583" lon="7.02907">
        <ele>410.8</ele>
        <time>2022-10-10T12:07:50Z</time>
      </trkpt>
      <trkpt lat="47.74576" lon="7.02881">
        <ele>410.4</ele>
        <time>2022-10-10T12:07:55Z</time>
      </trkpt>
      <trkpt lat="47.74566" lon="7.02861">
        <ele>410.2</ele>
        <time>2022-10-10T12:08:00Z</time>
      </trkpt>
      <trkpt lat="47.74561" lon="7.02851">
        <ele>410.1</ele>
        <time>2022-10-10T12:08:02Z</time>
      </trkpt>
      <trkpt lat="47.74556" lon="7.02841">
        <ele>410</ele>
        <time>2022-10-10T12:08:04Z</time>
      </trkpt>
      <trkpt lat="47.74545" lon="7.02824">
        <ele>409.9</ele>
        <time>2022-10-10T12:08:08Z</time>
      </trkpt>
      <trkpt lat="47.74531" lon="7.02804">
        <ele>409.7</ele>
        <time>2022-10-10T12:08:13Z</time>
      </trkpt>
      <trkpt lat="47.74514" lon="7.0278">
        <ele>409.5</ele>
        <time>2022-10-10T12:08:18Z</time>
      </trkpt>
      <trkpt lat="47.74498" lon="7.02747">
        <ele>409.3</ele>
        <time>2022-10-10T12:08:24Z</time>
      </trkpt>
      <trkpt lat="47.74483" lon="7.02722">
        <ele>408.9</ele>
        <time>2022-10-10T12:08:29Z</time>
      </trkpt>
      <trkpt lat="47.74479" lon="7.02718">
        <ele>408.7</ele>
        <time>2022-10-10T12:08:30Z</time>
      </trkpt>
      <trkpt lat="47.74471" lon="7.02714">
        <ele>408.5</ele>
        <time>2022-10-10T12:08:32Z</time>
      </trkpt>
      <trkpt lat="47.74467" lon="7.02712">
        <ele>408.4</ele>
        <time>2022-10-10T12:08:33Z</time>
      </trkpt>
      <trkpt lat="47.74458" lon="7.0271">
        <ele>408.1</ele>
        <time>2022-10-10T12:08:35Z</time>
      </trkpt>
      <trkpt lat="47.74447" lon="7.0271">
        <ele>408</ele>
        <time>2022-10-10T12:08:37Z</time>
      </trkpt>
      <trkpt lat="47.74439" lon="7.02714">
        <ele>407.9</ele>
        <time>2022-10-10T12:08:39Z</time>
      </trkpt>
      <trkpt lat="47.74425" lon="7.02717">
        <ele>407.8</ele>
        <time>2022-10-10T12:08:42Z</time>
      </trkpt>
      <trkpt lat="47.74403" lon="7.02729">
        <ele>407.9</ele>
        <time>2022-10-10T12:08:48Z</time>
      </trkpt>
      <trkpt lat="47.74398" lon="7.0273">
        <ele>408</ele>
        <time>2022-10-10T12:08:50Z</time>
      </trkpt>
      <trkpt lat="47.74395" lon="7.02729">
        <ele>408</ele>
        <time>2022-10-10T12:08:51Z</time>
      </trkpt>
      <trkpt lat="47.7439" lon="7.02719">
        <ele>408.1</ele>
        <time>2022-10-10T12:08:54Z</time>
      </trkpt>
      <trkpt lat="47.7439" lon="7.02715">
        <ele>408.3</ele>
        <time>2022-10-10T12:08:55Z</time>
      </trkpt>
      <trkpt lat="47.7439" lon="7.02688">
        <ele>409.2</ele>
        <time>2022-10-10T12:09:01Z</time>
      </trkpt>
      <trkpt lat="47.74391" lon="7.02656">
        <ele>410.4</ele>
        <time>2022-10-10T12:09:08Z</time>
      </trkpt>
      <trkpt lat="47.74392" lon="7.02618">
        <ele>411.7</ele>
        <time>2022-10-10T12:09:15Z</time>
      </trkpt>
      <trkpt lat="47.74392" lon="7.02582">
        <ele>413</ele>
        <time>2022-10-10T12:09:22Z</time>
      </trkpt>
      <trkpt lat="47.74394" lon="7.02537">
        <ele>414.5</ele>
        <time>2022-10-10T12:09:30Z</time>
      </trkpt>
      <trkpt lat="47.74395" lon="7.02493">
        <ele>415.6</ele>
        <time>2022-10-10T12:09:38Z</time>
      </trkpt>
      <trkpt lat="47.74396" lon="7.02455">
        <ele>416.5</ele>
        <time>2022-10-10T12:09:45Z</time>
      </trkpt>
      <trkpt lat="47.74393" lon="7.02432">
        <ele>417.5</ele>
        <time>2022-10-10T12:09:50Z</time>
      </trkpt>
      <trkpt lat="47.74387" lon="7.02418">
        <ele>418.5</ele>
        <time>2022-10-10T12:09:56Z</time>
      </trkpt>
      <trkpt lat="47.74384" lon="7.02415">
        <ele>418.6</ele>
        <time>2022-10-10T12:09:59Z</time>
      </trkpt>
      <trkpt lat="47.74381" lon="7.02415">
        <ele>418.6</ele>
        <time>2022-10-10T12:10:03Z</time>
      </trkpt>
      <trkpt lat="47.74381" lon="7.02415">
        <ele>418.6</ele>
        <time>2022-10-10T12:10:04Z</time>
      </trkpt>
      <trkpt lat="47.74381" lon="7.0241">
        <ele>418.7</ele>
        <time>2022-10-10T12:10:11Z</time>
      </trkpt>
      <trkpt lat="47.74384" lon="7.02407">
        <ele>418.7</ele>
        <time>2022-10-10T12:10:13Z</time>
      </trkpt>
      <trkpt lat="47.74386" lon="7.02399">
        <ele>418.8</ele>
        <time>2022-10-10T12:10:17Z</time>
      </trkpt>
      <trkpt lat="47.74385" lon="7.02398">
        <ele>418.8</ele>
        <time>2022-10-10T12:10:18Z</time>
      </trkpt>
      <trkpt lat="47.74384" lon="7.02398">
        <ele>418.9</ele>
        <time>2022-10-10T12:10:20Z</time>
      </trkpt>
      <trkpt lat="47.74385" lon="7.02411">
        <ele>419</ele>
        <time>2022-10-10T12:13:18Z</time>
      </trkpt>
      <trkpt lat="47.74386" lon="7.0241">
        <ele>419</ele>
        <time>2022-10-10T12:13:19Z</time>
      </trkpt>
      <trkpt lat="47.74386" lon="7.02409">
        <ele>419</ele>
        <time>2022-10-10T12:13:21Z</time>
      </trkpt>
      <trkpt lat="47.74386" lon="7.02403">
        <ele>419.1</ele>
        <time>2022-10-10T12:13:26Z</time>
      </trkpt>
      <trkpt lat="47.74387" lon="7.024">
        <ele>419.1</ele>
        <time>2022-10-10T12:13:27Z</time>
      </trkpt>
      <trkpt lat="47.74382" lon="7.02386">
        <ele>419.2</ele>
        <time>2022-10-10T12:13:32Z</time>
      </trkpt>
      <trkpt lat="47.74374" lon="7.0236">
        <ele>419.3</ele>
        <time>2022-10-10T12:13:38Z</time>
      </trkpt>
      <trkpt lat="47.74366" lon="7.02333">
        <ele>419.5</ele>
        <time>2022-10-10T12:13:44Z</time>
      </trkpt>
      <trkpt lat="47.74359" lon="7.02306">
        <ele>419.6</ele>
        <time>2022-10-10T12:13:50Z</time>
      </trkpt>
      <trkpt lat="47.74348" lon="7.02294">
        <ele>419.6</ele>
        <time>2022-10-10T12:13:54Z</time>
      </trkpt>
      <trkpt lat="47.74336" lon="7.02286">
        <ele>419.6</ele>
        <time>2022-10-10T12:13:58Z</time>
      </trkpt>
      <trkpt lat="47.7432" lon="7.02279">
        <ele>419.6</ele>
        <time>2022-10-10T12:14:03Z</time>
      </trkpt>
      <trkpt lat="47.74302" lon="7.02269">
        <ele>419.5</ele>
        <time>2022-10-10T12:14:08Z</time>
      </trkpt>
      <trkpt lat="47.7429" lon="7.02262">
        <ele>419.4</ele>
        <time>2022-10-10T12:14:11Z</time>
      </trkpt>
      <trkpt lat="47.74277" lon="7.02255">
        <ele>419.4</ele>
        <time>2022-10-10T12:14:14Z</time>
      </trkpt>
      <trkpt lat="47.74254" lon="7.02237">
        <ele>419.2</ele>
        <time>2022-10-10T12:14:20Z</time>
      </trkpt>
      <trkpt lat="47.74234" lon="7.02226">
        <ele>419.2</ele>
        <time>2022-10-10T12:14:25Z</time>
      </trkpt>
      <trkpt lat="47.74218" lon="7.02218">
        <ele>419.2</ele>
        <time>2022-10-10T12:14:29Z</time>
      </trkpt>
      <trkpt lat="47.74209" lon="7.02215">
        <ele>419.2</ele>
        <time>2022-10-10T12:14:31Z</time>
      </trkpt>
      <trkpt lat="47.74196" lon="7.02212">
        <ele>419.3</ele>
        <time>2022-10-10T12:14:34Z</time>
      </trkpt>
      <trkpt lat="47.74162" lon="7.02195">
        <ele>419.2</ele>
        <time>2022-10-10T12:14:42Z</time>
      </trkpt>
      <trkpt lat="47.74143" lon="7.0218">
        <ele>419.1</ele>
        <time>2022-10-10T12:14:47Z</time>
      </trkpt>
      <trkpt lat="47.74122" lon="7.02162">
        <ele>418.9</ele>
        <time>2022-10-10T12:14:53Z</time>
      </trkpt>
      <trkpt lat="47.74112" lon="7.02152">
        <ele>418.8</ele>
        <time>2022-10-10T12:14:56Z</time>
      </trkpt>
      <trkpt lat="47.74108" lon="7.02148">
        <ele>418.8</ele>
        <time>2022-10-10T12:14:57Z</time>
      </trkpt>
      <trkpt lat="47.7409" lon="7.02129">
        <ele>418.6</ele>
        <time>2022-10-10T12:15:02Z</time>
      </trkpt>
      <trkpt lat="47.7407" lon="7.02108">
        <ele>418.4</ele>
        <time>2022-10-10T12:15:08Z</time>
      </trkpt>
      <trkpt lat="47.74049" lon="7.02083">
        <ele>418.2</ele>
        <time>2022-10-10T12:15:14Z</time>
      </trkpt>
      <trkpt lat="47.74036" lon="7.02065">
        <ele>418.1</ele>
        <time>2022-10-10T12:15:18Z</time>
      </trkpt>
      <trkpt lat="47.7403" lon="7.02057">
        <ele>418.1</ele>
        <time>2022-10-10T12:15:20Z</time>
      </trkpt>
      <trkpt lat="47.74014" lon="7.02039">
        <ele>417.9</ele>
        <time>2022-10-10T12:15:25Z</time>
      </trkpt>
      <trkpt lat="47.74003" lon="7.02022">
        <ele>417.9</ele>
        <time>2022-10-10T12:15:30Z</time>
      </trkpt>
      <trkpt lat="47.73992" lon="7.02005">
        <ele>417.8</ele>
        <time>2022-10-10T12:15:35Z</time>
      </trkpt>
      <trkpt lat="47.73977" lon="7.01982">
        <ele>417.8</ele>
        <time>2022-10-10T12:15:40Z</time>
      </trkpt>
      <trkpt lat="47.73965" lon="7.01956">
        <ele>417.8</ele>
        <time>2022-10-10T12:15:45Z</time>
      </trkpt>
      <trkpt lat="47.73956" lon="7.01934">
        <ele>417.7</ele>
        <time>2022-10-10T12:15:49Z</time>
      </trkpt>
      <trkpt lat="47.73946" lon="7.01912">
        <ele>417.6</ele>
        <time>2022-10-10T12:15:53Z</time>
      </trkpt>
      <trkpt lat="47.73934" lon="7.01886">
        <ele>417.5</ele>
        <time>2022-10-10T12:15:58Z</time>
      </trkpt>
      <trkpt lat="47.7392" lon="7.01849">
        <ele>417.4</ele>
        <time>2022-10-10T12:16:05Z</time>
      </trkpt>
      <trkpt lat="47.73909" lon="7.01823">
        <ele>417.4</ele>
        <time>2022-10-10T12:16:11Z</time>
      </trkpt>
      <trkpt lat="47.739" lon="7.01801">
        <ele>417.4</ele>
        <time>2022-10-10T12:16:16Z</time>
      </trkpt>
      <trkpt lat="47.73891" lon="7.01786">
        <ele>417.3</ele>
        <time>2022-10-10T12:16:20Z</time>
      </trkpt>
      <trkpt lat="47.7388" lon="7.01765">
        <ele>417.2</ele>
        <time>2022-10-10T12:16:25Z</time>
      </trkpt>
      <trkpt lat="47.73865" lon="7.01736">
        <ele>417.2</ele>
        <time>2022-10-10T12:16:31Z</time>
      </trkpt>
      <trkpt lat="47.73852" lon="7.01711">
        <ele>417.1</ele>
        <time>2022-10-10T12:16:37Z</time>
      </trkpt>
      <trkpt lat="47.73845" lon="7.01696">
        <ele>417.1</ele>
        <time>2022-10-10T12:16:43Z</time>
      </trkpt>
      <trkpt lat="47.73845" lon="7.01696">
        <ele>417.1</ele>
        <time>2022-10-10T12:16:44Z</time>
      </trkpt>
      <trkpt lat="47.73845" lon="7.01691">
        <ele>417.1</ele>
        <time>2022-10-10T12:17:05Z</time>
      </trkpt>
      <trkpt lat="47.73846" lon="7.01687">
        <ele>417.1</ele>
        <time>2022-10-10T12:17:07Z</time>
      </trkpt>
      <trkpt lat="47.73847" lon="7.01683">
        <ele>417.1</ele>
        <time>2022-10-10T12:17:08Z</time>
      </trkpt>
      <trkpt lat="47.73857" lon="7.01651">
        <ele>417.2</ele>
        <time>2022-10-10T12:17:15Z</time>
      </trkpt>
      <trkpt lat="47.7387" lon="7.01612">
        <ele>416.5</ele>
        <time>2022-10-10T12:17:22Z</time>
      </trkpt>
      <trkpt lat="47.73879" lon="7.01583">
        <ele>415.7</ele>
        <time>2022-10-10T12:17:27Z</time>
      </trkpt>
      <trkpt lat="47.73881" lon="7.01578">
        <ele>415.5</ele>
        <time>2022-10-10T12:17:28Z</time>
      </trkpt>
      <trkpt lat="47.73889" lon="7.01556">
        <ele>414.8</ele>
        <time>2022-10-10T12:17:32Z</time>
      </trkpt>
      <trkpt lat="47.73895" lon="7.01536">
        <ele>414.2</ele>
        <time>2022-10-10T12:17:37Z</time>
      </trkpt>
      <trkpt lat="47.73901" lon="7.01519">
        <ele>413.5</ele>
        <time>2022-10-10T12:17:43Z</time>
      </trkpt>
      <trkpt lat="47.73913" lon="7.01523">
        <ele>413.5</ele>
        <time>2022-10-10T12:17:47Z</time>
      </trkpt>
      <trkpt lat="47.73935" lon="7.01531">
        <ele>413.3</ele>
        <time>2022-10-10T12:17:53Z</time>
      </trkpt>
      <trkpt lat="47.73948" lon="7.01533">
        <ele>413.2</ele>
        <time>2022-10-10T12:17:56Z</time>
      </trkpt>
      <trkpt lat="47.73958" lon="7.01534">
        <ele>413.1</ele>
        <time>2022-10-10T12:17:58Z</time>
      </trkpt>
      <trkpt lat="47.73986" lon="7.01532">
        <ele>413.1</ele>
        <time>2022-10-10T12:18:04Z</time>
      </trkpt>
      <trkpt lat="47.73991" lon="7.01531">
        <ele>413.1</ele>
        <time>2022-10-10T12:18:05Z</time>
      </trkpt>
      <trkpt lat="47.74006" lon="7.01527">
        <ele>413.2</ele>
        <time>2022-10-10T12:18:09Z</time>
      </trkpt>
      <trkpt lat="47.74022" lon="7.01524">
        <ele>413.3</ele>
        <time>2022-10-10T12:18:14Z</time>
      </trkpt>
      <trkpt lat="47.7404" lon="7.0152">
        <ele>413.6</ele>
        <time>2022-10-10T12:18:19Z</time>
      </trkpt>
      <trkpt lat="47.74056" lon="7.01512">
        <ele>413.8</ele>
        <time>2022-10-10T12:18:24Z</time>
      </trkpt>
      <trkpt lat="47.74062" lon="7.01493">
        <ele>413.8</ele>
        <time>2022-10-10T12:18:28Z</time>
      </trkpt>
      <trkpt lat="47.74066" lon="7.01474">
        <ele>413.8</ele>
        <time>2022-10-10T12:18:33Z</time>
      </trkpt>
      <trkpt lat="47.74065" lon="7.01469">
        <ele>413.8</ele>
        <time>2022-10-10T12:18:35Z</time>
      </trkpt>
      <trkpt lat="47.74067" lon="7.01459">
        <ele>413.8</ele>
        <time>2022-10-10T12:18:37Z</time>
      </trkpt>
      <trkpt lat="47.74069" lon="7.01442">
        <ele>413.9</ele>
        <time>2022-10-10T12:18:41Z</time>
      </trkpt>
      <trkpt lat="47.74071" lon="7.01401">
        <ele>414</ele>
        <time>2022-10-10T12:18:48Z</time>
      </trkpt>
      <trkpt lat="47.74072" lon="7.01387">
        <ele>414.1</ele>
        <time>2022-10-10T12:18:50Z</time>
      </trkpt>
      <trkpt lat="47.74076" lon="7.01371">
        <ele>414.2</ele>
        <time>2022-10-10T12:18:53Z</time>
      </trkpt>
      <trkpt lat="47.74081" lon="7.01344">
        <ele>414.4</ele>
        <time>2022-10-10T12:18:58Z</time>
      </trkpt>
      <trkpt lat="47.74089" lon="7.01317">
        <ele>414.4</ele>
        <time>2022-10-10T12:19:03Z</time>
      </trkpt>
      <trkpt lat="47.74091" lon="7.01298">
        <ele>414.2</ele>
        <time>2022-10-10T12:19:06Z</time>
      </trkpt>
      <trkpt lat="47.74091" lon="7.01292">
        <ele>414.1</ele>
        <time>2022-10-10T12:19:07Z</time>
      </trkpt>
      <trkpt lat="47.7409" lon="7.01285">
        <ele>413.9</ele>
        <time>2022-10-10T12:19:08Z</time>
      </trkpt>
      <trkpt lat="47.74083" lon="7.01255">
        <ele>413.3</ele>
        <time>2022-10-10T12:19:12Z</time>
      </trkpt>
      <trkpt lat="47.74076" lon="7.01235">
        <ele>413</ele>
        <time>2022-10-10T12:19:15Z</time>
      </trkpt>
      <trkpt lat="47.74069" lon="7.01216">
        <ele>412.9</ele>
        <time>2022-10-10T12:19:18Z</time>
      </trkpt>
      <trkpt lat="47.7406" lon="7.01191">
        <ele>412.9</ele>
        <time>2022-10-10T12:19:22Z</time>
      </trkpt>
      <trkpt lat="47.74051" lon="7.01168">
        <ele>413.2</ele>
        <time>2022-10-10T12:19:26Z</time>
      </trkpt>
      <trkpt lat="47.74045" lon="7.01152">
        <ele>413.4</ele>
        <time>2022-10-10T12:19:29Z</time>
      </trkpt>
      <trkpt lat="47.74034" lon="7.01126">
        <ele>413.9</ele>
        <time>2022-10-10T12:19:34Z</time>
      </trkpt>
      <trkpt lat="47.74021" lon="7.01091">
        <ele>414.9</ele>
        <time>2022-10-10T12:19:41Z</time>
      </trkpt>
      <trkpt lat="47.7402" lon="7.01086">
        <ele>415.1</ele>
        <time>2022-10-10T12:19:42Z</time>
      </trkpt>
      <trkpt lat="47.74008" lon="7.01052">
        <ele>415.9</ele>
        <time>2022-10-10T12:19:49Z</time>
      </trkpt>
      <trkpt lat="47.73993" lon="7.01016">
        <ele>416.3</ele>
        <time>2022-10-10T12:19:56Z</time>
      </trkpt>
      <trkpt lat="47.73991" lon="7.01011">
        <ele>416.4</ele>
        <time>2022-10-10T12:19:57Z</time>
      </trkpt>
      <trkpt lat="47.73982" lon="7.0099">
        <ele>416.6</ele>
        <time>2022-10-10T12:20:01Z</time>
      </trkpt>
      <trkpt lat="47.73971" lon="7.00966">
        <ele>416.8</ele>
        <time>2022-10-10T12:20:06Z</time>
      </trkpt>
      <trkpt lat="47.73968" lon="7.00962">
        <ele>416.8</ele>
        <time>2022-10-10T12:20:07Z</time>
      </trkpt>
      <trkpt lat="47.73948" lon="7.00941">
        <ele>417.2</ele>
        <time>2022-10-10T12:20:13Z</time>
      </trkpt>
      <trkpt lat="47.73925" lon="7.00924">
        <ele>417.5</ele>
        <time>2022-10-10T12:20:19Z</time>
      </trkpt>
      <trkpt lat="47.73911" lon="7.00916">
        <ele>417.4</ele>
        <time>2022-10-10T12:20:23Z</time>
      </trkpt>
      <trkpt lat="47.7389" lon="7.00909">
        <ele>417</ele>
        <time>2022-10-10T12:20:28Z</time>
      </trkpt>
      <trkpt lat="47.73881" lon="7.00905">
        <ele>416.8</ele>
        <time>2022-10-10T12:20:30Z</time>
      </trkpt>
      <trkpt lat="47.73867" lon="7.00899">
        <ele>416.5</ele>
        <time>2022-10-10T12:20:33Z</time>
      </trkpt>
      <trkpt lat="47.73847" lon="7.00891">
        <ele>416.1</ele>
        <time>2022-10-10T12:20:37Z</time>
      </trkpt>
      <trkpt lat="47.73842" lon="7.00888">
        <ele>416</ele>
        <time>2022-10-10T12:20:38Z</time>
      </trkpt>
      <trkpt lat="47.73837" lon="7.00885">
        <ele>416</ele>
        <time>2022-10-10T12:20:39Z</time>
      </trkpt>
      <trkpt lat="47.73827" lon="7.0088">
        <ele>415.7</ele>
        <time>2022-10-10T12:20:41Z</time>
      </trkpt>
      <trkpt lat="47.73816" lon="7.00875">
        <ele>415.5</ele>
        <time>2022-10-10T12:20:43Z</time>
      </trkpt>
      <trkpt lat="47.73779" lon="7.00857">
        <ele>414.6</ele>
        <time>2022-10-10T12:20:50Z</time>
      </trkpt>
      <trkpt lat="47.73764" lon="7.00849">
        <ele>414.3</ele>
        <time>2022-10-10T12:20:53Z</time>
      </trkpt>
      <trkpt lat="47.7375" lon="7.0084">
        <ele>414</ele>
        <time>2022-10-10T12:20:56Z</time>
      </trkpt>
      <trkpt lat="47.73739" lon="7.00836">
        <ele>413.7</ele>
        <time>2022-10-10T12:20:58Z</time>
      </trkpt>
      <trkpt lat="47.73725" lon="7.00831">
        <ele>413.4</ele>
        <time>2022-10-10T12:21:01Z</time>
      </trkpt>
      <trkpt lat="47.73696" lon="7.00821">
        <ele>413.7</ele>
        <time>2022-10-10T12:21:07Z</time>
      </trkpt>
      <trkpt lat="47.73663" lon="7.00805">
        <ele>414.1</ele>
        <time>2022-10-10T12:21:14Z</time>
      </trkpt>
      <trkpt lat="47.73648" lon="7.00798">
        <ele>413.9</ele>
        <time>2022-10-10T12:21:17Z</time>
      </trkpt>
      <trkpt lat="47.73634" lon="7.00793">
        <ele>413.6</ele>
        <time>2022-10-10T12:21:20Z</time>
      </trkpt>
      <trkpt lat="47.73599" lon="7.00779">
        <ele>413</ele>
        <time>2022-10-10T12:21:27Z</time>
      </trkpt>
      <trkpt lat="47.73576" lon="7.00768">
        <ele>412.6</ele>
        <time>2022-10-10T12:21:32Z</time>
      </trkpt>
      <trkpt lat="47.73567" lon="7.00765">
        <ele>412.5</ele>
        <time>2022-10-10T12:21:34Z</time>
      </trkpt>
      <trkpt lat="47.73562" lon="7.00762">
        <ele>412.4</ele>
        <time>2022-10-10T12:21:36Z</time>
      </trkpt>
      <trkpt lat="47.73553" lon="7.00759">
        <ele>412.2</ele>
        <time>2022-10-10T12:21:40Z</time>
      </trkpt>
      <trkpt lat="47.73533" lon="7.00752">
        <ele>412.2</ele>
        <time>2022-10-10T12:21:46Z</time>
      </trkpt>
      <trkpt lat="47.73513" lon="7.00742">
        <ele>412.2</ele>
        <time>2022-10-10T12:21:52Z</time>
      </trkpt>
      <trkpt lat="47.73492" lon="7.00734">
        <ele>412</ele>
        <time>2022-10-10T12:21:57Z</time>
      </trkpt>
      <trkpt lat="47.73477" lon="7.0073">
        <ele>411.7</ele>
        <time>2022-10-10T12:22:00Z</time>
      </trkpt>
      <trkpt lat="47.7347" lon="7.00725">
        <ele>411.6</ele>
        <time>2022-10-10T12:22:02Z</time>
      </trkpt>
      <trkpt lat="47.73457" lon="7.0072">
        <ele>411.4</ele>
        <time>2022-10-10T12:22:06Z</time>
      </trkpt>
      <trkpt lat="47.73453" lon="7.0072">
        <ele>411.3</ele>
        <time>2022-10-10T12:22:07Z</time>
      </trkpt>
      <trkpt lat="47.73441" lon="7.00718">
        <ele>411.1</ele>
        <time>2022-10-10T12:22:10Z</time>
      </trkpt>
      <trkpt lat="47.73426" lon="7.00712">
        <ele>410.9</ele>
        <time>2022-10-10T12:22:14Z</time>
      </trkpt>
      <trkpt lat="47.73411" lon="7.00704">
        <ele>410.8</ele>
        <time>2022-10-10T12:22:19Z</time>
      </trkpt>
      <trkpt lat="47.73399" lon="7.007">
        <ele>410.7</ele>
        <time>2022-10-10T12:22:23Z</time>
      </trkpt>
      <trkpt lat="47.73384" lon="7.00697">
        <ele>410.7</ele>
        <time>2022-10-10T12:22:27Z</time>
      </trkpt>
      <trkpt lat="47.73354" lon="7.00685">
        <ele>410.7</ele>
        <time>2022-10-10T12:22:34Z</time>
      </trkpt>
      <trkpt lat="47.73342" lon="7.0068">
        <ele>410.6</ele>
        <time>2022-10-10T12:22:37Z</time>
      </trkpt>
      <trkpt lat="47.73327" lon="7.00676">
        <ele>410.5</ele>
        <time>2022-10-10T12:22:41Z</time>
      </trkpt>
      <trkpt lat="47.73306" lon="7.00658">
        <ele>410.5</ele>
        <time>2022-10-10T12:22:47Z</time>
      </trkpt>
      <trkpt lat="47.73289" lon="7.00645">
        <ele>410.6</ele>
        <time>2022-10-10T12:22:52Z</time>
      </trkpt>
      <trkpt lat="47.73281" lon="7.00643">
        <ele>410.6</ele>
        <time>2022-10-10T12:22:55Z</time>
      </trkpt>
      <trkpt lat="47.73276" lon="7.00646">
        <ele>410.7</ele>
        <time>2022-10-10T12:22:57Z</time>
      </trkpt>
      <trkpt lat="47.73258" lon="7.00655">
        <ele>410.8</ele>
        <time>2022-10-10T12:23:03Z</time>
      </trkpt>
      <trkpt lat="47.73243" lon="7.00666">
        <ele>410.9</ele>
        <time>2022-10-10T12:23:10Z</time>
      </trkpt>
      <trkpt lat="47.73243" lon="7.00666">
        <ele>410.9</ele>
        <time>2022-10-10T12:23:11Z</time>
      </trkpt>
      <trkpt lat="47.73241" lon="7.00667">
        <ele>410.9</ele>
        <time>2022-10-10T12:24:50Z</time>
      </trkpt>
      <trkpt lat="47.73237" lon="7.0067">
        <ele>410.9</ele>
        <time>2022-10-10T12:24:52Z</time>
      </trkpt>
      <trkpt lat="47.73226" lon="7.00678">
        <ele>411</ele>
        <time>2022-10-10T12:24:57Z</time>
      </trkpt>
      <trkpt lat="47.73217" lon="7.00686">
        <ele>411.1</ele>
        <time>2022-10-10T12:25:01Z</time>
      </trkpt>
      <trkpt lat="47.73203" lon="7.00695">
        <ele>411.1</ele>
        <time>2022-10-10T12:25:06Z</time>
      </trkpt>
      <trkpt lat="47.73186" lon="7.00705">
        <ele>411</ele>
        <time>2022-10-10T12:25:11Z</time>
      </trkpt>
      <trkpt lat="47.73169" lon="7.007">
        <ele>410.8</ele>
        <time>2022-10-10T12:25:15Z</time>
      </trkpt>
      <trkpt lat="47.73121" lon="7.00685">
        <ele>409.7</ele>
        <time>2022-10-10T12:25:25Z</time>
      </trkpt>
      <trkpt lat="47.73094" lon="7.00674">
        <ele>408.9</ele>
        <time>2022-10-10T12:25:31Z</time>
      </trkpt>
      <trkpt lat="47.73049" lon="7.00657">
        <ele>406.9</ele>
        <time>2022-10-10T12:25:40Z</time>
      </trkpt>
      <trkpt lat="47.73011" lon="7.00644">
        <ele>404.5</ele>
        <time>2022-10-10T12:25:47Z</time>
      </trkpt>
      <trkpt lat="47.73006" lon="7.00639">
        <ele>404.1</ele>
        <time>2022-10-10T12:25:48Z</time>
      </trkpt>
      <trkpt lat="47.73001" lon="7.00633">
        <ele>403.7</ele>
        <time>2022-10-10T12:25:49Z</time>
      </trkpt>
      <trkpt lat="47.72983" lon="7.00606">
        <ele>402</ele>
        <time>2022-10-10T12:25:53Z</time>
      </trkpt>
      <trkpt lat="47.72949" lon="7.00559">
        <ele>399.2</ele>
        <time>2022-10-10T12:26:00Z</time>
      </trkpt>
      <trkpt lat="47.7291" lon="7.00506">
        <ele>396.9</ele>
        <time>2022-10-10T12:26:08Z</time>
      </trkpt>
      <trkpt lat="47.72886" lon="7.00474">
        <ele>396</ele>
        <time>2022-10-10T12:26:13Z</time>
      </trkpt>
      <trkpt lat="47.72864" lon="7.00443">
        <ele>395.5</ele>
        <time>2022-10-10T12:26:18Z</time>
      </trkpt>
      <trkpt lat="47.7286" lon="7.00437">
        <ele>395.4</ele>
        <time>2022-10-10T12:26:19Z</time>
      </trkpt>
      <trkpt lat="47.72842" lon="7.00414">
        <ele>395.3</ele>
        <time>2022-10-10T12:26:23Z</time>
      </trkpt>
      <trkpt lat="47.72835" lon="7.00403">
        <ele>395.2</ele>
        <time>2022-10-10T12:26:25Z</time>
      </trkpt>
      <trkpt lat="47.72815" lon="7.00374">
        <ele>395.1</ele>
        <time>2022-10-10T12:26:31Z</time>
      </trkpt>
      <trkpt lat="47.72806" lon="7.00369">
        <ele>395.1</ele>
        <time>2022-10-10T12:26:33Z</time>
      </trkpt>
      <trkpt lat="47.72798" lon="7.00366">
        <ele>395.1</ele>
        <time>2022-10-10T12:26:35Z</time>
      </trkpt>
      <trkpt lat="47.72785" lon="7.00352">
        <ele>395.3</ele>
        <time>2022-10-10T12:26:39Z</time>
      </trkpt>
      <trkpt lat="47.72765" lon="7.00324">
        <ele>395.5</ele>
        <time>2022-10-10T12:26:45Z</time>
      </trkpt>
      <trkpt lat="47.72745" lon="7.00296">
        <ele>395.6</ele>
        <time>2022-10-10T12:26:52Z</time>
      </trkpt>
      <trkpt lat="47.72729" lon="7.00276">
        <ele>395.8</ele>
        <time>2022-10-10T12:26:57Z</time>
      </trkpt>
      <trkpt lat="47.7271" lon="7.00251">
        <ele>396.2</ele>
        <time>2022-10-10T12:27:03Z</time>
      </trkpt>
      <trkpt lat="47.72691" lon="7.00222">
        <ele>396.4</ele>
        <time>2022-10-10T12:27:09Z</time>
      </trkpt>
      <trkpt lat="47.72688" lon="7.00218">
        <ele>396.4</ele>
        <time>2022-10-10T12:27:10Z</time>
      </trkpt>
      <trkpt lat="47.72668" lon="7.0019">
        <ele>396.6</ele>
        <time>2022-10-10T12:27:17Z</time>
      </trkpt>
      <trkpt lat="47.72649" lon="7.00157">
        <ele>397</ele>
        <time>2022-10-10T12:27:25Z</time>
      </trkpt>
      <trkpt lat="47.7264" lon="7.00128">
        <ele>397.3</ele>
        <time>2022-10-10T12:27:31Z</time>
      </trkpt>
      <trkpt lat="47.72628" lon="7.00087">
        <ele>397.5</ele>
        <time>2022-10-10T12:27:39Z</time>
      </trkpt>
      <trkpt lat="47.72612" lon="7.00049">
        <ele>397.3</ele>
        <time>2022-10-10T12:27:46Z</time>
      </trkpt>
      <trkpt lat="47.72592" lon="7.00011">
        <ele>396.8</ele>
        <time>2022-10-10T12:27:53Z</time>
      </trkpt>
      <trkpt lat="47.72589" lon="7.00005">
        <ele>396.7</ele>
        <time>2022-10-10T12:27:54Z</time>
      </trkpt>
      <trkpt lat="47.72586" lon="7.00001">
        <ele>396.7</ele>
        <time>2022-10-10T12:27:55Z</time>
      </trkpt>
      <trkpt lat="47.72573" lon="6.99982">
        <ele>396.5</ele>
        <time>2022-10-10T12:27:59Z</time>
      </trkpt>
      <trkpt lat="47.72569" lon="6.99978">
        <ele>396.5</ele>
        <time>2022-10-10T12:28:00Z</time>
      </trkpt>
      <trkpt lat="47.72562" lon="6.99972">
        <ele>396.4</ele>
        <time>2022-10-10T12:28:02Z</time>
      </trkpt>
      <trkpt lat="47.7255" lon="6.99963">
        <ele>396.4</ele>
        <time>2022-10-10T12:28:05Z</time>
      </trkpt>
      <trkpt lat="47.72526" lon="6.99947">
        <ele>396.5</ele>
        <time>2022-10-10T12:28:11Z</time>
      </trkpt>
      <trkpt lat="47.72506" lon="6.99932">
        <ele>396.1</ele>
        <time>2022-10-10T12:28:17Z</time>
      </trkpt>
      <trkpt lat="47.72489" lon="6.99912">
        <ele>396</ele>
        <time>2022-10-10T12:28:23Z</time>
      </trkpt>
      <trkpt lat="47.72471" lon="6.99881">
        <ele>396.1</ele>
        <time>2022-10-10T12:28:30Z</time>
      </trkpt>
      <trkpt lat="47.72468" lon="6.99858">
        <ele>396.3</ele>
        <time>2022-10-10T12:28:34Z</time>
      </trkpt>
      <trkpt lat="47.72471" lon="6.99811">
        <ele>396.8</ele>
        <time>2022-10-10T12:28:42Z</time>
      </trkpt>
      <trkpt lat="47.72473" lon="6.9975">
        <ele>397.4</ele>
        <time>2022-10-10T12:28:52Z</time>
      </trkpt>
      <trkpt lat="47.72475" lon="6.99697">
        <ele>398.1</ele>
        <time>2022-10-10T12:29:01Z</time>
      </trkpt>
      <trkpt lat="47.72475" lon="6.99673">
        <ele>398.4</ele>
        <time>2022-10-10T12:29:05Z</time>
      </trkpt>
      <trkpt lat="47.72473" lon="6.99649">
        <ele>398.6</ele>
        <time>2022-10-10T12:29:09Z</time>
      </trkpt>
      <trkpt lat="47.72473" lon="6.99624">
        <ele>398.9</ele>
        <time>2022-10-10T12:29:13Z</time>
      </trkpt>
      <trkpt lat="47.72475" lon="6.99606">
        <ele>399.1</ele>
        <time>2022-10-10T12:29:16Z</time>
      </trkpt>
      <trkpt lat="47.72487" lon="6.99579">
        <ele>399.4</ele>
        <time>2022-10-10T12:29:21Z</time>
      </trkpt>
      <trkpt lat="47.72505" lon="6.99544">
        <ele>399.5</ele>
        <time>2022-10-10T12:29:28Z</time>
      </trkpt>
      <trkpt lat="47.72524" lon="6.99506">
        <ele>399.9</ele>
        <time>2022-10-10T12:29:35Z</time>
      </trkpt>
      <trkpt lat="47.72554" lon="6.9945">
        <ele>400.4</ele>
        <time>2022-10-10T12:29:46Z</time>
      </trkpt>
      <trkpt lat="47.72575" lon="6.994">
        <ele>400.9</ele>
        <time>2022-10-10T12:29:55Z</time>
      </trkpt>
      <trkpt lat="47.72588" lon="6.99365">
        <ele>401.3</ele>
        <time>2022-10-10T12:30:01Z</time>
      </trkpt>
      <trkpt lat="47.72593" lon="6.99354">
        <ele>401.4</ele>
        <time>2022-10-10T12:30:03Z</time>
      </trkpt>
      <trkpt lat="47.7261" lon="6.99329">
        <ele>401.7</ele>
        <time>2022-10-10T12:30:09Z</time>
      </trkpt>
      <trkpt lat="47.72622" lon="6.99315">
        <ele>402</ele>
        <time>2022-10-10T12:30:15Z</time>
      </trkpt>
      <trkpt lat="47.72637" lon="6.99297">
        <ele>402.3</ele>
        <time>2022-10-10T12:30:23Z</time>
      </trkpt>
      <trkpt lat="47.72653" lon="6.9927">
        <ele>402.9</ele>
        <time>2022-10-10T12:30:30Z</time>
      </trkpt>
      <trkpt lat="47.72667" lon="6.99243">
        <ele>403.6</ele>
        <time>2022-10-10T12:30:37Z</time>
      </trkpt>
      <trkpt lat="47.72689" lon="6.99205">
        <ele>404.4</ele>
        <time>2022-10-10T12:30:46Z</time>
      </trkpt>
      <trkpt lat="47.72706" lon="6.99174">
        <ele>405</ele>
        <time>2022-10-10T12:30:53Z</time>
      </trkpt>
      <trkpt lat="47.72727" lon="6.99131">
        <ele>405.7</ele>
        <time>2022-10-10T12:31:02Z</time>
      </trkpt>
      <trkpt lat="47.72742" lon="6.99088">
        <ele>406.2</ele>
        <time>2022-10-10T12:31:11Z</time>
      </trkpt>
      <trkpt lat="47.72756" lon="6.99045">
        <ele>406.6</ele>
        <time>2022-10-10T12:31:20Z</time>
      </trkpt>
      <trkpt lat="47.72766" lon="6.99006">
        <ele>407</ele>
        <time>2022-10-10T12:31:28Z</time>
      </trkpt>
      <trkpt lat="47.72775" lon="6.98961">
        <ele>407.5</ele>
        <time>2022-10-10T12:31:36Z</time>
      </trkpt>
      <trkpt lat="47.72784" lon="6.9891">
        <ele>408</ele>
        <time>2022-10-10T12:31:45Z</time>
      </trkpt>
      <trkpt lat="47.72794" lon="6.98851">
        <ele>408.5</ele>
        <time>2022-10-10T12:31:55Z</time>
      </trkpt>
      <trkpt lat="47.72804" lon="6.98809">
        <ele>408.9</ele>
        <time>2022-10-10T12:32:02Z</time>
      </trkpt>
      <trkpt lat="47.7282" lon="6.98767">
        <ele>409.3</ele>
        <time>2022-10-10T12:32:10Z</time>
      </trkpt>
      <trkpt lat="47.72827" lon="6.98745">
        <ele>409.6</ele>
        <time>2022-10-10T12:32:15Z</time>
      </trkpt>
      <trkpt lat="47.72832" lon="6.98701">
        <ele>410</ele>
        <time>2022-10-10T12:32:22Z</time>
      </trkpt>
      <trkpt lat="47.72831" lon="6.98648">
        <ele>410.4</ele>
        <time>2022-10-10T12:32:30Z</time>
      </trkpt>
      <trkpt lat="47.7283" lon="6.98592">
        <ele>411</ele>
        <time>2022-10-10T12:32:39Z</time>
      </trkpt>
      <trkpt lat="47.72831" lon="6.98572">
        <ele>411.2</ele>
        <time>2022-10-10T12:32:44Z</time>
      </trkpt>
      <trkpt lat="47.72833" lon="6.98571">
        <ele>411.2</ele>
        <time>2022-10-10T12:32:47Z</time>
      </trkpt>
      <trkpt lat="47.72831" lon="6.9857">
        <ele>411.2</ele>
        <time>2022-10-10T12:33:47Z</time>
      </trkpt>
      <trkpt lat="47.72832" lon="6.98564">
        <ele>411.3</ele>
        <time>2022-10-10T12:33:49Z</time>
      </trkpt>
      <trkpt lat="47.72835" lon="6.98539">
        <ele>411.4</ele>
        <time>2022-10-10T12:33:55Z</time>
      </trkpt>
      <trkpt lat="47.72838" lon="6.98509">
        <ele>411.7</ele>
        <time>2022-10-10T12:34:01Z</time>
      </trkpt>
      <trkpt lat="47.72843" lon="6.98468">
        <ele>412</ele>
        <time>2022-10-10T12:34:08Z</time>
      </trkpt>
      <trkpt lat="47.72849" lon="6.98421">
        <ele>412.5</ele>
        <time>2022-10-10T12:34:15Z</time>
      </trkpt>
      <trkpt lat="47.72855" lon="6.98362">
        <ele>413.1</ele>
        <time>2022-10-10T12:34:24Z</time>
      </trkpt>
      <trkpt lat="47.72863" lon="6.98305">
        <ele>413.8</ele>
        <time>2022-10-10T12:34:33Z</time>
      </trkpt>
      <trkpt lat="47.72869" lon="6.98253">
        <ele>414.5</ele>
        <time>2022-10-10T12:34:41Z</time>
      </trkpt>
      <trkpt lat="47.72875" lon="6.98208">
        <ele>414.9</ele>
        <time>2022-10-10T12:34:48Z</time>
      </trkpt>
      <trkpt lat="47.72882" lon="6.98148">
        <ele>415.6</ele>
        <time>2022-10-10T12:34:57Z</time>
      </trkpt>
      <trkpt lat="47.72889" lon="6.98094">
        <ele>416.3</ele>
        <time>2022-10-10T12:35:05Z</time>
      </trkpt>
      <trkpt lat="47.72904" lon="6.98043">
        <ele>416.9</ele>
        <time>2022-10-10T12:35:13Z</time>
      </trkpt>
      <trkpt lat="47.72919" lon="6.98003">
        <ele>417.4</ele>
        <time>2022-10-10T12:35:21Z</time>
      </trkpt>
      <trkpt lat="47.72932" lon="6.97962">
        <ele>417.9</ele>
        <time>2022-10-10T12:35:29Z</time>
      </trkpt>
      <trkpt lat="47.72945" lon="6.97914">
        <ele>418.8</ele>
        <time>2022-10-10T12:35:37Z</time>
      </trkpt>
      <trkpt lat="47.72951" lon="6.97884">
        <ele>419.2</ele>
        <time>2022-10-10T12:35:42Z</time>
      </trkpt>
      <trkpt lat="47.72954" lon="6.97859">
        <ele>419.4</ele>
        <time>2022-10-10T12:35:46Z</time>
      </trkpt>
      <trkpt lat="47.72955" lon="6.97829">
        <ele>419.7</ele>
        <time>2022-10-10T12:35:52Z</time>
      </trkpt>
      <trkpt lat="47.72948" lon="6.97814">
        <ele>420.4</ele>
        <time>2022-10-10T12:35:56Z</time>
      </trkpt>
      <trkpt lat="47.72929" lon="6.97805">
        <ele>421.1</ele>
        <time>2022-10-10T12:36:02Z</time>
      </trkpt>
      <trkpt lat="47.72908" lon="6.97787">
        <ele>421.5</ele>
        <time>2022-10-10T12:36:08Z</time>
      </trkpt>
      <trkpt lat="47.72893" lon="6.9777">
        <ele>421.7</ele>
        <time>2022-10-10T12:36:13Z</time>
      </trkpt>
      <trkpt lat="47.72873" lon="6.97744">
        <ele>421.8</ele>
        <time>2022-10-10T12:36:19Z</time>
      </trkpt>
      <trkpt lat="47.72853" lon="6.97714">
        <ele>422.1</ele>
        <time>2022-10-10T12:36:26Z</time>
      </trkpt>
      <trkpt lat="47.72837" lon="6.97688">
        <ele>422.5</ele>
        <time>2022-10-10T12:36:32Z</time>
      </trkpt>
      <trkpt lat="47.72823" lon="6.97658">
        <ele>422.8</ele>
        <time>2022-10-10T12:36:38Z</time>
      </trkpt>
      <trkpt lat="47.72813" lon="6.97632">
        <ele>423</ele>
        <time>2022-10-10T12:36:43Z</time>
      </trkpt>
      <trkpt lat="47.72802" lon="6.9759">
        <ele>423.5</ele>
        <time>2022-10-10T12:36:51Z</time>
      </trkpt>
      <trkpt lat="47.72794" lon="6.97553">
        <ele>424</ele>
        <time>2022-10-10T12:36:58Z</time>
      </trkpt>
      <trkpt lat="47.72784" lon="6.97502">
        <ele>424.9</ele>
        <time>2022-10-10T12:37:08Z</time>
      </trkpt>
      <trkpt lat="47.72778" lon="6.97463">
        <ele>425.4</ele>
        <time>2022-10-10T12:37:16Z</time>
      </trkpt>
      <trkpt lat="47.72771" lon="6.9742">
        <ele>425.9</ele>
        <time>2022-10-10T12:37:24Z</time>
      </trkpt>
      <trkpt lat="47.72768" lon="6.97398">
        <ele>426.2</ele>
        <time>2022-10-10T12:37:29Z</time>
      </trkpt>
      <trkpt lat="47.72758" lon="6.97369">
        <ele>426.6</ele>
        <time>2022-10-10T12:37:35Z</time>
      </trkpt>
      <trkpt lat="47.72737" lon="6.97344">
        <ele>426.8</ele>
        <time>2022-10-10T12:37:42Z</time>
      </trkpt>
      <trkpt lat="47.72706" lon="6.97307">
        <ele>427.1</ele>
        <time>2022-10-10T12:37:51Z</time>
      </trkpt>
      <trkpt lat="47.72683" lon="6.97283">
        <ele>427.1</ele>
        <time>2022-10-10T12:37:57Z</time>
      </trkpt>
      <trkpt lat="47.72671" lon="6.97271">
        <ele>427.1</ele>
        <time>2022-10-10T12:38:00Z</time>
      </trkpt>
      <trkpt lat="47.72661" lon="6.97255">
        <ele>427.1</ele>
        <time>2022-10-10T12:38:03Z</time>
      </trkpt>
      <trkpt lat="47.72637" lon="6.97221">
        <ele>427.1</ele>
        <time>2022-10-10T12:38:10Z</time>
      </trkpt>
      <trkpt lat="47.72615" lon="6.97184">
        <ele>427.2</ele>
        <time>2022-10-10T12:38:18Z</time>
      </trkpt>
      <trkpt lat="47.7259" lon="6.97151">
        <ele>427.3</ele>
        <time>2022-10-10T12:38:26Z</time>
      </trkpt>
      <trkpt lat="47.72564" lon="6.97123">
        <ele>427.5</ele>
        <time>2022-10-10T12:38:34Z</time>
      </trkpt>
      <trkpt lat="47.7254" lon="6.97104">
        <ele>427.8</ele>
        <time>2022-10-10T12:38:41Z</time>
      </trkpt>
      <trkpt lat="47.72515" lon="6.97086">
        <ele>428.1</ele>
        <time>2022-10-10T12:38:49Z</time>
      </trkpt>
      <trkpt lat="47.72488" lon="6.97068">
        <ele>428.4</ele>
        <time>2022-10-10T12:38:57Z</time>
      </trkpt>
      <trkpt lat="47.72456" lon="6.97049">
        <ele>428.5</ele>
        <time>2022-10-10T12:39:06Z</time>
      </trkpt>
      <trkpt lat="47.72422" lon="6.97026">
        <ele>428.5</ele>
        <time>2022-10-10T12:39:15Z</time>
      </trkpt>
      <trkpt lat="47.72408" lon="6.97013">
        <ele>428.3</ele>
        <time>2022-10-10T12:39:20Z</time>
      </trkpt>
      <trkpt lat="47.72408" lon="6.9701">
        <ele>428.3</ele>
        <time>2022-10-10T12:39:21Z</time>
      </trkpt>
      <trkpt lat="47.7241" lon="6.97006">
        <ele>428.7</ele>
        <time>2022-10-10T12:39:23Z</time>
      </trkpt>
      <trkpt lat="47.72413" lon="6.97006">
        <ele>428.8</ele>
        <time>2022-10-10T12:39:24Z</time>
      </trkpt>
      <trkpt lat="47.72433" lon="6.97">
        <ele>429.6</ele>
        <time>2022-10-10T12:39:31Z</time>
      </trkpt>
      <trkpt lat="47.72459" lon="6.96992">
        <ele>430.8</ele>
        <time>2022-10-10T12:39:39Z</time>
      </trkpt>
      <trkpt lat="47.72483" lon="6.96982">
        <ele>432.1</ele>
        <time>2022-10-10T12:39:46Z</time>
      </trkpt>
      <trkpt lat="47.72512" lon="6.96971">
        <ele>433.4</ele>
        <time>2022-10-10T12:39:55Z</time>
      </trkpt>
      <trkpt lat="47.72538" lon="6.96956">
        <ele>434.4</ele>
        <time>2022-10-10T12:40:03Z</time>
      </trkpt>
      <trkpt lat="47.72572" lon="6.96931">
        <ele>436.2</ele>
        <time>2022-10-10T12:40:13Z</time>
      </trkpt>
      <trkpt lat="47.72603" lon="6.96899">
        <ele>437.7</ele>
        <time>2022-10-10T12:40:23Z</time>
      </trkpt>
      <trkpt lat="47.72625" lon="6.96876">
        <ele>438.4</ele>
        <time>2022-10-10T12:40:30Z</time>
      </trkpt>
      <trkpt lat="47.72645" lon="6.96855">
        <ele>439</ele>
        <time>2022-10-10T12:40:37Z</time>
      </trkpt>
      <trkpt lat="47.7267" lon="6.96833">
        <ele>439.4</ele>
        <time>2022-10-10T12:40:45Z</time>
      </trkpt>
      <trkpt lat="47.72682" lon="6.96824">
        <ele>439.6</ele>
        <time>2022-10-10T12:40:49Z</time>
      </trkpt>
      <trkpt lat="47.72693" lon="6.96817">
        <ele>439.7</ele>
        <time>2022-10-10T12:40:53Z</time>
      </trkpt>
      <trkpt lat="47.72702" lon="6.96806">
        <ele>439.8</ele>
        <time>2022-10-10T12:40:58Z</time>
      </trkpt>
      <trkpt lat="47.727" lon="6.96788">
        <ele>441.2</ele>
        <time>2022-10-10T12:41:04Z</time>
      </trkpt>
      <trkpt lat="47.72698" lon="6.96764">
        <ele>442.2</ele>
        <time>2022-10-10T12:41:10Z</time>
      </trkpt>
      <trkpt lat="47.72705" lon="6.96746">
        <ele>442.9</ele>
        <time>2022-10-10T12:41:15Z</time>
      </trkpt>
      <trkpt lat="47.7272" lon="6.96733">
        <ele>443.5</ele>
        <time>2022-10-10T12:41:21Z</time>
      </trkpt>
      <trkpt lat="47.72741" lon="6.96727">
        <ele>444.3</ele>
        <time>2022-10-10T12:41:28Z</time>
      </trkpt>
      <trkpt lat="47.72754" lon="6.96716">
        <ele>445.4</ele>
        <time>2022-10-10T12:41:34Z</time>
      </trkpt>
      <trkpt lat="47.72756" lon="6.96701">
        <ele>446.6</ele>
        <time>2022-10-10T12:41:39Z</time>
      </trkpt>
      <trkpt lat="47.72751" lon="6.96679">
        <ele>448.5</ele>
        <time>2022-10-10T12:41:46Z</time>
      </trkpt>
      <trkpt lat="47.72745" lon="6.96659">
        <ele>450.6</ele>
        <time>2022-10-10T12:41:53Z</time>
      </trkpt>
      <trkpt lat="47.72741" lon="6.96645">
        <ele>452.1</ele>
        <time>2022-10-10T12:41:58Z</time>
      </trkpt>
      <trkpt lat="47.7274" lon="6.96633">
        <ele>453.2</ele>
        <time>2022-10-10T12:42:02Z</time>
      </trkpt>
      <trkpt lat="47.72741" lon="6.9663">
        <ele>453.6</ele>
        <time>2022-10-10T12:42:03Z</time>
      </trkpt>
      <trkpt lat="47.72749" lon="6.96616">
        <ele>455.5</ele>
        <time>2022-10-10T12:42:09Z</time>
      </trkpt>
      <trkpt lat="47.7276" lon="6.96604">
        <ele>457.3</ele>
        <time>2022-10-10T12:42:16Z</time>
      </trkpt>
      <trkpt lat="47.72771" lon="6.96594">
        <ele>458.7</ele>
        <time>2022-10-10T12:42:22Z</time>
      </trkpt>
      <trkpt lat="47.7278" lon="6.96577">
        <ele>460.5</ele>
        <time>2022-10-10T12:42:28Z</time>
      </trkpt>
      <trkpt lat="47.72785" lon="6.96568">
        <ele>461.4</ele>
        <time>2022-10-10T12:42:32Z</time>
      </trkpt>
      <trkpt lat="47.72787" lon="6.96567">
        <ele>461.6</ele>
        <time>2022-10-10T12:42:33Z</time>
      </trkpt>
      <trkpt lat="47.72795" lon="6.96561">
        <ele>462.2</ele>
        <time>2022-10-10T12:42:37Z</time>
      </trkpt>
      <trkpt lat="47.7281" lon="6.96544">
        <ele>462</ele>
        <time>2022-10-10T12:42:43Z</time>
      </trkpt>
      <trkpt lat="47.72821" lon="6.96534">
        <ele>462</ele>
        <time>2022-10-10T12:42:47Z</time>
      </trkpt>
      <trkpt lat="47.72837" lon="6.96528">
        <ele>462.1</ele>
        <time>2022-10-10T12:42:51Z</time>
      </trkpt>
      <trkpt lat="47.72854" lon="6.96524">
        <ele>462.5</ele>
        <time>2022-10-10T12:42:56Z</time>
      </trkpt>
      <trkpt lat="47.72871" lon="6.9652">
        <ele>463.2</ele>
        <time>2022-10-10T12:43:01Z</time>
      </trkpt>
      <trkpt lat="47.72883" lon="6.96513">
        <ele>463.7</ele>
        <time>2022-10-10T12:43:06Z</time>
      </trkpt>
      <trkpt lat="47.72896" lon="6.96502">
        <ele>464</ele>
        <time>2022-10-10T12:43:11Z</time>
      </trkpt>
      <trkpt lat="47.72911" lon="6.96486">
        <ele>463.9</ele>
        <time>2022-10-10T12:43:16Z</time>
      </trkpt>
      <trkpt lat="47.7293" lon="6.96469">
        <ele>463.5</ele>
        <time>2022-10-10T12:43:22Z</time>
      </trkpt>
      <trkpt lat="47.72938" lon="6.96461">
        <ele>463.2</ele>
        <time>2022-10-10T12:43:26Z</time>
      </trkpt>
      <trkpt lat="47.72954" lon="6.96448">
        <ele>462.3</ele>
        <time>2022-10-10T12:43:30Z</time>
      </trkpt>
      <trkpt lat="47.72963" lon="6.9644">
        <ele>461.7</ele>
        <time>2022-10-10T12:43:32Z</time>
      </trkpt>
      <trkpt lat="47.72974" lon="6.96433">
        <ele>461</ele>
        <time>2022-10-10T12:43:34Z</time>
      </trkpt>
      <trkpt lat="47.72985" lon="6.96427">
        <ele>460.3</ele>
        <time>2022-10-10T12:43:36Z</time>
      </trkpt>
      <trkpt lat="47.72999" lon="6.96418">
        <ele>459.6</ele>
        <time>2022-10-10T12:43:39Z</time>
      </trkpt>
      <trkpt lat="47.73026" lon="6.964">
        <ele>457.8</ele>
        <time>2022-10-10T12:43:45Z</time>
      </trkpt>
      <trkpt lat="47.73056" lon="6.96384">
        <ele>455.5</ele>
        <time>2022-10-10T12:43:51Z</time>
      </trkpt>
      <trkpt lat="47.73086" lon="6.9637">
        <ele>453.2</ele>
        <time>2022-10-10T12:43:56Z</time>
      </trkpt>
      <trkpt lat="47.73091" lon="6.96367">
        <ele>452.9</ele>
        <time>2022-10-10T12:43:57Z</time>
      </trkpt>
      <trkpt lat="47.73097" lon="6.96364">
        <ele>452.6</ele>
        <time>2022-10-10T12:43:58Z</time>
      </trkpt>
      <trkpt lat="47.73105" lon="6.96355">
        <ele>452.3</ele>
        <time>2022-10-10T12:44:00Z</time>
      </trkpt>
      <trkpt lat="47.73109" lon="6.96346">
        <ele>452.7</ele>
        <time>2022-10-10T12:44:02Z</time>
      </trkpt>
      <trkpt lat="47.7311" lon="6.96342">
        <ele>452.9</ele>
        <time>2022-10-10T12:44:03Z</time>
      </trkpt>
      <trkpt lat="47.73111" lon="6.9633">
        <ele>453.5</ele>
        <time>2022-10-10T12:44:06Z</time>
      </trkpt>
      <trkpt lat="47.7311" lon="6.96327">
        <ele>453.7</ele>
        <time>2022-10-10T12:44:07Z</time>
      </trkpt>
      <trkpt lat="47.73111" lon="6.9632">
        <ele>454.2</ele>
        <time>2022-10-10T12:44:10Z</time>
      </trkpt>
      <trkpt lat="47.73111" lon="6.96316">
        <ele>454.5</ele>
        <time>2022-10-10T12:44:11Z</time>
      </trkpt>
      <trkpt lat="47.73109" lon="6.96299">
        <ele>455.7</ele>
        <time>2022-10-10T12:44:16Z</time>
      </trkpt>
      <trkpt lat="47.73105" lon="6.96274">
        <ele>457.7</ele>
        <time>2022-10-10T12:44:23Z</time>
      </trkpt>
      <trkpt lat="47.731" lon="6.96253">
        <ele>459.4</ele>
        <time>2022-10-10T12:44:29Z</time>
      </trkpt>
      <trkpt lat="47.73098" lon="6.96244">
        <ele>460.1</ele>
        <time>2022-10-10T12:44:33Z</time>
      </trkpt>
      <trkpt lat="47.73098" lon="6.96238">
        <ele>460.5</ele>
        <time>2022-10-10T12:44:36Z</time>
      </trkpt>
      <trkpt lat="47.73096" lon="6.96231">
        <ele>461</ele>
        <time>2022-10-10T12:44:38Z</time>
      </trkpt>
      <trkpt lat="47.73091" lon="6.9621">
        <ele>462.5</ele>
        <time>2022-10-10T12:44:45Z</time>
      </trkpt>
      <trkpt lat="47.73086" lon="6.96196">
        <ele>463.5</ele>
        <time>2022-10-10T12:44:49Z</time>
      </trkpt>
      <trkpt lat="47.73083" lon="6.96189">
        <ele>463.9</ele>
        <time>2022-10-10T12:44:51Z</time>
      </trkpt>
      <trkpt lat="47.73077" lon="6.96174">
        <ele>464.9</ele>
        <time>2022-10-10T12:44:55Z</time>
      </trkpt>
      <trkpt lat="47.73076" lon="6.9617">
        <ele>465.2</ele>
        <time>2022-10-10T12:44:56Z</time>
      </trkpt>
      <trkpt lat="47.73071" lon="6.96156">
        <ele>466.2</ele>
        <time>2022-10-10T12:45:00Z</time>
      </trkpt>
      <trkpt lat="47.73069" lon="6.96149">
        <ele>466.5</ele>
        <time>2022-10-10T12:45:02Z</time>
      </trkpt>
      <trkpt lat="47.73067" lon="6.96143">
        <ele>466.9</ele>
        <time>2022-10-10T12:45:04Z</time>
      </trkpt>
      <trkpt lat="47.73063" lon="6.96129">
        <ele>467.6</ele>
        <time>2022-10-10T12:45:08Z</time>
      </trkpt>
      <trkpt lat="47.73055" lon="6.96108">
        <ele>468.5</ele>
        <time>2022-10-10T12:45:13Z</time>
      </trkpt>
      <trkpt lat="47.73044" lon="6.96085">
        <ele>469.1</ele>
        <time>2022-10-10T12:45:17Z</time>
      </trkpt>
      <trkpt lat="47.73031" lon="6.96056">
        <ele>469.1</ele>
        <time>2022-10-10T12:45:22Z</time>
      </trkpt>
      <trkpt lat="47.73028" lon="6.96048">
        <ele>469</ele>
        <time>2022-10-10T12:45:23Z</time>
      </trkpt>
      <trkpt lat="47.73024" lon="6.96033">
        <ele>468.4</ele>
        <time>2022-10-10T12:45:25Z</time>
      </trkpt>
      <trkpt lat="47.7302" lon="6.96025">
        <ele>467.9</ele>
        <time>2022-10-10T12:45:26Z</time>
      </trkpt>
      <trkpt lat="47.73008" lon="6.96003">
        <ele>466.6</ele>
        <time>2022-10-10T12:45:29Z</time>
      </trkpt>
      <trkpt lat="47.72997" lon="6.95985">
        <ele>465.1</ele>
        <time>2022-10-10T12:45:34Z</time>
      </trkpt>
      <trkpt lat="47.72999" lon="6.95975">
        <ele>464.8</ele>
        <time>2022-10-10T12:45:37Z</time>
      </trkpt>
      <trkpt lat="47.73014" lon="6.95975">
        <ele>463.1</ele>
        <time>2022-10-10T12:45:41Z</time>
      </trkpt>
      <trkpt lat="47.73037" lon="6.95971">
        <ele>460.7</ele>
        <time>2022-10-10T12:45:46Z</time>
      </trkpt>
      <trkpt lat="47.73053" lon="6.95965">
        <ele>459.1</ele>
        <time>2022-10-10T12:45:49Z</time>
      </trkpt>
      <trkpt lat="47.73058" lon="6.95962">
        <ele>458.7</ele>
        <time>2022-10-10T12:45:50Z</time>
      </trkpt>
      <trkpt lat="47.73062" lon="6.95959">
        <ele>458.2</ele>
        <time>2022-10-10T12:45:51Z</time>
      </trkpt>
      <trkpt lat="47.73071" lon="6.95947">
        <ele>457.5</ele>
        <time>2022-10-10T12:45:53Z</time>
      </trkpt>
      <trkpt lat="47.73075" lon="6.9594">
        <ele>457.1</ele>
        <time>2022-10-10T12:45:54Z</time>
      </trkpt>
      <trkpt lat="47.73082" lon="6.95926">
        <ele>456.6</ele>
        <time>2022-10-10T12:45:56Z</time>
      </trkpt>
      <trkpt lat="47.73095" lon="6.95901">
        <ele>456.3</ele>
        <time>2022-10-10T12:46:00Z</time>
      </trkpt>
      <trkpt lat="47.7311" lon="6.9589">
        <ele>456.2</ele>
        <time>2022-10-10T12:46:04Z</time>
      </trkpt>
      <trkpt lat="47.73123" lon="6.95887">
        <ele>456.1</ele>
        <time>2022-10-10T12:46:07Z</time>
      </trkpt>
      <trkpt lat="47.73127" lon="6.95888">
        <ele>456</ele>
        <time>2022-10-10T12:46:08Z</time>
      </trkpt>
      <trkpt lat="47.73131" lon="6.95891">
        <ele>456</ele>
        <time>2022-10-10T12:46:09Z</time>
      </trkpt>
      <trkpt lat="47.73138" lon="6.95898">
        <ele>456</ele>
        <time>2022-10-10T12:46:11Z</time>
      </trkpt>
      <trkpt lat="47.73142" lon="6.95902">
        <ele>455.9</ele>
        <time>2022-10-10T12:46:12Z</time>
      </trkpt>
      <trkpt lat="47.73149" lon="6.95909">
        <ele>455.9</ele>
        <time>2022-10-10T12:46:14Z</time>
      </trkpt>
      <trkpt lat="47.73153" lon="6.95912">
        <ele>455.9</ele>
        <time>2022-10-10T12:46:15Z</time>
      </trkpt>
      <trkpt lat="47.73172" lon="6.95925">
        <ele>455.7</ele>
        <time>2022-10-10T12:46:19Z</time>
      </trkpt>
      <trkpt lat="47.73182" lon="6.95928">
        <ele>455.6</ele>
        <time>2022-10-10T12:46:21Z</time>
      </trkpt>
      <trkpt lat="47.73216" lon="6.95942">
        <ele>455.4</ele>
        <time>2022-10-10T12:46:28Z</time>
      </trkpt>
      <trkpt lat="47.73228" lon="6.95947">
        <ele>454.8</ele>
        <time>2022-10-10T12:46:32Z</time>
      </trkpt>
      <trkpt lat="47.73243" lon="6.95949">
        <ele>454.1</ele>
        <time>2022-10-10T12:46:38Z</time>
      </trkpt>
      <trkpt lat="47.73252" lon="6.95958">
        <ele>453.7</ele>
        <time>2022-10-10T12:46:41Z</time>
      </trkpt>
      <trkpt lat="47.73256" lon="6.95963">
        <ele>453.5</ele>
        <time>2022-10-10T12:46:42Z</time>
      </trkpt>
      <trkpt lat="47.7326" lon="6.95967">
        <ele>453.4</ele>
        <time>2022-10-10T12:46:43Z</time>
      </trkpt>
      <trkpt lat="47.73282" lon="6.95989">
        <ele>452.3</ele>
        <time>2022-10-10T12:46:48Z</time>
      </trkpt>
      <trkpt lat="47.73313" lon="6.96019">
        <ele>450.9</ele>
        <time>2022-10-10T12:46:55Z</time>
      </trkpt>
      <trkpt lat="47.73322" lon="6.96028">
        <ele>450.3</ele>
        <time>2022-10-10T12:46:57Z</time>
      </trkpt>
      <trkpt lat="47.73329" lon="6.96036">
        <ele>449.9</ele>
        <time>2022-10-10T12:46:59Z</time>
      </trkpt>
      <trkpt lat="47.73334" lon="6.9604">
        <ele>449.5</ele>
        <time>2022-10-10T12:47:02Z</time>
      </trkpt>
      <trkpt lat="47.73339" lon="6.96036">
        <ele>449.6</ele>
        <time>2022-10-10T12:47:04Z</time>
      </trkpt>
      <trkpt lat="47.73348" lon="6.96015">
        <ele>450.7</ele>
        <time>2022-10-10T12:47:09Z</time>
      </trkpt>
      <trkpt lat="47.73356" lon="6.95988">
        <ele>451.7</ele>
        <time>2022-10-10T12:47:15Z</time>
      </trkpt>
      <trkpt lat="47.73363" lon="6.9595">
        <ele>451.9</ele>
        <time>2022-10-10T12:47:22Z</time>
      </trkpt>
      <trkpt lat="47.73369" lon="6.95913">
        <ele>452.1</ele>
        <time>2022-10-10T12:47:29Z</time>
      </trkpt>
      <trkpt lat="47.73374" lon="6.9588">
        <ele>452.8</ele>
        <time>2022-10-10T12:47:36Z</time>
      </trkpt>
      <trkpt lat="47.73373" lon="6.95858">
        <ele>454.7</ele>
        <time>2022-10-10T12:47:43Z</time>
      </trkpt>
      <trkpt lat="47.73373" lon="6.95843">
        <ele>456.2</ele>
        <time>2022-10-10T12:47:49Z</time>
      </trkpt>
      <trkpt lat="47.73373" lon="6.95837">
        <ele>456.9</ele>
        <time>2022-10-10T12:47:51Z</time>
      </trkpt>
      <trkpt lat="47.73374" lon="6.95831">
        <ele>457.6</ele>
        <time>2022-10-10T12:47:53Z</time>
      </trkpt>
      <trkpt lat="47.73379" lon="6.95819">
        <ele>459.1</ele>
        <time>2022-10-10T12:47:57Z</time>
      </trkpt>
      <trkpt lat="47.73384" lon="6.95803">
        <ele>461.1</ele>
        <time>2022-10-10T12:48:03Z</time>
      </trkpt>
      <trkpt lat="47.7339" lon="6.95782">
        <ele>463.5</ele>
        <time>2022-10-10T12:48:10Z</time>
      </trkpt>
      <trkpt lat="47.73394" lon="6.95763">
        <ele>465.5</ele>
        <time>2022-10-10T12:48:16Z</time>
      </trkpt>
      <trkpt lat="47.73396" lon="6.95746">
        <ele>466.9</ele>
        <time>2022-10-10T12:48:21Z</time>
      </trkpt>
      <trkpt lat="47.73399" lon="6.95724">
        <ele>468.7</ele>
        <time>2022-10-10T12:48:27Z</time>
      </trkpt>
      <trkpt lat="47.73401" lon="6.95704">
        <ele>470.3</ele>
        <time>2022-10-10T12:48:32Z</time>
      </trkpt>
      <trkpt lat="47.73408" lon="6.95679">
        <ele>472</ele>
        <time>2022-10-10T12:48:38Z</time>
      </trkpt>
      <trkpt lat="47.7341" lon="6.95646">
        <ele>473.6</ele>
        <time>2022-10-10T12:48:43Z</time>
      </trkpt>
      <trkpt lat="47.73417" lon="6.95617">
        <ele>474.7</ele>
        <time>2022-10-10T12:48:47Z</time>
      </trkpt>
      <trkpt lat="47.73425" lon="6.95595">
        <ele>475.3</ele>
        <time>2022-10-10T12:48:51Z</time>
      </trkpt>
      <trkpt lat="47.73431" lon="6.9557">
        <ele>475.8</ele>
        <time>2022-10-10T12:48:56Z</time>
      </trkpt>
      <trkpt lat="47.73439" lon="6.95544">
        <ele>476.3</ele>
        <time>2022-10-10T12:49:01Z</time>
      </trkpt>
      <trkpt lat="47.73443" lon="6.9552">
        <ele>477.2</ele>
        <time>2022-10-10T12:49:06Z</time>
      </trkpt>
      <trkpt lat="47.73447" lon="6.95497">
        <ele>477.9</ele>
        <time>2022-10-10T12:49:11Z</time>
      </trkpt>
      <trkpt lat="47.7345" lon="6.95469">
        <ele>478.7</ele>
        <time>2022-10-10T12:49:16Z</time>
      </trkpt>
      <trkpt lat="47.7345" lon="6.95453">
        <ele>479.2</ele>
        <time>2022-10-10T12:49:19Z</time>
      </trkpt>
      <trkpt lat="47.7345" lon="6.95442">
        <ele>479.6</ele>
        <time>2022-10-10T12:49:21Z</time>
      </trkpt>
      <trkpt lat="47.7345" lon="6.95424">
        <ele>480.5</ele>
        <time>2022-10-10T12:49:25Z</time>
      </trkpt>
      <trkpt lat="47.7345" lon="6.95412">
        <ele>481.2</ele>
        <time>2022-10-10T12:49:28Z</time>
      </trkpt>
      <trkpt lat="47.7345" lon="6.95404">
        <ele>481.8</ele>
        <time>2022-10-10T12:49:30Z</time>
      </trkpt>
      <trkpt lat="47.73448" lon="6.95384">
        <ele>483.3</ele>
        <time>2022-10-10T12:49:35Z</time>
      </trkpt>
      <trkpt lat="47.73447" lon="6.95364">
        <ele>484.7</ele>
        <time>2022-10-10T12:49:40Z</time>
      </trkpt>
      <trkpt lat="47.73447" lon="6.95359">
        <ele>485</ele>
        <time>2022-10-10T12:49:41Z</time>
      </trkpt>
      <trkpt lat="47.73448" lon="6.95344">
        <ele>485.6</ele>
        <time>2022-10-10T12:49:44Z</time>
      </trkpt>
      <trkpt lat="47.73449" lon="6.95339">
        <ele>485.8</ele>
        <time>2022-10-10T12:49:45Z</time>
      </trkpt>
      <trkpt lat="47.73451" lon="6.95306">
        <ele>486.2</ele>
        <time>2022-10-10T12:49:51Z</time>
      </trkpt>
      <trkpt lat="47.73455" lon="6.95277">
        <ele>486.4</ele>
        <time>2022-10-10T12:49:56Z</time>
      </trkpt>
      <trkpt lat="47.73461" lon="6.9524">
        <ele>486.7</ele>
        <time>2022-10-10T12:50:02Z</time>
      </trkpt>
      <trkpt lat="47.73462" lon="6.95215">
        <ele>487.1</ele>
        <time>2022-10-10T12:50:07Z</time>
      </trkpt>
      <trkpt lat="47.73461" lon="6.95187">
        <ele>487.6</ele>
        <time>2022-10-10T12:50:12Z</time>
      </trkpt>
      <trkpt lat="47.7346" lon="6.95174">
        <ele>487.7</ele>
        <time>2022-10-10T12:50:15Z</time>
      </trkpt>
      <trkpt lat="47.7346" lon="6.95168">
        <ele>487.8</ele>
        <time>2022-10-10T12:50:17Z</time>
      </trkpt>
      <trkpt lat="47.73459" lon="6.95161">
        <ele>487.8</ele>
        <time>2022-10-10T12:50:19Z</time>
      </trkpt>
      <trkpt lat="47.73458" lon="6.95156">
        <ele>487.9</ele>
        <time>2022-10-10T12:50:21Z</time>
      </trkpt>
      <trkpt lat="47.73452" lon="6.9514">
        <ele>488</ele>
        <time>2022-10-10T12:50:26Z</time>
      </trkpt>
      <trkpt lat="47.7344" lon="6.95114">
        <ele>488.4</ele>
        <time>2022-10-10T12:50:31Z</time>
      </trkpt>
      <trkpt lat="47.73433" lon="6.95098">
        <ele>488.9</ele>
        <time>2022-10-10T12:50:34Z</time>
      </trkpt>
      <trkpt lat="47.73432" lon="6.95095">
        <ele>489</ele>
        <time>2022-10-10T12:50:35Z</time>
      </trkpt>
      <trkpt lat="47.73421" lon="6.95072">
        <ele>490.2</ele>
        <time>2022-10-10T12:50:40Z</time>
      </trkpt>
      <trkpt lat="47.73413" lon="6.95058">
        <ele>492.1</ele>
        <time>2022-10-10T12:50:43Z</time>
      </trkpt>
      <trkpt lat="47.73406" lon="6.95054">
        <ele>493.6</ele>
        <time>2022-10-10T12:50:45Z</time>
      </trkpt>
      <trkpt lat="47.73398" lon="6.9505">
        <ele>495.7</ele>
        <time>2022-10-10T12:50:50Z</time>
      </trkpt>
      <trkpt lat="47.73386" lon="6.95067">
        <ele>499.9</ele>
        <time>2022-10-10T12:52:00Z</time>
      </trkpt>
      <trkpt lat="47.73381" lon="6.95071">
        <ele>501.3</ele>
        <time>2022-10-10T12:52:03Z</time>
      </trkpt>
      <trkpt lat="47.73368" lon="6.95081">
        <ele>505</ele>
        <time>2022-10-10T12:52:11Z</time>
      </trkpt>
      <trkpt lat="47.73361" lon="6.95089">
        <ele>507.3</ele>
        <time>2022-10-10T12:52:16Z</time>
      </trkpt>
      <trkpt lat="47.73353" lon="6.95101">
        <ele>510.3</ele>
        <time>2022-10-10T12:52:23Z</time>
      </trkpt>
      <trkpt lat="47.7335" lon="6.95108">
        <ele>511.8</ele>
        <time>2022-10-10T12:52:28Z</time>
      </trkpt>
      <trkpt lat="47.73349" lon="6.9511">
        <ele>512.1</ele>
        <time>2022-10-10T12:52:29Z</time>
      </trkpt>
      <trkpt lat="47.73348" lon="6.95118">
        <ele>513.4</ele>
        <time>2022-10-10T12:52:33Z</time>
      </trkpt>
      <trkpt lat="47.73343" lon="6.95132">
        <ele>515.8</ele>
        <time>2022-10-10T12:52:40Z</time>
      </trkpt>
      <trkpt lat="47.73337" lon="6.95142">
        <ele>517.4</ele>
        <time>2022-10-10T12:52:46Z</time>
      </trkpt>
      <trkpt lat="47.73334" lon="6.95145">
        <ele>517.9</ele>
        <time>2022-10-10T12:52:48Z</time>
      </trkpt>
      <trkpt lat="47.73331" lon="6.95147">
        <ele>518.5</ele>
        <time>2022-10-10T12:52:51Z</time>
      </trkpt>
      <trkpt lat="47.73328" lon="6.95149">
        <ele>518.9</ele>
        <time>2022-10-10T12:52:53Z</time>
      </trkpt>
      <trkpt lat="47.73324" lon="6.95151">
        <ele>519.5</ele>
        <time>2022-10-10T12:52:56Z</time>
      </trkpt>
      <trkpt lat="47.73321" lon="6.95149">
        <ele>519.9</ele>
        <time>2022-10-10T12:52:58Z</time>
      </trkpt>
      <trkpt lat="47.73315" lon="6.95145">
        <ele>520.7</ele>
        <time>2022-10-10T12:53:02Z</time>
      </trkpt>
      <trkpt lat="47.73306" lon="6.95139">
        <ele>521.7</ele>
        <time>2022-10-10T12:53:07Z</time>
      </trkpt>
      <trkpt lat="47.73295" lon="6.95127">
        <ele>522.8</ele>
        <time>2022-10-10T12:53:12Z</time>
      </trkpt>
      <trkpt lat="47.73287" lon="6.95116">
        <ele>523.7</ele>
        <time>2022-10-10T12:53:17Z</time>
      </trkpt>
      <trkpt lat="47.73277" lon="6.951">
        <ele>524.9</ele>
        <time>2022-10-10T12:53:23Z</time>
      </trkpt>
      <trkpt lat="47.7327" lon="6.95085">
        <ele>526</ele>
        <time>2022-10-10T12:53:28Z</time>
      </trkpt>
      <trkpt lat="47.73261" lon="6.9507">
        <ele>527.4</ele>
        <time>2022-10-10T12:53:34Z</time>
      </trkpt>
      <trkpt lat="47.73257" lon="6.95065">
        <ele>527.9</ele>
        <time>2022-10-10T12:53:36Z</time>
      </trkpt>
      <trkpt lat="47.73254" lon="6.95057">
        <ele>528.6</ele>
        <time>2022-10-10T12:53:39Z</time>
      </trkpt>
      <trkpt lat="47.73249" lon="6.95041">
        <ele>529.5</ele>
        <time>2022-10-10T12:53:44Z</time>
      </trkpt>
      <trkpt lat="47.73243" lon="6.95029">
        <ele>530.2</ele>
        <time>2022-10-10T12:53:48Z</time>
      </trkpt>
      <trkpt lat="47.73236" lon="6.95014">
        <ele>531</ele>
        <time>2022-10-10T12:53:52Z</time>
      </trkpt>
      <trkpt lat="47.73233" lon="6.94991">
        <ele>532.4</ele>
        <time>2022-10-10T12:53:58Z</time>
      </trkpt>
      <trkpt lat="47.73232" lon="6.94974">
        <ele>533.3</ele>
        <time>2022-10-10T12:54:03Z</time>
      </trkpt>
      <trkpt lat="47.73231" lon="6.9496">
        <ele>534</ele>
        <time>2022-10-10T12:54:08Z</time>
      </trkpt>
      <trkpt lat="47.73229" lon="6.94948">
        <ele>534.8</ele>
        <time>2022-10-10T12:54:12Z</time>
      </trkpt>
      <trkpt lat="47.73228" lon="6.9494">
        <ele>535.4</ele>
        <time>2022-10-10T12:54:14Z</time>
      </trkpt>
      <trkpt lat="47.73224" lon="6.94917">
        <ele>537.2</ele>
        <time>2022-10-10T12:54:20Z</time>
      </trkpt>
      <trkpt lat="47.73222" lon="6.94911">
        <ele>537.7</ele>
        <time>2022-10-10T12:54:22Z</time>
      </trkpt>
      <trkpt lat="47.73222" lon="6.94904">
        <ele>538.2</ele>
        <time>2022-10-10T12:54:24Z</time>
      </trkpt>
      <trkpt lat="47.73223" lon="6.94896">
        <ele>538.9</ele>
        <time>2022-10-10T12:54:27Z</time>
      </trkpt>
      <trkpt lat="47.73224" lon="6.94893">
        <ele>539.1</ele>
        <time>2022-10-10T12:54:28Z</time>
      </trkpt>
      <trkpt lat="47.73223" lon="6.94884">
        <ele>539.8</ele>
        <time>2022-10-10T12:54:31Z</time>
      </trkpt>
      <trkpt lat="47.73223" lon="6.9488">
        <ele>540</ele>
        <time>2022-10-10T12:54:32Z</time>
      </trkpt>
      <trkpt lat="47.73222" lon="6.94869">
        <ele>540.8</ele>
        <time>2022-10-10T12:54:36Z</time>
      </trkpt>
      <trkpt lat="47.7322" lon="6.94862">
        <ele>541.2</ele>
        <time>2022-10-10T12:54:38Z</time>
      </trkpt>
      <trkpt lat="47.73218" lon="6.94853">
        <ele>541.8</ele>
        <time>2022-10-10T12:54:41Z</time>
      </trkpt>
      <trkpt lat="47.73216" lon="6.94847">
        <ele>542.3</ele>
        <time>2022-10-10T12:54:43Z</time>
      </trkpt>
      <trkpt lat="47.73212" lon="6.94824">
        <ele>543.6</ele>
        <time>2022-10-10T12:54:49Z</time>
      </trkpt>
      <trkpt lat="47.73211" lon="6.94803">
        <ele>544.3</ele>
        <time>2022-10-10T12:54:54Z</time>
      </trkpt>
      <trkpt lat="47.73212" lon="6.94787">
        <ele>544.8</ele>
        <time>2022-10-10T12:54:59Z</time>
      </trkpt>
      <trkpt lat="47.73215" lon="6.94761">
        <ele>545.7</ele>
        <time>2022-10-10T12:55:04Z</time>
      </trkpt>
      <trkpt lat="47.7322" lon="6.94733">
        <ele>546.9</ele>
        <time>2022-10-10T12:55:09Z</time>
      </trkpt>
      <trkpt lat="47.73221" lon="6.94724">
        <ele>547.3</ele>
        <time>2022-10-10T12:55:11Z</time>
      </trkpt>
      <trkpt lat="47.73221" lon="6.94716">
        <ele>547.5</ele>
        <time>2022-10-10T12:55:13Z</time>
      </trkpt>
      <trkpt lat="47.73221" lon="6.94701">
        <ele>547.2</ele>
        <time>2022-10-10T12:55:18Z</time>
      </trkpt>
      <trkpt lat="47.73222" lon="6.94699">
        <ele>545.4</ele>
        <time>2022-10-10T12:55:20Z</time>
      </trkpt>
      <trkpt lat="47.73228" lon="6.94693">
        <ele>543.7</ele>
        <time>2022-10-10T12:55:25Z</time>
      </trkpt>
      <trkpt lat="47.73232" lon="6.94692">
        <ele>542.4</ele>
        <time>2022-10-10T12:55:27Z</time>
      </trkpt>
      <trkpt lat="47.73246" lon="6.94691">
        <ele>538.2</ele>
        <time>2022-10-10T12:55:32Z</time>
      </trkpt>
      <trkpt lat="47.73262" lon="6.94694">
        <ele>533.3</ele>
        <time>2022-10-10T12:55:36Z</time>
      </trkpt>
      <trkpt lat="47.73273" lon="6.94697">
        <ele>530.4</ele>
        <time>2022-10-10T12:55:38Z</time>
      </trkpt>
      <trkpt lat="47.73284" lon="6.947">
        <ele>528.1</ele>
        <time>2022-10-10T12:55:40Z</time>
      </trkpt>
      <trkpt lat="47.73297" lon="6.94702">
        <ele>526.2</ele>
        <time>2022-10-10T12:55:42Z</time>
      </trkpt>
      <trkpt lat="47.73315" lon="6.94703">
        <ele>523.9</ele>
        <time>2022-10-10T12:55:45Z</time>
      </trkpt>
      <trkpt lat="47.73331" lon="6.94707">
        <ele>522.1</ele>
        <time>2022-10-10T12:55:48Z</time>
      </trkpt>
      <trkpt lat="47.73335" lon="6.9471">
        <ele>521.5</ele>
        <time>2022-10-10T12:55:49Z</time>
      </trkpt>
      <trkpt lat="47.73339" lon="6.94714">
        <ele>520.9</ele>
        <time>2022-10-10T12:55:50Z</time>
      </trkpt>
      <trkpt lat="47.73349" lon="6.94728">
        <ele>519.4</ele>
        <time>2022-10-10T12:55:53Z</time>
      </trkpt>
      <trkpt lat="47.73359" lon="6.94743">
        <ele>517.6</ele>
        <time>2022-10-10T12:55:56Z</time>
      </trkpt>
      <trkpt lat="47.73366" lon="6.94755">
        <ele>516.4</ele>
        <time>2022-10-10T12:55:58Z</time>
      </trkpt>
      <trkpt lat="47.73382" lon="6.94782">
        <ele>513.1</ele>
        <time>2022-10-10T12:56:03Z</time>
      </trkpt>
      <trkpt lat="47.73395" lon="6.9479">
        <ele>510.6</ele>
        <time>2022-10-10T12:56:07Z</time>
      </trkpt>
      <trkpt lat="47.7341" lon="6.94791">
        <ele>507.6</ele>
        <time>2022-10-10T12:56:12Z</time>
      </trkpt>
      <trkpt lat="47.73414" lon="6.94792">
        <ele>506.4</ele>
        <time>2022-10-10T12:56:15Z</time>
      </trkpt>
      <trkpt lat="47.7342" lon="6.94792">
        <ele>504.9</ele>
        <time>2022-10-10T12:56:42Z</time>
      </trkpt>
      <trkpt lat="47.73432" lon="6.94789">
        <ele>501.9</ele>
        <time>2022-10-10T12:56:48Z</time>
      </trkpt>
      <trkpt lat="47.73437" lon="6.94788">
        <ele>500.6</ele>
        <time>2022-10-10T12:56:52Z</time>
      </trkpt>
      <trkpt lat="47.73445" lon="6.94786">
        <ele>498.5</ele>
        <time>2022-10-10T12:56:56Z</time>
      </trkpt>
      <trkpt lat="47.73449" lon="6.94786">
        <ele>497.5</ele>
        <time>2022-10-10T12:56:58Z</time>
      </trkpt>
      <trkpt lat="47.73456" lon="6.94786">
        <ele>495.9</ele>
        <time>2022-10-10T12:57:03Z</time>
      </trkpt>
      <trkpt lat="47.73462" lon="6.94786">
        <ele>494.5</ele>
        <time>2022-10-10T12:57:10Z</time>
      </trkpt>
      <trkpt lat="47.73465" lon="6.94786">
        <ele>493.7</ele>
        <time>2022-10-10T12:57:12Z</time>
      </trkpt>
      <trkpt lat="47.73475" lon="6.94788">
        <ele>491.3</ele>
        <time>2022-10-10T12:57:18Z</time>
      </trkpt>
      <trkpt lat="47.73475" lon="6.94788">
        <ele>491.3</ele>
        <time>2022-10-10T12:57:19Z</time>
      </trkpt>
      <trkpt lat="47.73484" lon="6.94789">
        <ele>489.2</ele>
        <time>2022-10-10T12:57:57Z</time>
      </trkpt>
      <trkpt lat="47.73488" lon="6.94789">
        <ele>488.2</ele>
        <time>2022-10-10T12:57:59Z</time>
      </trkpt>
      <trkpt lat="47.73502" lon="6.94785">
        <ele>484.7</ele>
        <time>2022-10-10T12:58:04Z</time>
      </trkpt>
      <trkpt lat="47.73512" lon="6.94782">
        <ele>482.3</ele>
        <time>2022-10-10T12:58:06Z</time>
      </trkpt>
      <trkpt lat="47.73526" lon="6.94774">
        <ele>479.2</ele>
        <time>2022-10-10T12:58:09Z</time>
      </trkpt>
      <trkpt lat="47.73535" lon="6.94766">
        <ele>477.7</ele>
        <time>2022-10-10T12:58:13Z</time>
      </trkpt>
      <trkpt lat="47.73541" lon="6.94763">
        <ele>476.7</ele>
        <time>2022-10-10T12:58:18Z</time>
      </trkpt>
      <trkpt lat="47.73546" lon="6.94764">
        <ele>476.1</ele>
        <time>2022-10-10T12:59:14Z</time>
      </trkpt>
      <trkpt lat="47.7355" lon="6.94762">
        <ele>475.5</ele>
        <time>2022-10-10T12:59:16Z</time>
      </trkpt>
      <trkpt lat="47.73562" lon="6.94757">
        <ele>475.1</ele>
        <time>2022-10-10T12:59:21Z</time>
      </trkpt>
      <trkpt lat="47.73573" lon="6.94748">
        <ele>475.2</ele>
        <time>2022-10-10T12:59:26Z</time>
      </trkpt>
      <trkpt lat="47.73584" lon="6.94746">
        <ele>475.4</ele>
        <time>2022-10-10T12:59:31Z</time>
      </trkpt>
      <trkpt lat="47.73586" lon="6.94744">
        <ele>475.4</ele>
        <time>2022-10-10T12:59:33Z</time>
      </trkpt>
      <trkpt lat="47.73585" lon="6.94736">
        <ele>475.4</ele>
        <time>2022-10-10T12:59:36Z</time>
      </trkpt>
      <trkpt lat="47.7358" lon="6.94722">
        <ele>475.5</ele>
        <time>2022-10-10T12:59:40Z</time>
      </trkpt>
      <trkpt lat="47.7358" lon="6.94717">
        <ele>475.5</ele>
        <time>2022-10-10T12:59:41Z</time>
      </trkpt>
      <trkpt lat="47.73579" lon="6.94701">
        <ele>475.7</ele>
        <time>2022-10-10T12:59:44Z</time>
      </trkpt>
      <trkpt lat="47.73579" lon="6.94696">
        <ele>475.8</ele>
        <time>2022-10-10T12:59:45Z</time>
      </trkpt>
      <trkpt lat="47.73579" lon="6.94687">
        <ele>476</ele>
        <time>2022-10-10T12:59:47Z</time>
      </trkpt>
      <trkpt lat="47.73577" lon="6.94679">
        <ele>476.2</ele>
        <time>2022-10-10T12:59:49Z</time>
      </trkpt>
      <trkpt lat="47.73574" lon="6.94663">
        <ele>476.7</ele>
        <time>2022-10-10T12:59:53Z</time>
      </trkpt>
      <trkpt lat="47.7357" lon="6.94643">
        <ele>477.2</ele>
        <time>2022-10-10T12:59:59Z</time>
      </trkpt>
      <trkpt lat="47.73569" lon="6.9464">
        <ele>477.2</ele>
        <time>2022-10-10T13:00:00Z</time>
      </trkpt>
      <trkpt lat="47.73566" lon="6.94629">
        <ele>477.5</ele>
        <time>2022-10-10T13:00:04Z</time>
      </trkpt>
      <trkpt lat="47.7356" lon="6.94613">
        <ele>477.9</ele>
        <time>2022-10-10T13:00:09Z</time>
      </trkpt>
      <trkpt lat="47.73553" lon="6.94597">
        <ele>478.3</ele>
        <time>2022-10-10T13:00:14Z</time>
      </trkpt>
      <trkpt lat="47.73542" lon="6.94564">
        <ele>479</ele>
        <time>2022-10-10T13:00:21Z</time>
      </trkpt>
      <trkpt lat="47.73525" lon="6.94538">
        <ele>479.9</ele>
        <time>2022-10-10T13:00:27Z</time>
      </trkpt>
      <trkpt lat="47.7351" lon="6.94514">
        <ele>480.8</ele>
        <time>2022-10-10T13:00:34Z</time>
      </trkpt>
      <trkpt lat="47.73501" lon="6.94502">
        <ele>481.6</ele>
        <time>2022-10-10T13:00:39Z</time>
      </trkpt>
      <trkpt lat="47.73493" lon="6.94491">
        <ele>482.3</ele>
        <time>2022-10-10T13:00:43Z</time>
      </trkpt>
      <trkpt lat="47.73486" lon="6.94475">
        <ele>483.3</ele>
        <time>2022-10-10T13:00:48Z</time>
      </trkpt>
      <trkpt lat="47.73475" lon="6.94462">
        <ele>484.4</ele>
        <time>2022-10-10T13:00:53Z</time>
      </trkpt>
      <trkpt lat="47.73469" lon="6.94454">
        <ele>485</ele>
        <time>2022-10-10T13:00:56Z</time>
      </trkpt>
      <trkpt lat="47.73468" lon="6.94451">
        <ele>485.1</ele>
        <time>2022-10-10T13:00:57Z</time>
      </trkpt>
      <trkpt lat="47.73454" lon="6.94435">
        <ele>485.4</ele>
        <time>2022-10-10T13:01:02Z</time>
      </trkpt>
      <trkpt lat="47.73442" lon="6.94415">
        <ele>485.2</ele>
        <time>2022-10-10T13:01:07Z</time>
      </trkpt>
      <trkpt lat="47.73431" lon="6.94387">
        <ele>485</ele>
        <time>2022-10-10T13:01:12Z</time>
      </trkpt>
      <trkpt lat="47.7342" lon="6.94361">
        <ele>484.7</ele>
        <time>2022-10-10T13:01:17Z</time>
      </trkpt>
      <trkpt lat="47.73407" lon="6.94342">
        <ele>484.2</ele>
        <time>2022-10-10T13:01:21Z</time>
      </trkpt>
      <trkpt lat="47.73398" lon="6.94332">
        <ele>483.9</ele>
        <time>2022-10-10T13:01:23Z</time>
      </trkpt>
      <trkpt lat="47.73388" lon="6.94324">
        <ele>483.6</ele>
        <time>2022-10-10T13:01:25Z</time>
      </trkpt>
      <trkpt lat="47.73384" lon="6.94322">
        <ele>483.5</ele>
        <time>2022-10-10T13:01:26Z</time>
      </trkpt>
      <trkpt lat="47.73362" lon="6.94318">
        <ele>483.1</ele>
        <time>2022-10-10T13:01:31Z</time>
      </trkpt>
      <trkpt lat="47.73339" lon="6.94323">
        <ele>483.4</ele>
        <time>2022-10-10T13:01:37Z</time>
      </trkpt>
      <trkpt lat="47.73326" lon="6.94322">
        <ele>484.1</ele>
        <time>2022-10-10T13:01:41Z</time>
      </trkpt>
      <trkpt lat="47.73318" lon="6.94307">
        <ele>484.8</ele>
        <time>2022-10-10T13:01:46Z</time>
      </trkpt>
      <trkpt lat="47.73309" lon="6.94287">
        <ele>485.7</ele>
        <time>2022-10-10T13:01:51Z</time>
      </trkpt>
      <trkpt lat="47.73303" lon="6.94273">
        <ele>486.2</ele>
        <time>2022-10-10T13:01:55Z</time>
      </trkpt>
      <trkpt lat="47.73294" lon="6.94248">
        <ele>486.3</ele>
        <time>2022-10-10T13:02:00Z</time>
      </trkpt>
      <trkpt lat="47.7328" lon="6.94214">
        <ele>486.2</ele>
        <time>2022-10-10T13:02:07Z</time>
      </trkpt>
      <trkpt lat="47.73263" lon="6.94185">
        <ele>486.4</ele>
        <time>2022-10-10T13:02:13Z</time>
      </trkpt>
      <trkpt lat="47.73246" lon="6.94161">
        <ele>486.9</ele>
        <time>2022-10-10T13:02:20Z</time>
      </trkpt>
      <trkpt lat="47.7323" lon="6.94137">
        <ele>487.7</ele>
        <time>2022-10-10T13:02:27Z</time>
      </trkpt>
      <trkpt lat="47.73219" lon="6.94116">
        <ele>488.6</ele>
        <time>2022-10-10T13:02:33Z</time>
      </trkpt>
      <trkpt lat="47.73208" lon="6.9409">
        <ele>489.6</ele>
        <time>2022-10-10T13:02:40Z</time>
      </trkpt>
      <trkpt lat="47.73201" lon="6.94074">
        <ele>490.2</ele>
        <time>2022-10-10T13:02:44Z</time>
      </trkpt>
      <trkpt lat="47.73192" lon="6.94057">
        <ele>490.9</ele>
        <time>2022-10-10T13:02:49Z</time>
      </trkpt>
      <trkpt lat="47.73183" lon="6.94044">
        <ele>491.7</ele>
        <time>2022-10-10T13:02:54Z</time>
      </trkpt>
      <trkpt lat="47.73175" lon="6.94031">
        <ele>492.6</ele>
        <time>2022-10-10T13:02:58Z</time>
      </trkpt>
      <trkpt lat="47.73175" lon="6.94029">
        <ele>492.7</ele>
        <time>2022-10-10T13:02:59Z</time>
      </trkpt>
      <trkpt lat="47.73167" lon="6.94017">
        <ele>493.6</ele>
        <time>2022-10-10T13:03:03Z</time>
      </trkpt>
      <trkpt lat="47.73158" lon="6.93999">
        <ele>494.6</ele>
        <time>2022-10-10T13:03:08Z</time>
      </trkpt>
      <trkpt lat="47.7315" lon="6.93986">
        <ele>495.3</ele>
        <time>2022-10-10T13:03:12Z</time>
      </trkpt>
      <trkpt lat="47.73146" lon="6.93983">
        <ele>495.5</ele>
        <time>2022-10-10T13:03:13Z</time>
      </trkpt>
      <trkpt lat="47.73138" lon="6.93967">
        <ele>495.9</ele>
        <time>2022-10-10T13:03:17Z</time>
      </trkpt>
      <trkpt lat="47.73132" lon="6.9395">
        <ele>496.1</ele>
        <time>2022-10-10T13:03:21Z</time>
      </trkpt>
      <trkpt lat="47.73121" lon="6.93923">
        <ele>496.1</ele>
        <time>2022-10-10T13:03:26Z</time>
      </trkpt>
      <trkpt lat="47.73108" lon="6.93894">
        <ele>495.8</ele>
        <time>2022-10-10T13:03:32Z</time>
      </trkpt>
      <trkpt lat="47.73099" lon="6.93873">
        <ele>495.9</ele>
        <time>2022-10-10T13:03:37Z</time>
      </trkpt>
      <trkpt lat="47.73089" lon="6.93846">
        <ele>496.9</ele>
        <time>2022-10-10T13:03:44Z</time>
      </trkpt>
      <trkpt lat="47.73078" lon="6.93829">
        <ele>497.8</ele>
        <time>2022-10-10T13:03:49Z</time>
      </trkpt>
      <trkpt lat="47.73064" lon="6.93808">
        <ele>499</ele>
        <time>2022-10-10T13:03:56Z</time>
      </trkpt>
      <trkpt lat="47.73054" lon="6.93793">
        <ele>500</ele>
        <time>2022-10-10T13:04:01Z</time>
      </trkpt>
      <trkpt lat="47.73042" lon="6.93779">
        <ele>501.1</ele>
        <time>2022-10-10T13:04:06Z</time>
      </trkpt>
      <trkpt lat="47.73034" lon="6.93766">
        <ele>502.1</ele>
        <time>2022-10-10T13:04:11Z</time>
      </trkpt>
      <trkpt lat="47.73023" lon="6.93757">
        <ele>503.5</ele>
        <time>2022-10-10T13:04:16Z</time>
      </trkpt>
      <trkpt lat="47.73012" lon="6.93755">
        <ele>504.8</ele>
        <time>2022-10-10T13:04:21Z</time>
      </trkpt>
      <trkpt lat="47.7301" lon="6.93755">
        <ele>505</ele>
        <time>2022-10-10T13:04:22Z</time>
      </trkpt>
      <trkpt lat="47.72998" lon="6.93762">
        <ele>506.4</ele>
        <time>2022-10-10T13:04:27Z</time>
      </trkpt>
      <trkpt lat="47.72982" lon="6.93776">
        <ele>507.7</ele>
        <time>2022-10-10T13:04:33Z</time>
      </trkpt>
      <trkpt lat="47.7297" lon="6.93789">
        <ele>508.5</ele>
        <time>2022-10-10T13:04:38Z</time>
      </trkpt>
      <trkpt lat="47.72952" lon="6.93801">
        <ele>509.6</ele>
        <time>2022-10-10T13:04:45Z</time>
      </trkpt>
      <trkpt lat="47.72939" lon="6.93805">
        <ele>510.4</ele>
        <time>2022-10-10T13:04:50Z</time>
      </trkpt>
      <trkpt lat="47.72925" lon="6.93804">
        <ele>511.4</ele>
        <time>2022-10-10T13:04:55Z</time>
      </trkpt>
      <trkpt lat="47.72903" lon="6.93806">
        <ele>512.9</ele>
        <time>2022-10-10T13:05:03Z</time>
      </trkpt>
      <trkpt lat="47.72892" lon="6.93805">
        <ele>513.6</ele>
        <time>2022-10-10T13:05:08Z</time>
      </trkpt>
      <trkpt lat="47.72886" lon="6.93804">
        <ele>514</ele>
        <time>2022-10-10T13:05:11Z</time>
      </trkpt>
      <trkpt lat="47.72882" lon="6.93802">
        <ele>514.4</ele>
        <time>2022-10-10T13:05:13Z</time>
      </trkpt>
      <trkpt lat="47.72871" lon="6.93798">
        <ele>515.2</ele>
        <time>2022-10-10T13:05:17Z</time>
      </trkpt>
      <trkpt lat="47.72859" lon="6.93788">
        <ele>516.3</ele>
        <time>2022-10-10T13:05:22Z</time>
      </trkpt>
      <trkpt lat="47.72853" lon="6.93778">
        <ele>517.1</ele>
        <time>2022-10-10T13:05:26Z</time>
      </trkpt>
      <trkpt lat="47.72853" lon="6.93776">
        <ele>517.3</ele>
        <time>2022-10-10T13:05:27Z</time>
      </trkpt>
      <trkpt lat="47.72849" lon="6.93765">
        <ele>518.1</ele>
        <time>2022-10-10T13:05:31Z</time>
      </trkpt>
      <trkpt lat="47.72848" lon="6.93763">
        <ele>518.2</ele>
        <time>2022-10-10T13:05:32Z</time>
      </trkpt>
      <trkpt lat="47.72844" lon="6.93757">
        <ele>518.7</ele>
        <time>2022-10-10T13:05:35Z</time>
      </trkpt>
      <trkpt lat="47.7284" lon="6.93752">
        <ele>519.3</ele>
        <time>2022-10-10T13:05:37Z</time>
      </trkpt>
      <trkpt lat="47.72834" lon="6.93745">
        <ele>520.1</ele>
        <time>2022-10-10T13:05:40Z</time>
      </trkpt>
      <trkpt lat="47.72825" lon="6.93733">
        <ele>521.4</ele>
        <time>2022-10-10T13:05:46Z</time>
      </trkpt>
      <trkpt lat="47.72822" lon="6.93727">
        <ele>521.9</ele>
        <time>2022-10-10T13:05:48Z</time>
      </trkpt>
      <trkpt lat="47.72819" lon="6.93721">
        <ele>522.5</ele>
        <time>2022-10-10T13:05:50Z</time>
      </trkpt>
      <trkpt lat="47.72817" lon="6.93718">
        <ele>522.8</ele>
        <time>2022-10-10T13:05:51Z</time>
      </trkpt>
      <trkpt lat="47.72812" lon="6.93706">
        <ele>523.8</ele>
        <time>2022-10-10T13:05:54Z</time>
      </trkpt>
      <trkpt lat="47.72805" lon="6.93692">
        <ele>525</ele>
        <time>2022-10-10T13:05:59Z</time>
      </trkpt>
      <trkpt lat="47.72804" lon="6.93688">
        <ele>525.3</ele>
        <time>2022-10-10T13:06:00Z</time>
      </trkpt>
      <trkpt lat="47.72806" lon="6.93676">
        <ele>526.7</ele>
        <time>2022-10-10T13:06:03Z</time>
      </trkpt>
      <trkpt lat="47.7281" lon="6.93645">
        <ele>527.5</ele>
        <time>2022-10-10T13:06:10Z</time>
      </trkpt>
      <trkpt lat="47.72816" lon="6.93608">
        <ele>528.8</ele>
        <time>2022-10-10T13:06:18Z</time>
      </trkpt>
      <trkpt lat="47.72822" lon="6.93582">
        <ele>529.9</ele>
        <time>2022-10-10T13:06:24Z</time>
      </trkpt>
      <trkpt lat="47.72828" lon="6.9355">
        <ele>531.2</ele>
        <time>2022-10-10T13:06:31Z</time>
      </trkpt>
      <trkpt lat="47.72836" lon="6.93513">
        <ele>532.5</ele>
        <time>2022-10-10T13:06:39Z</time>
      </trkpt>
      <trkpt lat="47.72842" lon="6.9349">
        <ele>533.7</ele>
        <time>2022-10-10T13:06:45Z</time>
      </trkpt>
      <trkpt lat="47.72849" lon="6.93476">
        <ele>534.6</ele>
        <time>2022-10-10T13:06:50Z</time>
      </trkpt>
      <trkpt lat="47.72851" lon="6.9346">
        <ele>535.7</ele>
        <time>2022-10-10T13:06:55Z</time>
      </trkpt>
      <trkpt lat="47.72852" lon="6.93442">
        <ele>536.8</ele>
        <time>2022-10-10T13:07:00Z</time>
      </trkpt>
      <trkpt lat="47.72856" lon="6.93406">
        <ele>538.7</ele>
        <time>2022-10-10T13:07:09Z</time>
      </trkpt>
      <trkpt lat="47.72859" lon="6.93378">
        <ele>539.7</ele>
        <time>2022-10-10T13:07:15Z</time>
      </trkpt>
      <trkpt lat="47.72863" lon="6.93352">
        <ele>540.1</ele>
        <time>2022-10-10T13:07:21Z</time>
      </trkpt>
      <trkpt lat="47.72864" lon="6.93318">
        <ele>540.2</ele>
        <time>2022-10-10T13:07:27Z</time>
      </trkpt>
      <trkpt lat="47.72865" lon="6.93279">
        <ele>540.2</ele>
        <time>2022-10-10T13:07:34Z</time>
      </trkpt>
      <trkpt lat="47.72864" lon="6.93249">
        <ele>539.9</ele>
        <time>2022-10-10T13:07:39Z</time>
      </trkpt>
      <trkpt lat="47.72864" lon="6.93243">
        <ele>539.8</ele>
        <time>2022-10-10T13:07:40Z</time>
      </trkpt>
      <trkpt lat="47.72863" lon="6.93208">
        <ele>539.5</ele>
        <time>2022-10-10T13:07:46Z</time>
      </trkpt>
      <trkpt lat="47.72862" lon="6.93188">
        <ele>539.2</ele>
        <time>2022-10-10T13:07:49Z</time>
      </trkpt>
      <trkpt lat="47.72858" lon="6.93176">
        <ele>539</ele>
        <time>2022-10-10T13:07:51Z</time>
      </trkpt>
      <trkpt lat="47.7285" lon="6.93167">
        <ele>538.7</ele>
        <time>2022-10-10T13:07:53Z</time>
      </trkpt>
      <trkpt lat="47.72841" lon="6.93161">
        <ele>538.6</ele>
        <time>2022-10-10T13:07:55Z</time>
      </trkpt>
      <trkpt lat="47.72837" lon="6.93157">
        <ele>538.6</ele>
        <time>2022-10-10T13:07:56Z</time>
      </trkpt>
      <trkpt lat="47.72829" lon="6.93146">
        <ele>538.7</ele>
        <time>2022-10-10T13:07:59Z</time>
      </trkpt>
      <trkpt lat="47.72816" lon="6.93127">
        <ele>539.2</ele>
        <time>2022-10-10T13:08:05Z</time>
      </trkpt>
      <trkpt lat="47.72803" lon="6.93109">
        <ele>539.6</ele>
        <time>2022-10-10T13:08:11Z</time>
      </trkpt>
      <trkpt lat="47.72794" lon="6.93097">
        <ele>540.1</ele>
        <time>2022-10-10T13:08:17Z</time>
      </trkpt>
      <trkpt lat="47.72793" lon="6.93094">
        <ele>540.2</ele>
        <time>2022-10-10T13:08:21Z</time>
      </trkpt>
      <trkpt lat="47.72792" lon="6.93086">
        <ele>540.4</ele>
        <time>2022-10-10T13:10:59Z</time>
      </trkpt>
      <trkpt lat="47.72786" lon="6.93077">
        <ele>539.6</ele>
        <time>2022-10-10T13:11:03Z</time>
      </trkpt>
      <trkpt lat="47.72778" lon="6.9306">
        <ele>538.1</ele>
        <time>2022-10-10T13:11:09Z</time>
      </trkpt>
      <trkpt lat="47.7277" lon="6.93043">
        <ele>536.4</ele>
        <time>2022-10-10T13:11:14Z</time>
      </trkpt>
      <trkpt lat="47.72762" lon="6.93027">
        <ele>534.5</ele>
        <time>2022-10-10T13:11:18Z</time>
      </trkpt>
      <trkpt lat="47.72747" lon="6.93004">
        <ele>531.7</ele>
        <time>2022-10-10T13:11:24Z</time>
      </trkpt>
      <trkpt lat="47.72732" lon="6.92983">
        <ele>528.7</ele>
        <time>2022-10-10T13:11:31Z</time>
      </trkpt>
      <trkpt lat="47.72717" lon="6.92959">
        <ele>525.3</ele>
        <time>2022-10-10T13:11:37Z</time>
      </trkpt>
      <trkpt lat="47.7271" lon="6.92945">
        <ele>524.4</ele>
        <time>2022-10-10T13:11:40Z</time>
      </trkpt>
      <trkpt lat="47.72703" lon="6.92933">
        <ele>523.4</ele>
        <time>2022-10-10T13:11:43Z</time>
      </trkpt>
      <trkpt lat="47.72685" lon="6.92902">
        <ele>520.8</ele>
        <time>2022-10-10T13:11:52Z</time>
      </trkpt>
      <trkpt lat="47.72673" lon="6.92879">
        <ele>518.9</ele>
        <time>2022-10-10T13:11:58Z</time>
      </trkpt>
      <trkpt lat="47.72666" lon="6.92855">
        <ele>517.2</ele>
        <time>2022-10-10T13:12:04Z</time>
      </trkpt>
      <trkpt lat="47.72655" lon="6.92828">
        <ele>515.2</ele>
        <time>2022-10-10T13:12:11Z</time>
      </trkpt>
      <trkpt lat="47.72642" lon="6.92798">
        <ele>513.3</ele>
        <time>2022-10-10T13:12:17Z</time>
      </trkpt>
      <trkpt lat="47.72633" lon="6.92777">
        <ele>512.5</ele>
        <time>2022-10-10T13:12:21Z</time>
      </trkpt>
      <trkpt lat="47.72623" lon="6.92757">
        <ele>511.9</ele>
        <time>2022-10-10T13:12:25Z</time>
      </trkpt>
      <trkpt lat="47.72617" lon="6.92743">
        <ele>511.2</ele>
        <time>2022-10-10T13:12:29Z</time>
      </trkpt>
      <trkpt lat="47.72603" lon="6.92714">
        <ele>508.8</ele>
        <time>2022-10-10T13:12:37Z</time>
      </trkpt>
      <trkpt lat="47.72598" lon="6.92702">
        <ele>507.6</ele>
        <time>2022-10-10T13:12:42Z</time>
      </trkpt>
      <trkpt lat="47.72592" lon="6.92691">
        <ele>506.4</ele>
        <time>2022-10-10T13:12:46Z</time>
      </trkpt>
      <trkpt lat="47.72591" lon="6.92687">
        <ele>506</ele>
        <time>2022-10-10T13:12:47Z</time>
      </trkpt>
      <trkpt lat="47.72583" lon="6.92668">
        <ele>504.2</ele>
        <time>2022-10-10T13:12:52Z</time>
      </trkpt>
      <trkpt lat="47.72572" lon="6.92645">
        <ele>502.6</ele>
        <time>2022-10-10T13:12:57Z</time>
      </trkpt>
      <trkpt lat="47.72557" lon="6.92619">
        <ele>501.2</ele>
        <time>2022-10-10T13:13:03Z</time>
      </trkpt>
      <trkpt lat="47.72539" lon="6.92601">
        <ele>499.9</ele>
        <time>2022-10-10T13:13:08Z</time>
      </trkpt>
      <trkpt lat="47.72525" lon="6.92588">
        <ele>499.1</ele>
        <time>2022-10-10T13:13:12Z</time>
      </trkpt>
      <trkpt lat="47.72514" lon="6.92581">
        <ele>498.4</ele>
        <time>2022-10-10T13:13:15Z</time>
      </trkpt>
      <trkpt lat="47.72496" lon="6.9257">
        <ele>496.8</ele>
        <time>2022-10-10T13:13:20Z</time>
      </trkpt>
      <trkpt lat="47.72483" lon="6.92562">
        <ele>495.6</ele>
        <time>2022-10-10T13:13:25Z</time>
      </trkpt>
      <trkpt lat="47.7248" lon="6.92561">
        <ele>495.4</ele>
        <time>2022-10-10T13:13:28Z</time>
      </trkpt>
      <trkpt lat="47.72473" lon="6.9256">
        <ele>494.9</ele>
        <time>2022-10-10T13:13:55Z</time>
      </trkpt>
      <trkpt lat="47.72464" lon="6.92558">
        <ele>494</ele>
        <time>2022-10-10T13:13:59Z</time>
      </trkpt>
      <trkpt lat="47.72447" lon="6.92555">
        <ele>491.7</ele>
        <time>2022-10-10T13:14:04Z</time>
      </trkpt>
      <trkpt lat="47.72433" lon="6.92551">
        <ele>489.6</ele>
        <time>2022-10-10T13:14:08Z</time>
      </trkpt>
      <trkpt lat="47.72416" lon="6.92542">
        <ele>486.5</ele>
        <time>2022-10-10T13:14:13Z</time>
      </trkpt>
      <trkpt lat="47.72403" lon="6.92536">
        <ele>484.5</ele>
        <time>2022-10-10T13:14:17Z</time>
      </trkpt>
      <trkpt lat="47.72402" lon="6.92535">
        <ele>484.3</ele>
        <time>2022-10-10T13:14:19Z</time>
      </trkpt>
      <trkpt lat="47.72387" lon="6.92538">
        <ele>482.8</ele>
        <time>2022-10-10T13:49:26Z</time>
      </trkpt>
      <trkpt lat="47.72386" lon="6.92538">
        <ele>482</ele>
        <time>2022-10-10T13:49:27Z</time>
      </trkpt>
      <trkpt lat="47.72385" lon="6.92538">
        <ele>481.5</ele>
        <time>2022-10-10T13:49:29Z</time>
      </trkpt>
      <trkpt lat="47.72376" lon="6.92539">
        <ele>480.2</ele>
        <time>2022-10-10T13:52:44Z</time>
      </trkpt>
      <trkpt lat="47.72364" lon="6.92545">
        <ele>479.4</ele>
        <time>2022-10-10T13:52:48Z</time>
      </trkpt>
      <trkpt lat="47.72359" lon="6.92548">
        <ele>479.2</ele>
        <time>2022-10-10T13:52:49Z</time>
      </trkpt>
      <trkpt lat="47.72345" lon="6.92556">
        <ele>478.2</ele>
        <time>2022-10-10T13:52:53Z</time>
      </trkpt>
      <trkpt lat="47.72338" lon="6.92561">
        <ele>477.5</ele>
        <time>2022-10-10T13:52:57Z</time>
      </trkpt>
      <trkpt lat="47.72338" lon="6.92561">
        <ele>477.5</ele>
        <time>2022-10-10T13:52:58Z</time>
      </trkpt>
      <trkpt lat="47.72329" lon="6.92565">
        <ele>476.4</ele>
        <time>2022-10-10T13:53:13Z</time>
      </trkpt>
      <trkpt lat="47.72324" lon="6.92566">
        <ele>475.6</ele>
        <time>2022-10-10T13:53:15Z</time>
      </trkpt>
      <trkpt lat="47.72321" lon="6.92565">
        <ele>475.1</ele>
        <time>2022-10-10T13:53:16Z</time>
      </trkpt>
      <trkpt lat="47.72319" lon="6.92561">
        <ele>474.2</ele>
        <time>2022-10-10T13:53:18Z</time>
      </trkpt>
      <trkpt lat="47.72316" lon="6.92543">
        <ele>471.1</ele>
        <time>2022-10-10T13:53:24Z</time>
      </trkpt>
      <trkpt lat="47.72309" lon="6.92525">
        <ele>467.5</ele>
        <time>2022-10-10T13:53:29Z</time>
      </trkpt>
      <trkpt lat="47.72307" lon="6.92522">
        <ele>466.7</ele>
        <time>2022-10-10T13:53:30Z</time>
      </trkpt>
      <trkpt lat="47.72302" lon="6.92514">
        <ele>465</ele>
        <time>2022-10-10T13:53:32Z</time>
      </trkpt>
      <trkpt lat="47.7229" lon="6.92494">
        <ele>462.4</ele>
        <time>2022-10-10T13:53:36Z</time>
      </trkpt>
      <trkpt lat="47.7228" lon="6.92483">
        <ele>459.8</ele>
        <time>2022-10-10T13:53:38Z</time>
      </trkpt>
      <trkpt lat="47.72276" lon="6.92475">
        <ele>458.4</ele>
        <time>2022-10-10T13:53:39Z</time>
      </trkpt>
      <trkpt lat="47.72272" lon="6.92465">
        <ele>456.9</ele>
        <time>2022-10-10T13:53:40Z</time>
      </trkpt>
      <trkpt lat="47.7226" lon="6.92421">
        <ele>453</ele>
        <time>2022-10-10T13:53:44Z</time>
      </trkpt>
      <trkpt lat="47.72256" lon="6.92406">
        <ele>451.4</ele>
        <time>2022-10-10T13:53:45Z</time>
      </trkpt>
      <trkpt lat="47.72254" lon="6.92401">
        <ele>451</ele>
        <time>2022-10-10T13:53:47Z</time>
      </trkpt>
      <trkpt lat="47.72252" lon="6.92395">
        <ele>450.3</ele>
        <time>2022-10-10T13:53:50Z</time>
      </trkpt>
      <trkpt lat="47.72251" lon="6.92392">
        <ele>449.9</ele>
        <time>2022-10-10T13:54:26Z</time>
      </trkpt>
      <trkpt lat="47.72253" lon="6.92368">
        <ele>450</ele>
        <time>2022-10-10T13:54:31Z</time>
      </trkpt>
      <trkpt lat="47.72255" lon="6.92321">
        <ele>450.1</ele>
        <time>2022-10-10T13:54:38Z</time>
      </trkpt>
      <trkpt lat="47.72251" lon="6.92274">
        <ele>450.4</ele>
        <time>2022-10-10T13:54:45Z</time>
      </trkpt>
      <trkpt lat="47.72242" lon="6.92209">
        <ele>450.5</ele>
        <time>2022-10-10T13:54:55Z</time>
      </trkpt>
      <trkpt lat="47.72238" lon="6.92177">
        <ele>450.4</ele>
        <time>2022-10-10T13:55:00Z</time>
      </trkpt>
      <trkpt lat="47.72237" lon="6.92157">
        <ele>450.2</ele>
        <time>2022-10-10T13:55:03Z</time>
      </trkpt>
      <trkpt lat="47.72236" lon="6.92126">
        <ele>450</ele>
        <time>2022-10-10T13:55:08Z</time>
      </trkpt>
      <trkpt lat="47.72237" lon="6.92105">
        <ele>449.8</ele>
        <time>2022-10-10T13:55:11Z</time>
      </trkpt>
      <trkpt lat="47.72237" lon="6.92085">
        <ele>449.7</ele>
        <time>2022-10-10T13:55:14Z</time>
      </trkpt>
      <trkpt lat="47.72242" lon="6.92075">
        <ele>449.7</ele>
        <time>2022-10-10T13:55:16Z</time>
      </trkpt>
      <trkpt lat="47.72251" lon="6.92074">
        <ele>449.5</ele>
        <time>2022-10-10T13:55:18Z</time>
      </trkpt>
      <trkpt lat="47.72255" lon="6.92076">
        <ele>449.5</ele>
        <time>2022-10-10T13:55:19Z</time>
      </trkpt>
      <trkpt lat="47.72267" lon="6.92085">
        <ele>449.7</ele>
        <time>2022-10-10T13:55:22Z</time>
      </trkpt>
      <trkpt lat="47.72274" lon="6.92094">
        <ele>449.9</ele>
        <time>2022-10-10T13:55:24Z</time>
      </trkpt>
      <trkpt lat="47.72298" lon="6.92112">
        <ele>450.4</ele>
        <time>2022-10-10T13:55:31Z</time>
      </trkpt>
      <trkpt lat="47.72319" lon="6.92126">
        <ele>450.9</ele>
        <time>2022-10-10T13:55:38Z</time>
      </trkpt>
      <trkpt lat="47.72334" lon="6.9213">
        <ele>451.3</ele>
        <time>2022-10-10T13:55:43Z</time>
      </trkpt>
      <trkpt lat="47.72362" lon="6.92142">
        <ele>451.9</ele>
        <time>2022-10-10T13:55:51Z</time>
      </trkpt>
      <trkpt lat="47.72391" lon="6.92158">
        <ele>452.7</ele>
        <time>2022-10-10T13:55:59Z</time>
      </trkpt>
      <trkpt lat="47.72426" lon="6.92175">
        <ele>453.6</ele>
        <time>2022-10-10T13:56:08Z</time>
      </trkpt>
      <trkpt lat="47.7245" lon="6.9218">
        <ele>454.1</ele>
        <time>2022-10-10T13:56:14Z</time>
      </trkpt>
      <trkpt lat="47.72473" lon="6.92177">
        <ele>454.6</ele>
        <time>2022-10-10T13:56:20Z</time>
      </trkpt>
      <trkpt lat="47.72482" lon="6.92174">
        <ele>454.7</ele>
        <time>2022-10-10T13:56:22Z</time>
      </trkpt>
      <trkpt lat="47.72499" lon="6.92163">
        <ele>455</ele>
        <time>2022-10-10T13:56:26Z</time>
      </trkpt>
      <trkpt lat="47.72503" lon="6.92159">
        <ele>455.1</ele>
        <time>2022-10-10T13:56:27Z</time>
      </trkpt>
      <trkpt lat="47.72518" lon="6.92142">
        <ele>455.5</ele>
        <time>2022-10-10T13:56:31Z</time>
      </trkpt>
      <trkpt lat="47.72533" lon="6.92114">
        <ele>455.7</ele>
        <time>2022-10-10T13:56:36Z</time>
      </trkpt>
      <trkpt lat="47.72541" lon="6.92106">
        <ele>455.7</ele>
        <time>2022-10-10T13:56:38Z</time>
      </trkpt>
      <trkpt lat="47.72557" lon="6.92093">
        <ele>455.9</ele>
        <time>2022-10-10T13:56:42Z</time>
      </trkpt>
      <trkpt lat="47.72565" lon="6.9209">
        <ele>456</ele>
        <time>2022-10-10T13:56:44Z</time>
      </trkpt>
      <trkpt lat="47.72588" lon="6.92093">
        <ele>456.3</ele>
        <time>2022-10-10T13:56:49Z</time>
      </trkpt>
      <trkpt lat="47.72619" lon="6.9209">
        <ele>456.9</ele>
        <time>2022-10-10T13:56:56Z</time>
      </trkpt>
      <trkpt lat="47.72627" lon="6.92086">
        <ele>457.1</ele>
        <time>2022-10-10T13:56:58Z</time>
      </trkpt>
      <trkpt lat="47.72642" lon="6.92074">
        <ele>457.5</ele>
        <time>2022-10-10T13:57:02Z</time>
      </trkpt>
      <trkpt lat="47.72673" lon="6.92036">
        <ele>458.4</ele>
        <time>2022-10-10T13:57:12Z</time>
      </trkpt>
      <trkpt lat="47.72691" lon="6.92008">
        <ele>458.9</ele>
        <time>2022-10-10T13:57:19Z</time>
      </trkpt>
      <trkpt lat="47.72702" lon="6.91976">
        <ele>459.3</ele>
        <time>2022-10-10T13:57:25Z</time>
      </trkpt>
      <trkpt lat="47.72704" lon="6.91971">
        <ele>459.3</ele>
        <time>2022-10-10T13:57:26Z</time>
      </trkpt>
      <trkpt lat="47.72713" lon="6.91957">
        <ele>459.5</ele>
        <time>2022-10-10T13:57:29Z</time>
      </trkpt>
      <trkpt lat="47.7272" lon="6.91951">
        <ele>459.8</ele>
        <time>2022-10-10T13:57:31Z</time>
      </trkpt>
      <trkpt lat="47.7274" lon="6.91946">
        <ele>460.2</ele>
        <time>2022-10-10T13:57:36Z</time>
      </trkpt>
      <trkpt lat="47.72779" lon="6.91936">
        <ele>461</ele>
        <time>2022-10-10T13:57:46Z</time>
      </trkpt>
      <trkpt lat="47.72799" lon="6.91936">
        <ele>461.5</ele>
        <time>2022-10-10T13:57:51Z</time>
      </trkpt>
      <trkpt lat="47.72827" lon="6.91941">
        <ele>462.4</ele>
        <time>2022-10-10T13:57:58Z</time>
      </trkpt>
      <trkpt lat="47.72846" lon="6.91934">
        <ele>463.1</ele>
        <time>2022-10-10T13:58:03Z</time>
      </trkpt>
      <trkpt lat="47.72874" lon="6.91912">
        <ele>464.1</ele>
        <time>2022-10-10T13:58:11Z</time>
      </trkpt>
      <trkpt lat="47.72878" lon="6.91909">
        <ele>464.3</ele>
        <time>2022-10-10T13:58:12Z</time>
      </trkpt>
      <trkpt lat="47.72891" lon="6.91899">
        <ele>464.7</ele>
        <time>2022-10-10T13:58:16Z</time>
      </trkpt>
      <trkpt lat="47.72918" lon="6.91883">
        <ele>465.4</ele>
        <time>2022-10-10T13:58:24Z</time>
      </trkpt>
      <trkpt lat="47.72947" lon="6.9187">
        <ele>466.2</ele>
        <time>2022-10-10T13:58:32Z</time>
      </trkpt>
      <trkpt lat="47.72979" lon="6.91857">
        <ele>467.2</ele>
        <time>2022-10-10T13:58:40Z</time>
      </trkpt>
      <trkpt lat="47.7301" lon="6.91832">
        <ele>467.9</ele>
        <time>2022-10-10T13:58:49Z</time>
      </trkpt>
      <trkpt lat="47.73034" lon="6.91812">
        <ele>468.5</ele>
        <time>2022-10-10T13:58:56Z</time>
      </trkpt>
      <trkpt lat="47.73057" lon="6.91797">
        <ele>469.3</ele>
        <time>2022-10-10T13:59:03Z</time>
      </trkpt>
      <trkpt lat="47.73083" lon="6.91778">
        <ele>470.3</ele>
        <time>2022-10-10T13:59:11Z</time>
      </trkpt>
      <trkpt lat="47.73114" lon="6.9176">
        <ele>471.2</ele>
        <time>2022-10-10T13:59:20Z</time>
      </trkpt>
      <trkpt lat="47.73141" lon="6.91738">
        <ele>472</ele>
        <time>2022-10-10T13:59:28Z</time>
      </trkpt>
      <trkpt lat="47.73162" lon="6.91709">
        <ele>473.1</ele>
        <time>2022-10-10T13:59:36Z</time>
      </trkpt>
      <trkpt lat="47.73179" lon="6.91687">
        <ele>473.9</ele>
        <time>2022-10-10T13:59:42Z</time>
      </trkpt>
      <trkpt lat="47.732" lon="6.91667">
        <ele>475</ele>
        <time>2022-10-10T13:59:49Z</time>
      </trkpt>
      <trkpt lat="47.73229" lon="6.91661">
        <ele>476.5</ele>
        <time>2022-10-10T13:59:57Z</time>
      </trkpt>
      <trkpt lat="47.73252" lon="6.91665">
        <ele>477.7</ele>
        <time>2022-10-10T14:00:04Z</time>
      </trkpt>
      <trkpt lat="47.73272" lon="6.91669">
        <ele>478.6</ele>
        <time>2022-10-10T14:00:10Z</time>
      </trkpt>
      <trkpt lat="47.73298" lon="6.91675">
        <ele>479.5</ele>
        <time>2022-10-10T14:00:17Z</time>
      </trkpt>
      <trkpt lat="47.73323" lon="6.91679">
        <ele>480.3</ele>
        <time>2022-10-10T14:00:24Z</time>
      </trkpt>
      <trkpt lat="47.73349" lon="6.91675">
        <ele>481.2</ele>
        <time>2022-10-10T14:00:31Z</time>
      </trkpt>
      <trkpt lat="47.73368" lon="6.91661">
        <ele>481.8</ele>
        <time>2022-10-10T14:00:37Z</time>
      </trkpt>
      <trkpt lat="47.73383" lon="6.91638">
        <ele>482.4</ele>
        <time>2022-10-10T14:00:43Z</time>
      </trkpt>
      <trkpt lat="47.73401" lon="6.91613">
        <ele>483.2</ele>
        <time>2022-10-10T14:00:49Z</time>
      </trkpt>
      <trkpt lat="47.73425" lon="6.9159">
        <ele>484.2</ele>
        <time>2022-10-10T14:00:56Z</time>
      </trkpt>
      <trkpt lat="47.73453" lon="6.9157">
        <ele>485.4</ele>
        <time>2022-10-10T14:01:04Z</time>
      </trkpt>
      <trkpt lat="47.73483" lon="6.91551">
        <ele>486.6</ele>
        <time>2022-10-10T14:01:12Z</time>
      </trkpt>
      <trkpt lat="47.73511" lon="6.9153">
        <ele>487.9</ele>
        <time>2022-10-10T14:01:20Z</time>
      </trkpt>
      <trkpt lat="47.73529" lon="6.91515">
        <ele>488.7</ele>
        <time>2022-10-10T14:01:26Z</time>
      </trkpt>
      <trkpt lat="47.7355" lon="6.91502">
        <ele>489.6</ele>
        <time>2022-10-10T14:01:32Z</time>
      </trkpt>
      <trkpt lat="47.73569" lon="6.91488">
        <ele>490.2</ele>
        <time>2022-10-10T14:01:38Z</time>
      </trkpt>
      <trkpt lat="47.73584" lon="6.91476">
        <ele>490.6</ele>
        <time>2022-10-10T14:01:42Z</time>
      </trkpt>
      <trkpt lat="47.73594" lon="6.91465">
        <ele>490.9</ele>
        <time>2022-10-10T14:01:45Z</time>
      </trkpt>
      <trkpt lat="47.73625" lon="6.9143">
        <ele>491.5</ele>
        <time>2022-10-10T14:01:54Z</time>
      </trkpt>
      <trkpt lat="47.73639" lon="6.91414">
        <ele>491.8</ele>
        <time>2022-10-10T14:01:58Z</time>
      </trkpt>
      <trkpt lat="47.73651" lon="6.91406">
        <ele>492.2</ele>
        <time>2022-10-10T14:02:01Z</time>
      </trkpt>
      <trkpt lat="47.73683" lon="6.91395">
        <ele>493.3</ele>
        <time>2022-10-10T14:02:09Z</time>
      </trkpt>
      <trkpt lat="47.73697" lon="6.9139">
        <ele>493.9</ele>
        <time>2022-10-10T14:02:13Z</time>
      </trkpt>
      <trkpt lat="47.73701" lon="6.91389">
        <ele>494.1</ele>
        <time>2022-10-10T14:02:14Z</time>
      </trkpt>
      <trkpt lat="47.73712" lon="6.91384">
        <ele>494.7</ele>
        <time>2022-10-10T14:02:17Z</time>
      </trkpt>
      <trkpt lat="47.73719" lon="6.91379">
        <ele>495.2</ele>
        <time>2022-10-10T14:02:19Z</time>
      </trkpt>
      <trkpt lat="47.73742" lon="6.91363">
        <ele>496</ele>
        <time>2022-10-10T14:02:26Z</time>
      </trkpt>
      <trkpt lat="47.73769" lon="6.91347">
        <ele>496.8</ele>
        <time>2022-10-10T14:02:33Z</time>
      </trkpt>
      <trkpt lat="47.73793" lon="6.91335">
        <ele>498</ele>
        <time>2022-10-10T14:02:40Z</time>
      </trkpt>
      <trkpt lat="47.73813" lon="6.9132">
        <ele>499.1</ele>
        <time>2022-10-10T14:02:46Z</time>
      </trkpt>
      <trkpt lat="47.73836" lon="6.91295">
        <ele>500.9</ele>
        <time>2022-10-10T14:02:53Z</time>
      </trkpt>
      <trkpt lat="47.73854" lon="6.91269">
        <ele>502.6</ele>
        <time>2022-10-10T14:03:00Z</time>
      </trkpt>
      <trkpt lat="47.73877" lon="6.91236">
        <ele>504.6</ele>
        <time>2022-10-10T14:03:09Z</time>
      </trkpt>
      <trkpt lat="47.73892" lon="6.91217">
        <ele>505.6</ele>
        <time>2022-10-10T14:03:14Z</time>
      </trkpt>
      <trkpt lat="47.73904" lon="6.91199">
        <ele>506.4</ele>
        <time>2022-10-10T14:03:19Z</time>
      </trkpt>
      <trkpt lat="47.73924" lon="6.91175">
        <ele>507.5</ele>
        <time>2022-10-10T14:03:26Z</time>
      </trkpt>
      <trkpt lat="47.73942" lon="6.91157">
        <ele>508.3</ele>
        <time>2022-10-10T14:03:31Z</time>
      </trkpt>
      <trkpt lat="47.73957" lon="6.91144">
        <ele>509</ele>
        <time>2022-10-10T14:03:36Z</time>
      </trkpt>
      <trkpt lat="47.73973" lon="6.91133">
        <ele>509.6</ele>
        <time>2022-10-10T14:03:41Z</time>
      </trkpt>
      <trkpt lat="47.73996" lon="6.9112">
        <ele>510.3</ele>
        <time>2022-10-10T14:03:47Z</time>
      </trkpt>
      <trkpt lat="47.74014" lon="6.91111">
        <ele>510.8</ele>
        <time>2022-10-10T14:03:52Z</time>
      </trkpt>
      <trkpt lat="47.74033" lon="6.91104">
        <ele>511.3</ele>
        <time>2022-10-10T14:03:57Z</time>
      </trkpt>
      <trkpt lat="47.74056" lon="6.91094">
        <ele>511.8</ele>
        <time>2022-10-10T14:04:02Z</time>
      </trkpt>
      <trkpt lat="47.74087" lon="6.91083">
        <ele>512.5</ele>
        <time>2022-10-10T14:04:09Z</time>
      </trkpt>
      <trkpt lat="47.74104" lon="6.91077">
        <ele>512.9</ele>
        <time>2022-10-10T14:04:13Z</time>
      </trkpt>
      <trkpt lat="47.74123" lon="6.91071">
        <ele>513.3</ele>
        <time>2022-10-10T14:04:18Z</time>
      </trkpt>
      <trkpt lat="47.74142" lon="6.91065">
        <ele>513.8</ele>
        <time>2022-10-10T14:04:24Z</time>
      </trkpt>
      <trkpt lat="47.74169" lon="6.91055">
        <ele>514.1</ele>
        <time>2022-10-10T14:04:31Z</time>
      </trkpt>
      <trkpt lat="47.74187" lon="6.9105">
        <ele>514.6</ele>
        <time>2022-10-10T14:04:36Z</time>
      </trkpt>
      <trkpt lat="47.74207" lon="6.91044">
        <ele>515.2</ele>
        <time>2022-10-10T14:04:42Z</time>
      </trkpt>
      <trkpt lat="47.74225" lon="6.91041">
        <ele>515.8</ele>
        <time>2022-10-10T14:04:48Z</time>
      </trkpt>
      <trkpt lat="47.74243" lon="6.91034">
        <ele>516.2</ele>
        <time>2022-10-10T14:04:53Z</time>
      </trkpt>
      <trkpt lat="47.74268" lon="6.91028">
        <ele>517</ele>
        <time>2022-10-10T14:05:00Z</time>
      </trkpt>
      <trkpt lat="47.74297" lon="6.91025">
        <ele>518.1</ele>
        <time>2022-10-10T14:05:07Z</time>
      </trkpt>
      <trkpt lat="47.74325" lon="6.91028">
        <ele>519.2</ele>
        <time>2022-10-10T14:05:14Z</time>
      </trkpt>
      <trkpt lat="47.74352" lon="6.91033">
        <ele>520.4</ele>
        <time>2022-10-10T14:05:21Z</time>
      </trkpt>
      <trkpt lat="47.74378" lon="6.91035">
        <ele>521.7</ele>
        <time>2022-10-10T14:05:28Z</time>
      </trkpt>
      <trkpt lat="47.74395" lon="6.91038">
        <ele>522.7</ele>
        <time>2022-10-10T14:05:33Z</time>
      </trkpt>
      <trkpt lat="47.74419" lon="6.91035">
        <ele>523.9</ele>
        <time>2022-10-10T14:05:39Z</time>
      </trkpt>
      <trkpt lat="47.74437" lon="6.9103">
        <ele>524.9</ele>
        <time>2022-10-10T14:05:44Z</time>
      </trkpt>
      <trkpt lat="47.74455" lon="6.91024">
        <ele>525.7</ele>
        <time>2022-10-10T14:05:49Z</time>
      </trkpt>
      <trkpt lat="47.74482" lon="6.91009">
        <ele>527</ele>
        <time>2022-10-10T14:05:56Z</time>
      </trkpt>
      <trkpt lat="47.74506" lon="6.90993">
        <ele>528.3</ele>
        <time>2022-10-10T14:06:02Z</time>
      </trkpt>
      <trkpt lat="47.74528" lon="6.90991">
        <ele>529.4</ele>
        <time>2022-10-10T14:06:08Z</time>
      </trkpt>
      <trkpt lat="47.74549" lon="6.91004">
        <ele>530.7</ele>
        <time>2022-10-10T14:06:14Z</time>
      </trkpt>
      <trkpt lat="47.74569" lon="6.91026">
        <ele>532.2</ele>
        <time>2022-10-10T14:06:21Z</time>
      </trkpt>
      <trkpt lat="47.74587" lon="6.91045">
        <ele>533.7</ele>
        <time>2022-10-10T14:06:28Z</time>
      </trkpt>
      <trkpt lat="47.74606" lon="6.91065">
        <ele>534.5</ele>
        <time>2022-10-10T14:06:35Z</time>
      </trkpt>
      <trkpt lat="47.74627" lon="6.91088">
        <ele>536.4</ele>
        <time>2022-10-10T14:06:43Z</time>
      </trkpt>
      <trkpt lat="47.74642" lon="6.91102">
        <ele>537.9</ele>
        <time>2022-10-10T14:06:49Z</time>
      </trkpt>
      <trkpt lat="47.74659" lon="6.91122">
        <ele>539.7</ele>
        <time>2022-10-10T14:06:56Z</time>
      </trkpt>
      <trkpt lat="47.74682" lon="6.91147">
        <ele>541.6</ele>
        <time>2022-10-10T14:07:04Z</time>
      </trkpt>
      <trkpt lat="47.74697" lon="6.91173">
        <ele>543.1</ele>
        <time>2022-10-10T14:07:11Z</time>
      </trkpt>
      <trkpt lat="47.74712" lon="6.91206">
        <ele>544.6</ele>
        <time>2022-10-10T14:07:19Z</time>
      </trkpt>
      <trkpt lat="47.74719" lon="6.9123">
        <ele>545.4</ele>
        <time>2022-10-10T14:07:25Z</time>
      </trkpt>
      <trkpt lat="47.74732" lon="6.91257">
        <ele>545.9</ele>
        <time>2022-10-10T14:07:31Z</time>
      </trkpt>
      <trkpt lat="47.74745" lon="6.91282">
        <ele>546.5</ele>
        <time>2022-10-10T14:07:37Z</time>
      </trkpt>
      <trkpt lat="47.74756" lon="6.91306">
        <ele>546.9</ele>
        <time>2022-10-10T14:07:43Z</time>
      </trkpt>
      <trkpt lat="47.74771" lon="6.91336">
        <ele>547.4</ele>
        <time>2022-10-10T14:07:50Z</time>
      </trkpt>
      <trkpt lat="47.74793" lon="6.91374">
        <ele>548.1</ele>
        <time>2022-10-10T14:07:59Z</time>
      </trkpt>
      <trkpt lat="47.7481" lon="6.91404">
        <ele>548.7</ele>
        <time>2022-10-10T14:08:06Z</time>
      </trkpt>
      <trkpt lat="47.74833" lon="6.91431">
        <ele>549.6</ele>
        <time>2022-10-10T14:08:13Z</time>
      </trkpt>
      <trkpt lat="47.74857" lon="6.91444">
        <ele>550.5</ele>
        <time>2022-10-10T14:08:20Z</time>
      </trkpt>
      <trkpt lat="47.74891" lon="6.91456">
        <ele>552.5</ele>
        <time>2022-10-10T14:08:30Z</time>
      </trkpt>
      <trkpt lat="47.74926" lon="6.91466">
        <ele>554.8</ele>
        <time>2022-10-10T14:08:40Z</time>
      </trkpt>
      <trkpt lat="47.74954" lon="6.91464">
        <ele>556.6</ele>
        <time>2022-10-10T14:08:48Z</time>
      </trkpt>
      <trkpt lat="47.74981" lon="6.91455">
        <ele>558.3</ele>
        <time>2022-10-10T14:08:56Z</time>
      </trkpt>
      <trkpt lat="47.74999" lon="6.9145">
        <ele>559.6</ele>
        <time>2022-10-10T14:09:02Z</time>
      </trkpt>
      <trkpt lat="47.75021" lon="6.91443">
        <ele>561.2</ele>
        <time>2022-10-10T14:09:09Z</time>
      </trkpt>
      <trkpt lat="47.75043" lon="6.91434">
        <ele>562.7</ele>
        <time>2022-10-10T14:09:16Z</time>
      </trkpt>
      <trkpt lat="47.75063" lon="6.91425">
        <ele>563.9</ele>
        <time>2022-10-10T14:09:22Z</time>
      </trkpt>
      <trkpt lat="47.75097" lon="6.91408">
        <ele>565.4</ele>
        <time>2022-10-10T14:09:31Z</time>
      </trkpt>
      <trkpt lat="47.7513" lon="6.91389">
        <ele>566.8</ele>
        <time>2022-10-10T14:09:41Z</time>
      </trkpt>
      <trkpt lat="47.75158" lon="6.91366">
        <ele>568.4</ele>
        <time>2022-10-10T14:09:49Z</time>
      </trkpt>
      <trkpt lat="47.75187" lon="6.91337">
        <ele>570.1</ele>
        <time>2022-10-10T14:09:58Z</time>
      </trkpt>
      <trkpt lat="47.75225" lon="6.91302">
        <ele>572.1</ele>
        <time>2022-10-10T14:10:10Z</time>
      </trkpt>
      <trkpt lat="47.75246" lon="6.91287">
        <ele>573.5</ele>
        <time>2022-10-10T14:10:17Z</time>
      </trkpt>
      <trkpt lat="47.75275" lon="6.91267">
        <ele>576.1</ele>
        <time>2022-10-10T14:10:26Z</time>
      </trkpt>
      <trkpt lat="47.75298" lon="6.91254">
        <ele>577.7</ele>
        <time>2022-10-10T14:10:33Z</time>
      </trkpt>
      <trkpt lat="47.75326" lon="6.91248">
        <ele>578.8</ele>
        <time>2022-10-10T14:10:41Z</time>
      </trkpt>
      <trkpt lat="47.75358" lon="6.91248">
        <ele>580.9</ele>
        <time>2022-10-10T14:10:51Z</time>
      </trkpt>
      <trkpt lat="47.75386" lon="6.91248">
        <ele>583.1</ele>
        <time>2022-10-10T14:11:00Z</time>
      </trkpt>
      <trkpt lat="47.75416" lon="6.91246">
        <ele>585.5</ele>
        <time>2022-10-10T14:11:09Z</time>
      </trkpt>
      <trkpt lat="47.75441" lon="6.91245">
        <ele>587.5</ele>
        <time>2022-10-10T14:11:17Z</time>
      </trkpt>
      <trkpt lat="47.75456" lon="6.91244">
        <ele>588.8</ele>
        <time>2022-10-10T14:11:22Z</time>
      </trkpt>
      <trkpt lat="47.75472" lon="6.91245">
        <ele>590.4</ele>
        <time>2022-10-10T14:11:28Z</time>
      </trkpt>
      <trkpt lat="47.75492" lon="6.91246">
        <ele>591.8</ele>
        <time>2022-10-10T14:11:36Z</time>
      </trkpt>
      <trkpt lat="47.75495" lon="6.91252">
        <ele>593.3</ele>
        <time>2022-10-10T14:11:38Z</time>
      </trkpt>
      <trkpt lat="47.75495" lon="6.9126">
        <ele>594</ele>
        <time>2022-10-10T14:11:40Z</time>
      </trkpt>
      <trkpt lat="47.75494" lon="6.91266">
        <ele>594.5</ele>
        <time>2022-10-10T14:11:42Z</time>
      </trkpt>
      <trkpt lat="47.75492" lon="6.91272">
        <ele>595</ele>
        <time>2022-10-10T14:11:44Z</time>
      </trkpt>
      <trkpt lat="47.75483" lon="6.9128">
        <ele>595.9</ele>
        <time>2022-10-10T14:11:48Z</time>
      </trkpt>
      <trkpt lat="47.75472" lon="6.91292">
        <ele>597</ele>
        <time>2022-10-10T14:11:54Z</time>
      </trkpt>
      <trkpt lat="47.75461" lon="6.913">
        <ele>597.8</ele>
        <time>2022-10-10T14:11:58Z</time>
      </trkpt>
      <trkpt lat="47.75451" lon="6.9131">
        <ele>598.6</ele>
        <time>2022-10-10T14:12:03Z</time>
      </trkpt>
      <trkpt lat="47.75439" lon="6.91322">
        <ele>599.6</ele>
        <time>2022-10-10T14:12:08Z</time>
      </trkpt>
      <trkpt lat="47.7543" lon="6.91331">
        <ele>600.4</ele>
        <time>2022-10-10T14:12:12Z</time>
      </trkpt>
      <trkpt lat="47.75417" lon="6.91343">
        <ele>601.7</ele>
        <time>2022-10-10T14:12:18Z</time>
      </trkpt>
      <trkpt lat="47.75405" lon="6.91356">
        <ele>602.9</ele>
        <time>2022-10-10T14:12:23Z</time>
      </trkpt>
      <trkpt lat="47.75389" lon="6.9137">
        <ele>604.2</ele>
        <time>2022-10-10T14:12:29Z</time>
      </trkpt>
      <trkpt lat="47.75374" lon="6.91386">
        <ele>605.6</ele>
        <time>2022-10-10T14:12:35Z</time>
      </trkpt>
      <trkpt lat="47.75362" lon="6.91395">
        <ele>606.6</ele>
        <time>2022-10-10T14:12:40Z</time>
      </trkpt>
      <trkpt lat="47.75356" lon="6.91409">
        <ele>607.6</ele>
        <time>2022-10-10T14:12:44Z</time>
      </trkpt>
      <trkpt lat="47.75357" lon="6.91422">
        <ele>608.8</ele>
        <time>2022-10-10T14:12:47Z</time>
      </trkpt>
      <trkpt lat="47.75361" lon="6.91427">
        <ele>609.4</ele>
        <time>2022-10-10T14:12:49Z</time>
      </trkpt>
      <trkpt lat="47.75371" lon="6.91424">
        <ele>610.3</ele>
        <time>2022-10-10T14:12:53Z</time>
      </trkpt>
      <trkpt lat="47.75392" lon="6.91403">
        <ele>612.3</ele>
        <time>2022-10-10T14:13:01Z</time>
      </trkpt>
      <trkpt lat="47.75413" lon="6.91392">
        <ele>613.8</ele>
        <time>2022-10-10T14:13:08Z</time>
      </trkpt>
      <trkpt lat="47.75433" lon="6.91382">
        <ele>615.2</ele>
        <time>2022-10-10T14:13:15Z</time>
      </trkpt>
      <trkpt lat="47.75454" lon="6.91373">
        <ele>616.7</ele>
        <time>2022-10-10T14:13:23Z</time>
      </trkpt>
      <trkpt lat="47.75472" lon="6.91366">
        <ele>618.2</ele>
        <time>2022-10-10T14:13:30Z</time>
      </trkpt>
      <trkpt lat="47.75485" lon="6.91358">
        <ele>619.3</ele>
        <time>2022-10-10T14:13:35Z</time>
      </trkpt>
      <trkpt lat="47.75503" lon="6.91351">
        <ele>620.8</ele>
        <time>2022-10-10T14:13:42Z</time>
      </trkpt>
      <trkpt lat="47.75516" lon="6.91345">
        <ele>621.9</ele>
        <time>2022-10-10T14:13:47Z</time>
      </trkpt>
      <trkpt lat="47.7553" lon="6.91338">
        <ele>623.1</ele>
        <time>2022-10-10T14:13:53Z</time>
      </trkpt>
      <trkpt lat="47.75536" lon="6.91334">
        <ele>623.6</ele>
        <time>2022-10-10T14:13:56Z</time>
      </trkpt>
      <trkpt lat="47.75542" lon="6.91331">
        <ele>624</ele>
        <time>2022-10-10T14:13:58Z</time>
      </trkpt>
      <trkpt lat="47.7555" lon="6.91327">
        <ele>624.6</ele>
        <time>2022-10-10T14:14:00Z</time>
      </trkpt>
      <trkpt lat="47.75563" lon="6.9132">
        <ele>625.6</ele>
        <time>2022-10-10T14:14:05Z</time>
      </trkpt>
      <trkpt lat="47.75581" lon="6.91314">
        <ele>626.8</ele>
        <time>2022-10-10T14:14:11Z</time>
      </trkpt>
      <trkpt lat="47.75599" lon="6.91306">
        <ele>628.1</ele>
        <time>2022-10-10T14:14:18Z</time>
      </trkpt>
      <trkpt lat="47.75615" lon="6.91299">
        <ele>629.1</ele>
        <time>2022-10-10T14:14:23Z</time>
      </trkpt>
      <trkpt lat="47.75629" lon="6.91294">
        <ele>630</ele>
        <time>2022-10-10T14:14:28Z</time>
      </trkpt>
      <trkpt lat="47.75647" lon="6.91295">
        <ele>631.1</ele>
        <time>2022-10-10T14:14:34Z</time>
      </trkpt>
      <trkpt lat="47.75661" lon="6.91294">
        <ele>632</ele>
        <time>2022-10-10T14:14:39Z</time>
      </trkpt>
      <trkpt lat="47.75676" lon="6.91294">
        <ele>633.1</ele>
        <time>2022-10-10T14:14:44Z</time>
      </trkpt>
      <trkpt lat="47.75691" lon="6.91296">
        <ele>634.1</ele>
        <time>2022-10-10T14:14:49Z</time>
      </trkpt>
      <trkpt lat="47.75703" lon="6.91298">
        <ele>634.9</ele>
        <time>2022-10-10T14:14:53Z</time>
      </trkpt>
      <trkpt lat="47.75719" lon="6.913">
        <ele>636.1</ele>
        <time>2022-10-10T14:14:58Z</time>
      </trkpt>
      <trkpt lat="47.75737" lon="6.91305">
        <ele>637.5</ele>
        <time>2022-10-10T14:15:05Z</time>
      </trkpt>
      <trkpt lat="47.75761" lon="6.91311">
        <ele>639.1</ele>
        <time>2022-10-10T14:15:13Z</time>
      </trkpt>
      <trkpt lat="47.75778" lon="6.91317">
        <ele>640.2</ele>
        <time>2022-10-10T14:15:18Z</time>
      </trkpt>
      <trkpt lat="47.75794" lon="6.91324">
        <ele>641.3</ele>
        <time>2022-10-10T14:15:24Z</time>
      </trkpt>
      <trkpt lat="47.75812" lon="6.91331">
        <ele>642.5</ele>
        <time>2022-10-10T14:15:32Z</time>
      </trkpt>
      <trkpt lat="47.75812" lon="6.91331">
        <ele>642.5</ele>
        <time>2022-10-10T14:15:34Z</time>
      </trkpt>
      <trkpt lat="47.75808" lon="6.9133">
        <ele>642.2</ele>
        <time>2022-10-10T14:16:23Z</time>
      </trkpt>
      <trkpt lat="47.75793" lon="6.9132">
        <ele>641.1</ele>
        <time>2022-10-10T14:16:28Z</time>
      </trkpt>
      <trkpt lat="47.75771" lon="6.9131">
        <ele>639.6</ele>
        <time>2022-10-10T14:16:35Z</time>
      </trkpt>
      <trkpt lat="47.75767" lon="6.91308">
        <ele>639.4</ele>
        <time>2022-10-10T14:16:38Z</time>
      </trkpt>
      <trkpt lat="47.75757" lon="6.91307">
        <ele>638.7</ele>
        <time>2022-10-10T14:19:39Z</time>
      </trkpt>
      <trkpt lat="47.75751" lon="6.91304">
        <ele>638.4</ele>
        <time>2022-10-10T14:19:42Z</time>
      </trkpt>
      <trkpt lat="47.75737" lon="6.913">
        <ele>637.3</ele>
        <time>2022-10-10T14:19:47Z</time>
      </trkpt>
      <trkpt lat="47.75721" lon="6.91296">
        <ele>636.2</ele>
        <time>2022-10-10T14:19:52Z</time>
      </trkpt>
      <trkpt lat="47.75702" lon="6.91292">
        <ele>634.8</ele>
        <time>2022-10-10T14:19:57Z</time>
      </trkpt>
      <trkpt lat="47.75689" lon="6.9129">
        <ele>633.9</ele>
        <time>2022-10-10T14:20:01Z</time>
      </trkpt>
      <trkpt lat="47.75675" lon="6.91288">
        <ele>632.9</ele>
        <time>2022-10-10T14:20:05Z</time>
      </trkpt>
      <trkpt lat="47.75663" lon="6.91288">
        <ele>632.1</ele>
        <time>2022-10-10T14:20:09Z</time>
      </trkpt>
      <trkpt lat="47.7564" lon="6.9129">
        <ele>630.7</ele>
        <time>2022-10-10T14:20:14Z</time>
      </trkpt>
      <trkpt lat="47.75628" lon="6.91294">
        <ele>629.9</ele>
        <time>2022-10-10T14:20:16Z</time>
      </trkpt>
      <trkpt lat="47.75611" lon="6.91299">
        <ele>628.9</ele>
        <time>2022-10-10T14:20:19Z</time>
      </trkpt>
      <trkpt lat="47.75596" lon="6.91303">
        <ele>627.9</ele>
        <time>2022-10-10T14:20:22Z</time>
      </trkpt>
      <trkpt lat="47.75585" lon="6.91309">
        <ele>627.1</ele>
        <time>2022-10-10T14:20:24Z</time>
      </trkpt>
      <trkpt lat="47.75572" lon="6.91315">
        <ele>626.2</ele>
        <time>2022-10-10T14:20:26Z</time>
      </trkpt>
      <trkpt lat="47.75551" lon="6.91325">
        <ele>624.7</ele>
        <time>2022-10-10T14:20:29Z</time>
      </trkpt>
      <trkpt lat="47.75516" lon="6.91343">
        <ele>622</ele>
        <time>2022-10-10T14:20:34Z</time>
      </trkpt>
      <trkpt lat="47.7547" lon="6.91365">
        <ele>618.2</ele>
        <time>2022-10-10T14:20:40Z</time>
      </trkpt>
      <trkpt lat="47.75427" lon="6.91386">
        <ele>614.9</ele>
        <time>2022-10-10T14:20:46Z</time>
      </trkpt>
      <trkpt lat="47.75397" lon="6.91403">
        <ele>612.8</ele>
        <time>2022-10-10T14:20:51Z</time>
      </trkpt>
      <trkpt lat="47.75391" lon="6.91407">
        <ele>612.3</ele>
        <time>2022-10-10T14:20:52Z</time>
      </trkpt>
      <trkpt lat="47.75369" lon="6.91427">
        <ele>610.4</ele>
        <time>2022-10-10T14:20:56Z</time>
      </trkpt>
      <trkpt lat="47.75359" lon="6.91429">
        <ele>609.5</ele>
        <time>2022-10-10T14:20:58Z</time>
      </trkpt>
      <trkpt lat="47.75355" lon="6.91427">
        <ele>609.1</ele>
        <time>2022-10-10T14:20:59Z</time>
      </trkpt>
      <trkpt lat="47.75353" lon="6.91422">
        <ele>608.6</ele>
        <time>2022-10-10T14:21:00Z</time>
      </trkpt>
      <trkpt lat="47.75353" lon="6.91408">
        <ele>607.8</ele>
        <time>2022-10-10T14:21:02Z</time>
      </trkpt>
      <trkpt lat="47.75359" lon="6.91395">
        <ele>606.7</ele>
        <time>2022-10-10T14:21:04Z</time>
      </trkpt>
      <trkpt lat="47.75364" lon="6.9139">
        <ele>606.3</ele>
        <time>2022-10-10T14:21:05Z</time>
      </trkpt>
      <trkpt lat="47.75394" lon="6.91361">
        <ele>603.6</ele>
        <time>2022-10-10T14:21:11Z</time>
      </trkpt>
      <trkpt lat="47.75431" lon="6.91325">
        <ele>600.1</ele>
        <time>2022-10-10T14:21:17Z</time>
      </trkpt>
      <trkpt lat="47.75463" lon="6.91294">
        <ele>597.3</ele>
        <time>2022-10-10T14:21:22Z</time>
      </trkpt>
      <trkpt lat="47.75491" lon="6.91269">
        <ele>594.6</ele>
        <time>2022-10-10T14:21:27Z</time>
      </trkpt>
      <trkpt lat="47.75495" lon="6.91256">
        <ele>593.5</ele>
        <time>2022-10-10T14:21:29Z</time>
      </trkpt>
      <trkpt lat="47.7549" lon="6.91245">
        <ele>592.2</ele>
        <time>2022-10-10T14:21:31Z</time>
      </trkpt>
      <trkpt lat="47.75485" lon="6.91242">
        <ele>591.4</ele>
        <time>2022-10-10T14:21:32Z</time>
      </trkpt>
      <trkpt lat="47.7548" lon="6.91241">
        <ele>591.1</ele>
        <time>2022-10-10T14:21:33Z</time>
      </trkpt>
      <trkpt lat="47.75465" lon="6.91243">
        <ele>589.7</ele>
        <time>2022-10-10T14:21:35Z</time>
      </trkpt>
      <trkpt lat="47.7542" lon="6.91247">
        <ele>585.8</ele>
        <time>2022-10-10T14:21:40Z</time>
      </trkpt>
      <trkpt lat="47.7536" lon="6.9125">
        <ele>581</ele>
        <time>2022-10-10T14:21:46Z</time>
      </trkpt>
      <trkpt lat="47.75349" lon="6.9125">
        <ele>580.2</ele>
        <time>2022-10-10T14:21:47Z</time>
      </trkpt>
      <trkpt lat="47.75306" lon="6.91253">
        <ele>577.9</ele>
        <time>2022-10-10T14:21:51Z</time>
      </trkpt>
      <trkpt lat="47.75296" lon="6.91257">
        <ele>577.8</ele>
        <time>2022-10-10T14:21:52Z</time>
      </trkpt>
      <trkpt lat="47.75285" lon="6.91262">
        <ele>577</ele>
        <time>2022-10-10T14:21:53Z</time>
      </trkpt>
      <trkpt lat="47.75255" lon="6.91282">
        <ele>574.2</ele>
        <time>2022-10-10T14:21:56Z</time>
      </trkpt>
      <trkpt lat="47.75211" lon="6.91317">
        <ele>571.3</ele>
        <time>2022-10-10T14:22:01Z</time>
      </trkpt>
      <trkpt lat="47.75179" lon="6.91348">
        <ele>569.6</ele>
        <time>2022-10-10T14:22:06Z</time>
      </trkpt>
      <trkpt lat="47.75133" lon="6.9139">
        <ele>566.9</ele>
        <time>2022-10-10T14:22:14Z</time>
      </trkpt>
      <trkpt lat="47.75089" lon="6.91414">
        <ele>565.1</ele>
        <time>2022-10-10T14:22:20Z</time>
      </trkpt>
      <trkpt lat="47.75043" lon="6.91434">
        <ele>562.7</ele>
        <time>2022-10-10T14:22:26Z</time>
      </trkpt>
      <trkpt lat="47.74999" lon="6.91446">
        <ele>559.6</ele>
        <time>2022-10-10T14:22:31Z</time>
      </trkpt>
      <trkpt lat="47.74951" lon="6.91461">
        <ele>556.4</ele>
        <time>2022-10-10T14:22:36Z</time>
      </trkpt>
      <trkpt lat="47.74931" lon="6.91462">
        <ele>555.1</ele>
        <time>2022-10-10T14:22:38Z</time>
      </trkpt>
      <trkpt lat="47.74912" lon="6.91458">
        <ele>553.8</ele>
        <time>2022-10-10T14:22:40Z</time>
      </trkpt>
      <trkpt lat="47.74856" lon="6.9144">
        <ele>550.5</ele>
        <time>2022-10-10T14:22:46Z</time>
      </trkpt>
      <trkpt lat="47.74848" lon="6.91436">
        <ele>550.2</ele>
        <time>2022-10-10T14:22:47Z</time>
      </trkpt>
      <trkpt lat="47.74832" lon="6.91428">
        <ele>549.5</ele>
        <time>2022-10-10T14:22:49Z</time>
      </trkpt>
      <trkpt lat="47.74818" lon="6.91413">
        <ele>549</ele>
        <time>2022-10-10T14:22:51Z</time>
      </trkpt>
      <trkpt lat="47.74796" lon="6.91377">
        <ele>548.2</ele>
        <time>2022-10-10T14:22:55Z</time>
      </trkpt>
      <trkpt lat="47.74792" lon="6.91368">
        <ele>548</ele>
        <time>2022-10-10T14:22:56Z</time>
      </trkpt>
      <trkpt lat="47.74765" lon="6.91316">
        <ele>547.1</ele>
        <time>2022-10-10T14:23:02Z</time>
      </trkpt>
      <trkpt lat="47.74739" lon="6.9126">
        <ele>546.1</ele>
        <time>2022-10-10T14:23:09Z</time>
      </trkpt>
      <trkpt lat="47.7473" lon="6.91244">
        <ele>545.7</ele>
        <time>2022-10-10T14:23:11Z</time>
      </trkpt>
      <trkpt lat="47.74721" lon="6.91217">
        <ele>545.1</ele>
        <time>2022-10-10T14:23:14Z</time>
      </trkpt>
      <trkpt lat="47.74708" lon="6.91181">
        <ele>543.8</ele>
        <time>2022-10-10T14:23:18Z</time>
      </trkpt>
      <trkpt lat="47.74704" lon="6.91173">
        <ele>543.4</ele>
        <time>2022-10-10T14:23:19Z</time>
      </trkpt>
      <trkpt lat="47.74689" lon="6.91148">
        <ele>542</ele>
        <time>2022-10-10T14:23:22Z</time>
      </trkpt>
      <trkpt lat="47.74677" lon="6.91133">
        <ele>541</ele>
        <time>2022-10-10T14:23:24Z</time>
      </trkpt>
      <trkpt lat="47.74642" lon="6.91099">
        <ele>537.8</ele>
        <time>2022-10-10T14:23:29Z</time>
      </trkpt>
      <trkpt lat="47.74597" lon="6.91052">
        <ele>534</ele>
        <time>2022-10-10T14:23:35Z</time>
      </trkpt>
      <trkpt lat="47.74559" lon="6.9101">
        <ele>531.4</ele>
        <time>2022-10-10T14:23:40Z</time>
      </trkpt>
      <trkpt lat="47.7454" lon="6.9099">
        <ele>530</ele>
        <time>2022-10-10T14:23:43Z</time>
      </trkpt>
      <trkpt lat="47.74534" lon="6.90985">
        <ele>529.6</ele>
        <time>2022-10-10T14:23:44Z</time>
      </trkpt>
      <trkpt lat="47.74528" lon="6.90983">
        <ele>529.3</ele>
        <time>2022-10-10T14:23:45Z</time>
      </trkpt>
      <trkpt lat="47.74514" lon="6.90984">
        <ele>528.6</ele>
        <time>2022-10-10T14:23:47Z</time>
      </trkpt>
      <trkpt lat="47.7447" lon="6.91007">
        <ele>526.4</ele>
        <time>2022-10-10T14:23:53Z</time>
      </trkpt>
      <trkpt lat="47.74446" lon="6.91018">
        <ele>525.2</ele>
        <time>2022-10-10T14:23:56Z</time>
      </trkpt>
      <trkpt lat="47.74429" lon="6.91022">
        <ele>524.4</ele>
        <time>2022-10-10T14:23:58Z</time>
      </trkpt>
      <trkpt lat="47.74384" lon="6.91026">
        <ele>522</ele>
        <time>2022-10-10T14:24:03Z</time>
      </trkpt>
      <trkpt lat="47.74365" lon="6.91025">
        <ele>521.1</ele>
        <time>2022-10-10T14:24:05Z</time>
      </trkpt>
      <trkpt lat="47.74347" lon="6.91023">
        <ele>520.2</ele>
        <time>2022-10-10T14:24:07Z</time>
      </trkpt>
      <trkpt lat="47.74307" lon="6.91017">
        <ele>518.5</ele>
        <time>2022-10-10T14:24:12Z</time>
      </trkpt>
      <trkpt lat="47.74278" lon="6.91017">
        <ele>517.4</ele>
        <time>2022-10-10T14:24:16Z</time>
      </trkpt>
      <trkpt lat="47.74264" lon="6.91019">
        <ele>516.9</ele>
        <time>2022-10-10T14:24:18Z</time>
      </trkpt>
      <trkpt lat="47.74251" lon="6.91021">
        <ele>516.5</ele>
        <time>2022-10-10T14:24:20Z</time>
      </trkpt>
      <trkpt lat="47.74228" lon="6.91027">
        <ele>515.9</ele>
        <time>2022-10-10T14:24:23Z</time>
      </trkpt>
      <trkpt lat="47.74173" lon="6.91042">
        <ele>514.3</ele>
        <time>2022-10-10T14:24:30Z</time>
      </trkpt>
      <trkpt lat="47.7413" lon="6.91058">
        <ele>513.5</ele>
        <time>2022-10-10T14:24:35Z</time>
      </trkpt>
      <trkpt lat="47.74089" lon="6.91071">
        <ele>512.6</ele>
        <time>2022-10-10T14:24:40Z</time>
      </trkpt>
      <trkpt lat="47.74039" lon="6.91089">
        <ele>511.5</ele>
        <time>2022-10-10T14:24:47Z</time>
      </trkpt>
      <trkpt lat="47.74005" lon="6.91106">
        <ele>510.7</ele>
        <time>2022-10-10T14:24:53Z</time>
      </trkpt>
      <trkpt lat="47.73979" lon="6.91121">
        <ele>509.9</ele>
        <time>2022-10-10T14:24:58Z</time>
      </trkpt>
      <trkpt lat="47.73975" lon="6.91124">
        <ele>509.7</ele>
        <time>2022-10-10T14:24:59Z</time>
      </trkpt>
      <trkpt lat="47.73953" lon="6.91144">
        <ele>508.9</ele>
        <time>2022-10-10T14:25:03Z</time>
      </trkpt>
      <trkpt lat="47.73921" lon="6.91182">
        <ele>507.2</ele>
        <time>2022-10-10T14:25:09Z</time>
      </trkpt>
      <trkpt lat="47.73891" lon="6.91222">
        <ele>505.5</ele>
        <time>2022-10-10T14:25:14Z</time>
      </trkpt>
      <trkpt lat="47.73845" lon="6.91283">
        <ele>501.6</ele>
        <time>2022-10-10T14:25:21Z</time>
      </trkpt>
      <trkpt lat="47.73801" lon="6.91322">
        <ele>498.5</ele>
        <time>2022-10-10T14:25:26Z</time>
      </trkpt>
      <trkpt lat="47.73745" lon="6.91353">
        <ele>496.1</ele>
        <time>2022-10-10T14:25:32Z</time>
      </trkpt>
      <trkpt lat="47.73692" lon="6.91386">
        <ele>493.8</ele>
        <time>2022-10-10T14:25:38Z</time>
      </trkpt>
      <trkpt lat="47.73648" lon="6.91404">
        <ele>492.1</ele>
        <time>2022-10-10T14:25:43Z</time>
      </trkpt>
      <trkpt lat="47.73625" lon="6.91425">
        <ele>491.5</ele>
        <time>2022-10-10T14:25:46Z</time>
      </trkpt>
      <trkpt lat="47.73593" lon="6.91465">
        <ele>490.8</ele>
        <time>2022-10-10T14:25:51Z</time>
      </trkpt>
      <trkpt lat="47.73556" lon="6.91498">
        <ele>489.8</ele>
        <time>2022-10-10T14:25:57Z</time>
      </trkpt>
      <trkpt lat="47.7355" lon="6.91501">
        <ele>489.6</ele>
        <time>2022-10-10T14:25:58Z</time>
      </trkpt>
      <trkpt lat="47.73527" lon="6.91514">
        <ele>488.6</ele>
        <time>2022-10-10T14:26:02Z</time>
      </trkpt>
      <trkpt lat="47.73495" lon="6.91541">
        <ele>487.2</ele>
        <time>2022-10-10T14:26:07Z</time>
      </trkpt>
      <trkpt lat="47.73445" lon="6.91577">
        <ele>485</ele>
        <time>2022-10-10T14:26:14Z</time>
      </trkpt>
      <trkpt lat="47.73438" lon="6.91581">
        <ele>484.7</ele>
        <time>2022-10-10T14:26:15Z</time>
      </trkpt>
      <trkpt lat="47.73397" lon="6.91615">
        <ele>483</ele>
        <time>2022-10-10T14:26:21Z</time>
      </trkpt>
      <trkpt lat="47.73369" lon="6.91657">
        <ele>481.9</ele>
        <time>2022-10-10T14:26:26Z</time>
      </trkpt>
      <trkpt lat="47.73363" lon="6.91664">
        <ele>481.7</ele>
        <time>2022-10-10T14:26:27Z</time>
      </trkpt>
      <trkpt lat="47.7335" lon="6.91674">
        <ele>481.2</ele>
        <time>2022-10-10T14:26:29Z</time>
      </trkpt>
      <trkpt lat="47.73343" lon="6.91677">
        <ele>481</ele>
        <time>2022-10-10T14:26:30Z</time>
      </trkpt>
      <trkpt lat="47.73328" lon="6.91679">
        <ele>480.5</ele>
        <time>2022-10-10T14:26:32Z</time>
      </trkpt>
      <trkpt lat="47.73313" lon="6.91677">
        <ele>480</ele>
        <time>2022-10-10T14:26:34Z</time>
      </trkpt>
      <trkpt lat="47.73252" lon="6.91666">
        <ele>477.7</ele>
        <time>2022-10-10T14:26:42Z</time>
      </trkpt>
      <trkpt lat="47.73237" lon="6.91664">
        <ele>476.9</ele>
        <time>2022-10-10T14:26:44Z</time>
      </trkpt>
      <trkpt lat="47.7322" lon="6.91663">
        <ele>476</ele>
        <time>2022-10-10T14:26:46Z</time>
      </trkpt>
      <trkpt lat="47.73204" lon="6.91667">
        <ele>475.2</ele>
        <time>2022-10-10T14:26:48Z</time>
      </trkpt>
      <trkpt lat="47.73189" lon="6.91678">
        <ele>474.4</ele>
        <time>2022-10-10T14:26:50Z</time>
      </trkpt>
      <trkpt lat="47.73176" lon="6.91693">
        <ele>473.7</ele>
        <time>2022-10-10T14:26:52Z</time>
      </trkpt>
      <trkpt lat="47.7314" lon="6.91741">
        <ele>471.9</ele>
        <time>2022-10-10T14:26:58Z</time>
      </trkpt>
      <trkpt lat="47.73133" lon="6.91747">
        <ele>471.7</ele>
        <time>2022-10-10T14:26:59Z</time>
      </trkpt>
      <trkpt lat="47.73112" lon="6.91762">
        <ele>471.1</ele>
        <time>2022-10-10T14:27:02Z</time>
      </trkpt>
      <trkpt lat="47.73062" lon="6.91794">
        <ele>469.5</ele>
        <time>2022-10-10T14:27:09Z</time>
      </trkpt>
      <trkpt lat="47.73055" lon="6.91799">
        <ele>469.3</ele>
        <time>2022-10-10T14:27:10Z</time>
      </trkpt>
      <trkpt lat="47.73006" lon="6.91835">
        <ele>467.8</ele>
        <time>2022-10-10T14:27:17Z</time>
      </trkpt>
      <trkpt lat="47.72964" lon="6.91865">
        <ele>466.7</ele>
        <time>2022-10-10T14:27:23Z</time>
      </trkpt>
      <trkpt lat="47.72957" lon="6.91867">
        <ele>466.5</ele>
        <time>2022-10-10T14:27:24Z</time>
      </trkpt>
      <trkpt lat="47.72924" lon="6.91879">
        <ele>465.5</ele>
        <time>2022-10-10T14:27:29Z</time>
      </trkpt>
      <trkpt lat="47.72873" lon="6.91914">
        <ele>464.1</ele>
        <time>2022-10-10T14:27:37Z</time>
      </trkpt>
      <trkpt lat="47.72834" lon="6.9194">
        <ele>462.6</ele>
        <time>2022-10-10T14:27:43Z</time>
      </trkpt>
      <trkpt lat="47.72827" lon="6.91941">
        <ele>462.3</ele>
        <time>2022-10-10T14:27:44Z</time>
      </trkpt>
      <trkpt lat="47.72819" lon="6.9194">
        <ele>462</ele>
        <time>2022-10-10T14:27:45Z</time>
      </trkpt>
      <trkpt lat="47.7279" lon="6.91934">
        <ele>461.3</ele>
        <time>2022-10-10T14:27:49Z</time>
      </trkpt>
      <trkpt lat="47.72764" lon="6.91937">
        <ele>460.7</ele>
        <time>2022-10-10T14:27:53Z</time>
      </trkpt>
      <trkpt lat="47.7272" lon="6.91948">
        <ele>459.8</ele>
        <time>2022-10-10T14:27:59Z</time>
      </trkpt>
      <trkpt lat="47.72709" lon="6.91959">
        <ele>459.5</ele>
        <time>2022-10-10T14:28:01Z</time>
      </trkpt>
      <trkpt lat="47.72704" lon="6.91966">
        <ele>459.4</ele>
        <time>2022-10-10T14:28:02Z</time>
      </trkpt>
      <trkpt lat="47.72701" lon="6.91975">
        <ele>459.3</ele>
        <time>2022-10-10T14:28:03Z</time>
      </trkpt>
      <trkpt lat="47.72693" lon="6.92002">
        <ele>459</ele>
        <time>2022-10-10T14:28:06Z</time>
      </trkpt>
      <trkpt lat="47.7269" lon="6.9201">
        <ele>458.9</ele>
        <time>2022-10-10T14:28:07Z</time>
      </trkpt>
      <trkpt lat="47.72682" lon="6.92025">
        <ele>458.7</ele>
        <time>2022-10-10T14:28:09Z</time>
      </trkpt>
      <trkpt lat="47.72676" lon="6.92031">
        <ele>458.5</ele>
        <time>2022-10-10T14:28:10Z</time>
      </trkpt>
      <trkpt lat="47.72639" lon="6.92072">
        <ele>457.4</ele>
        <time>2022-10-10T14:28:17Z</time>
      </trkpt>
      <trkpt lat="47.72613" lon="6.92088">
        <ele>456.8</ele>
        <time>2022-10-10T14:28:21Z</time>
      </trkpt>
      <trkpt lat="47.72607" lon="6.9209">
        <ele>456.7</ele>
        <time>2022-10-10T14:28:22Z</time>
      </trkpt>
      <trkpt lat="47.726" lon="6.92091">
        <ele>456.6</ele>
        <time>2022-10-10T14:28:23Z</time>
      </trkpt>
      <trkpt lat="47.72587" lon="6.92089">
        <ele>456.3</ele>
        <time>2022-10-10T14:28:25Z</time>
      </trkpt>
      <trkpt lat="47.72567" lon="6.92085">
        <ele>456</ele>
        <time>2022-10-10T14:28:28Z</time>
      </trkpt>
      <trkpt lat="47.72554" lon="6.92089">
        <ele>455.9</ele>
        <time>2022-10-10T14:28:30Z</time>
      </trkpt>
      <trkpt lat="47.72527" lon="6.92116">
        <ele>455.7</ele>
        <time>2022-10-10T14:28:35Z</time>
      </trkpt>
      <trkpt lat="47.72506" lon="6.92151">
        <ele>455.2</ele>
        <time>2022-10-10T14:28:40Z</time>
      </trkpt>
      <trkpt lat="47.72496" lon="6.92161">
        <ele>455</ele>
        <time>2022-10-10T14:28:42Z</time>
      </trkpt>
      <trkpt lat="47.72484" lon="6.92168">
        <ele>454.8</ele>
        <time>2022-10-10T14:28:44Z</time>
      </trkpt>
      <trkpt lat="47.72472" lon="6.92173">
        <ele>454.6</ele>
        <time>2022-10-10T14:28:46Z</time>
      </trkpt>
      <trkpt lat="47.72454" lon="6.92175">
        <ele>454.2</ele>
        <time>2022-10-10T14:28:49Z</time>
      </trkpt>
      <trkpt lat="47.72427" lon="6.92172">
        <ele>453.7</ele>
        <time>2022-10-10T14:28:53Z</time>
      </trkpt>
      <trkpt lat="47.72421" lon="6.92169">
        <ele>453.5</ele>
        <time>2022-10-10T14:28:54Z</time>
      </trkpt>
      <trkpt lat="47.72377" lon="6.92145">
        <ele>452.2</ele>
        <time>2022-10-10T14:29:01Z</time>
      </trkpt>
      <trkpt lat="47.72332" lon="6.92127">
        <ele>451.2</ele>
        <time>2022-10-10T14:29:08Z</time>
      </trkpt>
      <trkpt lat="47.72301" lon="6.92113">
        <ele>450.4</ele>
        <time>2022-10-10T14:29:13Z</time>
      </trkpt>
      <trkpt lat="47.72276" lon="6.92093">
        <ele>449.9</ele>
        <time>2022-10-10T14:29:18Z</time>
      </trkpt>
      <trkpt lat="47.72261" lon="6.92076">
        <ele>449.6</ele>
        <time>2022-10-10T14:29:24Z</time>
      </trkpt>
      <trkpt lat="47.7226" lon="6.92075">
        <ele>449.6</ele>
        <time>2022-10-10T14:29:27Z</time>
      </trkpt>
      <trkpt lat="47.72258" lon="6.92074">
        <ele>449.6</ele>
        <time>2022-10-10T14:29:42Z</time>
      </trkpt>
      <trkpt lat="47.72246" lon="6.9207">
        <ele>449.5</ele>
        <time>2022-10-10T14:29:49Z</time>
      </trkpt>
      <trkpt lat="47.72246" lon="6.9207">
        <ele>449.4</ele>
        <time>2022-10-10T14:29:51Z</time>
      </trkpt>
      <trkpt lat="47.72244" lon="6.9207">
        <ele>449.4</ele>
        <time>2022-10-10T14:30:01Z</time>
      </trkpt>
      <trkpt lat="47.72243" lon="6.92068">
        <ele>449.4</ele>
        <time>2022-10-10T14:30:02Z</time>
      </trkpt>
      <trkpt lat="47.72233" lon="6.92056">
        <ele>449.3</ele>
        <time>2022-10-10T14:30:06Z</time>
      </trkpt>
      <trkpt lat="47.7223" lon="6.92056">
        <ele>449.2</ele>
        <time>2022-10-10T14:30:07Z</time>
      </trkpt>
      <trkpt lat="47.72226" lon="6.92063">
        <ele>448.9</ele>
        <time>2022-10-10T14:30:09Z</time>
      </trkpt>
      <trkpt lat="47.72225" lon="6.92068">
        <ele>448.9</ele>
        <time>2022-10-10T14:30:10Z</time>
      </trkpt>
      <trkpt lat="47.72228" lon="6.92082">
        <ele>449</ele>
        <time>2022-10-10T14:30:13Z</time>
      </trkpt>
      <trkpt lat="47.72233" lon="6.92112">
        <ele>449.4</ele>
        <time>2022-10-10T14:30:19Z</time>
      </trkpt>
      <trkpt lat="47.72235" lon="6.92156">
        <ele>449.6</ele>
        <time>2022-10-10T14:30:25Z</time>
      </trkpt>
      <trkpt lat="47.72242" lon="6.92237">
        <ele>450.1</ele>
        <time>2022-10-10T14:30:35Z</time>
      </trkpt>
      <trkpt lat="47.72251" lon="6.92318">
        <ele>450.1</ele>
        <time>2022-10-10T14:30:45Z</time>
      </trkpt>
      <trkpt lat="47.72252" lon="6.92326">
        <ele>450.1</ele>
        <time>2022-10-10T14:30:46Z</time>
      </trkpt>
      <trkpt lat="47.72252" lon="6.92377">
        <ele>449.9</ele>
        <time>2022-10-10T14:30:53Z</time>
      </trkpt>
      <trkpt lat="47.72253" lon="6.92402">
        <ele>450.9</ele>
        <time>2022-10-10T14:30:58Z</time>
      </trkpt>
      <trkpt lat="47.7226" lon="6.92423">
        <ele>453.1</ele>
        <time>2022-10-10T14:31:04Z</time>
      </trkpt>
      <trkpt lat="47.72267" lon="6.92451">
        <ele>455.5</ele>
        <time>2022-10-10T14:31:12Z</time>
      </trkpt>
      <trkpt lat="47.72275" lon="6.92476">
        <ele>458.4</ele>
        <time>2022-10-10T14:31:20Z</time>
      </trkpt>
      <trkpt lat="47.72281" lon="6.92489">
        <ele>460.5</ele>
        <time>2022-10-10T14:31:26Z</time>
      </trkpt>
      <trkpt lat="47.72292" lon="6.92498">
        <ele>462.9</ele>
        <time>2022-10-10T14:31:33Z</time>
      </trkpt>
      <trkpt lat="47.72297" lon="6.92505">
        <ele>464.4</ele>
        <time>2022-10-10T14:31:38Z</time>
      </trkpt>
      <trkpt lat="47.72298" lon="6.92511">
        <ele>464.9</ele>
        <time>2022-10-10T14:31:41Z</time>
      </trkpt>
      <trkpt lat="47.72299" lon="6.92513">
        <ele>464.9</ele>
        <time>2022-10-10T14:31:42Z</time>
      </trkpt>
      <trkpt lat="47.723" lon="6.92516">
        <ele>465.1</ele>
        <time>2022-10-10T14:31:45Z</time>
      </trkpt>
      <trkpt lat="47.723" lon="6.92517">
        <ele>465.2</ele>
        <time>2022-10-10T14:31:46Z</time>
      </trkpt>
      <trkpt lat="47.723" lon="6.92517">
        <ele>465.2</ele>
        <time>2022-10-10T14:31:47Z</time>
      </trkpt>
      <trkpt lat="47.72337" lon="6.92558">
        <ele>477.4</ele>
        <time>2022-10-10T14:47:54Z</time>
      </trkpt>
      <trkpt lat="47.7234" lon="6.92557">
        <ele>477.7</ele>
        <time>2022-10-10T14:47:56Z</time>
      </trkpt>
      <trkpt lat="47.72349" lon="6.92551">
        <ele>478.6</ele>
        <time>2022-10-10T14:48:03Z</time>
      </trkpt>
      <trkpt lat="47.72354" lon="6.92548">
        <ele>478.9</ele>
        <time>2022-10-10T14:48:07Z</time>
      </trkpt>
      <trkpt lat="47.72355" lon="6.92547">
        <ele>479</ele>
        <time>2022-10-10T14:48:08Z</time>
      </trkpt>
      <trkpt lat="47.72364" lon="6.9254">
        <ele>479.5</ele>
        <time>2022-10-10T14:48:14Z</time>
      </trkpt>
      <trkpt lat="47.72375" lon="6.92534">
        <ele>480.1</ele>
        <time>2022-10-10T14:48:21Z</time>
      </trkpt>
      <trkpt lat="47.72386" lon="6.92533">
        <ele>482.9</ele>
        <time>2022-10-10T14:48:28Z</time>
      </trkpt>
      <trkpt lat="47.72396" lon="6.92534">
        <ele>483.6</ele>
        <time>2022-10-10T14:48:35Z</time>
      </trkpt>
      <trkpt lat="47.724" lon="6.92535">
        <ele>484</ele>
        <time>2022-10-10T14:48:37Z</time>
      </trkpt>
      <trkpt lat="47.72403" lon="6.92536">
        <ele>484.3</ele>
        <time>2022-10-10T14:48:39Z</time>
      </trkpt>
      <trkpt lat="47.72413" lon="6.92539">
        <ele>485.8</ele>
        <time>2022-10-10T14:48:45Z</time>
      </trkpt>
      <trkpt lat="47.72421" lon="6.92542">
        <ele>487.3</ele>
        <time>2022-10-10T14:48:51Z</time>
      </trkpt>
      <trkpt lat="47.72429" lon="6.92546">
        <ele>488.7</ele>
        <time>2022-10-10T14:48:57Z</time>
      </trkpt>
      <trkpt lat="47.72433" lon="6.92547">
        <ele>489.4</ele>
        <time>2022-10-10T14:49:00Z</time>
      </trkpt>
      <trkpt lat="47.72437" lon="6.92547">
        <ele>489.9</ele>
        <time>2022-10-10T14:49:02Z</time>
      </trkpt>
      <trkpt lat="47.72438" lon="6.92548">
        <ele>490.1</ele>
        <time>2022-10-10T14:49:03Z</time>
      </trkpt>
      <trkpt lat="47.72442" lon="6.92549">
        <ele>490.7</ele>
        <time>2022-10-10T14:49:06Z</time>
      </trkpt>
      <trkpt lat="47.72447" lon="6.9255">
        <ele>491.5</ele>
        <time>2022-10-10T14:49:10Z</time>
      </trkpt>
      <trkpt lat="47.72458" lon="6.92552">
        <ele>493.1</ele>
        <time>2022-10-10T14:49:17Z</time>
      </trkpt>
      <trkpt lat="47.72467" lon="6.92555">
        <ele>494.2</ele>
        <time>2022-10-10T14:49:23Z</time>
      </trkpt>
      <trkpt lat="47.72479" lon="6.92555">
        <ele>495.2</ele>
        <time>2022-10-10T14:49:29Z</time>
      </trkpt>
      <trkpt lat="47.72489" lon="6.92557">
        <ele>496</ele>
        <time>2022-10-10T14:49:35Z</time>
      </trkpt>
      <trkpt lat="47.72505" lon="6.92566">
        <ele>497.4</ele>
        <time>2022-10-10T14:49:42Z</time>
      </trkpt>
      <trkpt lat="47.7252" lon="6.92575">
        <ele>498.6</ele>
        <time>2022-10-10T14:49:50Z</time>
      </trkpt>
      <trkpt lat="47.72527" lon="6.92579">
        <ele>499</ele>
        <time>2022-10-10T14:49:53Z</time>
      </trkpt>
      <trkpt lat="47.72529" lon="6.9258">
        <ele>499.1</ele>
        <time>2022-10-10T14:49:54Z</time>
      </trkpt>
      <trkpt lat="47.72539" lon="6.92589">
        <ele>499.7</ele>
        <time>2022-10-10T14:50:00Z</time>
      </trkpt>
      <trkpt lat="47.72548" lon="6.92599">
        <ele>500.3</ele>
        <time>2022-10-10T14:50:06Z</time>
      </trkpt>
      <trkpt lat="47.72555" lon="6.92611">
        <ele>500.9</ele>
        <time>2022-10-10T14:50:10Z</time>
      </trkpt>
      <trkpt lat="47.72563" lon="6.92628">
        <ele>501.8</ele>
        <time>2022-10-10T14:50:16Z</time>
      </trkpt>
      <trkpt lat="47.72574" lon="6.92643">
        <ele>502.7</ele>
        <time>2022-10-10T14:50:21Z</time>
      </trkpt>
      <trkpt lat="47.72584" lon="6.92663">
        <ele>504</ele>
        <time>2022-10-10T14:50:28Z</time>
      </trkpt>
      <trkpt lat="47.7259" lon="6.92677">
        <ele>505.4</ele>
        <time>2022-10-10T14:50:34Z</time>
      </trkpt>
      <trkpt lat="47.72592" lon="6.92683">
        <ele>505.9</ele>
        <time>2022-10-10T14:50:36Z</time>
      </trkpt>
      <trkpt lat="47.72593" lon="6.92687">
        <ele>506.4</ele>
        <time>2022-10-10T14:50:38Z</time>
      </trkpt>
      <trkpt lat="47.72594" lon="6.9269">
        <ele>506.6</ele>
        <time>2022-10-10T14:50:39Z</time>
      </trkpt>
      <trkpt lat="47.72598" lon="6.92701">
        <ele>507.8</ele>
        <time>2022-10-10T14:50:45Z</time>
      </trkpt>
      <trkpt lat="47.72603" lon="6.92712">
        <ele>508.7</ele>
        <time>2022-10-10T14:50:50Z</time>
      </trkpt>
      <trkpt lat="47.7261" lon="6.92724">
        <ele>509.9</ele>
        <time>2022-10-10T14:50:56Z</time>
      </trkpt>
      <trkpt lat="47.72612" lon="6.92729">
        <ele>510.3</ele>
        <time>2022-10-10T14:50:59Z</time>
      </trkpt>
      <trkpt lat="47.72614" lon="6.9273">
        <ele>510.5</ele>
        <time>2022-10-10T14:51:02Z</time>
      </trkpt>
      <trkpt lat="47.72617" lon="6.92735">
        <ele>510.9</ele>
        <time>2022-10-10T14:54:31Z</time>
      </trkpt>
      <trkpt lat="47.72619" lon="6.92742">
        <ele>511.3</ele>
        <time>2022-10-10T14:54:34Z</time>
      </trkpt>
      <trkpt lat="47.72624" lon="6.92753">
        <ele>511.9</ele>
        <time>2022-10-10T14:54:39Z</time>
      </trkpt>
      <trkpt lat="47.72634" lon="6.92773">
        <ele>512.5</ele>
        <time>2022-10-10T14:54:46Z</time>
      </trkpt>
      <trkpt lat="47.72643" lon="6.92795">
        <ele>513.3</ele>
        <time>2022-10-10T14:54:53Z</time>
      </trkpt>
      <trkpt lat="47.7265" lon="6.92816">
        <ele>514.4</ele>
        <time>2022-10-10T14:55:00Z</time>
      </trkpt>
      <trkpt lat="47.72657" lon="6.92832">
        <ele>515.5</ele>
        <time>2022-10-10T14:55:06Z</time>
      </trkpt>
      <trkpt lat="47.72664" lon="6.9285">
        <ele>516.8</ele>
        <time>2022-10-10T14:55:13Z</time>
      </trkpt>
      <trkpt lat="47.72669" lon="6.92868">
        <ele>518.1</ele>
        <time>2022-10-10T14:55:19Z</time>
      </trkpt>
      <trkpt lat="47.72681" lon="6.92894">
        <ele>520.2</ele>
        <time>2022-10-10T14:55:27Z</time>
      </trkpt>
      <trkpt lat="47.72693" lon="6.92915">
        <ele>521.9</ele>
        <time>2022-10-10T14:55:34Z</time>
      </trkpt>
      <trkpt lat="47.72704" lon="6.92935">
        <ele>523.6</ele>
        <time>2022-10-10T14:55:41Z</time>
      </trkpt>
      <trkpt lat="47.72717" lon="6.92959">
        <ele>525.2</ele>
        <time>2022-10-10T14:55:49Z</time>
      </trkpt>
      <trkpt lat="47.72728" lon="6.92976">
        <ele>527.7</ele>
        <time>2022-10-10T14:55:55Z</time>
      </trkpt>
      <trkpt lat="47.72738" lon="6.92991">
        <ele>529.8</ele>
        <time>2022-10-10T14:56:01Z</time>
      </trkpt>
      <trkpt lat="47.72751" lon="6.93011">
        <ele>532.4</ele>
        <time>2022-10-10T14:56:08Z</time>
      </trkpt>
      <trkpt lat="47.72761" lon="6.93027">
        <ele>534.4</ele>
        <time>2022-10-10T14:56:14Z</time>
      </trkpt>
      <trkpt lat="47.7277" lon="6.93042">
        <ele>536.3</ele>
        <time>2022-10-10T14:56:19Z</time>
      </trkpt>
      <trkpt lat="47.72777" lon="6.93057">
        <ele>537.8</ele>
        <time>2022-10-10T14:56:24Z</time>
      </trkpt>
      <trkpt lat="47.72786" lon="6.93078">
        <ele>539.6</ele>
        <time>2022-10-10T14:56:31Z</time>
      </trkpt>
      <trkpt lat="47.72789" lon="6.93084">
        <ele>540.1</ele>
        <time>2022-10-10T14:56:35Z</time>
      </trkpt>
      <trkpt lat="47.72792" lon="6.93089">
        <ele>540.3</ele>
        <time>2022-10-10T14:57:10Z</time>
      </trkpt>
      <trkpt lat="47.72795" lon="6.93096">
        <ele>540.1</ele>
        <time>2022-10-10T14:57:12Z</time>
      </trkpt>
      <trkpt lat="47.72807" lon="6.93111">
        <ele>539.6</ele>
        <time>2022-10-10T14:57:17Z</time>
      </trkpt>
      <trkpt lat="47.7282" lon="6.93129">
        <ele>539.1</ele>
        <time>2022-10-10T14:57:22Z</time>
      </trkpt>
      <trkpt lat="47.72842" lon="6.93159">
        <ele>538.6</ele>
        <time>2022-10-10T14:57:29Z</time>
      </trkpt>
      <trkpt lat="47.72859" lon="6.93175">
        <ele>539</ele>
        <time>2022-10-10T14:57:34Z</time>
      </trkpt>
      <trkpt lat="47.72864" lon="6.932">
        <ele>539.4</ele>
        <time>2022-10-10T14:57:39Z</time>
      </trkpt>
      <trkpt lat="47.72864" lon="6.9324">
        <ele>539.8</ele>
        <time>2022-10-10T14:57:46Z</time>
      </trkpt>
      <trkpt lat="47.72865" lon="6.93279">
        <ele>540.2</ele>
        <time>2022-10-10T14:57:53Z</time>
      </trkpt>
      <trkpt lat="47.72865" lon="6.93317">
        <ele>540.2</ele>
        <time>2022-10-10T14:58:00Z</time>
      </trkpt>
      <trkpt lat="47.72862" lon="6.93362">
        <ele>540</ele>
        <time>2022-10-10T14:58:08Z</time>
      </trkpt>
      <trkpt lat="47.72858" lon="6.93386">
        <ele>539.4</ele>
        <time>2022-10-10T14:58:13Z</time>
      </trkpt>
      <trkpt lat="47.72854" lon="6.93419">
        <ele>538.1</ele>
        <time>2022-10-10T14:58:18Z</time>
      </trkpt>
      <trkpt lat="47.72851" lon="6.93451">
        <ele>536.2</ele>
        <time>2022-10-10T14:58:23Z</time>
      </trkpt>
      <trkpt lat="47.72852" lon="6.93458">
        <ele>535.8</ele>
        <time>2022-10-10T14:58:24Z</time>
      </trkpt>
      <trkpt lat="47.72849" lon="6.93472">
        <ele>534.9</ele>
        <time>2022-10-10T14:58:26Z</time>
      </trkpt>
      <trkpt lat="47.72846" lon="6.93479">
        <ele>534.4</ele>
        <time>2022-10-10T14:58:27Z</time>
      </trkpt>
      <trkpt lat="47.72843" lon="6.93485">
        <ele>533.9</ele>
        <time>2022-10-10T14:58:28Z</time>
      </trkpt>
      <trkpt lat="47.72836" lon="6.93513">
        <ele>532.5</ele>
        <time>2022-10-10T14:58:31Z</time>
      </trkpt>
      <trkpt lat="47.72824" lon="6.93564">
        <ele>530.6</ele>
        <time>2022-10-10T14:58:36Z</time>
      </trkpt>
      <trkpt lat="47.7281" lon="6.93633">
        <ele>527.8</ele>
        <time>2022-10-10T14:58:42Z</time>
      </trkpt>
      <trkpt lat="47.72801" lon="6.93668">
        <ele>526.8</ele>
        <time>2022-10-10T14:58:46Z</time>
      </trkpt>
      <trkpt lat="47.72799" lon="6.93673">
        <ele>526.7</ele>
        <time>2022-10-10T14:58:47Z</time>
      </trkpt>
      <trkpt lat="47.72797" lon="6.93679">
        <ele>526.6</ele>
        <time>2022-10-10T14:58:49Z</time>
      </trkpt>
      <trkpt lat="47.72797" lon="6.93681">
        <ele>526.5</ele>
        <time>2022-10-10T14:58:50Z</time>
      </trkpt>
      <trkpt lat="47.72802" lon="6.93698">
        <ele>525</ele>
        <time>2022-10-10T14:58:55Z</time>
      </trkpt>
      <trkpt lat="47.72809" lon="6.9372">
        <ele>523.3</ele>
        <time>2022-10-10T14:58:59Z</time>
      </trkpt>
      <trkpt lat="47.72821" lon="6.93745">
        <ele>521.1</ele>
        <time>2022-10-10T14:59:04Z</time>
      </trkpt>
      <trkpt lat="47.72828" lon="6.93756">
        <ele>519.9</ele>
        <time>2022-10-10T14:59:06Z</time>
      </trkpt>
      <trkpt lat="47.72836" lon="6.93768">
        <ele>518.8</ele>
        <time>2022-10-10T14:59:08Z</time>
      </trkpt>
      <trkpt lat="47.72842" lon="6.93779">
        <ele>517.9</ele>
        <time>2022-10-10T14:59:10Z</time>
      </trkpt>
      <trkpt lat="47.7285" lon="6.93788">
        <ele>517</ele>
        <time>2022-10-10T14:59:12Z</time>
      </trkpt>
      <trkpt lat="47.72862" lon="6.93794">
        <ele>515.8</ele>
        <time>2022-10-10T14:59:15Z</time>
      </trkpt>
      <trkpt lat="47.72868" lon="6.93796">
        <ele>515.3</ele>
        <time>2022-10-10T14:59:16Z</time>
      </trkpt>
      <trkpt lat="47.72895" lon="6.938">
        <ele>513.4</ele>
        <time>2022-10-10T14:59:20Z</time>
      </trkpt>
      <trkpt lat="47.72902" lon="6.938">
        <ele>513</ele>
        <time>2022-10-10T14:59:21Z</time>
      </trkpt>
      <trkpt lat="47.72922" lon="6.93798">
        <ele>511.6</ele>
        <time>2022-10-10T14:59:24Z</time>
      </trkpt>
      <trkpt lat="47.72939" lon="6.93791">
        <ele>510.4</ele>
        <time>2022-10-10T14:59:26Z</time>
      </trkpt>
      <trkpt lat="47.72968" lon="6.93769">
        <ele>508.5</ele>
        <time>2022-10-10T14:59:30Z</time>
      </trkpt>
      <trkpt lat="47.72974" lon="6.93763">
        <ele>508.1</ele>
        <time>2022-10-10T14:59:31Z</time>
      </trkpt>
      <trkpt lat="47.72979" lon="6.93758">
        <ele>507.8</ele>
        <time>2022-10-10T14:59:32Z</time>
      </trkpt>
      <trkpt lat="47.72987" lon="6.93751">
        <ele>507.2</ele>
        <time>2022-10-10T14:59:34Z</time>
      </trkpt>
      <trkpt lat="47.72997" lon="6.93745">
        <ele>506.4</ele>
        <time>2022-10-10T14:59:37Z</time>
      </trkpt>
      <trkpt lat="47.73" lon="6.93745">
        <ele>506.1</ele>
        <time>2022-10-10T14:59:38Z</time>
      </trkpt>
      <trkpt lat="47.73013" lon="6.93748">
        <ele>504.7</ele>
        <time>2022-10-10T14:59:42Z</time>
      </trkpt>
      <trkpt lat="47.73025" lon="6.93765">
        <ele>502.7</ele>
        <time>2022-10-10T14:59:47Z</time>
      </trkpt>
      <trkpt lat="47.73043" lon="6.93792">
        <ele>500.5</ele>
        <time>2022-10-10T14:59:52Z</time>
      </trkpt>
      <trkpt lat="47.73049" lon="6.93804">
        <ele>499.8</ele>
        <time>2022-10-10T14:59:54Z</time>
      </trkpt>
      <trkpt lat="47.73062" lon="6.93822">
        <ele>498.7</ele>
        <time>2022-10-10T14:59:57Z</time>
      </trkpt>
      <trkpt lat="47.73066" lon="6.93828">
        <ele>498.3</ele>
        <time>2022-10-10T14:59:58Z</time>
      </trkpt>
      <trkpt lat="47.73073" lon="6.93843">
        <ele>497.5</ele>
        <time>2022-10-10T15:00:01Z</time>
      </trkpt>
      <trkpt lat="47.73077" lon="6.93854">
        <ele>497.1</ele>
        <time>2022-10-10T15:00:03Z</time>
      </trkpt>
      <trkpt lat="47.73081" lon="6.93863">
        <ele>496.6</ele>
        <time>2022-10-10T15:00:05Z</time>
      </trkpt>
      <trkpt lat="47.73096" lon="6.93889">
        <ele>495.8</ele>
        <time>2022-10-10T15:00:10Z</time>
      </trkpt>
      <trkpt lat="47.73105" lon="6.93906">
        <ele>495.9</ele>
        <time>2022-10-10T15:00:14Z</time>
      </trkpt>
      <trkpt lat="47.73114" lon="6.93931">
        <ele>496.1</ele>
        <time>2022-10-10T15:00:19Z</time>
      </trkpt>
      <trkpt lat="47.73125" lon="6.93955">
        <ele>496.1</ele>
        <time>2022-10-10T15:00:24Z</time>
      </trkpt>
      <trkpt lat="47.73133" lon="6.93969">
        <ele>495.9</ele>
        <time>2022-10-10T15:00:27Z</time>
      </trkpt>
      <trkpt lat="47.73135" lon="6.93975">
        <ele>495.8</ele>
        <time>2022-10-10T15:00:28Z</time>
      </trkpt>
      <trkpt lat="47.73137" lon="6.9398">
        <ele>495.7</ele>
        <time>2022-10-10T15:00:29Z</time>
      </trkpt>
      <trkpt lat="47.73147" lon="6.93998">
        <ele>495</ele>
        <time>2022-10-10T15:00:32Z</time>
      </trkpt>
      <trkpt lat="47.73153" lon="6.94011">
        <ele>494.4</ele>
        <time>2022-10-10T15:00:34Z</time>
      </trkpt>
      <trkpt lat="47.73162" lon="6.94024">
        <ele>493.6</ele>
        <time>2022-10-10T15:00:36Z</time>
      </trkpt>
      <trkpt lat="47.73182" lon="6.94052">
        <ele>491.4</ele>
        <time>2022-10-10T15:00:41Z</time>
      </trkpt>
      <trkpt lat="47.73199" lon="6.94081">
        <ele>490.1</ele>
        <time>2022-10-10T15:00:45Z</time>
      </trkpt>
      <trkpt lat="47.73203" lon="6.94096">
        <ele>489.6</ele>
        <time>2022-10-10T15:00:47Z</time>
      </trkpt>
      <trkpt lat="47.73209" lon="6.9411">
        <ele>489.1</ele>
        <time>2022-10-10T15:00:49Z</time>
      </trkpt>
      <trkpt lat="47.73213" lon="6.94118">
        <ele>488.8</ele>
        <time>2022-10-10T15:00:50Z</time>
      </trkpt>
      <trkpt lat="47.73227" lon="6.94139">
        <ele>487.7</ele>
        <time>2022-10-10T15:00:53Z</time>
      </trkpt>
      <trkpt lat="47.73232" lon="6.94145">
        <ele>487.4</ele>
        <time>2022-10-10T15:00:54Z</time>
      </trkpt>
      <trkpt lat="47.73257" lon="6.9418">
        <ele>486.5</ele>
        <time>2022-10-10T15:00:59Z</time>
      </trkpt>
      <trkpt lat="47.73261" lon="6.94188">
        <ele>486.4</ele>
        <time>2022-10-10T15:01:00Z</time>
      </trkpt>
      <trkpt lat="47.73275" lon="6.94216">
        <ele>486.2</ele>
        <time>2022-10-10T15:01:04Z</time>
      </trkpt>
      <trkpt lat="47.73286" lon="6.94249">
        <ele>486.3</ele>
        <time>2022-10-10T15:01:09Z</time>
      </trkpt>
      <trkpt lat="47.73294" lon="6.94273">
        <ele>486.3</ele>
        <time>2022-10-10T15:01:13Z</time>
      </trkpt>
      <trkpt lat="47.73296" lon="6.94279">
        <ele>486.2</ele>
        <time>2022-10-10T15:01:14Z</time>
      </trkpt>
      <trkpt lat="47.73298" lon="6.94286">
        <ele>486.1</ele>
        <time>2022-10-10T15:01:15Z</time>
      </trkpt>
      <trkpt lat="47.73306" lon="6.94307">
        <ele>485.3</ele>
        <time>2022-10-10T15:01:18Z</time>
      </trkpt>
      <trkpt lat="47.73318" lon="6.94321">
        <ele>484.1</ele>
        <time>2022-10-10T15:01:21Z</time>
      </trkpt>
      <trkpt lat="47.73331" lon="6.94322">
        <ele>483.8</ele>
        <time>2022-10-10T15:01:24Z</time>
      </trkpt>
      <trkpt lat="47.73357" lon="6.94313">
        <ele>483.1</ele>
        <time>2022-10-10T15:01:29Z</time>
      </trkpt>
      <trkpt lat="47.73376" lon="6.94313">
        <ele>483.3</ele>
        <time>2022-10-10T15:01:33Z</time>
      </trkpt>
      <trkpt lat="47.7339" lon="6.94319">
        <ele>483.7</ele>
        <time>2022-10-10T15:01:37Z</time>
      </trkpt>
      <trkpt lat="47.73403" lon="6.94334">
        <ele>484.1</ele>
        <time>2022-10-10T15:01:41Z</time>
      </trkpt>
      <trkpt lat="47.73412" lon="6.94355">
        <ele>484.5</ele>
        <time>2022-10-10T15:01:46Z</time>
      </trkpt>
      <trkpt lat="47.73424" lon="6.94383">
        <ele>484.9</ele>
        <time>2022-10-10T15:01:51Z</time>
      </trkpt>
      <trkpt lat="47.73431" lon="6.94399">
        <ele>485.1</ele>
        <time>2022-10-10T15:01:54Z</time>
      </trkpt>
      <trkpt lat="47.73437" lon="6.94409">
        <ele>485.2</ele>
        <time>2022-10-10T15:01:56Z</time>
      </trkpt>
      <trkpt lat="47.73455" lon="6.94437">
        <ele>485.4</ele>
        <time>2022-10-10T15:02:02Z</time>
      </trkpt>
      <trkpt lat="47.7347" lon="6.94459">
        <ele>484.7</ele>
        <time>2022-10-10T15:02:07Z</time>
      </trkpt>
      <trkpt lat="47.73478" lon="6.94471">
        <ele>483.9</ele>
        <time>2022-10-10T15:02:09Z</time>
      </trkpt>
      <trkpt lat="47.73487" lon="6.94482">
        <ele>482.9</ele>
        <time>2022-10-10T15:02:11Z</time>
      </trkpt>
      <trkpt lat="47.73504" lon="6.94509">
        <ele>481.2</ele>
        <time>2022-10-10T15:02:15Z</time>
      </trkpt>
      <trkpt lat="47.73515" lon="6.94526">
        <ele>480.4</ele>
        <time>2022-10-10T15:02:17Z</time>
      </trkpt>
      <trkpt lat="47.73527" lon="6.94539">
        <ele>479.8</ele>
        <time>2022-10-10T15:02:19Z</time>
      </trkpt>
      <trkpt lat="47.73532" lon="6.94547">
        <ele>479.5</ele>
        <time>2022-10-10T15:02:20Z</time>
      </trkpt>
      <trkpt lat="47.73555" lon="6.94596">
        <ele>478.2</ele>
        <time>2022-10-10T15:02:26Z</time>
      </trkpt>
      <trkpt lat="47.73565" lon="6.94626">
        <ele>477.5</ele>
        <time>2022-10-10T15:02:30Z</time>
      </trkpt>
      <trkpt lat="47.73567" lon="6.94632">
        <ele>477.4</ele>
        <time>2022-10-10T15:02:31Z</time>
      </trkpt>
      <trkpt lat="47.73573" lon="6.94661">
        <ele>476.7</ele>
        <time>2022-10-10T15:02:35Z</time>
      </trkpt>
      <trkpt lat="47.73577" lon="6.94689">
        <ele>476</ele>
        <time>2022-10-10T15:02:39Z</time>
      </trkpt>
      <trkpt lat="47.73578" lon="6.94697">
        <ele>475.8</ele>
        <time>2022-10-10T15:02:40Z</time>
      </trkpt>
      <trkpt lat="47.7358" lon="6.94704">
        <ele>475.6</ele>
        <time>2022-10-10T15:02:41Z</time>
      </trkpt>
      <trkpt lat="47.73584" lon="6.94718">
        <ele>475.5</ele>
        <time>2022-10-10T15:02:43Z</time>
      </trkpt>
      <trkpt lat="47.73587" lon="6.94733">
        <ele>475.4</ele>
        <time>2022-10-10T15:02:47Z</time>
      </trkpt>
      <trkpt lat="47.73592" lon="6.9475">
        <ele>475.3</ele>
        <time>2022-10-10T15:03:08Z</time>
      </trkpt>
      <trkpt lat="47.73594" lon="6.94759">
        <ele>475.2</ele>
        <time>2022-10-10T15:03:10Z</time>
      </trkpt>
      <trkpt lat="47.736" lon="6.94785">
        <ele>475</ele>
        <time>2022-10-10T15:03:15Z</time>
      </trkpt>
      <trkpt lat="47.73606" lon="6.94811">
        <ele>474.8</ele>
        <time>2022-10-10T15:03:20Z</time>
      </trkpt>
      <trkpt lat="47.73609" lon="6.94832">
        <ele>474.8</ele>
        <time>2022-10-10T15:03:24Z</time>
      </trkpt>
      <trkpt lat="47.7361" lon="6.94857">
        <ele>474.8</ele>
        <time>2022-10-10T15:03:29Z</time>
      </trkpt>
      <trkpt lat="47.73617" lon="6.94892">
        <ele>474.9</ele>
        <time>2022-10-10T15:03:34Z</time>
      </trkpt>
      <trkpt lat="47.73624" lon="6.94932">
        <ele>475.4</ele>
        <time>2022-10-10T15:03:40Z</time>
      </trkpt>
      <trkpt lat="47.73628" lon="6.94986">
        <ele>474.6</ele>
        <time>2022-10-10T15:03:47Z</time>
      </trkpt>
      <trkpt lat="47.73633" lon="6.95046">
        <ele>473.3</ele>
        <time>2022-10-10T15:03:54Z</time>
      </trkpt>
      <trkpt lat="47.73645" lon="6.95105">
        <ele>471.9</ele>
        <time>2022-10-10T15:04:01Z</time>
      </trkpt>
      <trkpt lat="47.73663" lon="6.95181">
        <ele>470</ele>
        <time>2022-10-10T15:04:09Z</time>
      </trkpt>
      <trkpt lat="47.73673" lon="6.95241">
        <ele>468.6</ele>
        <time>2022-10-10T15:04:15Z</time>
      </trkpt>
      <trkpt lat="47.73682" lon="6.95303">
        <ele>467.3</ele>
        <time>2022-10-10T15:04:22Z</time>
      </trkpt>
      <trkpt lat="47.73692" lon="6.95343">
        <ele>466.7</ele>
        <time>2022-10-10T15:04:27Z</time>
      </trkpt>
      <trkpt lat="47.73694" lon="6.95352">
        <ele>466.3</ele>
        <time>2022-10-10T15:04:28Z</time>
      </trkpt>
      <trkpt lat="47.73696" lon="6.9537">
        <ele>465.4</ele>
        <time>2022-10-10T15:04:30Z</time>
      </trkpt>
      <trkpt lat="47.73696" lon="6.95378">
        <ele>465</ele>
        <time>2022-10-10T15:04:31Z</time>
      </trkpt>
      <trkpt lat="47.73696" lon="6.95392">
        <ele>464.3</ele>
        <time>2022-10-10T15:04:34Z</time>
      </trkpt>
      <trkpt lat="47.73695" lon="6.95394">
        <ele>464.2</ele>
        <time>2022-10-10T15:04:37Z</time>
      </trkpt>
      <trkpt lat="47.73696" lon="6.95397">
        <ele>464</ele>
        <time>2022-10-10T15:04:53Z</time>
      </trkpt>
      <trkpt lat="47.73694" lon="6.95414">
        <ele>463.5</ele>
        <time>2022-10-10T15:04:57Z</time>
      </trkpt>
      <trkpt lat="47.73692" lon="6.95426">
        <ele>463.3</ele>
        <time>2022-10-10T15:04:59Z</time>
      </trkpt>
      <trkpt lat="47.7369" lon="6.95445">
        <ele>463</ele>
        <time>2022-10-10T15:05:02Z</time>
      </trkpt>
      <trkpt lat="47.73688" lon="6.95465">
        <ele>462.8</ele>
        <time>2022-10-10T15:05:05Z</time>
      </trkpt>
      <trkpt lat="47.73685" lon="6.95478">
        <ele>462.7</ele>
        <time>2022-10-10T15:05:07Z</time>
      </trkpt>
      <trkpt lat="47.73673" lon="6.95518">
        <ele>462.3</ele>
        <time>2022-10-10T15:05:13Z</time>
      </trkpt>
      <trkpt lat="47.73661" lon="6.95568">
        <ele>462.5</ele>
        <time>2022-10-10T15:05:20Z</time>
      </trkpt>
      <trkpt lat="47.73647" lon="6.95607">
        <ele>463.2</ele>
        <time>2022-10-10T15:05:26Z</time>
      </trkpt>
      <trkpt lat="47.73644" lon="6.95613">
        <ele>463.3</ele>
        <time>2022-10-10T15:05:27Z</time>
      </trkpt>
      <trkpt lat="47.73635" lon="6.95633">
        <ele>463.7</ele>
        <time>2022-10-10T15:05:31Z</time>
      </trkpt>
      <trkpt lat="47.73621" lon="6.95671">
        <ele>463.6</ele>
        <time>2022-10-10T15:05:39Z</time>
      </trkpt>
      <trkpt lat="47.73614" lon="6.95703">
        <ele>462.7</ele>
        <time>2022-10-10T15:05:44Z</time>
      </trkpt>
      <trkpt lat="47.73611" lon="6.95719">
        <ele>462.2</ele>
        <time>2022-10-10T15:05:46Z</time>
      </trkpt>
      <trkpt lat="47.73607" lon="6.95768">
        <ele>460.9</ele>
        <time>2022-10-10T15:05:51Z</time>
      </trkpt>
      <trkpt lat="47.73611" lon="6.95821">
        <ele>459.3</ele>
        <time>2022-10-10T15:05:56Z</time>
      </trkpt>
      <trkpt lat="47.73612" lon="6.95831">
        <ele>458.9</ele>
        <time>2022-10-10T15:05:57Z</time>
      </trkpt>
      <trkpt lat="47.73611" lon="6.95853">
        <ele>458.3</ele>
        <time>2022-10-10T15:05:59Z</time>
      </trkpt>
      <trkpt lat="47.73601" lon="6.95923">
        <ele>457</ele>
        <time>2022-10-10T15:06:05Z</time>
      </trkpt>
      <trkpt lat="47.736" lon="6.95947">
        <ele>456.8</ele>
        <time>2022-10-10T15:06:07Z</time>
      </trkpt>
      <trkpt lat="47.73601" lon="6.95981">
        <ele>456.4</ele>
        <time>2022-10-10T15:06:10Z</time>
      </trkpt>
      <trkpt lat="47.73594" lon="6.96031">
        <ele>455</ele>
        <time>2022-10-10T15:06:15Z</time>
      </trkpt>
      <trkpt lat="47.73593" lon="6.9608">
        <ele>453.5</ele>
        <time>2022-10-10T15:06:20Z</time>
      </trkpt>
      <trkpt lat="47.7359" lon="6.9614">
        <ele>451.4</ele>
        <time>2022-10-10T15:06:25Z</time>
      </trkpt>
      <trkpt lat="47.73582" lon="6.9622">
        <ele>449.2</ele>
        <time>2022-10-10T15:06:31Z</time>
      </trkpt>
      <trkpt lat="47.73579" lon="6.96247">
        <ele>448.7</ele>
        <time>2022-10-10T15:06:33Z</time>
      </trkpt>
      <trkpt lat="47.73572" lon="6.96308">
        <ele>447.5</ele>
        <time>2022-10-10T15:06:38Z</time>
      </trkpt>
      <trkpt lat="47.73564" lon="6.96344">
        <ele>446.5</ele>
        <time>2022-10-10T15:06:42Z</time>
      </trkpt>
      <trkpt lat="47.73557" lon="6.96357">
        <ele>446.2</ele>
        <time>2022-10-10T15:06:45Z</time>
      </trkpt>
      <trkpt lat="47.73551" lon="6.96366">
        <ele>445.9</ele>
        <time>2022-10-10T15:06:50Z</time>
      </trkpt>
      <trkpt lat="47.73549" lon="6.96389">
        <ele>445.7</ele>
        <time>2022-10-10T15:06:55Z</time>
      </trkpt>
      <trkpt lat="47.73547" lon="6.96428">
        <ele>445.3</ele>
        <time>2022-10-10T15:07:01Z</time>
      </trkpt>
      <trkpt lat="47.73546" lon="6.96473">
        <ele>445</ele>
        <time>2022-10-10T15:07:07Z</time>
      </trkpt>
      <trkpt lat="47.7355" lon="6.96501">
        <ele>444.9</ele>
        <time>2022-10-10T15:07:11Z</time>
      </trkpt>
      <trkpt lat="47.7355" lon="6.96507">
        <ele>444.8</ele>
        <time>2022-10-10T15:07:12Z</time>
      </trkpt>
      <trkpt lat="47.73551" lon="6.96513">
        <ele>444.8</ele>
        <time>2022-10-10T15:07:13Z</time>
      </trkpt>
      <trkpt lat="47.73553" lon="6.96539">
        <ele>444.8</ele>
        <time>2022-10-10T15:07:17Z</time>
      </trkpt>
      <trkpt lat="47.73554" lon="6.96546">
        <ele>444.8</ele>
        <time>2022-10-10T15:07:18Z</time>
      </trkpt>
      <trkpt lat="47.73557" lon="6.9656">
        <ele>444.7</ele>
        <time>2022-10-10T15:07:20Z</time>
      </trkpt>
      <trkpt lat="47.73559" lon="6.96574">
        <ele>444.7</ele>
        <time>2022-10-10T15:07:22Z</time>
      </trkpt>
      <trkpt lat="47.73565" lon="6.96624">
        <ele>444.6</ele>
        <time>2022-10-10T15:07:29Z</time>
      </trkpt>
      <trkpt lat="47.73567" lon="6.9664">
        <ele>444.6</ele>
        <time>2022-10-10T15:07:31Z</time>
      </trkpt>
      <trkpt lat="47.73565" lon="6.96664">
        <ele>444.6</ele>
        <time>2022-10-10T15:07:34Z</time>
      </trkpt>
      <trkpt lat="47.73557" lon="6.96705">
        <ele>444.8</ele>
        <time>2022-10-10T15:07:40Z</time>
      </trkpt>
      <trkpt lat="47.73549" lon="6.96732">
        <ele>444.5</ele>
        <time>2022-10-10T15:07:46Z</time>
      </trkpt>
      <trkpt lat="47.73544" lon="6.96742">
        <ele>444.1</ele>
        <time>2022-10-10T15:07:48Z</time>
      </trkpt>
      <trkpt lat="47.73535" lon="6.96749">
        <ele>443.6</ele>
        <time>2022-10-10T15:07:50Z</time>
      </trkpt>
      <trkpt lat="47.73507" lon="6.96767">
        <ele>442.3</ele>
        <time>2022-10-10T15:07:55Z</time>
      </trkpt>
      <trkpt lat="47.73501" lon="6.96771">
        <ele>442.1</ele>
        <time>2022-10-10T15:07:56Z</time>
      </trkpt>
      <trkpt lat="47.73488" lon="6.9678">
        <ele>441.4</ele>
        <time>2022-10-10T15:07:59Z</time>
      </trkpt>
      <trkpt lat="47.73484" lon="6.96782">
        <ele>441.3</ele>
        <time>2022-10-10T15:08:01Z</time>
      </trkpt>
      <trkpt lat="47.73483" lon="6.96783">
        <ele>441.2</ele>
        <time>2022-10-10T15:08:02Z</time>
      </trkpt>
      <trkpt lat="47.73481" lon="6.96783">
        <ele>441.2</ele>
        <time>2022-10-10T15:08:05Z</time>
      </trkpt>
      <trkpt lat="47.73479" lon="6.96785">
        <ele>441.1</ele>
        <time>2022-10-10T15:08:10Z</time>
      </trkpt>
      <trkpt lat="47.73465" lon="6.96794">
        <ele>440.6</ele>
        <time>2022-10-10T15:08:15Z</time>
      </trkpt>
      <trkpt lat="47.73457" lon="6.968">
        <ele>440.2</ele>
        <time>2022-10-10T15:08:17Z</time>
      </trkpt>
      <trkpt lat="47.73443" lon="6.96812">
        <ele>439.6</ele>
        <time>2022-10-10T15:08:20Z</time>
      </trkpt>
      <trkpt lat="47.73409" lon="6.96833">
        <ele>438.3</ele>
        <time>2022-10-10T15:08:26Z</time>
      </trkpt>
      <trkpt lat="47.73398" lon="6.96842">
        <ele>438.2</ele>
        <time>2022-10-10T15:08:28Z</time>
      </trkpt>
      <trkpt lat="47.73383" lon="6.96859">
        <ele>437.7</ele>
        <time>2022-10-10T15:08:31Z</time>
      </trkpt>
      <trkpt lat="47.73364" lon="6.96881">
        <ele>437.1</ele>
        <time>2022-10-10T15:08:35Z</time>
      </trkpt>
      <trkpt lat="47.73359" lon="6.96886">
        <ele>437</ele>
        <time>2022-10-10T15:08:36Z</time>
      </trkpt>
      <trkpt lat="47.73343" lon="6.96895">
        <ele>436.7</ele>
        <time>2022-10-10T15:08:39Z</time>
      </trkpt>
      <trkpt lat="47.73336" lon="6.96907">
        <ele>436.5</ele>
        <time>2022-10-10T15:08:41Z</time>
      </trkpt>
      <trkpt lat="47.7333" lon="6.96932">
        <ele>436.3</ele>
        <time>2022-10-10T15:08:45Z</time>
      </trkpt>
      <trkpt lat="47.73318" lon="6.96968">
        <ele>436</ele>
        <time>2022-10-10T15:08:51Z</time>
      </trkpt>
      <trkpt lat="47.733" lon="6.97016">
        <ele>435.6</ele>
        <time>2022-10-10T15:08:58Z</time>
      </trkpt>
      <trkpt lat="47.7329" lon="6.97054">
        <ele>435.6</ele>
        <time>2022-10-10T15:09:03Z</time>
      </trkpt>
      <trkpt lat="47.73288" lon="6.97062">
        <ele>435.6</ele>
        <time>2022-10-10T15:09:04Z</time>
      </trkpt>
      <trkpt lat="47.73273" lon="6.97135">
        <ele>436</ele>
        <time>2022-10-10T15:09:14Z</time>
      </trkpt>
      <trkpt lat="47.73265" lon="6.97186">
        <ele>436.3</ele>
        <time>2022-10-10T15:09:22Z</time>
      </trkpt>
      <trkpt lat="47.73256" lon="6.97225">
        <ele>436.2</ele>
        <time>2022-10-10T15:09:29Z</time>
      </trkpt>
      <trkpt lat="47.73254" lon="6.97231">
        <ele>436.2</ele>
        <time>2022-10-10T15:09:30Z</time>
      </trkpt>
      <trkpt lat="47.73244" lon="6.97263">
        <ele>435.8</ele>
        <time>2022-10-10T15:09:35Z</time>
      </trkpt>
      <trkpt lat="47.73227" lon="6.97316">
        <ele>434.6</ele>
        <time>2022-10-10T15:09:42Z</time>
      </trkpt>
      <trkpt lat="47.73207" lon="6.97368">
        <ele>433.8</ele>
        <time>2022-10-10T15:09:48Z</time>
      </trkpt>
      <trkpt lat="47.73176" lon="6.97433">
        <ele>433</ele>
        <time>2022-10-10T15:09:56Z</time>
      </trkpt>
      <trkpt lat="47.73156" lon="6.97474">
        <ele>432.7</ele>
        <time>2022-10-10T15:10:02Z</time>
      </trkpt>
      <trkpt lat="47.73125" lon="6.97532">
        <ele>431.8</ele>
        <time>2022-10-10T15:10:11Z</time>
      </trkpt>
      <trkpt lat="47.73097" lon="6.97573">
        <ele>430.1</ele>
        <time>2022-10-10T15:10:17Z</time>
      </trkpt>
      <trkpt lat="47.73058" lon="6.97631">
        <ele>426.9</ele>
        <time>2022-10-10T15:10:24Z</time>
      </trkpt>
      <trkpt lat="47.73018" lon="6.9768">
        <ele>423.8</ele>
        <time>2022-10-10T15:10:30Z</time>
      </trkpt>
      <trkpt lat="47.72981" lon="6.97724">
        <ele>421.7</ele>
        <time>2022-10-10T15:10:35Z</time>
      </trkpt>
      <trkpt lat="47.72974" lon="6.97734">
        <ele>421.4</ele>
        <time>2022-10-10T15:10:36Z</time>
      </trkpt>
      <trkpt lat="47.72965" lon="6.97756">
        <ele>420.8</ele>
        <time>2022-10-10T15:10:38Z</time>
      </trkpt>
      <trkpt lat="47.72958" lon="6.97793">
        <ele>420.1</ele>
        <time>2022-10-10T15:10:41Z</time>
      </trkpt>
      <trkpt lat="47.72951" lon="6.97849">
        <ele>419.5</ele>
        <time>2022-10-10T15:10:46Z</time>
      </trkpt>
      <trkpt lat="47.72941" lon="6.97916">
        <ele>418.7</ele>
        <time>2022-10-10T15:10:53Z</time>
      </trkpt>
      <trkpt lat="47.72918" lon="6.97995">
        <ele>417.5</ele>
        <time>2022-10-10T15:11:02Z</time>
      </trkpt>
      <trkpt lat="47.72895" lon="6.98059">
        <ele>416.7</ele>
        <time>2022-10-10T15:11:09Z</time>
      </trkpt>
      <trkpt lat="47.72884" lon="6.98108">
        <ele>416</ele>
        <time>2022-10-10T15:11:14Z</time>
      </trkpt>
      <trkpt lat="47.72875" lon="6.98179">
        <ele>415.2</ele>
        <time>2022-10-10T15:11:21Z</time>
      </trkpt>
      <trkpt lat="47.72869" lon="6.9823">
        <ele>414.7</ele>
        <time>2022-10-10T15:11:26Z</time>
      </trkpt>
      <trkpt lat="47.72859" lon="6.98304">
        <ele>413.8</ele>
        <time>2022-10-10T15:11:33Z</time>
      </trkpt>
      <trkpt lat="47.72851" lon="6.98377">
        <ele>413</ele>
        <time>2022-10-10T15:11:40Z</time>
      </trkpt>
      <trkpt lat="47.72841" lon="6.98456">
        <ele>412.1</ele>
        <time>2022-10-10T15:11:48Z</time>
      </trkpt>
      <trkpt lat="47.72832" lon="6.98539">
        <ele>411.4</ele>
        <time>2022-10-10T15:11:56Z</time>
      </trkpt>
      <trkpt lat="47.72829" lon="6.9856">
        <ele>411.3</ele>
        <time>2022-10-10T15:11:58Z</time>
      </trkpt>
      <trkpt lat="47.72828" lon="6.98634">
        <ele>410.5</ele>
        <time>2022-10-10T15:12:05Z</time>
      </trkpt>
      <trkpt lat="47.7283" lon="6.98703">
        <ele>410</ele>
        <time>2022-10-10T15:12:12Z</time>
      </trkpt>
      <trkpt lat="47.72827" lon="6.98741">
        <ele>409.6</ele>
        <time>2022-10-10T15:12:17Z</time>
      </trkpt>
      <trkpt lat="47.72826" lon="6.98753">
        <ele>409.5</ele>
        <time>2022-10-10T15:12:20Z</time>
      </trkpt>
      <trkpt lat="47.72827" lon="6.98756">
        <ele>409.5</ele>
        <time>2022-10-10T15:12:21Z</time>
      </trkpt>
      <trkpt lat="47.72835" lon="6.98767">
        <ele>410.8</ele>
        <time>2022-10-10T15:12:27Z</time>
      </trkpt>
      <trkpt lat="47.72835" lon="6.98767">
        <ele>410.8</ele>
        <time>2022-10-10T15:12:28Z</time>
      </trkpt>
      <trkpt lat="47.72839" lon="6.98774">
        <ele>410.8</ele>
        <time>2022-10-10T15:13:53Z</time>
      </trkpt>
      <trkpt lat="47.72843" lon="6.98779">
        <ele>410.7</ele>
        <time>2022-10-10T15:13:55Z</time>
      </trkpt>
      <trkpt lat="47.72863" lon="6.98798">
        <ele>410.8</ele>
        <time>2022-10-10T15:14:02Z</time>
      </trkpt>
      <trkpt lat="47.72885" lon="6.98819">
        <ele>410.9</ele>
        <time>2022-10-10T15:14:09Z</time>
      </trkpt>
      <trkpt lat="47.72911" lon="6.98846">
        <ele>410.9</ele>
        <time>2022-10-10T15:14:16Z</time>
      </trkpt>
      <trkpt lat="47.72942" lon="6.98881">
        <ele>411.1</ele>
        <time>2022-10-10T15:14:24Z</time>
      </trkpt>
      <trkpt lat="47.72975" lon="6.98914">
        <ele>411.6</ele>
        <time>2022-10-10T15:14:33Z</time>
      </trkpt>
      <trkpt lat="47.73013" lon="6.98953">
        <ele>412.7</ele>
        <time>2022-10-10T15:14:43Z</time>
      </trkpt>
      <trkpt lat="47.7304" lon="6.98982">
        <ele>413.2</ele>
        <time>2022-10-10T15:14:50Z</time>
      </trkpt>
      <trkpt lat="47.73068" lon="6.99009">
        <ele>414.2</ele>
        <time>2022-10-10T15:14:58Z</time>
      </trkpt>
      <trkpt lat="47.7309" lon="6.99033">
        <ele>415.6</ele>
        <time>2022-10-10T15:15:05Z</time>
      </trkpt>
      <trkpt lat="47.73115" lon="6.99064">
        <ele>417.4</ele>
        <time>2022-10-10T15:15:13Z</time>
      </trkpt>
      <trkpt lat="47.73126" lon="6.99081">
        <ele>418.5</ele>
        <time>2022-10-10T15:15:17Z</time>
      </trkpt>
      <trkpt lat="47.73136" lon="6.991">
        <ele>419.1</ele>
        <time>2022-10-10T15:15:21Z</time>
      </trkpt>
      <trkpt lat="47.73157" lon="6.99133">
        <ele>421.4</ele>
        <time>2022-10-10T15:15:29Z</time>
      </trkpt>
      <trkpt lat="47.73188" lon="6.99173">
        <ele>423.4</ele>
        <time>2022-10-10T15:15:39Z</time>
      </trkpt>
      <trkpt lat="47.73221" lon="6.99211">
        <ele>424.2</ele>
        <time>2022-10-10T15:15:49Z</time>
      </trkpt>
      <trkpt lat="47.73239" lon="6.99241">
        <ele>423.6</ele>
        <time>2022-10-10T15:15:55Z</time>
      </trkpt>
      <trkpt lat="47.73242" lon="6.99247">
        <ele>423.5</ele>
        <time>2022-10-10T15:15:56Z</time>
      </trkpt>
      <trkpt lat="47.73251" lon="6.99266">
        <ele>422.9</ele>
        <time>2022-10-10T15:15:59Z</time>
      </trkpt>
      <trkpt lat="47.73266" lon="6.99303">
        <ele>421.7</ele>
        <time>2022-10-10T15:16:04Z</time>
      </trkpt>
      <trkpt lat="47.73285" lon="6.99356">
        <ele>419.9</ele>
        <time>2022-10-10T15:16:10Z</time>
      </trkpt>
      <trkpt lat="47.73294" lon="6.99383">
        <ele>418.9</ele>
        <time>2022-10-10T15:16:13Z</time>
      </trkpt>
      <trkpt lat="47.73299" lon="6.99401">
        <ele>418.2</ele>
        <time>2022-10-10T15:16:15Z</time>
      </trkpt>
      <trkpt lat="47.73316" lon="6.99449">
        <ele>416.5</ele>
        <time>2022-10-10T15:16:21Z</time>
      </trkpt>
      <trkpt lat="47.73325" lon="6.99489">
        <ele>415.5</ele>
        <time>2022-10-10T15:16:26Z</time>
      </trkpt>
      <trkpt lat="47.73327" lon="6.99497">
        <ele>415.1</ele>
        <time>2022-10-10T15:16:27Z</time>
      </trkpt>
      <trkpt lat="47.73342" lon="6.99536">
        <ele>413.3</ele>
        <time>2022-10-10T15:16:32Z</time>
      </trkpt>
      <trkpt lat="47.73344" lon="6.99545">
        <ele>412.9</ele>
        <time>2022-10-10T15:16:33Z</time>
      </trkpt>
      <trkpt lat="47.73346" lon="6.99553">
        <ele>412.5</ele>
        <time>2022-10-10T15:16:34Z</time>
      </trkpt>
      <trkpt lat="47.73358" lon="6.9958">
        <ele>411</ele>
        <time>2022-10-10T15:16:37Z</time>
      </trkpt>
      <trkpt lat="47.73384" lon="6.9964">
        <ele>408.9</ele>
        <time>2022-10-10T15:16:43Z</time>
      </trkpt>
      <trkpt lat="47.73394" lon="6.99655">
        <ele>408.7</ele>
        <time>2022-10-10T15:16:45Z</time>
      </trkpt>
      <trkpt lat="47.73407" lon="6.99667">
        <ele>408.6</ele>
        <time>2022-10-10T15:16:47Z</time>
      </trkpt>
      <trkpt lat="47.73443" lon="6.99694">
        <ele>408.7</ele>
        <time>2022-10-10T15:16:53Z</time>
      </trkpt>
      <trkpt lat="47.73469" lon="6.99711">
        <ele>408.3</ele>
        <time>2022-10-10T15:16:58Z</time>
      </trkpt>
      <trkpt lat="47.73495" lon="6.99729">
        <ele>408.3</ele>
        <time>2022-10-10T15:17:04Z</time>
      </trkpt>
      <trkpt lat="47.73517" lon="6.9975">
        <ele>409.1</ele>
        <time>2022-10-10T15:17:10Z</time>
      </trkpt>
      <trkpt lat="47.73533" lon="6.99775">
        <ele>410</ele>
        <time>2022-10-10T15:17:16Z</time>
      </trkpt>
      <trkpt lat="47.73554" lon="6.99808">
        <ele>411.2</ele>
        <time>2022-10-10T15:17:24Z</time>
      </trkpt>
      <trkpt lat="47.73572" lon="6.99839">
        <ele>412.4</ele>
        <time>2022-10-10T15:17:31Z</time>
      </trkpt>
      <trkpt lat="47.73589" lon="6.9987">
        <ele>413.7</ele>
        <time>2022-10-10T15:17:38Z</time>
      </trkpt>
      <trkpt lat="47.73603" lon="6.99896">
        <ele>414.6</ele>
        <time>2022-10-10T15:17:44Z</time>
      </trkpt>
      <trkpt lat="47.73627" lon="6.99936">
        <ele>415.9</ele>
        <time>2022-10-10T15:17:53Z</time>
      </trkpt>
      <trkpt lat="47.73638" lon="6.99954">
        <ele>416.5</ele>
        <time>2022-10-10T15:17:57Z</time>
      </trkpt>
      <trkpt lat="47.7365" lon="6.99974">
        <ele>417.1</ele>
        <time>2022-10-10T15:18:01Z</time>
      </trkpt>
      <trkpt lat="47.73671" lon="7.00006">
        <ele>417.9</ele>
        <time>2022-10-10T15:18:08Z</time>
      </trkpt>
      <trkpt lat="47.73689" lon="7.00035">
        <ele>418.4</ele>
        <time>2022-10-10T15:18:14Z</time>
      </trkpt>
      <trkpt lat="47.737" lon="7.00059">
        <ele>418.6</ele>
        <time>2022-10-10T15:18:19Z</time>
      </trkpt>
      <trkpt lat="47.73712" lon="7.00086">
        <ele>418.9</ele>
        <time>2022-10-10T15:18:25Z</time>
      </trkpt>
      <trkpt lat="47.7372" lon="7.00101">
        <ele>419.2</ele>
        <time>2022-10-10T15:18:29Z</time>
      </trkpt>
      <trkpt lat="47.73732" lon="7.00121">
        <ele>419.5</ele>
        <time>2022-10-10T15:18:34Z</time>
      </trkpt>
      <trkpt lat="47.73746" lon="7.00139">
        <ele>419.8</ele>
        <time>2022-10-10T15:18:38Z</time>
      </trkpt>
      <trkpt lat="47.73749" lon="7.00144">
        <ele>419.8</ele>
        <time>2022-10-10T15:18:39Z</time>
      </trkpt>
      <trkpt lat="47.73775" lon="7.00179">
        <ele>420.2</ele>
        <time>2022-10-10T15:18:46Z</time>
      </trkpt>
      <trkpt lat="47.738" lon="7.00213">
        <ele>420.6</ele>
        <time>2022-10-10T15:18:53Z</time>
      </trkpt>
      <trkpt lat="47.73831" lon="7.00252">
        <ele>420.9</ele>
        <time>2022-10-10T15:19:01Z</time>
      </trkpt>
      <trkpt lat="47.73849" lon="7.00272">
        <ele>421.1</ele>
        <time>2022-10-10T15:19:06Z</time>
      </trkpt>
      <trkpt lat="47.73853" lon="7.00276">
        <ele>421.2</ele>
        <time>2022-10-10T15:19:07Z</time>
      </trkpt>
      <trkpt lat="47.73871" lon="7.00285">
        <ele>421.4</ele>
        <time>2022-10-10T15:19:12Z</time>
      </trkpt>
      <trkpt lat="47.73891" lon="7.00286">
        <ele>421.7</ele>
        <time>2022-10-10T15:19:18Z</time>
      </trkpt>
      <trkpt lat="47.73911" lon="7.00277">
        <ele>421.8</ele>
        <time>2022-10-10T15:19:24Z</time>
      </trkpt>
      <trkpt lat="47.73941" lon="7.00262">
        <ele>422.1</ele>
        <time>2022-10-10T15:19:32Z</time>
      </trkpt>
      <trkpt lat="47.73966" lon="7.00248">
        <ele>422.5</ele>
        <time>2022-10-10T15:19:39Z</time>
      </trkpt>
      <trkpt lat="47.73984" lon="7.00231">
        <ele>423</ele>
        <time>2022-10-10T15:19:45Z</time>
      </trkpt>
      <trkpt lat="47.74002" lon="7.00207">
        <ele>423.8</ele>
        <time>2022-10-10T15:19:51Z</time>
      </trkpt>
      <trkpt lat="47.74016" lon="7.00185">
        <ele>424.4</ele>
        <time>2022-10-10T15:19:56Z</time>
      </trkpt>
      <trkpt lat="47.74032" lon="7.00163">
        <ele>425.2</ele>
        <time>2022-10-10T15:20:01Z</time>
      </trkpt>
      <trkpt lat="47.74058" lon="7.00138">
        <ele>426</ele>
        <time>2022-10-10T15:20:08Z</time>
      </trkpt>
      <trkpt lat="47.74084" lon="7.00117">
        <ele>426.5</ele>
        <time>2022-10-10T15:20:15Z</time>
      </trkpt>
      <trkpt lat="47.74099" lon="7.00106">
        <ele>426.6</ele>
        <time>2022-10-10T15:20:19Z</time>
      </trkpt>
      <trkpt lat="47.74103" lon="7.00104">
        <ele>426.6</ele>
        <time>2022-10-10T15:20:20Z</time>
      </trkpt>
      <trkpt lat="47.74141" lon="7.00075">
        <ele>426.2</ele>
        <time>2022-10-10T15:20:29Z</time>
      </trkpt>
      <trkpt lat="47.74158" lon="7.00063">
        <ele>426.2</ele>
        <time>2022-10-10T15:20:33Z</time>
      </trkpt>
      <trkpt lat="47.74166" lon="7.00058">
        <ele>426.3</ele>
        <time>2022-10-10T15:20:35Z</time>
      </trkpt>
      <trkpt lat="47.74185" lon="7.00045">
        <ele>426.7</ele>
        <time>2022-10-10T15:20:40Z</time>
      </trkpt>
      <trkpt lat="47.74199" lon="7.00033">
        <ele>427.2</ele>
        <time>2022-10-10T15:20:44Z</time>
      </trkpt>
      <trkpt lat="47.74203" lon="7.00031">
        <ele>427.4</ele>
        <time>2022-10-10T15:20:45Z</time>
      </trkpt>
      <trkpt lat="47.74221" lon="7.00019">
        <ele>428.1</ele>
        <time>2022-10-10T15:20:50Z</time>
      </trkpt>
      <trkpt lat="47.7424" lon="7.00005">
        <ele>428.9</ele>
        <time>2022-10-10T15:20:55Z</time>
      </trkpt>
      <trkpt lat="47.74255" lon="6.99995">
        <ele>429.5</ele>
        <time>2022-10-10T15:20:59Z</time>
      </trkpt>
      <trkpt lat="47.74267" lon="6.99986">
        <ele>429.9</ele>
        <time>2022-10-10T15:21:02Z</time>
      </trkpt>
      <trkpt lat="47.74271" lon="6.99984">
        <ele>430</ele>
        <time>2022-10-10T15:21:03Z</time>
      </trkpt>
      <trkpt lat="47.74292" lon="6.99971">
        <ele>430.8</ele>
        <time>2022-10-10T15:21:08Z</time>
      </trkpt>
      <trkpt lat="47.74316" lon="6.99953">
        <ele>431.5</ele>
        <time>2022-10-10T15:21:14Z</time>
      </trkpt>
      <trkpt lat="47.74341" lon="6.99935">
        <ele>432</ele>
        <time>2022-10-10T15:21:20Z</time>
      </trkpt>
      <trkpt lat="47.74359" lon="6.99919">
        <ele>432.3</ele>
        <time>2022-10-10T15:21:25Z</time>
      </trkpt>
      <trkpt lat="47.74379" lon="6.99904">
        <ele>432.8</ele>
        <time>2022-10-10T15:21:30Z</time>
      </trkpt>
      <trkpt lat="47.74383" lon="6.99902">
        <ele>432.9</ele>
        <time>2022-10-10T15:21:31Z</time>
      </trkpt>
      <trkpt lat="47.74399" lon="6.99892">
        <ele>433.4</ele>
        <time>2022-10-10T15:21:35Z</time>
      </trkpt>
      <trkpt lat="47.74423" lon="6.99877">
        <ele>434.3</ele>
        <time>2022-10-10T15:21:41Z</time>
      </trkpt>
      <trkpt lat="47.74446" lon="6.99864">
        <ele>435</ele>
        <time>2022-10-10T15:21:47Z</time>
      </trkpt>
      <trkpt lat="47.74468" lon="6.99848">
        <ele>435.3</ele>
        <time>2022-10-10T15:21:53Z</time>
      </trkpt>
      <trkpt lat="47.74487" lon="6.9984">
        <ele>435.3</ele>
        <time>2022-10-10T15:21:58Z</time>
      </trkpt>
      <trkpt lat="47.74505" lon="6.99834">
        <ele>435.2</ele>
        <time>2022-10-10T15:22:02Z</time>
      </trkpt>
      <trkpt lat="47.74519" lon="6.99835">
        <ele>435</ele>
        <time>2022-10-10T15:22:05Z</time>
      </trkpt>
      <trkpt lat="47.74523" lon="6.99836">
        <ele>435</ele>
        <time>2022-10-10T15:22:06Z</time>
      </trkpt>
      <trkpt lat="47.74527" lon="6.99838">
        <ele>434.9</ele>
        <time>2022-10-10T15:22:07Z</time>
      </trkpt>
      <trkpt lat="47.74536" lon="6.99844">
        <ele>434.9</ele>
        <time>2022-10-10T15:22:09Z</time>
      </trkpt>
      <trkpt lat="47.74539" lon="6.99846">
        <ele>434.9</ele>
        <time>2022-10-10T15:22:10Z</time>
      </trkpt>
      <trkpt lat="47.74552" lon="6.99854">
        <ele>434.9</ele>
        <time>2022-10-10T15:22:13Z</time>
      </trkpt>
      <trkpt lat="47.74568" lon="6.99867">
        <ele>434.9</ele>
        <time>2022-10-10T15:22:18Z</time>
      </trkpt>
      <trkpt lat="47.7458" lon="6.99876">
        <ele>435</ele>
        <time>2022-10-10T15:22:23Z</time>
      </trkpt>
      <trkpt lat="47.74589" lon="6.99883">
        <ele>435.1</ele>
        <time>2022-10-10T15:22:27Z</time>
      </trkpt>
      <trkpt lat="47.74604" lon="6.99892">
        <ele>435.4</ele>
        <time>2022-10-10T15:22:32Z</time>
      </trkpt>
      <trkpt lat="47.74619" lon="6.99903">
        <ele>435.8</ele>
        <time>2022-10-10T15:22:37Z</time>
      </trkpt>
      <trkpt lat="47.74638" lon="6.99919">
        <ele>436.5</ele>
        <time>2022-10-10T15:22:44Z</time>
      </trkpt>
      <trkpt lat="47.74659" lon="6.99934">
        <ele>437.4</ele>
        <time>2022-10-10T15:22:51Z</time>
      </trkpt>
      <trkpt lat="47.74682" lon="6.99951">
        <ele>438.5</ele>
        <time>2022-10-10T15:22:58Z</time>
      </trkpt>
      <trkpt lat="47.74699" lon="6.99963">
        <ele>439.3</ele>
        <time>2022-10-10T15:23:03Z</time>
      </trkpt>
      <trkpt lat="47.74723" lon="6.9998">
        <ele>440.4</ele>
        <time>2022-10-10T15:23:10Z</time>
      </trkpt>
      <trkpt lat="47.74739" lon="6.99994">
        <ele>441.3</ele>
        <time>2022-10-10T15:23:15Z</time>
      </trkpt>
      <trkpt lat="47.7476" lon="7.00009">
        <ele>442.2</ele>
        <time>2022-10-10T15:23:21Z</time>
      </trkpt>
      <trkpt lat="47.74774" lon="7.0002">
        <ele>442.7</ele>
        <time>2022-10-10T15:23:25Z</time>
      </trkpt>
      <trkpt lat="47.74777" lon="7.00022">
        <ele>442.9</ele>
        <time>2022-10-10T15:23:26Z</time>
      </trkpt>
      <trkpt lat="47.74788" lon="7.0003">
        <ele>443.2</ele>
        <time>2022-10-10T15:23:29Z</time>
      </trkpt>
      <trkpt lat="47.74799" lon="7.00039">
        <ele>443.1</ele>
        <time>2022-10-10T15:23:33Z</time>
      </trkpt>
      <trkpt lat="47.74821" lon="7.00051">
        <ele>441.7</ele>
        <time>2022-10-10T15:23:40Z</time>
      </trkpt>
      <trkpt lat="47.7484" lon="7.00051">
        <ele>440.5</ele>
        <time>2022-10-10T15:23:44Z</time>
      </trkpt>
      <trkpt lat="47.74861" lon="7.00041">
        <ele>439</ele>
        <time>2022-10-10T15:23:49Z</time>
      </trkpt>
      <trkpt lat="47.74865" lon="7.00038">
        <ele>438.7</ele>
        <time>2022-10-10T15:23:50Z</time>
      </trkpt>
      <trkpt lat="47.7489" lon="7.0002">
        <ele>436.8</ele>
        <time>2022-10-10T15:23:57Z</time>
      </trkpt>
      <trkpt lat="47.74903" lon="7.00027">
        <ele>436.1</ele>
        <time>2022-10-10T15:24:01Z</time>
      </trkpt>
      <trkpt lat="47.7491" lon="7.00035">
        <ele>435.9</ele>
        <time>2022-10-10T15:24:03Z</time>
      </trkpt>
      <trkpt lat="47.74919" lon="7.00048">
        <ele>435.6</ele>
        <time>2022-10-10T15:24:06Z</time>
      </trkpt>
      <trkpt lat="47.74942" lon="7.00073">
        <ele>435.2</ele>
        <time>2022-10-10T15:24:12Z</time>
      </trkpt>
      <trkpt lat="47.7497" lon="7.00095">
        <ele>435.3</ele>
        <time>2022-10-10T15:24:18Z</time>
      </trkpt>
      <trkpt lat="47.74974" lon="7.00097">
        <ele>435.4</ele>
        <time>2022-10-10T15:24:19Z</time>
      </trkpt>
      <trkpt lat="47.74996" lon="7.00114">
        <ele>435.4</ele>
        <time>2022-10-10T15:24:25Z</time>
      </trkpt>
      <trkpt lat="47.74997" lon="7.00116">
        <ele>435.4</ele>
        <time>2022-10-10T15:24:28Z</time>
      </trkpt>
      <trkpt lat="47.75001" lon="7.00119">
        <ele>435.4</ele>
        <time>2022-10-10T15:27:15Z</time>
      </trkpt>
      <trkpt lat="47.75005" lon="7.00123">
        <ele>435.4</ele>
        <time>2022-10-10T15:27:17Z</time>
      </trkpt>
      <trkpt lat="47.75009" lon="7.00133">
        <ele>434.8</ele>
        <time>2022-10-10T15:27:21Z</time>
      </trkpt>
      <trkpt lat="47.75009" lon="7.00137">
        <ele>434.6</ele>
        <time>2022-10-10T15:27:25Z</time>
      </trkpt>
      <trkpt lat="47.75011" lon="7.00141">
        <ele>434.4</ele>
        <time>2022-10-10T15:27:47Z</time>
      </trkpt>
      <trkpt lat="47.75016" lon="7.00163">
        <ele>433.5</ele>
        <time>2022-10-10T15:27:52Z</time>
      </trkpt>
      <trkpt lat="47.75019" lon="7.00175">
        <ele>433</ele>
        <time>2022-10-10T15:27:54Z</time>
      </trkpt>
      <trkpt lat="47.75024" lon="7.00197">
        <ele>432</ele>
        <time>2022-10-10T15:27:57Z</time>
      </trkpt>
      <trkpt lat="47.75034" lon="7.00243">
        <ele>430.1</ele>
        <time>2022-10-10T15:28:02Z</time>
      </trkpt>
      <trkpt lat="47.75038" lon="7.00261">
        <ele>429.4</ele>
        <time>2022-10-10T15:28:04Z</time>
      </trkpt>
      <trkpt lat="47.75039" lon="7.00278">
        <ele>428.8</ele>
        <time>2022-10-10T15:28:06Z</time>
      </trkpt>
      <trkpt lat="47.75049" lon="7.00334">
        <ele>427.1</ele>
        <time>2022-10-10T15:28:12Z</time>
      </trkpt>
      <trkpt lat="47.75053" lon="7.00355">
        <ele>426.6</ele>
        <time>2022-10-10T15:28:14Z</time>
      </trkpt>
      <trkpt lat="47.75058" lon="7.00388">
        <ele>426</ele>
        <time>2022-10-10T15:28:17Z</time>
      </trkpt>
      <trkpt lat="47.75073" lon="7.00474">
        <ele>425.4</ele>
        <time>2022-10-10T15:28:25Z</time>
      </trkpt>
      <trkpt lat="47.75075" lon="7.00485">
        <ele>425.3</ele>
        <time>2022-10-10T15:28:26Z</time>
      </trkpt>
      <trkpt lat="47.75086" lon="7.00548">
        <ele>425</ele>
        <time>2022-10-10T15:28:32Z</time>
      </trkpt>
      <trkpt lat="47.75101" lon="7.00634">
        <ele>424.9</ele>
        <time>2022-10-10T15:28:40Z</time>
      </trkpt>
      <trkpt lat="47.75112" lon="7.00698">
        <ele>425.3</ele>
        <time>2022-10-10T15:28:46Z</time>
      </trkpt>
      <trkpt lat="47.75125" lon="7.00775">
        <ele>425.9</ele>
        <time>2022-10-10T15:28:54Z</time>
      </trkpt>
      <trkpt lat="47.75137" lon="7.00846">
        <ele>426.2</ele>
        <time>2022-10-10T15:29:02Z</time>
      </trkpt>
      <trkpt lat="47.75148" lon="7.00899">
        <ele>426.5</ele>
        <time>2022-10-10T15:29:08Z</time>
      </trkpt>
      <trkpt lat="47.75149" lon="7.00908">
        <ele>426.5</ele>
        <time>2022-10-10T15:29:09Z</time>
      </trkpt>
      <trkpt lat="47.7515" lon="7.00917">
        <ele>426.6</ele>
        <time>2022-10-10T15:29:10Z</time>
      </trkpt>
      <trkpt lat="47.75155" lon="7.00943">
        <ele>426.6</ele>
        <time>2022-10-10T15:29:13Z</time>
      </trkpt>
      <trkpt lat="47.75157" lon="7.00952">
        <ele>426.7</ele>
        <time>2022-10-10T15:29:14Z</time>
      </trkpt>
      <trkpt lat="47.7516" lon="7.0097">
        <ele>426.7</ele>
        <time>2022-10-10T15:29:16Z</time>
      </trkpt>
      <trkpt lat="47.75163" lon="7.00986">
        <ele>426.7</ele>
        <time>2022-10-10T15:29:18Z</time>
      </trkpt>
      <trkpt lat="47.75167" lon="7.01011">
        <ele>426.7</ele>
        <time>2022-10-10T15:29:21Z</time>
      </trkpt>
      <trkpt lat="47.7517" lon="7.01029">
        <ele>426.7</ele>
        <time>2022-10-10T15:29:23Z</time>
      </trkpt>
      <trkpt lat="47.75182" lon="7.01104">
        <ele>426.7</ele>
        <time>2022-10-10T15:29:31Z</time>
      </trkpt>
      <trkpt lat="47.75194" lon="7.0117">
        <ele>426.4</ele>
        <time>2022-10-10T15:29:38Z</time>
      </trkpt>
      <trkpt lat="47.75204" lon="7.01225">
        <ele>426.2</ele>
        <time>2022-10-10T15:29:44Z</time>
      </trkpt>
      <trkpt lat="47.75206" lon="7.01234">
        <ele>426.2</ele>
        <time>2022-10-10T15:29:45Z</time>
      </trkpt>
      <trkpt lat="47.75217" lon="7.01298">
        <ele>425.4</ele>
        <time>2022-10-10T15:29:52Z</time>
      </trkpt>
      <trkpt lat="47.75227" lon="7.01348">
        <ele>423.9</ele>
        <time>2022-10-10T15:29:57Z</time>
      </trkpt>
      <trkpt lat="47.75235" lon="7.01395">
        <ele>422.2</ele>
        <time>2022-10-10T15:30:02Z</time>
      </trkpt>
      <trkpt lat="47.75238" lon="7.01412">
        <ele>421.6</ele>
        <time>2022-10-10T15:30:05Z</time>
      </trkpt>
      <trkpt lat="47.75242" lon="7.01432">
        <ele>420.9</ele>
        <time>2022-10-10T15:30:11Z</time>
      </trkpt>
      <trkpt lat="47.75244" lon="7.01444">
        <ele>420.6</ele>
        <time>2022-10-10T15:30:17Z</time>
      </trkpt>
      <trkpt lat="47.75246" lon="7.0146">
        <ele>420.2</ele>
        <time>2022-10-10T15:30:21Z</time>
      </trkpt>
      <trkpt lat="47.75243" lon="7.01465">
        <ele>420</ele>
        <time>2022-10-10T15:30:25Z</time>
      </trkpt>
      <trkpt lat="47.75243" lon="7.01469">
        <ele>419.9</ele>
        <time>2022-10-10T15:30:53Z</time>
      </trkpt>
      <trkpt lat="47.75244" lon="7.01476">
        <ele>419.7</ele>
        <time>2022-10-10T15:30:55Z</time>
      </trkpt>
      <trkpt lat="47.75249" lon="7.01485">
        <ele>419.6</ele>
        <time>2022-10-10T15:30:57Z</time>
      </trkpt>
      <trkpt lat="47.75255" lon="7.01496">
        <ele>419.1</ele>
        <time>2022-10-10T15:30:59Z</time>
      </trkpt>
      <trkpt lat="47.75258" lon="7.01511">
        <ele>418.5</ele>
        <time>2022-10-10T15:31:01Z</time>
      </trkpt>
      <trkpt lat="47.75258" lon="7.0152">
        <ele>418.2</ele>
        <time>2022-10-10T15:31:02Z</time>
      </trkpt>
      <trkpt lat="47.75255" lon="7.01529">
        <ele>417.8</ele>
        <time>2022-10-10T15:31:03Z</time>
      </trkpt>
      <trkpt lat="47.75248" lon="7.01546">
        <ele>417</ele>
        <time>2022-10-10T15:31:05Z</time>
      </trkpt>
      <trkpt lat="47.75235" lon="7.01572">
        <ele>415.7</ele>
        <time>2022-10-10T15:31:08Z</time>
      </trkpt>
      <trkpt lat="47.7523" lon="7.01593">
        <ele>414.8</ele>
        <time>2022-10-10T15:31:10Z</time>
      </trkpt>
      <trkpt lat="47.75228" lon="7.01604">
        <ele>414.4</ele>
        <time>2022-10-10T15:31:11Z</time>
      </trkpt>
      <trkpt lat="47.75229" lon="7.01627">
        <ele>413.6</ele>
        <time>2022-10-10T15:31:13Z</time>
      </trkpt>
      <trkpt lat="47.75234" lon="7.01677">
        <ele>411.8</ele>
        <time>2022-10-10T15:31:17Z</time>
      </trkpt>
      <trkpt lat="47.75233" lon="7.01691">
        <ele>411.3</ele>
        <time>2022-10-10T15:31:18Z</time>
      </trkpt>
      <trkpt lat="47.75231" lon="7.01703">
        <ele>410.8</ele>
        <time>2022-10-10T15:31:19Z</time>
      </trkpt>
      <trkpt lat="47.75221" lon="7.01742">
        <ele>409.3</ele>
        <time>2022-10-10T15:31:22Z</time>
      </trkpt>
      <trkpt lat="47.75201" lon="7.01816">
        <ele>406.7</ele>
        <time>2022-10-10T15:31:28Z</time>
      </trkpt>
      <trkpt lat="47.75204" lon="7.01837">
        <ele>406</ele>
        <time>2022-10-10T15:31:30Z</time>
      </trkpt>
      <trkpt lat="47.75214" lon="7.01853">
        <ele>405.1</ele>
        <time>2022-10-10T15:31:32Z</time>
      </trkpt>
      <trkpt lat="47.75221" lon="7.01856">
        <ele>404.6</ele>
        <time>2022-10-10T15:31:33Z</time>
      </trkpt>
      <trkpt lat="47.75229" lon="7.01856">
        <ele>404</ele>
        <time>2022-10-10T15:31:34Z</time>
      </trkpt>
      <trkpt lat="47.75245" lon="7.01848">
        <ele>402.8</ele>
        <time>2022-10-10T15:31:36Z</time>
      </trkpt>
      <trkpt lat="47.75284" lon="7.01813">
        <ele>399.9</ele>
        <time>2022-10-10T15:31:41Z</time>
      </trkpt>
      <trkpt lat="47.75331" lon="7.01771">
        <ele>396.1</ele>
        <time>2022-10-10T15:31:47Z</time>
      </trkpt>
      <trkpt lat="47.75347" lon="7.01757">
        <ele>394.7</ele>
        <time>2022-10-10T15:31:49Z</time>
      </trkpt>
      <trkpt lat="47.75363" lon="7.01744">
        <ele>393.4</ele>
        <time>2022-10-10T15:31:51Z</time>
      </trkpt>
      <trkpt lat="47.75382" lon="7.01738">
        <ele>392.1</ele>
        <time>2022-10-10T15:31:53Z</time>
      </trkpt>
      <trkpt lat="47.75401" lon="7.01744">
        <ele>390.6</ele>
        <time>2022-10-10T15:31:55Z</time>
      </trkpt>
      <trkpt lat="47.75428" lon="7.0177">
        <ele>388.3</ele>
        <time>2022-10-10T15:31:58Z</time>
      </trkpt>
      <trkpt lat="47.75471" lon="7.0181">
        <ele>385</ele>
        <time>2022-10-10T15:32:03Z</time>
      </trkpt>
      <trkpt lat="47.75523" lon="7.01854">
        <ele>381.8</ele>
        <time>2022-10-10T15:32:09Z</time>
      </trkpt>
      <trkpt lat="47.75543" lon="7.01864">
        <ele>381.1</ele>
        <time>2022-10-10T15:32:11Z</time>
      </trkpt>
      <trkpt lat="47.75564" lon="7.01866">
        <ele>380.8</ele>
        <time>2022-10-10T15:32:13Z</time>
      </trkpt>
      <trkpt lat="47.75583" lon="7.01862">
        <ele>380.7</ele>
        <time>2022-10-10T15:32:15Z</time>
      </trkpt>
      <trkpt lat="47.75601" lon="7.01856">
        <ele>380.7</ele>
        <time>2022-10-10T15:32:17Z</time>
      </trkpt>
      <trkpt lat="47.75636" lon="7.01844">
        <ele>380.9</ele>
        <time>2022-10-10T15:32:22Z</time>
      </trkpt>
      <trkpt lat="47.75666" lon="7.01833">
        <ele>380.5</ele>
        <time>2022-10-10T15:32:28Z</time>
      </trkpt>
      <trkpt lat="47.75671" lon="7.01832">
        <ele>380.5</ele>
        <time>2022-10-10T15:32:29Z</time>
      </trkpt>
      <trkpt lat="47.7568" lon="7.01832">
        <ele>380.2</ele>
        <time>2022-10-10T15:32:31Z</time>
      </trkpt>
      <trkpt lat="47.7569" lon="7.0183">
        <ele>379.8</ele>
        <time>2022-10-10T15:32:33Z</time>
      </trkpt>
      <trkpt lat="47.75695" lon="7.01817">
        <ele>379.8</ele>
        <time>2022-10-10T15:32:35Z</time>
      </trkpt>
      <trkpt lat="47.75689" lon="7.01795">
        <ele>379.8</ele>
        <time>2022-10-10T15:32:38Z</time>
      </trkpt>
      <trkpt lat="47.75689" lon="7.01779">
        <ele>379.8</ele>
        <time>2022-10-10T15:32:40Z</time>
      </trkpt>
      <trkpt lat="47.75691" lon="7.01771">
        <ele>379.8</ele>
        <time>2022-10-10T15:32:41Z</time>
      </trkpt>
      <trkpt lat="47.75709" lon="7.01717">
        <ele>380</ele>
        <time>2022-10-10T15:32:48Z</time>
      </trkpt>
      <trkpt lat="47.75732" lon="7.01648">
        <ele>380.9</ele>
        <time>2022-10-10T15:32:57Z</time>
      </trkpt>
      <trkpt lat="47.75755" lon="7.01577">
        <ele>381.8</ele>
        <time>2022-10-10T15:33:06Z</time>
      </trkpt>
      <trkpt lat="47.75768" lon="7.01511">
        <ele>382.6</ele>
        <time>2022-10-10T15:33:14Z</time>
      </trkpt>
      <trkpt lat="47.75778" lon="7.01461">
        <ele>383.1</ele>
        <time>2022-10-10T15:33:20Z</time>
      </trkpt>
      <trkpt lat="47.75781" lon="7.01453">
        <ele>383.2</ele>
        <time>2022-10-10T15:33:21Z</time>
      </trkpt>
      <trkpt lat="47.75801" lon="7.01389">
        <ele>383.7</ele>
        <time>2022-10-10T15:33:29Z</time>
      </trkpt>
      <trkpt lat="47.75824" lon="7.01339">
        <ele>383.9</ele>
        <time>2022-10-10T15:33:36Z</time>
      </trkpt>
      <trkpt lat="47.75845" lon="7.01291">
        <ele>384.2</ele>
        <time>2022-10-10T15:33:42Z</time>
      </trkpt>
      <trkpt lat="47.7586" lon="7.0126">
        <ele>384.5</ele>
        <time>2022-10-10T15:33:46Z</time>
      </trkpt>
      <trkpt lat="47.75869" lon="7.01247">
        <ele>384.5</ele>
        <time>2022-10-10T15:33:48Z</time>
      </trkpt>
      <trkpt lat="47.75899" lon="7.01216">
        <ele>384.8</ele>
        <time>2022-10-10T15:33:54Z</time>
      </trkpt>
      <trkpt lat="47.75936" lon="7.01185">
        <ele>385.3</ele>
        <time>2022-10-10T15:34:01Z</time>
      </trkpt>
      <trkpt lat="47.75984" lon="7.01151">
        <ele>385.9</ele>
        <time>2022-10-10T15:34:10Z</time>
      </trkpt>
      <trkpt lat="47.7603" lon="7.0113">
        <ele>386.3</ele>
        <time>2022-10-10T15:34:18Z</time>
      </trkpt>
      <trkpt lat="47.76048" lon="7.01126">
        <ele>386.5</ele>
        <time>2022-10-10T15:34:21Z</time>
      </trkpt>
      <trkpt lat="47.76064" lon="7.01124">
        <ele>386.8</ele>
        <time>2022-10-10T15:34:24Z</time>
      </trkpt>
      <trkpt lat="47.76108" lon="7.01114">
        <ele>387.7</ele>
        <time>2022-10-10T15:34:32Z</time>
      </trkpt>
      <trkpt lat="47.76157" lon="7.01091">
        <ele>388.6</ele>
        <time>2022-10-10T15:34:41Z</time>
      </trkpt>
      <trkpt lat="47.7619" lon="7.01073">
        <ele>389.2</ele>
        <time>2022-10-10T15:34:47Z</time>
      </trkpt>
      <trkpt lat="47.76228" lon="7.01049">
        <ele>389.9</ele>
        <time>2022-10-10T15:34:54Z</time>
      </trkpt>
      <trkpt lat="47.76269" lon="7.01013">
        <ele>390.5</ele>
        <time>2022-10-10T15:35:02Z</time>
      </trkpt>
      <trkpt lat="47.76301" lon="7.00986">
        <ele>391.1</ele>
        <time>2022-10-10T15:35:08Z</time>
      </trkpt>
      <trkpt lat="47.76336" lon="7.0095">
        <ele>391.5</ele>
        <time>2022-10-10T15:35:15Z</time>
      </trkpt>
      <trkpt lat="47.76367" lon="7.00923">
        <ele>391.5</ele>
        <time>2022-10-10T15:35:21Z</time>
      </trkpt>
      <trkpt lat="47.76399" lon="7.00894">
        <ele>391.4</ele>
        <time>2022-10-10T15:35:27Z</time>
      </trkpt>
      <trkpt lat="47.76437" lon="7.00865">
        <ele>391.4</ele>
        <time>2022-10-10T15:35:34Z</time>
      </trkpt>
      <trkpt lat="47.76454" lon="7.00853">
        <ele>391.4</ele>
        <time>2022-10-10T15:35:37Z</time>
      </trkpt>
      <trkpt lat="47.76465" lon="7.00846">
        <ele>391.4</ele>
        <time>2022-10-10T15:35:39Z</time>
      </trkpt>
      <trkpt lat="47.76499" lon="7.00824">
        <ele>391.5</ele>
        <time>2022-10-10T15:35:45Z</time>
      </trkpt>
      <trkpt lat="47.76541" lon="7.00799">
        <ele>391.4</ele>
        <time>2022-10-10T15:35:52Z</time>
      </trkpt>
      <trkpt lat="47.76595" lon="7.00767">
        <ele>391.9</ele>
        <time>2022-10-10T15:36:01Z</time>
      </trkpt>
      <trkpt lat="47.76632" lon="7.00757">
        <ele>392.5</ele>
        <time>2022-10-10T15:36:07Z</time>
      </trkpt>
      <trkpt lat="47.76682" lon="7.00746">
        <ele>393.5</ele>
        <time>2022-10-10T15:36:15Z</time>
      </trkpt>
      <trkpt lat="47.76711" lon="7.00741">
        <ele>394.1</ele>
        <time>2022-10-10T15:36:20Z</time>
      </trkpt>
      <trkpt lat="47.76716" lon="7.0074">
        <ele>394.2</ele>
        <time>2022-10-10T15:36:21Z</time>
      </trkpt>
      <trkpt lat="47.76727" lon="7.00737">
        <ele>394.3</ele>
        <time>2022-10-10T15:36:23Z</time>
      </trkpt>
      <trkpt lat="47.76743" lon="7.00732">
        <ele>394.5</ele>
        <time>2022-10-10T15:36:26Z</time>
      </trkpt>
      <trkpt lat="47.76772" lon="7.00712">
        <ele>394.9</ele>
        <time>2022-10-10T15:36:32Z</time>
      </trkpt>
      <trkpt lat="47.76804" lon="7.00678">
        <ele>395.4</ele>
        <time>2022-10-10T15:36:39Z</time>
      </trkpt>
      <trkpt lat="47.76808" lon="7.00672">
        <ele>395.5</ele>
        <time>2022-10-10T15:36:40Z</time>
      </trkpt>
      <trkpt lat="47.76826" lon="7.00639">
        <ele>396</ele>
        <time>2022-10-10T15:36:46Z</time>
      </trkpt>
      <trkpt lat="47.76852" lon="7.00593">
        <ele>396.6</ele>
        <time>2022-10-10T15:36:54Z</time>
      </trkpt>
      <trkpt lat="47.76882" lon="7.00541">
        <ele>397.2</ele>
        <time>2022-10-10T15:37:03Z</time>
      </trkpt>
      <trkpt lat="47.76896" lon="7.00516">
        <ele>397.4</ele>
        <time>2022-10-10T15:37:07Z</time>
      </trkpt>
      <trkpt lat="47.76908" lon="7.00501">
        <ele>397.6</ele>
        <time>2022-10-10T15:37:10Z</time>
      </trkpt>
      <trkpt lat="47.7694" lon="7.0047">
        <ele>398</ele>
        <time>2022-10-10T15:37:17Z</time>
      </trkpt>
      <trkpt lat="47.76988" lon="7.00429">
        <ele>398.4</ele>
        <time>2022-10-10T15:37:27Z</time>
      </trkpt>
      <trkpt lat="47.77036" lon="7.00387">
        <ele>399.3</ele>
        <time>2022-10-10T15:37:37Z</time>
      </trkpt>
      <trkpt lat="47.77073" lon="7.0035">
        <ele>399.9</ele>
        <time>2022-10-10T15:37:45Z</time>
      </trkpt>
      <trkpt lat="47.77092" lon="7.00334">
        <ele>400.1</ele>
        <time>2022-10-10T15:37:49Z</time>
      </trkpt>
      <trkpt lat="47.77102" lon="7.0033">
        <ele>400.2</ele>
        <time>2022-10-10T15:37:51Z</time>
      </trkpt>
      <trkpt lat="47.77107" lon="7.00328">
        <ele>400.3</ele>
        <time>2022-10-10T15:37:52Z</time>
      </trkpt>
      <trkpt lat="47.77143" lon="7.00309">
        <ele>400.6</ele>
        <time>2022-10-10T15:37:59Z</time>
      </trkpt>
      <trkpt lat="47.77181" lon="7.00282">
        <ele>400.8</ele>
        <time>2022-10-10T15:38:07Z</time>
      </trkpt>
      <trkpt lat="47.77216" lon="7.00249">
        <ele>400.8</ele>
        <time>2022-10-10T15:38:15Z</time>
      </trkpt>
      <trkpt lat="47.77244" lon="7.00211">
        <ele>401</ele>
        <time>2022-10-10T15:38:22Z</time>
      </trkpt>
      <trkpt lat="47.77273" lon="7.00167">
        <ele>401.3</ele>
        <time>2022-10-10T15:38:30Z</time>
      </trkpt>
      <trkpt lat="47.77302" lon="7.00124">
        <ele>401.7</ele>
        <time>2022-10-10T15:38:38Z</time>
      </trkpt>
      <trkpt lat="47.77322" lon="7.00094">
        <ele>402.1</ele>
        <time>2022-10-10T15:38:44Z</time>
      </trkpt>
      <trkpt lat="47.77336" lon="7.00069">
        <ele>402.5</ele>
        <time>2022-10-10T15:38:50Z</time>
      </trkpt>
      <trkpt lat="47.77357" lon="7.00034">
        <ele>402.9</ele>
        <time>2022-10-10T15:38:57Z</time>
      </trkpt>
      <trkpt lat="47.77365" lon="7.00031">
        <ele>403</ele>
        <time>2022-10-10T15:38:59Z</time>
      </trkpt>
      <trkpt lat="47.77368" lon="7.00034">
        <ele>403</ele>
        <time>2022-10-10T15:39:00Z</time>
      </trkpt>
      <trkpt lat="47.77382" lon="7.00054">
        <ele>403.1</ele>
        <time>2022-10-10T15:39:05Z</time>
      </trkpt>
      <trkpt lat="47.77395" lon="7.00074">
        <ele>403.2</ele>
        <time>2022-10-10T15:39:11Z</time>
      </trkpt>
      <trkpt lat="47.7741" lon="7.00098">
        <ele>403.4</ele>
        <time>2022-10-10T15:39:16Z</time>
      </trkpt>
      <trkpt lat="47.77413" lon="7.00102">
        <ele>403.4</ele>
        <time>2022-10-10T15:39:17Z</time>
      </trkpt>
      <trkpt lat="47.77432" lon="7.00125">
        <ele>403.5</ele>
        <time>2022-10-10T15:39:23Z</time>
      </trkpt>
      <trkpt lat="47.77458" lon="7.00154">
        <ele>403.7</ele>
        <time>2022-10-10T15:39:29Z</time>
      </trkpt>
      <trkpt lat="47.77463" lon="7.00157">
        <ele>403.7</ele>
        <time>2022-10-10T15:39:30Z</time>
      </trkpt>
      <trkpt lat="47.77488" lon="7.00181">
        <ele>404</ele>
        <time>2022-10-10T15:39:36Z</time>
      </trkpt>
      <trkpt lat="47.77515" lon="7.00206">
        <ele>405.1</ele>
        <time>2022-10-10T15:39:44Z</time>
      </trkpt>
      <trkpt lat="47.77545" lon="7.0024">
        <ele>406.5</ele>
        <time>2022-10-10T15:39:54Z</time>
      </trkpt>
      <trkpt lat="47.77552" lon="7.00257">
        <ele>406.8</ele>
        <time>2022-10-10T15:39:58Z</time>
      </trkpt>
      <trkpt lat="47.77567" lon="7.0028">
        <ele>407.3</ele>
        <time>2022-10-10T15:40:04Z</time>
      </trkpt>
      <trkpt lat="47.77584" lon="7.00308">
        <ele>407.7</ele>
        <time>2022-10-10T15:40:11Z</time>
      </trkpt>
      <trkpt lat="47.77588" lon="7.00336">
        <ele>408</ele>
        <time>2022-10-10T15:40:16Z</time>
      </trkpt>
      <trkpt lat="47.77592" lon="7.00372">
        <ele>408.5</ele>
        <time>2022-10-10T15:40:23Z</time>
      </trkpt>
      <trkpt lat="47.77606" lon="7.00409">
        <ele>409.5</ele>
        <time>2022-10-10T15:40:31Z</time>
      </trkpt>
      <trkpt lat="47.77613" lon="7.00428">
        <ele>410.3</ele>
        <time>2022-10-10T15:40:36Z</time>
      </trkpt>
      <trkpt lat="47.77622" lon="7.00452">
        <ele>411.5</ele>
        <time>2022-10-10T15:40:42Z</time>
      </trkpt>
      <trkpt lat="47.77627" lon="7.00468">
        <ele>412.4</ele>
        <time>2022-10-10T15:40:46Z</time>
      </trkpt>
      <trkpt lat="47.77633" lon="7.00489">
        <ele>413.5</ele>
        <time>2022-10-10T15:40:51Z</time>
      </trkpt>
      <trkpt lat="47.77639" lon="7.00507">
        <ele>414.6</ele>
        <time>2022-10-10T15:40:56Z</time>
      </trkpt>
      <trkpt lat="47.77644" lon="7.00531">
        <ele>416.2</ele>
        <time>2022-10-10T15:41:02Z</time>
      </trkpt>
      <trkpt lat="47.77649" lon="7.00549">
        <ele>417.4</ele>
        <time>2022-10-10T15:41:07Z</time>
      </trkpt>
      <trkpt lat="47.77653" lon="7.00569">
        <ele>418.8</ele>
        <time>2022-10-10T15:41:12Z</time>
      </trkpt>
      <trkpt lat="47.77655" lon="7.00579">
        <ele>419.4</ele>
        <time>2022-10-10T15:41:15Z</time>
      </trkpt>
      <trkpt lat="47.77656" lon="7.00583">
        <ele>419.8</ele>
        <time>2022-10-10T15:41:16Z</time>
      </trkpt>
      <trkpt lat="47.77658" lon="7.00608">
        <ele>420.9</ele>
        <time>2022-10-10T15:41:21Z</time>
      </trkpt>
      <trkpt lat="47.77654" lon="7.00624">
        <ele>421.4</ele>
        <time>2022-10-10T15:41:25Z</time>
      </trkpt>
      <trkpt lat="47.7765" lon="7.0065">
        <ele>421.7</ele>
        <time>2022-10-10T15:41:30Z</time>
      </trkpt>
      <trkpt lat="47.77655" lon="7.00675">
        <ele>421.5</ele>
        <time>2022-10-10T15:41:35Z</time>
      </trkpt>
      <trkpt lat="47.77666" lon="7.00709">
        <ele>421.4</ele>
        <time>2022-10-10T15:41:41Z</time>
      </trkpt>
      <trkpt lat="47.77674" lon="7.00745">
        <ele>421.2</ele>
        <time>2022-10-10T15:41:47Z</time>
      </trkpt>
      <trkpt lat="47.77678" lon="7.00757">
        <ele>421.1</ele>
        <time>2022-10-10T15:41:49Z</time>
      </trkpt>
      <trkpt lat="47.77689" lon="7.0078">
        <ele>421.2</ele>
        <time>2022-10-10T15:41:53Z</time>
      </trkpt>
      <trkpt lat="47.77691" lon="7.00786">
        <ele>421.3</ele>
        <time>2022-10-10T15:41:54Z</time>
      </trkpt>
      <trkpt lat="47.77694" lon="7.00799">
        <ele>421.5</ele>
        <time>2022-10-10T15:41:56Z</time>
      </trkpt>
      <trkpt lat="47.77694" lon="7.00805">
        <ele>421.5</ele>
        <time>2022-10-10T15:41:57Z</time>
      </trkpt>
      <trkpt lat="47.77689" lon="7.00828">
        <ele>421.9</ele>
        <time>2022-10-10T15:42:01Z</time>
      </trkpt>
      <trkpt lat="47.77677" lon="7.0087">
        <ele>423.4</ele>
        <time>2022-10-10T15:42:08Z</time>
      </trkpt>
      <trkpt lat="47.77667" lon="7.00907">
        <ele>424.6</ele>
        <time>2022-10-10T15:42:15Z</time>
      </trkpt>
      <trkpt lat="47.77665" lon="7.00917">
        <ele>425</ele>
        <time>2022-10-10T15:42:17Z</time>
      </trkpt>
      <trkpt lat="47.7766" lon="7.00935">
        <ele>426</ele>
        <time>2022-10-10T15:42:21Z</time>
      </trkpt>
      <trkpt lat="47.77651" lon="7.00959">
        <ele>427.6</ele>
        <time>2022-10-10T15:42:27Z</time>
      </trkpt>
      <trkpt lat="47.77642" lon="7.00981">
        <ele>429.4</ele>
        <time>2022-10-10T15:42:33Z</time>
      </trkpt>
      <trkpt lat="47.77632" lon="7.01002">
        <ele>431.1</ele>
        <time>2022-10-10T15:42:38Z</time>
      </trkpt>
      <trkpt lat="47.77629" lon="7.01016">
        <ele>432</ele>
        <time>2022-10-10T15:42:41Z</time>
      </trkpt>
      <trkpt lat="47.77629" lon="7.0102">
        <ele>432.3</ele>
        <time>2022-10-10T15:42:42Z</time>
      </trkpt>
      <trkpt lat="47.77627" lon="7.0104">
        <ele>433.6</ele>
        <time>2022-10-10T15:42:46Z</time>
      </trkpt>
      <trkpt lat="47.77627" lon="7.0106">
        <ele>434.9</ele>
        <time>2022-10-10T15:42:50Z</time>
      </trkpt>
      <trkpt lat="47.77625" lon="7.01079">
        <ele>436.5</ele>
        <time>2022-10-10T15:42:54Z</time>
      </trkpt>
      <trkpt lat="47.77621" lon="7.01094">
        <ele>438.1</ele>
        <time>2022-10-10T15:42:58Z</time>
      </trkpt>
      <trkpt lat="47.77617" lon="7.01108">
        <ele>439.7</ele>
        <time>2022-10-10T15:43:03Z</time>
      </trkpt>
      <trkpt lat="47.77615" lon="7.01112">
        <ele>440.2</ele>
        <time>2022-10-10T15:43:05Z</time>
      </trkpt>
      <trkpt lat="47.77611" lon="7.01117">
        <ele>441.1</ele>
        <time>2022-10-10T15:43:07Z</time>
      </trkpt>
      <trkpt lat="47.77607" lon="7.01123">
        <ele>441.9</ele>
        <time>2022-10-10T15:43:09Z</time>
      </trkpt>
      <trkpt lat="47.77606" lon="7.01129">
        <ele>442.5</ele>
        <time>2022-10-10T15:43:11Z</time>
      </trkpt>
      <trkpt lat="47.77602" lon="7.01144">
        <ele>444.1</ele>
        <time>2022-10-10T15:43:16Z</time>
      </trkpt>
      <trkpt lat="47.77596" lon="7.0116">
        <ele>445.7</ele>
        <time>2022-10-10T15:43:21Z</time>
      </trkpt>
      <trkpt lat="47.77593" lon="7.01163">
        <ele>446.1</ele>
        <time>2022-10-10T15:43:22Z</time>
      </trkpt>
      <trkpt lat="47.77586" lon="7.01175">
        <ele>447.3</ele>
        <time>2022-10-10T15:43:26Z</time>
      </trkpt>
      <trkpt lat="47.77575" lon="7.01194">
        <ele>449</ele>
        <time>2022-10-10T15:43:32Z</time>
      </trkpt>
      <trkpt lat="47.77565" lon="7.01208">
        <ele>450.2</ele>
        <time>2022-10-10T15:43:37Z</time>
      </trkpt>
      <trkpt lat="47.77552" lon="7.01224">
        <ele>451.6</ele>
        <time>2022-10-10T15:43:42Z</time>
      </trkpt>
      <trkpt lat="47.77543" lon="7.01243">
        <ele>453</ele>
        <time>2022-10-10T15:43:48Z</time>
      </trkpt>
      <trkpt lat="47.77534" lon="7.01266">
        <ele>454.7</ele>
        <time>2022-10-10T15:43:55Z</time>
      </trkpt>
      <trkpt lat="47.77529" lon="7.01288">
        <ele>456.6</ele>
        <time>2022-10-10T15:44:00Z</time>
      </trkpt>
      <trkpt lat="47.77523" lon="7.01307">
        <ele>458.4</ele>
        <time>2022-10-10T15:44:05Z</time>
      </trkpt>
      <trkpt lat="47.77522" lon="7.01326">
        <ele>460.2</ele>
        <time>2022-10-10T15:44:10Z</time>
      </trkpt>
      <trkpt lat="47.77519" lon="7.01357">
        <ele>463.3</ele>
        <time>2022-10-10T15:44:18Z</time>
      </trkpt>
      <trkpt lat="47.77519" lon="7.01362">
        <ele>463.8</ele>
        <time>2022-10-10T15:44:20Z</time>
      </trkpt>
      <trkpt lat="47.77519" lon="7.01375">
        <ele>465.1</ele>
        <time>2022-10-10T15:44:23Z</time>
      </trkpt>
      <trkpt lat="47.77517" lon="7.01396">
        <ele>467.3</ele>
        <time>2022-10-10T15:44:29Z</time>
      </trkpt>
      <trkpt lat="47.77517" lon="7.01417">
        <ele>469.4</ele>
        <time>2022-10-10T15:44:35Z</time>
      </trkpt>
      <trkpt lat="47.77514" lon="7.01443">
        <ele>472.4</ele>
        <time>2022-10-10T15:44:43Z</time>
      </trkpt>
      <trkpt lat="47.77513" lon="7.01447">
        <ele>472.8</ele>
        <time>2022-10-10T15:44:44Z</time>
      </trkpt>
      <trkpt lat="47.77509" lon="7.01456">
        <ele>474</ele>
        <time>2022-10-10T15:44:47Z</time>
      </trkpt>
      <trkpt lat="47.77501" lon="7.01469">
        <ele>476</ele>
        <time>2022-10-10T15:44:52Z</time>
      </trkpt>
      <trkpt lat="47.77495" lon="7.01489">
        <ele>478.5</ele>
        <time>2022-10-10T15:44:59Z</time>
      </trkpt>
      <trkpt lat="47.77491" lon="7.015">
        <ele>479.8</ele>
        <time>2022-10-10T15:45:03Z</time>
      </trkpt>
      <trkpt lat="47.77491" lon="7.01503">
        <ele>480.1</ele>
        <time>2022-10-10T15:45:04Z</time>
      </trkpt>
      <trkpt lat="47.77487" lon="7.01522">
        <ele>482.2</ele>
        <time>2022-10-10T15:45:10Z</time>
      </trkpt>
      <trkpt lat="47.77487" lon="7.01532">
        <ele>483.2</ele>
        <time>2022-10-10T15:45:12Z</time>
      </trkpt>
      <trkpt lat="47.77485" lon="7.01539">
        <ele>484</ele>
        <time>2022-10-10T15:45:14Z</time>
      </trkpt>
      <trkpt lat="47.77488" lon="7.01557">
        <ele>485.9</ele>
        <time>2022-10-10T15:45:19Z</time>
      </trkpt>
      <trkpt lat="47.77491" lon="7.01578">
        <ele>488.1</ele>
        <time>2022-10-10T15:45:25Z</time>
      </trkpt>
      <trkpt lat="47.77492" lon="7.0159">
        <ele>489.4</ele>
        <time>2022-10-10T15:45:30Z</time>
      </trkpt>
      <trkpt lat="47.77502" lon="7.01593">
        <ele>490.8</ele>
        <time>2022-10-10T15:45:34Z</time>
      </trkpt>
      <trkpt lat="47.77518" lon="7.01582">
        <ele>492.7</ele>
        <time>2022-10-10T15:45:40Z</time>
      </trkpt>
      <trkpt lat="47.77534" lon="7.01571">
        <ele>494.4</ele>
        <time>2022-10-10T15:45:46Z</time>
      </trkpt>
      <trkpt lat="47.77546" lon="7.01567">
        <ele>495.7</ele>
        <time>2022-10-10T15:45:50Z</time>
      </trkpt>
      <trkpt lat="47.7756" lon="7.01566">
        <ele>497.1</ele>
        <time>2022-10-10T15:45:55Z</time>
      </trkpt>
      <trkpt lat="47.77577" lon="7.01568">
        <ele>498.8</ele>
        <time>2022-10-10T15:46:01Z</time>
      </trkpt>
      <trkpt lat="47.77592" lon="7.01569">
        <ele>500.2</ele>
        <time>2022-10-10T15:46:06Z</time>
      </trkpt>
      <trkpt lat="47.77609" lon="7.0157">
        <ele>501.8</ele>
        <time>2022-10-10T15:46:12Z</time>
      </trkpt>
      <trkpt lat="47.77629" lon="7.01571">
        <ele>503.9</ele>
        <time>2022-10-10T15:46:19Z</time>
      </trkpt>
      <trkpt lat="47.7765" lon="7.01573">
        <ele>506.4</ele>
        <time>2022-10-10T15:46:26Z</time>
      </trkpt>
      <trkpt lat="47.77669" lon="7.01581">
        <ele>508.8</ele>
        <time>2022-10-10T15:46:33Z</time>
      </trkpt>
      <trkpt lat="47.77684" lon="7.0159">
        <ele>510.8</ele>
        <time>2022-10-10T15:46:39Z</time>
      </trkpt>
      <trkpt lat="47.77695" lon="7.01594">
        <ele>512.3</ele>
        <time>2022-10-10T15:46:43Z</time>
      </trkpt>
      <trkpt lat="47.77712" lon="7.01605">
        <ele>514.9</ele>
        <time>2022-10-10T15:46:50Z</time>
      </trkpt>
      <trkpt lat="47.77713" lon="7.01619">
        <ele>516.4</ele>
        <time>2022-10-10T15:46:55Z</time>
      </trkpt>
      <trkpt lat="47.77704" lon="7.0163">
        <ele>518</ele>
        <time>2022-10-10T15:47:00Z</time>
      </trkpt>
      <trkpt lat="47.77691" lon="7.01639">
        <ele>519.5</ele>
        <time>2022-10-10T15:47:05Z</time>
      </trkpt>
      <trkpt lat="47.77675" lon="7.01648">
        <ele>521.3</ele>
        <time>2022-10-10T15:47:12Z</time>
      </trkpt>
      <trkpt lat="47.77666" lon="7.01658">
        <ele>522.7</ele>
        <time>2022-10-10T15:47:17Z</time>
      </trkpt>
      <trkpt lat="47.77651" lon="7.01668">
        <ele>524.7</ele>
        <time>2022-10-10T15:47:23Z</time>
      </trkpt>
      <trkpt lat="47.77636" lon="7.01683">
        <ele>526.6</ele>
        <time>2022-10-10T15:47:30Z</time>
      </trkpt>
      <trkpt lat="47.77625" lon="7.01698">
        <ele>527.9</ele>
        <time>2022-10-10T15:47:36Z</time>
      </trkpt>
      <trkpt lat="47.77617" lon="7.01708">
        <ele>528.7</ele>
        <time>2022-10-10T15:47:40Z</time>
      </trkpt>
      <trkpt lat="47.77604" lon="7.01722">
        <ele>529.8</ele>
        <time>2022-10-10T15:47:45Z</time>
      </trkpt>
      <trkpt lat="47.77586" lon="7.01733">
        <ele>530.7</ele>
        <time>2022-10-10T15:47:50Z</time>
      </trkpt>
      <trkpt lat="47.77563" lon="7.01741">
        <ele>531.8</ele>
        <time>2022-10-10T15:47:56Z</time>
      </trkpt>
      <trkpt lat="47.77545" lon="7.0175">
        <ele>533.2</ele>
        <time>2022-10-10T15:48:01Z</time>
      </trkpt>
      <trkpt lat="47.7753" lon="7.01764">
        <ele>534.3</ele>
        <time>2022-10-10T15:48:06Z</time>
      </trkpt>
      <trkpt lat="47.77512" lon="7.01784">
        <ele>535.6</ele>
        <time>2022-10-10T15:48:12Z</time>
      </trkpt>
      <trkpt lat="47.77495" lon="7.01805">
        <ele>536.9</ele>
        <time>2022-10-10T15:48:18Z</time>
      </trkpt>
      <trkpt lat="47.77479" lon="7.01822">
        <ele>538</ele>
        <time>2022-10-10T15:48:25Z</time>
      </trkpt>
      <trkpt lat="47.77465" lon="7.01833">
        <ele>539.1</ele>
        <time>2022-10-10T15:48:30Z</time>
      </trkpt>
      <trkpt lat="47.77445" lon="7.01847">
        <ele>540.7</ele>
        <time>2022-10-10T15:48:38Z</time>
      </trkpt>
      <trkpt lat="47.77427" lon="7.01851">
        <ele>542</ele>
        <time>2022-10-10T15:48:44Z</time>
      </trkpt>
      <trkpt lat="47.7741" lon="7.01841">
        <ele>543.1</ele>
        <time>2022-10-10T15:48:49Z</time>
      </trkpt>
      <trkpt lat="47.77396" lon="7.01824">
        <ele>544</ele>
        <time>2022-10-10T15:48:55Z</time>
      </trkpt>
      <trkpt lat="47.77379" lon="7.01804">
        <ele>545</ele>
        <time>2022-10-10T15:49:02Z</time>
      </trkpt>
      <trkpt lat="47.77362" lon="7.01803">
        <ele>545.9</ele>
        <time>2022-10-10T15:49:07Z</time>
      </trkpt>
      <trkpt lat="47.77349" lon="7.01816">
        <ele>547.4</ele>
        <time>2022-10-10T15:49:12Z</time>
      </trkpt>
      <trkpt lat="47.77343" lon="7.01834">
        <ele>548.9</ele>
        <time>2022-10-10T15:49:17Z</time>
      </trkpt>
      <trkpt lat="47.7734" lon="7.01855">
        <ele>550.7</ele>
        <time>2022-10-10T15:49:23Z</time>
      </trkpt>
      <trkpt lat="47.77344" lon="7.01876">
        <ele>551.1</ele>
        <time>2022-10-10T15:49:29Z</time>
      </trkpt>
      <trkpt lat="47.77354" lon="7.01889">
        <ele>552.5</ele>
        <time>2022-10-10T15:49:34Z</time>
      </trkpt>
      <trkpt lat="47.77368" lon="7.01903">
        <ele>554.1</ele>
        <time>2022-10-10T15:49:40Z</time>
      </trkpt>
      <trkpt lat="47.77378" lon="7.01912">
        <ele>554.9</ele>
        <time>2022-10-10T15:49:45Z</time>
      </trkpt>
      <trkpt lat="47.77391" lon="7.01919">
        <ele>556.6</ele>
        <time>2022-10-10T15:49:52Z</time>
      </trkpt>
      <trkpt lat="47.77406" lon="7.01922">
        <ele>558</ele>
        <time>2022-10-10T15:49:57Z</time>
      </trkpt>
      <trkpt lat="47.77428" lon="7.01927">
        <ele>559.6</ele>
        <time>2022-10-10T15:50:04Z</time>
      </trkpt>
      <trkpt lat="47.77445" lon="7.01926">
        <ele>560.7</ele>
        <time>2022-10-10T15:50:09Z</time>
      </trkpt>
      <trkpt lat="47.77464" lon="7.01923">
        <ele>562.2</ele>
        <time>2022-10-10T15:50:15Z</time>
      </trkpt>
      <trkpt lat="47.77481" lon="7.01919">
        <ele>563.9</ele>
        <time>2022-10-10T15:50:21Z</time>
      </trkpt>
      <trkpt lat="47.77501" lon="7.01915">
        <ele>565.6</ele>
        <time>2022-10-10T15:50:27Z</time>
      </trkpt>
      <trkpt lat="47.77518" lon="7.01912">
        <ele>566.8</ele>
        <time>2022-10-10T15:50:32Z</time>
      </trkpt>
      <trkpt lat="47.77535" lon="7.01914">
        <ele>568</ele>
        <time>2022-10-10T15:50:37Z</time>
      </trkpt>
      <trkpt lat="47.77554" lon="7.01918">
        <ele>569.4</ele>
        <time>2022-10-10T15:50:43Z</time>
      </trkpt>
      <trkpt lat="47.77575" lon="7.01923">
        <ele>571.1</ele>
        <time>2022-10-10T15:50:49Z</time>
      </trkpt>
      <trkpt lat="47.77581" lon="7.01925">
        <ele>571.6</ele>
        <time>2022-10-10T15:50:53Z</time>
      </trkpt>
      <trkpt lat="47.77599" lon="7.01933">
        <ele>572.9</ele>
        <time>2022-10-10T15:50:58Z</time>
      </trkpt>
      <trkpt lat="47.77613" lon="7.0194">
        <ele>573.8</ele>
        <time>2022-10-10T15:51:02Z</time>
      </trkpt>
      <trkpt lat="47.77629" lon="7.01948">
        <ele>575</ele>
        <time>2022-10-10T15:51:07Z</time>
      </trkpt>
      <trkpt lat="47.77646" lon="7.01954">
        <ele>576.4</ele>
        <time>2022-10-10T15:51:12Z</time>
      </trkpt>
      <trkpt lat="47.77664" lon="7.01953">
        <ele>578</ele>
        <time>2022-10-10T15:51:17Z</time>
      </trkpt>
      <trkpt lat="47.77679" lon="7.0195">
        <ele>579.2</ele>
        <time>2022-10-10T15:51:21Z</time>
      </trkpt>
      <trkpt lat="47.77693" lon="7.01947">
        <ele>580.4</ele>
        <time>2022-10-10T15:51:25Z</time>
      </trkpt>
      <trkpt lat="47.77713" lon="7.01946">
        <ele>581.9</ele>
        <time>2022-10-10T15:51:30Z</time>
      </trkpt>
      <trkpt lat="47.77722" lon="7.01946">
        <ele>582.5</ele>
        <time>2022-10-10T15:51:33Z</time>
      </trkpt>
      <trkpt lat="47.77738" lon="7.01942">
        <ele>583.6</ele>
        <time>2022-10-10T15:51:38Z</time>
      </trkpt>
      <trkpt lat="47.77756" lon="7.0193">
        <ele>585</ele>
        <time>2022-10-10T15:51:43Z</time>
      </trkpt>
      <trkpt lat="47.77766" lon="7.01915">
        <ele>586.2</ele>
        <time>2022-10-10T15:51:47Z</time>
      </trkpt>
      <trkpt lat="47.77776" lon="7.01902">
        <ele>587.2</ele>
        <time>2022-10-10T15:51:51Z</time>
      </trkpt>
      <trkpt lat="47.77778" lon="7.01898">
        <ele>587.5</ele>
        <time>2022-10-10T15:51:52Z</time>
      </trkpt>
      <trkpt lat="47.77801" lon="7.01885">
        <ele>589.3</ele>
        <time>2022-10-10T15:51:58Z</time>
      </trkpt>
      <trkpt lat="47.77819" lon="7.01878">
        <ele>590.6</ele>
        <time>2022-10-10T15:52:03Z</time>
      </trkpt>
      <trkpt lat="47.77837" lon="7.01867">
        <ele>592</ele>
        <time>2022-10-10T15:52:08Z</time>
      </trkpt>
      <trkpt lat="47.77851" lon="7.0185">
        <ele>593.4</ele>
        <time>2022-10-10T15:52:13Z</time>
      </trkpt>
      <trkpt lat="47.77867" lon="7.01831">
        <ele>595</ele>
        <time>2022-10-10T15:52:18Z</time>
      </trkpt>
      <trkpt lat="47.77886" lon="7.01813">
        <ele>596.8</ele>
        <time>2022-10-10T15:52:24Z</time>
      </trkpt>
      <trkpt lat="47.77906" lon="7.018">
        <ele>598.5</ele>
        <time>2022-10-10T15:52:30Z</time>
      </trkpt>
      <trkpt lat="47.77921" lon="7.01797">
        <ele>599.7</ele>
        <time>2022-10-10T15:52:35Z</time>
      </trkpt>
      <trkpt lat="47.77935" lon="7.01802">
        <ele>600.7</ele>
        <time>2022-10-10T15:52:39Z</time>
      </trkpt>
      <trkpt lat="47.77949" lon="7.01816">
        <ele>601.9</ele>
        <time>2022-10-10T15:52:44Z</time>
      </trkpt>
      <trkpt lat="47.77959" lon="7.01832">
        <ele>602.8</ele>
        <time>2022-10-10T15:52:48Z</time>
      </trkpt>
      <trkpt lat="47.77971" lon="7.01852">
        <ele>604</ele>
        <time>2022-10-10T15:52:52Z</time>
      </trkpt>
      <trkpt lat="47.7798" lon="7.01878">
        <ele>605.3</ele>
        <time>2022-10-10T15:52:57Z</time>
      </trkpt>
      <trkpt lat="47.77982" lon="7.01882">
        <ele>605.5</ele>
        <time>2022-10-10T15:52:58Z</time>
      </trkpt>
      <trkpt lat="47.77991" lon="7.01907">
        <ele>606.7</ele>
        <time>2022-10-10T15:53:03Z</time>
      </trkpt>
      <trkpt lat="47.77996" lon="7.01927">
        <ele>607.6</ele>
        <time>2022-10-10T15:53:07Z</time>
      </trkpt>
      <trkpt lat="47.78002" lon="7.01951">
        <ele>608.6</ele>
        <time>2022-10-10T15:53:12Z</time>
      </trkpt>
      <trkpt lat="47.78011" lon="7.01971">
        <ele>609.6</ele>
        <time>2022-10-10T15:53:17Z</time>
      </trkpt>
      <trkpt lat="47.78017" lon="7.01991">
        <ele>610.5</ele>
        <time>2022-10-10T15:53:22Z</time>
      </trkpt>
      <trkpt lat="47.78027" lon="7.02016">
        <ele>611.7</ele>
        <time>2022-10-10T15:53:27Z</time>
      </trkpt>
      <trkpt lat="47.78029" lon="7.02021">
        <ele>611.9</ele>
        <time>2022-10-10T15:53:28Z</time>
      </trkpt>
      <trkpt lat="47.78038" lon="7.02049">
        <ele>612.8</ele>
        <time>2022-10-10T15:53:33Z</time>
      </trkpt>
      <trkpt lat="47.78043" lon="7.02084">
        <ele>613.6</ele>
        <time>2022-10-10T15:53:39Z</time>
      </trkpt>
      <trkpt lat="47.78049" lon="7.02106">
        <ele>614.1</ele>
        <time>2022-10-10T15:53:44Z</time>
      </trkpt>
      <trkpt lat="47.78056" lon="7.02124">
        <ele>614.6</ele>
        <time>2022-10-10T15:53:49Z</time>
      </trkpt>
      <trkpt lat="47.78069" lon="7.02138">
        <ele>615.1</ele>
        <time>2022-10-10T15:53:53Z</time>
      </trkpt>
      <trkpt lat="47.78085" lon="7.02146">
        <ele>615.6</ele>
        <time>2022-10-10T15:53:57Z</time>
      </trkpt>
      <trkpt lat="47.78106" lon="7.02145">
        <ele>616.1</ele>
        <time>2022-10-10T15:54:02Z</time>
      </trkpt>
      <trkpt lat="47.78129" lon="7.02136">
        <ele>616.5</ele>
        <time>2022-10-10T15:54:08Z</time>
      </trkpt>
      <trkpt lat="47.78141" lon="7.02127">
        <ele>616.3</ele>
        <time>2022-10-10T15:54:11Z</time>
      </trkpt>
      <trkpt lat="47.78153" lon="7.0212">
        <ele>616.1</ele>
        <time>2022-10-10T15:54:14Z</time>
      </trkpt>
      <trkpt lat="47.78166" lon="7.02114">
        <ele>615.8</ele>
        <time>2022-10-10T15:54:17Z</time>
      </trkpt>
      <trkpt lat="47.78177" lon="7.02115">
        <ele>615.6</ele>
        <time>2022-10-10T15:54:19Z</time>
      </trkpt>
      <trkpt lat="47.78201" lon="7.02124">
        <ele>615.2</ele>
        <time>2022-10-10T15:54:24Z</time>
      </trkpt>
      <trkpt lat="47.78212" lon="7.02124">
        <ele>615.1</ele>
        <time>2022-10-10T15:54:26Z</time>
      </trkpt>
      <trkpt lat="47.78223" lon="7.02121">
        <ele>615.1</ele>
        <time>2022-10-10T15:54:28Z</time>
      </trkpt>
      <trkpt lat="47.78228" lon="7.0212">
        <ele>615.1</ele>
        <time>2022-10-10T15:54:29Z</time>
      </trkpt>
      <trkpt lat="47.78238" lon="7.02112">
        <ele>615.1</ele>
        <time>2022-10-10T15:54:31Z</time>
      </trkpt>
      <trkpt lat="47.78242" lon="7.02108">
        <ele>615.1</ele>
        <time>2022-10-10T15:54:32Z</time>
      </trkpt>
      <trkpt lat="47.78246" lon="7.02102">
        <ele>615</ele>
        <time>2022-10-10T15:54:33Z</time>
      </trkpt>
      <trkpt lat="47.78257" lon="7.0208">
        <ele>614.7</ele>
        <time>2022-10-10T15:54:36Z</time>
      </trkpt>
      <trkpt lat="47.78266" lon="7.02067">
        <ele>614.5</ele>
        <time>2022-10-10T15:54:38Z</time>
      </trkpt>
      <trkpt lat="47.78276" lon="7.02058">
        <ele>614.3</ele>
        <time>2022-10-10T15:54:40Z</time>
      </trkpt>
      <trkpt lat="47.78282" lon="7.02054">
        <ele>614.2</ele>
        <time>2022-10-10T15:54:41Z</time>
      </trkpt>
      <trkpt lat="47.78288" lon="7.02052">
        <ele>614.2</ele>
        <time>2022-10-10T15:54:42Z</time>
      </trkpt>
      <trkpt lat="47.78311" lon="7.02049">
        <ele>614.2</ele>
        <time>2022-10-10T15:54:46Z</time>
      </trkpt>
      <trkpt lat="47.78326" lon="7.02048">
        <ele>614.4</ele>
        <time>2022-10-10T15:54:49Z</time>
      </trkpt>
      <trkpt lat="47.78331" lon="7.02048">
        <ele>614.5</ele>
        <time>2022-10-10T15:54:50Z</time>
      </trkpt>
      <trkpt lat="47.78348" lon="7.02048">
        <ele>614.7</ele>
        <time>2022-10-10T15:54:53Z</time>
      </trkpt>
      <trkpt lat="47.78359" lon="7.02052">
        <ele>614.7</ele>
        <time>2022-10-10T15:54:55Z</time>
      </trkpt>
      <trkpt lat="47.78364" lon="7.02054">
        <ele>614.8</ele>
        <time>2022-10-10T15:54:56Z</time>
      </trkpt>
      <trkpt lat="47.78375" lon="7.02061">
        <ele>614.7</ele>
        <time>2022-10-10T15:54:58Z</time>
      </trkpt>
      <trkpt lat="47.78388" lon="7.02076">
        <ele>614.6</ele>
        <time>2022-10-10T15:55:01Z</time>
      </trkpt>
      <trkpt lat="47.78404" lon="7.021">
        <ele>614.4</ele>
        <time>2022-10-10T15:55:05Z</time>
      </trkpt>
      <trkpt lat="47.78408" lon="7.02106">
        <ele>614.3</ele>
        <time>2022-10-10T15:55:06Z</time>
      </trkpt>
      <trkpt lat="47.78421" lon="7.02134">
        <ele>614</ele>
        <time>2022-10-10T15:55:10Z</time>
      </trkpt>
      <trkpt lat="47.78424" lon="7.02142">
        <ele>613.9</ele>
        <time>2022-10-10T15:55:11Z</time>
      </trkpt>
      <trkpt lat="47.78433" lon="7.02167">
        <ele>613.5</ele>
        <time>2022-10-10T15:55:14Z</time>
      </trkpt>
      <trkpt lat="47.7844" lon="7.0218">
        <ele>613.3</ele>
        <time>2022-10-10T15:55:16Z</time>
      </trkpt>
      <trkpt lat="47.78451" lon="7.02188">
        <ele>613.2</ele>
        <time>2022-10-10T15:55:18Z</time>
      </trkpt>
      <trkpt lat="47.78456" lon="7.02191">
        <ele>613.2</ele>
        <time>2022-10-10T15:55:19Z</time>
      </trkpt>
      <trkpt lat="47.78462" lon="7.02193">
        <ele>613.1</ele>
        <time>2022-10-10T15:55:20Z</time>
      </trkpt>
      <trkpt lat="47.78477" lon="7.02199">
        <ele>612.9</ele>
        <time>2022-10-10T15:55:23Z</time>
      </trkpt>
      <trkpt lat="47.78493" lon="7.02209">
        <ele>612.7</ele>
        <time>2022-10-10T15:55:26Z</time>
      </trkpt>
      <trkpt lat="47.78502" lon="7.02217">
        <ele>612.5</ele>
        <time>2022-10-10T15:55:28Z</time>
      </trkpt>
      <trkpt lat="47.78516" lon="7.02234">
        <ele>612.2</ele>
        <time>2022-10-10T15:55:31Z</time>
      </trkpt>
      <trkpt lat="47.7852" lon="7.0224">
        <ele>612.1</ele>
        <time>2022-10-10T15:55:32Z</time>
      </trkpt>
      <trkpt lat="47.78542" lon="7.0227">
        <ele>612</ele>
        <time>2022-10-10T15:55:37Z</time>
      </trkpt>
      <trkpt lat="47.78556" lon="7.02288">
        <ele>611.9</ele>
        <time>2022-10-10T15:55:40Z</time>
      </trkpt>
      <trkpt lat="47.78566" lon="7.02299">
        <ele>611.9</ele>
        <time>2022-10-10T15:55:42Z</time>
      </trkpt>
      <trkpt lat="47.7858" lon="7.02316">
        <ele>612</ele>
        <time>2022-10-10T15:55:45Z</time>
      </trkpt>
      <trkpt lat="47.78588" lon="7.02328">
        <ele>612</ele>
        <time>2022-10-10T15:55:47Z</time>
      </trkpt>
      <trkpt lat="47.78613" lon="7.02362">
        <ele>611.9</ele>
        <time>2022-10-10T15:55:53Z</time>
      </trkpt>
      <trkpt lat="47.78618" lon="7.02368">
        <ele>611.9</ele>
        <time>2022-10-10T15:55:54Z</time>
      </trkpt>
      <trkpt lat="47.78627" lon="7.02384">
        <ele>611.8</ele>
        <time>2022-10-10T15:55:57Z</time>
      </trkpt>
      <trkpt lat="47.78629" lon="7.02389">
        <ele>611.8</ele>
        <time>2022-10-10T15:55:58Z</time>
      </trkpt>
      <trkpt lat="47.78633" lon="7.02395">
        <ele>611.8</ele>
        <time>2022-10-10T15:55:59Z</time>
      </trkpt>
      <trkpt lat="47.78641" lon="7.02407">
        <ele>611.6</ele>
        <time>2022-10-10T15:56:01Z</time>
      </trkpt>
      <trkpt lat="47.78645" lon="7.02414">
        <ele>611.6</ele>
        <time>2022-10-10T15:56:02Z</time>
      </trkpt>
      <trkpt lat="47.78657" lon="7.02429">
        <ele>611.3</ele>
        <time>2022-10-10T15:56:04Z</time>
      </trkpt>
      <trkpt lat="47.78669" lon="7.02453">
        <ele>611</ele>
        <time>2022-10-10T15:56:07Z</time>
      </trkpt>
      <trkpt lat="47.78698" lon="7.02504">
        <ele>609.9</ele>
        <time>2022-10-10T15:56:14Z</time>
      </trkpt>
      <trkpt lat="47.78701" lon="7.02512">
        <ele>609.6</ele>
        <time>2022-10-10T15:56:15Z</time>
      </trkpt>
      <trkpt lat="47.78709" lon="7.02524">
        <ele>608.9</ele>
        <time>2022-10-10T15:56:17Z</time>
      </trkpt>
      <trkpt lat="47.78712" lon="7.02529">
        <ele>608.5</ele>
        <time>2022-10-10T15:56:18Z</time>
      </trkpt>
      <trkpt lat="47.7872" lon="7.02538">
        <ele>607.7</ele>
        <time>2022-10-10T15:56:20Z</time>
      </trkpt>
      <trkpt lat="47.78725" lon="7.0254">
        <ele>607.2</ele>
        <time>2022-10-10T15:56:21Z</time>
      </trkpt>
      <trkpt lat="47.78731" lon="7.0254">
        <ele>606.7</ele>
        <time>2022-10-10T15:56:22Z</time>
      </trkpt>
      <trkpt lat="47.78741" lon="7.02531">
        <ele>605.3</ele>
        <time>2022-10-10T15:56:24Z</time>
      </trkpt>
      <trkpt lat="47.78754" lon="7.02511">
        <ele>604</ele>
        <time>2022-10-10T15:56:27Z</time>
      </trkpt>
      <trkpt lat="47.78764" lon="7.02502">
        <ele>603.7</ele>
        <time>2022-10-10T15:56:29Z</time>
      </trkpt>
      <trkpt lat="47.78779" lon="7.02489">
        <ele>603.4</ele>
        <time>2022-10-10T15:56:33Z</time>
      </trkpt>
      <trkpt lat="47.78789" lon="7.02496">
        <ele>603.2</ele>
        <time>2022-10-10T15:56:36Z</time>
      </trkpt>
      <trkpt lat="47.78792" lon="7.025">
        <ele>603.1</ele>
        <time>2022-10-10T15:56:37Z</time>
      </trkpt>
      <trkpt lat="47.7882" lon="7.02527">
        <ele>602.2</ele>
        <time>2022-10-10T15:56:44Z</time>
      </trkpt>
      <trkpt lat="47.78847" lon="7.0254">
        <ele>601.4</ele>
        <time>2022-10-10T15:56:50Z</time>
      </trkpt>
      <trkpt lat="47.78875" lon="7.02548">
        <ele>600.4</ele>
        <time>2022-10-10T15:56:55Z</time>
      </trkpt>
      <trkpt lat="47.78881" lon="7.0255">
        <ele>599.7</ele>
        <time>2022-10-10T15:56:59Z</time>
      </trkpt>
      <trkpt lat="47.78883" lon="7.02556">
        <ele>599.1</ele>
        <time>2022-10-10T15:57:03Z</time>
      </trkpt>
      <trkpt lat="47.78885" lon="7.02557">
        <ele>598.8</ele>
        <time>2022-10-10T15:57:04Z</time>
      </trkpt>
      <trkpt lat="47.78887" lon="7.02559">
        <ele>598.3</ele>
        <time>2022-10-10T15:57:05Z</time>
      </trkpt>
      <trkpt lat="47.78896" lon="7.02562">
        <ele>596.7</ele>
        <time>2022-10-10T15:57:08Z</time>
      </trkpt>
      <trkpt lat="47.78906" lon="7.02559">
        <ele>594.7</ele>
        <time>2022-10-10T15:57:12Z</time>
      </trkpt>
      <trkpt lat="47.78908" lon="7.02558">
        <ele>594.3</ele>
        <time>2022-10-10T15:57:13Z</time>
      </trkpt>
      <trkpt lat="47.78913" lon="7.0255">
        <ele>592.8</ele>
        <time>2022-10-10T15:57:16Z</time>
      </trkpt>
      <trkpt lat="47.78922" lon="7.02537">
        <ele>590.1</ele>
        <time>2022-10-10T15:57:20Z</time>
      </trkpt>
      <trkpt lat="47.78936" lon="7.02529">
        <ele>587.5</ele>
        <time>2022-10-10T15:57:23Z</time>
      </trkpt>
      <trkpt lat="47.78941" lon="7.02529">
        <ele>586.7</ele>
        <time>2022-10-10T15:57:24Z</time>
      </trkpt>
      <trkpt lat="47.78947" lon="7.0253">
        <ele>586.1</ele>
        <time>2022-10-10T15:57:25Z</time>
      </trkpt>
      <trkpt lat="47.78955" lon="7.02535">
        <ele>585.2</ele>
        <time>2022-10-10T15:57:27Z</time>
      </trkpt>
      <trkpt lat="47.78956" lon="7.02538">
        <ele>585</ele>
        <time>2022-10-10T15:57:28Z</time>
      </trkpt>
      <trkpt lat="47.7896" lon="7.02545">
        <ele>584.6</ele>
        <time>2022-10-10T15:57:30Z</time>
      </trkpt>
      <trkpt lat="47.78965" lon="7.02553">
        <ele>584</ele>
        <time>2022-10-10T15:57:32Z</time>
      </trkpt>
      <trkpt lat="47.78969" lon="7.02562">
        <ele>583.4</ele>
        <time>2022-10-10T15:57:34Z</time>
      </trkpt>
      <trkpt lat="47.78976" lon="7.02581">
        <ele>582.3</ele>
        <time>2022-10-10T15:57:37Z</time>
      </trkpt>
      <trkpt lat="47.78981" lon="7.02593">
        <ele>581.5</ele>
        <time>2022-10-10T15:57:39Z</time>
      </trkpt>
      <trkpt lat="47.78999" lon="7.02623">
        <ele>579</ele>
        <time>2022-10-10T15:57:45Z</time>
      </trkpt>
      <trkpt lat="47.79005" lon="7.02631">
        <ele>578.1</ele>
        <time>2022-10-10T15:57:47Z</time>
      </trkpt>
      <trkpt lat="47.79013" lon="7.02647">
        <ele>576.6</ele>
        <time>2022-10-10T15:57:50Z</time>
      </trkpt>
      <trkpt lat="47.79017" lon="7.02663">
        <ele>575.1</ele>
        <time>2022-10-10T15:57:53Z</time>
      </trkpt>
      <trkpt lat="47.79019" lon="7.02666">
        <ele>574.6</ele>
        <time>2022-10-10T15:57:54Z</time>
      </trkpt>
      <trkpt lat="47.7903" lon="7.02679">
        <ele>572.6</ele>
        <time>2022-10-10T15:57:58Z</time>
      </trkpt>
      <trkpt lat="47.79034" lon="7.0268">
        <ele>571.9</ele>
        <time>2022-10-10T15:57:59Z</time>
      </trkpt>
      <trkpt lat="47.79038" lon="7.02679">
        <ele>571.1</ele>
        <time>2022-10-10T15:58:00Z</time>
      </trkpt>
      <trkpt lat="47.79052" lon="7.02669">
        <ele>568.5</ele>
        <time>2022-10-10T15:58:03Z</time>
      </trkpt>
      <trkpt lat="47.79057" lon="7.02666">
        <ele>567.9</ele>
        <time>2022-10-10T15:58:04Z</time>
      </trkpt>
      <trkpt lat="47.79069" lon="7.02665">
        <ele>566.9</ele>
        <time>2022-10-10T15:58:06Z</time>
      </trkpt>
      <trkpt lat="47.7908" lon="7.0267">
        <ele>566</ele>
        <time>2022-10-10T15:58:08Z</time>
      </trkpt>
      <trkpt lat="47.79095" lon="7.02679">
        <ele>564.7</ele>
        <time>2022-10-10T15:58:11Z</time>
      </trkpt>
      <trkpt lat="47.79114" lon="7.0269">
        <ele>562.5</ele>
        <time>2022-10-10T15:58:15Z</time>
      </trkpt>
      <trkpt lat="47.79118" lon="7.02694">
        <ele>562</ele>
        <time>2022-10-10T15:58:16Z</time>
      </trkpt>
      <trkpt lat="47.79125" lon="7.02703">
        <ele>561.4</ele>
        <time>2022-10-10T15:58:18Z</time>
      </trkpt>
      <trkpt lat="47.79131" lon="7.02716">
        <ele>560.9</ele>
        <time>2022-10-10T15:58:20Z</time>
      </trkpt>
      <trkpt lat="47.79141" lon="7.02749">
        <ele>559.7</ele>
        <time>2022-10-10T15:58:25Z</time>
      </trkpt>
      <trkpt lat="47.79147" lon="7.02761">
        <ele>558.7</ele>
        <time>2022-10-10T15:58:27Z</time>
      </trkpt>
      <trkpt lat="47.79156" lon="7.0277">
        <ele>557.4</ele>
        <time>2022-10-10T15:58:29Z</time>
      </trkpt>
      <trkpt lat="47.79171" lon="7.02777">
        <ele>554.8</ele>
        <time>2022-10-10T15:58:32Z</time>
      </trkpt>
      <trkpt lat="47.79177" lon="7.02777">
        <ele>553.7</ele>
        <time>2022-10-10T15:58:33Z</time>
      </trkpt>
      <trkpt lat="47.79185" lon="7.02779">
        <ele>552.2</ele>
        <time>2022-10-10T15:58:35Z</time>
      </trkpt>
      <trkpt lat="47.79194" lon="7.0279">
        <ele>550.5</ele>
        <time>2022-10-10T15:58:37Z</time>
      </trkpt>
      <trkpt lat="47.79197" lon="7.02798">
        <ele>549.7</ele>
        <time>2022-10-10T15:58:38Z</time>
      </trkpt>
      <trkpt lat="47.79207" lon="7.02829">
        <ele>547.6</ele>
        <time>2022-10-10T15:58:42Z</time>
      </trkpt>
      <trkpt lat="47.79221" lon="7.02851">
        <ele>545.7</ele>
        <time>2022-10-10T15:58:47Z</time>
      </trkpt>
      <trkpt lat="47.79234" lon="7.02867">
        <ele>543.5</ele>
        <time>2022-10-10T15:58:51Z</time>
      </trkpt>
      <trkpt lat="47.79248" lon="7.02888">
        <ele>541.4</ele>
        <time>2022-10-10T15:58:56Z</time>
      </trkpt>
      <trkpt lat="47.79254" lon="7.029">
        <ele>540.1</ele>
        <time>2022-10-10T15:58:58Z</time>
      </trkpt>
      <trkpt lat="47.7926" lon="7.02911">
        <ele>538.6</ele>
        <time>2022-10-10T15:59:00Z</time>
      </trkpt>
      <trkpt lat="47.79272" lon="7.02916">
        <ele>536.7</ele>
        <time>2022-10-10T15:59:02Z</time>
      </trkpt>
      <trkpt lat="47.79278" lon="7.02916">
        <ele>535.6</ele>
        <time>2022-10-10T15:59:03Z</time>
      </trkpt>
      <trkpt lat="47.79293" lon="7.02916">
        <ele>533.3</ele>
        <time>2022-10-10T15:59:05Z</time>
      </trkpt>
      <trkpt lat="47.79308" lon="7.02912">
        <ele>531.5</ele>
        <time>2022-10-10T15:59:07Z</time>
      </trkpt>
      <trkpt lat="47.79316" lon="7.02912">
        <ele>530.5</ele>
        <time>2022-10-10T15:59:08Z</time>
      </trkpt>
      <trkpt lat="47.79332" lon="7.02914">
        <ele>528.9</ele>
        <time>2022-10-10T15:59:10Z</time>
      </trkpt>
      <trkpt lat="47.79338" lon="7.02916">
        <ele>528.2</ele>
        <time>2022-10-10T15:59:11Z</time>
      </trkpt>
      <trkpt lat="47.79348" lon="7.0292">
        <ele>527.3</ele>
        <time>2022-10-10T15:59:13Z</time>
      </trkpt>
      <trkpt lat="47.7936" lon="7.0292">
        <ele>526.8</ele>
        <time>2022-10-10T15:59:16Z</time>
      </trkpt>
      <trkpt lat="47.79369" lon="7.02918">
        <ele>527.3</ele>
        <time>2022-10-10T15:59:18Z</time>
      </trkpt>
      <trkpt lat="47.79376" lon="7.02912">
        <ele>527.7</ele>
        <time>2022-10-10T15:59:20Z</time>
      </trkpt>
      <trkpt lat="47.79385" lon="7.02906">
        <ele>528.2</ele>
        <time>2022-10-10T15:59:22Z</time>
      </trkpt>
      <trkpt lat="47.79394" lon="7.02902">
        <ele>528.8</ele>
        <time>2022-10-10T15:59:24Z</time>
      </trkpt>
      <trkpt lat="47.79403" lon="7.02906">
        <ele>529.4</ele>
        <time>2022-10-10T15:59:26Z</time>
      </trkpt>
      <trkpt lat="47.79409" lon="7.02917">
        <ele>529.9</ele>
        <time>2022-10-10T15:59:28Z</time>
      </trkpt>
      <trkpt lat="47.79412" lon="7.02929">
        <ele>530.5</ele>
        <time>2022-10-10T15:59:30Z</time>
      </trkpt>
      <trkpt lat="47.79419" lon="7.0296">
        <ele>532</ele>
        <time>2022-10-10T15:59:36Z</time>
      </trkpt>
      <trkpt lat="47.79417" lon="7.02985">
        <ele>533.3</ele>
        <time>2022-10-10T15:59:41Z</time>
      </trkpt>
      <trkpt lat="47.79414" lon="7.03008">
        <ele>534.4</ele>
        <time>2022-10-10T15:59:48Z</time>
      </trkpt>
      <trkpt lat="47.79414" lon="7.03011">
        <ele>534.6</ele>
        <time>2022-10-10T15:59:50Z</time>
      </trkpt>
      <trkpt lat="47.79413" lon="7.03011">
        <ele>534.6</ele>
        <time>2022-10-10T15:59:53Z</time>
      </trkpt>
      <trkpt lat="47.79413" lon="7.03011">
        <ele>534.6</ele>
        <time>2022-10-10T15:59:54Z</time>
      </trkpt>
    </trkseg>
  </trk>
</gpx>